# Wetter Temperatur Luftdruck Luftfeuchtigkeit Sichtweite Windgeschwindigkeit Windrichtung Zeit
1 Rain 25 1007 94 10000 3.6 230 14:52 23.01.2022
2 Rain 25 1007 94 10000 3.6 230 14:18 23.01.2022
3 Rain 26 1005 94 10000 1.03 190 12:46 23.01.2022
4 Rain 25 1005 94 10000 1.03 190 12:20 23.01.2022
5 Rain 26 1005 94 10000 5.14 300 11:26 23.01.2022
6 Rain 26 1005 93 10000 1.54 350 10:57 23.01.2022
7 Rain 26 1006 92 10000 0.51 60 10:25 23.01.2022
8 Rain 26 1006 92 10000 1.03 70 09:31 23.01.2022
9 Rain 26 1004 93 10000 1.54 110 08:49 23.01.2022
10 Clouds 29 1008 78 10000 4.12 270 03:49 23.01.2022
11 Clouds 27 1006 93 10000 1.54 210 01:38 23.01.2022
12 Rain 26 1007 91 10000 1.54 230 00:47 23.01.2022
13 Rain 26 1006 94 10000 4.12 240 23:59 22.01.2022
14 Thunderstorm 25 1006 94 10000 3.6 230 22:53 22.01.2022
15 Rain 25 1006 96 2000 3.6 290 22:33 22.01.2022
16 Clouds 28 1004 84 10000 2.57 250 20:46 22.01.2022
17 Clouds 28 1004 83 10000 4.12 270 19:46 22.01.2022
18 Clouds 28 1005 85 10000 4.12 280 18:38 22.01.2022
19 Clouds 28 1008 89 10000 4.12 280 17:49 22.01.2022
20 Clouds 27 1005 92 10000 1.03 240 17:29 22.01.2022
21 Clouds 27 1006 92 10000 1.03 270 16:54 22.01.2022
22 Clouds 27 1007 90 10000 1.03 280 15:45 22.01.2022
23 Rain 27 1006 90 10000 2.06 270 14:56 22.01.2022
24 Rain 28 1010 89 10000 1.54 270 13:31 22.01.2022
25 Rain 28 1006 86 10000 2.57 260 12:40 22.01.2022
26 Rain 28 1006 86 10000 2.57 260 12:20 22.01.2022
27 Rain 29 1005 82 10000 4.12 280 10:55 22.01.2022
28 Rain 29 1004 81 10000 3.6 290 10:27 22.01.2022
29 Rain 30 1004 77 10000 2.57 290 09:43 22.01.2022
30 Clouds 30 1004 75 10000 3.6 300 08:51 22.01.2022
31 Clouds 31 1004 76 10000 3.09 280 07:27 22.01.2022
32 Clouds 32 1007 72 10000 3.6 310 03:26 22.01.2022
33 Clouds 29 1006 82 10000 2.57 340 00:57 22.01.2022
34 Clouds 27 1006 93 10000 0.51 340 23:21 21.01.2022
35 Clouds 26 1010 90 8000 1.03 40 22:19 21.01.2022
36 Clouds 26 1006 89 10000 1.54 330 19:55 21.01.2022
37 Clouds 27 1009 85 10000 3.09 330 18:23 21.01.2022
38 Clouds 28 1010 84 10000 3.09 340 16:58 21.01.2022
39 Clouds 27 1007 90 10000 2.06 350 15:26 21.01.2022
40 Clouds 28 1006 83 10000 3.09 320 13:18 21.01.2022
41 Rain 28 1005 84 10000 3.09 350 12:26 21.01.2022
42 Clouds 28 1005 84 10000 2.57 350 11:26 21.01.2022
43 Rain 29 1005 83 10000 3.6 350 09:34 21.01.2022
44 Clouds 29 1004 81 10000 3.6 340 08:21 21.01.2022
45 Rain 28 1006 88 10000 2.57 60 04:37 21.01.2022
46 Clouds 26 1006 91 10000 1.54 110 23:20 20.01.2022
47 Clouds 25 1005 94 10000 2.06 120 21:50 20.01.2022
48 Clouds 25 1004 94 10000 2.06 110 21:31 20.01.2022
49 Clouds 25 1004 94 10000 1.54 80 20:31 20.01.2022
50 Clouds 25 1004 94 10000 1.54 50 19:19 20.01.2022
51 Rain 25 1005 94 10000 0.51 110 18:18 20.01.2022
52 Clouds 25 1006 94 10000 2.57 130 16:40 20.01.2022
53 Clouds 26 1007 94 10000 1.54 170 15:40 20.01.2022
54 Clouds 26 1007 94 10000 2.06 170 14:40 20.01.2022
55 Rain 26 1008 94 10000 2.06 200 13:32 20.01.2022
56 Rain 26 1007 94 10000 1.54 310 12:31 20.01.2022
57 Rain 26 1006 94 10000 1.03 310 11:36 20.01.2022
58 Rain 26 1005 91 10000 1.54 350 10:37 20.01.2022
59 Rain 27 1004 91 10000 2.57 330 09:29 20.01.2022
60 Rain 26 1004 93 1000 4.12 20 07:33 20.01.2022
61 Clouds 29 1006 81 10000 1.03 120 00:43 20.01.2022
62 Clouds 26 1005 94 10000 1.54 120 22:52 19.01.2022
63 Clouds 26 1005 94 10000 1.54 140 21:48 19.01.2022
64 Clouds 26 1005 93 10000 1.03 140 21:23 19.01.2022
65 Clouds 26 1004 93 10000 1.03 130 20:46 19.01.2022
66 Clouds 26 1006 92 10000 1.54 90 19:42 19.01.2022
67 Clouds 27 1007 86 10000 2.57 340 17:55 19.01.2022
68 Clouds 27 1007 88 10000 3.09 330 17:35 19.01.2022
69 Rain 27 1006 88 10000 3.6 320 16:46 19.01.2022
70 Clouds 27 1006 88 10000 2.57 340 14:42 19.01.2022
71 Rain 26 1005 92 10000 2.57 350 12:41 19.01.2022
72 Clouds 25 1004 91 8000 1.54 350 11:39 19.01.2022
73 Clouds 28 1005 82 10000 3.6 340 10:20 19.01.2022
74 Clouds 30 1004 71 10000 3.6 310 09:34 19.01.2022
75 Clouds 30 1004 76 10000 3.6 300 06:35 19.01.2022
76 Rain 27 1009 85 2000 1.03 170 02:38 19.01.2022
77 Clouds 27 1007 94 10000 2.06 140 23:19 18.01.2022
78 Clouds 26 1004 94 10000 1.54 150 22:19 18.01.2022
79 Clouds 27 1003 91 10000 1.54 190 20:55 18.01.2022
80 Clouds 27 1003 90 10000 1.54 260 19:54 18.01.2022
81 Clouds 27 1003 90 10000 1.03 250 19:36 18.01.2022
82 Clouds 27 1003 90 10000 1.03 260 18:51 18.01.2022
83 Clouds 28 1006 90 10000 1.03 260 17:58 18.01.2022
84 Clouds 28 1005 86 10000 2.57 250 16:40 18.01.2022
85 Clouds 28 1005 86 10000 2.57 260 15:41 18.01.2022
86 Clouds 28 1005 86 10000 2.57 260 15:21 18.01.2022
87 Rain 29 1005 85 10000 2.06 270 12:33 18.01.2022
88 Clouds 29 1005 77 10000 3.6 260 10:47 18.01.2022
89 Clouds 31 1004 71 10000 4.63 280 08:49 18.01.2022
90 Rain 30 1004 75 10000 4.12 290 07:51 18.01.2022
91 Clouds 30 1007 77 10000 4.63 310 02:33 18.01.2022
92 Clouds 28 1006 87 10000 2.57 280 23:38 17.01.2022
93 Clouds 27 1006 86 10000 2.57 270 22:26 17.01.2022
94 Clouds 27 1005 86 10000 2.57 270 21:34 17.01.2022
95 Rain 27 1010 86 10000 3.09 270 20:24 17.01.2022
96 Clouds 27 1006 86 10000 3.6 270 18:30 17.01.2022
97 Clouds 26 1006 90 10000 3.09 270 17:25 17.01.2022
98 Clouds 26 1014 89 10000 1.54 270 16:40 17.01.2022
99 Clouds 26 1007 89 10000 1.54 230 15:19 17.01.2022
100 Clouds 26 1007 87 10000 1.54 230 14:55 17.01.2022
101 Clouds 26 1007 87 10000 2.57 250 13:22 17.01.2022
102 Clouds 27 1007 87 10000 4.63 230 12:55 17.01.2022
103 Clouds 27 1007 86 10000 2.57 250 11:49 17.01.2022
104 Clouds 29 1006 82 10000 3.09 280 10:21 17.01.2022
105 Clouds 29 1006 81 10000 1.54 270 09:34 17.01.2022
106 Rain 28 1006 84 10000 3.6 210 07:24 17.01.2022
107 Rain 27 1008 85 5000 6.69 250 02:59 17.01.2022
108 Clouds 29 1009 85 10000 1.03 80 00:55 17.01.2022
109 Clouds 26 1007 93 10000 1.54 200 22:29 16.01.2022
110 Clouds 27 1006 87 10000 2.57 250 20:36 16.01.2022
111 Clouds 27 1006 90 10000 3.6 270 18:51 16.01.2022
112 Rain 27 1006 91 10000 3.6 300 17:59 16.01.2022
113 Rain 26 1007 94 10000 3.09 310 17:21 16.01.2022
114 Rain 26 1006 94 10000 2.06 350 16:33 16.01.2022
115 Rain 26 1008 96 10000 1.54 330 14:31 16.01.2022
116 Rain 26 1008 94 10000 2.06 350 13:46 16.01.2022
117 Clouds 26 1008 94 10000 0.51 280 12:48 16.01.2022
118 Rain 26 1009 94 10000 1.54 280 11:42 16.01.2022
119 Rain 26 1009 94 10000 2.57 280 10:54 16.01.2022
120 Rain 26 1009 94 10000 4.12 270 10:19 16.01.2022
121 Rain 26 1009 94 10000 4.12 270 10:19 16.01.2022
122 Rain 26 1008 89 10000 2.57 280 09:51 16.01.2022
123 Rain 26 1008 89 10000 2.57 280 09:22 16.01.2022
124 Rain 26 1008 89 10000 2.57 280 09:22 16.01.2022
125 Rain 25 1008 94 3000 2.57 260 07:33 16.01.2022
126 Clouds 31 1009 70 10000 4.63 340 02:36 16.01.2022
127 Clouds 30 1008 80 10000 4.12 350 23:49 15.01.2022
128 Clouds 28 1007 89 10000 2.57 350 21:46 15.01.2022
129 Clouds 28 1007 88 10000 2.57 350 21:19 15.01.2022
130 Clouds 28 1007 86 10000 3.6 340 20:40 15.01.2022
131 Clouds 28 1007 89 10000 3.6 350 19:29 15.01.2022
132 Clouds 28 1007 89 10000 3.09 360 18:44 15.01.2022
133 Clouds 28 1007 89 10000 3.09 360 17:25 15.01.2022
134 Clouds 28 1008 87 10000 3.09 350 15:50 15.01.2022
135 Clouds 29 1008 83 10000 4.12 330 13:55 15.01.2022
136 Rain 30 1006 79 10000 5.14 300 11:46 15.01.2022
137 Clouds 30 1008 76 10000 4.63 310 10:36 15.01.2022
138 Clouds 32 1006 67 10000 6.17 310 07:48 15.01.2022
139 Clouds 28 1008 87 10000 3.6 10 23:50 14.01.2022
140 Clouds 26 1006 94 10000 2.06 60 21:52 14.01.2022
141 Clouds 26 1007 94 10000 2.06 90 20:37 14.01.2022
142 Clouds 26 1006 94 10000 2.06 70 19:58 14.01.2022
143 Clouds 26 1006 93 10000 2.06 70 18:48 14.01.2022
144 Clouds 26 1007 91 10000 2.06 70 17:57 14.01.2022
145 Clouds 26 1007 93 10000 1.54 70 16:48 14.01.2022
146 Clear 26 1008 93 10000 1.54 50 15:37 14.01.2022
147 Rain 26 1008 93 10000 3.09 50 14:38 14.01.2022
148 Rain 27 1008 90 10000 2.06 50 13:34 14.01.2022
149 Rain 27 1007 89 10000 3.6 40 12:24 14.01.2022
150 Rain 27 1007 85 10000 3.6 40 10:50 14.01.2022
151 Rain 28 1006 83 10000 5.14 30 08:54 14.01.2022
152 Rain 28 1006 83 10000 5.14 30 08:20 14.01.2022
153 Clouds 32 1007 70 10000 5.66 20 03:55 14.01.2022
154 Clouds 29 1007 86 10000 4.12 20 00:50 14.01.2022
155 Clouds 26 1007 94 10000 2.06 10 22:46 13.01.2022
156 Clouds 26 1005 94 10000 2.57 20 21:31 13.01.2022
157 Clouds 26 1005 92 10000 3.09 20 20:56 13.01.2022
158 Rain 27 1005 88 10000 1.54 360 19:32 13.01.2022
159 Rain 27 1007 88 10000 3.09 280 18:57 13.01.2022
160 Clouds 27 1006 88 10000 2.57 360 17:25 13.01.2022
161 Clouds 27 1007 85 10000 2.06 350 16:19 13.01.2022
162 Clouds 28 1007 84 10000 2.57 360 15:35 13.01.2022
163 Clouds 28 1007 85 10000 4.12 360 13:48 13.01.2022
164 Rain 28 1006 85 10000 4.12 360 12:25 13.01.2022
165 Rain 26 1007 93 10000 3.09 330 09:38 13.01.2022
166 Rain 27 1004 89 8000 5.66 330 08:57 13.01.2022
167 Rain 29 1004 81 10000 6.69 340 08:26 13.01.2022
168 Rain 27 1007 89 10000 6.69 340 07:22 13.01.2022
169 Clouds 27 1007 88 10000 3.6 350 05:59 13.01.2022
170 Rain 31 1009 72 10000 5.66 300 05:19 13.01.2022
171 Clouds 31 1006 62 10000 6.17 320 01:53 13.01.2022
172 Clouds 30 1006 79 10000 5.66 340 00:40 13.01.2022
173 Clouds 29 1005 80 10000 6.69 340 23:45 12.01.2022
174 Clouds 29 1005 81 10000 6.17 350 22:59 12.01.2022
175 Rain 28 1004 78 10000 5.66 350 21:57 12.01.2022
176 Rain 29 1003 76 10000 5.66 340 21:22 12.01.2022
177 Rain 29 1003 76 10000 4.63 340 20:56 12.01.2022
178 Rain 29 1007 77 10000 8.75 320 19:41 12.01.2022
179 Clouds 29 1003 77 10000 5.66 320 18:30 12.01.2022
180 Clouds 29 1003 77 10000 5.66 320 18:30 12.01.2022
181 Clouds 28 1004 80 10000 4.63 310 17:20 12.01.2022
182 Clouds 28 1005 80 10000 5.66 300 16:28 12.01.2022
183 Clouds 28 1006 79 10000 4.63 290 14:48 12.01.2022
184 Clouds 28 1006 78 10000 5.66 310 12:59 12.01.2022
185 Clouds 28 1006 78 10000 5.66 310 12:59 12.01.2022
186 Clouds 28 1005 80 10000 4.12 300 10:48 12.01.2022
187 Clear 29 1004 74 10000 5.66 310 08:38 12.01.2022
188 Clear 29 1004 73 10000 5.66 310 07:49 12.01.2022
189 Clear 29 1004 73 10000 5.66 310 07:31 12.01.2022
190 Rain 23 1010 94 10000 5.66 120 23:53 11.01.2022
191 Rain 22 1009 94 2000 9.77 90 22:54 11.01.2022
192 Thunderstorm 22 1008 94 600 10.8 90 22:22 11.01.2022
193 Rain 29 1005 81 10000 6.17 290 20:54 11.01.2022
194 Rain 29 1005 81 10000 6.69 290 19:50 11.01.2022
195 Clouds 29 1005 79 10000 8.23 290 18:32 11.01.2022
196 Clouds 29 1005 82 10000 7.72 300 17:26 11.01.2022
197 Clouds 29 1006 81 10000 7.2 300 16:38 11.01.2022
198 Clouds 29 1007 81 10000 7.2 300 15:47 11.01.2022
199 Clouds 29 1007 82 10000 6.17 310 14:42 11.01.2022
200 Clouds 30 1007 81 10000 6.17 300 13:56 11.01.2022
201 Clouds 30 1007 80 10000 6.69 300 13:36 11.01.2022
202 Clouds 30 1007 80 10000 5.66 290 12:48 11.01.2022
203 Clouds 30 1007 80 10000 4.63 290 11:45 11.01.2022
204 Clouds 32 1006 73 10000 7.72 300 09:58 11.01.2022
205 Clouds 33 1007 64 10000 6.69 280 07:18 11.01.2022
206 Clouds 31 1009 75 10000 4.63 270 00:33 11.01.2022
207 Clouds 30 1009 79 10000 4.12 270 23:44 10.01.2022
208 Clouds 30 1009 80 10000 4.12 270 23:24 10.01.2022
209 Clouds 28 1008 82 10000 4.63 280 22:19 10.01.2022
210 Clouds 28 1007 82 10000 4.63 290 21:54 10.01.2022
211 Clouds 28 1007 82 10000 5.14 290 21:21 10.01.2022
212 Clouds 28 1007 82 10000 4.63 300 20:57 10.01.2022
213 Clouds 28 1007 82 10000 4.63 310 20:28 10.01.2022
214 Clouds 28 1007 82 10000 4.63 300 19:44 10.01.2022
215 Clouds 28 1007 83 10000 3.6 280 19:21 10.01.2022
216 Clouds 27 1007 85 10000 3.09 290 18:50 10.01.2022
217 Clouds 28 1008 84 10000 2.06 260 17:56 10.01.2022
218 Clouds 28 1009 82 10000 2.57 250 16:42 10.01.2022
219 Clear 29 1009 81 10000 2.06 260 15:49 10.01.2022
220 Clear 29 1009 80 10000 3.09 270 14:34 10.01.2022
221 Clear 29 1008 74 10000 3.6 270 12:22 10.01.2022
222 Clouds 30 1008 71 10000 4.63 260 11:25 10.01.2022
223 Clouds 32 1007 68 10000 5.66 280 09:53 10.01.2022
224 Clouds 33 1007 65 10000 6.69 270 08:22 10.01.2022
225 Clouds 33 1008 65 10000 6.69 280 05:50 10.01.2022
226 Clouds 32 1010 73 10000 3.09 280 01:33 10.01.2022
227 Clouds 30 1010 74 10000 1.03 280 00:29 10.01.2022
228 Clouds 29 1009 75 10000 1.03 70 23:43 09.01.2022
229 Clouds 26 1008 83 10000 1.03 70 22:42 09.01.2022
230 Clear 26 1008 81 10000 0 0 21:47 09.01.2022
231 Clear 26 1008 82 10000 0 0 21:24 09.01.2022
232 Clear 26 1008 82 10000 0 0 21:24 09.01.2022
233 Clouds 26 1008 83 10000 1.03 70 20:54 09.01.2022
234 Clouds 26 1007 83 10000 2.57 70 20:36 09.01.2022
235 Rain 26 1007 83 10000 2.57 70 20:18 09.01.2022
236 Rain 26 1008 81 10000 4.63 60 19:37 09.01.2022
237 Clouds 26 1008 81 10000 4.63 60 19:18 09.01.2022
238 Clouds 27 1009 82 10000 2.57 70 18:37 09.01.2022
239 Clouds 27 1008 79 10000 1.54 310 17:48 09.01.2022
240 Clouds 27 1010 77 10000 0.51 200 17:26 09.01.2022
241 Clouds 28 1009 79 10000 3.6 190 16:38 09.01.2022
242 Clouds 29 1011 74 10000 4.12 200 15:38 09.01.2022
243 Clouds 29 1010 77 10000 4.12 210 14:41 09.01.2022
244 Clouds 29 1010 77 10000 4.12 210 14:21 09.01.2022
245 Clouds 29 1009 80 10000 3.09 250 13:41 09.01.2022
246 Clouds 29 1007 71 10000 3.6 270 11:56 09.01.2022
247 Clouds 30 1007 72 10000 4.12 280 11:25 09.01.2022
248 Clouds 32 1005 66 10000 4.63 300 09:55 09.01.2022
249 Clouds 33 1005 58 10000 3.6 280 08:56 09.01.2022
250 Clouds 32 1007 63 10000 4.12 290 06:21 09.01.2022
251 Clouds 30 1010 68 10000 4.12 330 01:28 09.01.2022
252 Clouds 29 1010 73 10000 3.09 360 00:37 09.01.2022
253 Clouds 27 1010 81 10000 1.03 350 23:30 08.01.2022
254 Clouds 25 1009 88 10000 2.06 30 22:44 08.01.2022
255 Clouds 25 1009 88 10000 3.6 10 21:27 08.01.2022
256 Clouds 24 1009 94 10000 5.14 30 20:43 08.01.2022
257 Clouds 24 1009 94 10000 5.14 30 20:21 08.01.2022
258 Clouds 28 1009 82 10000 2.57 320 19:22 08.01.2022
259 Clouds 29 1008 82 10000 4.63 300 17:31 08.01.2022
260 Clouds 28 1008 82 10000 4.12 290 16:42 08.01.2022
261 Clear 28 1009 85 10000 3.6 290 15:28 08.01.2022
262 Clouds 29 1009 81 10000 5.14 300 13:58 08.01.2022
263 Clouds 30 1007 75 10000 3.09 290 11:41 08.01.2022
264 Clouds 31 1007 67 10000 4.63 290 10:33 08.01.2022
265 Clouds 32 1006 65 10000 5.66 300 09:57 08.01.2022
266 Clouds 33 1005 62 10000 5.14 290 09:34 08.01.2022
267 Clouds 34 1008 62 10000 6.17 300 06:18 08.01.2022
268 Clouds 32 1010 68 10000 5.14 260 01:41 08.01.2022
269 Clouds 30 1009 81 10000 3.09 260 23:31 07.01.2022
270 Clouds 28 1009 85 10000 3.6 260 21:49 07.01.2022
271 Clouds 28 1008 84 10000 2.57 270 20:34 07.01.2022
272 Clouds 28 1007 85 10000 3.09 290 19:27 07.01.2022
273 Clouds 28 1007 85 10000 3.09 290 19:27 07.01.2022
274 Clouds 28 1007 85 10000 3.6 290 18:49 07.01.2022
275 Clouds 28 1008 85 10000 3.6 280 18:21 07.01.2022
276 Clouds 28 1008 84 10000 2.57 270 17:24 07.01.2022
277 Clear 28 1010 81 10000 3.6 280 14:56 07.01.2022
278 Clear 29 1010 77 10000 4.12 280 13:52 07.01.2022
279 Clouds 29 1009 79 10000 4.12 280 12:51 07.01.2022
280 Clouds 30 1008 75 10000 4.63 280 11:28 07.01.2022
281 Clouds 32 1008 62 10000 4.63 250 04:54 07.01.2022
282 Clear 32 1009 62 10000 5.14 270 02:53 07.01.2022
283 Clear 31 1009 65 10000 4.63 270 01:49 07.01.2022
284 Clear 30 1009 74 10000 5.14 280 01:26 07.01.2022
285 Clear 30 1008 75 10000 6.17 300 00:31 07.01.2022
286 Clear 26 1008 89 10000 3.6 280 22:33 06.01.2022
287 Clouds 24 1008 94 10000 3.09 360 20:51 06.01.2022
288 Rain 24 1009 94 10000 4.63 10 20:18 06.01.2022
289 Rain 24 1010 94 10000 3.6 40 19:39 06.01.2022
290 Thunderstorm 24 1011 94 1300 5.66 150 17:52 06.01.2022
291 Rain 23 1010 100 900 11.32 140 17:28 06.01.2022
292 Rain 28 1010 81 10000 2.57 140 16:38 06.01.2022
293 Clouds 29 1010 81 10000 0.51 330 15:44 06.01.2022
294 Clouds 28 1010 81 10000 0.51 330 15:23 06.01.2022
295 Clouds 28 1009 81 10000 1.03 330 14:20 06.01.2022
296 Clouds 29 1008 78 10000 2.57 290 13:41 06.01.2022
297 Clear 29 1007 77 10000 4.63 290 12:28 06.01.2022
298 Clear 29 1007 77 10000 3.09 290 11:31 06.01.2022
299 Clouds 29 1007 74 10000 4.12 280 10:59 06.01.2022
300 Clouds 33 1007 58 10000 5.14 240 06:54 06.01.2022
301 Clear 30 1008 66 10000 4.12 310 00:35 06.01.2022
302 Clear 27 1008 82 10000 2.06 280 23:34 05.01.2022
303 Clear 25 1008 89 10000 2.57 290 22:48 05.01.2022
304 Clear 25 1007 86 10000 1.54 280 22:29 05.01.2022
305 Clear 25 1007 82 10000 3.09 320 21:43 05.01.2022
306 Clouds 26 1007 82 10000 4.63 340 20:44 05.01.2022
307 Rain 26 1008 83 10000 3.6 340 19:46 05.01.2022
308 Clouds 26 1009 88 10000 5.66 310 18:27 05.01.2022
309 Rain 25 1008 90 10000 2.57 40 16:58 05.01.2022
310 Rain 25 1007 89 10000 6.69 10 16:22 05.01.2022
311 Rain 24 1008 84 10000 6.69 10 15:20 05.01.2022
312 Thunderstorm 24 1009 81 10000 10.8 120 13:37 05.01.2022
313 Thunderstorm 27 1009 81 10000 7.2 50 12:46 05.01.2022
314 Clouds 31 1004 72 10000 6.17 290 08:47 05.01.2022
315 Rain 31 1004 74 10000 5.66 300 07:20 05.01.2022
316 Clouds 31 1007 74 10000 4.63 290 01:58 05.01.2022
317 Clouds 30 1007 80 10000 3.09 260 23:44 04.01.2022
318 Clouds 29 1007 83 10000 2.06 240 23:26 04.01.2022
319 Clouds 27 1007 81 10000 3.09 260 22:21 04.01.2022
320 Clouds 29 1006 84 10000 2.57 260 20:46 04.01.2022
321 Clouds 29 1007 84 10000 4.12 280 18:46 04.01.2022
322 Clouds 29 1005 82 10000 3.09 320 17:37 04.01.2022
323 Clouds 29 1006 82 10000 4.12 310 16:39 04.01.2022
324 Clouds 29 1007 82 10000 4.12 310 16:20 04.01.2022
325 Clouds 30 1007 81 10000 5.66 320 14:46 04.01.2022
326 Clouds 30 1007 81 10000 5.66 320 14:23 04.01.2022
327 Clouds 30 1005 82 10000 4.12 310 12:37 04.01.2022
328 Clouds 31 1004 76 10000 4.63 300 10:29 04.01.2022
329 Clouds 32 1003 66 10000 4.63 310 08:59 04.01.2022
330 Clouds 33 1005 66 10000 4.12 300 06:46 04.01.2022
331 Clouds 27 1007 89 10000 1.03 90 00:50 04.01.2022
332 Clouds 26 1008 87 10000 2.06 100 00:31 04.01.2022
333 Clear 25 1006 94 10000 1.03 110 22:30 03.01.2022
334 Clear 25 1006 94 10000 0 0 21:41 03.01.2022
335 Clouds 25 1006 94 10000 1.03 110 20:51 03.01.2022
336 Clouds 25 1005 94 10000 1.03 150 19:44 03.01.2022
337 Clouds 25 1005 94 10000 0.51 130 18:33 03.01.2022
338 Clouds 25 1006 94 10000 1.03 100 17:40 03.01.2022
339 Clouds 25 1007 94 10000 2.57 80 16:56 03.01.2022
340 Rain 25 1005 94 10000 2.06 340 14:54 03.01.2022
341 Clear 24 1004 94 10000 1.03 20 13:53 03.01.2022
342 Rain 24 1006 94 10000 1.54 80 12:33 03.01.2022
343 Rain 24 1007 88 10000 3.6 150 11:31 03.01.2022
344 Rain 24 1008 94 10000 6.69 180 09:49 03.01.2022
345 Rain 24 1009 94 1500 8.23 140 08:28 03.01.2022
346 Clouds 33 1005 65 10000 7.2 290 06:47 03.01.2022
347 Clouds 30 1007 75 10000 4.12 270 23:47 02.01.2022
348 Clouds 30 1007 77 10000 4.12 270 23:18 02.01.2022
349 Clouds 29 1006 81 10000 3.09 270 22:42 02.01.2022
350 Clouds 29 1005 81 10000 4.12 270 21:32 02.01.2022
351 Clouds 29 1004 84 10000 3.6 270 20:31 02.01.2022
352 Clouds 29 1004 84 10000 3.6 270 20:30 02.01.2022
353 Clouds 29 1004 84 10000 3.6 270 20:30 02.01.2022
354 Clouds 29 1004 84 10000 3.6 270 20:30 02.01.2022
355 Clouds 29 1006 84 10000 3.09 280 19:31 02.01.2022
356 Clouds 29 1006 84 10000 3.6 280 18:56 02.01.2022
357 Clouds 29 1005 84 10000 3.6 270 17:59 02.01.2022
358 Clouds 29 1006 84 10000 3.09 270 17:39 02.01.2022
359 Clouds 29 1005 84 10000 3.09 270 17:21 02.01.2022
360 Clouds 29 1006 83 10000 2.57 280 16:28 02.01.2022
361 Clouds 29 1008 78 10000 4.12 290 15:18 02.01.2022
362 Clouds 29 1007 81 10000 3.6 280 13:38 02.01.2022
363 Clouds 30 1006 80 10000 3.6 290 12:32 02.01.2022
364 Clouds 29 1006 81 10000 4.12 280 11:49 02.01.2022
365 Clouds 30 1005 75 10000 4.63 280 10:55 02.01.2022
366 Clouds 31 1005 71 10000 5.66 300 09:58 02.01.2022
367 Clouds 34 1005 62 10000 7.2 300 07:35 02.01.2022
368 Clouds 32 1008 70 10000 4.63 260 02:56 02.01.2022
369 Clouds 30 1008 79 10000 2.57 270 23:45 01.01.2022
370 Clouds 30 1008 79 10000 2.57 270 23:24 01.01.2022
371 Clouds 28 1008 82 10000 2.57 270 22:25 01.01.2022
372 Clouds 28 1007 81 10000 2.57 270 21:54 01.01.2022
373 Clouds 28 1007 82 10000 2.57 270 21:36 01.01.2022
374 Clouds 29 1008 81 10000 3.6 280 20:27 01.01.2022
375 Clouds 29 1007 81 10000 3.6 280 19:36 01.01.2022
376 Clouds 28 1007 83 10000 3.09 280 18:51 01.01.2022
377 Clouds 29 1008 82 10000 3.09 280 17:38 01.01.2022
378 Clouds 29 1009 84 10000 2.57 280 16:35 01.01.2022
379 Clouds 29 1009 81 10000 2.57 280 15:42 01.01.2022
380 Clouds 29 1009 82 10000 2.57 280 14:39 01.01.2022
381 Clouds 29 1008 78 10000 2.57 270 13:41 01.01.2022
382 Clouds 30 1008 77 10000 3.09 280 12:25 01.01.2022
383 Clouds 30 1007 77 10000 3.6 270 11:25 01.01.2022
384 Clouds 30 1007 75 10000 3.6 270 10:56 01.01.2022
385 Clouds 31 1006 71 10000 6.17 290 09:48 01.01.2022
386 Clouds 32 1006 67 10000 7.2 300 08:39 01.01.2022
387 Clouds 33 1006 62 10000 7.2 300 07:57 01.01.2022
388 Clouds 33 1006 62 10000 6.69 310 07:38 01.01.2022
389 Clouds 33 1007 62 10000 7.2 300 06:44 01.01.2022
390 Clouds 33 1008 61 10000 6.17 310 04:40 01.01.2022
391 Clouds 32 1010 63 10000 5.66 310 03:52 01.01.2022
392 Clouds 30 1009 76 10000 3.09 280 23:55 31.12.2021
393 Clouds 28 1008 84 10000 2.57 270 22:30 31.12.2021
394 Clouds 28 1008 85 10000 3.09 280 21:47 31.12.2021
395 Clouds 27 1007 85 10000 2.57 280 19:48 31.12.2021
396 Clouds 28 1007 84 10000 2.57 270 19:28 31.12.2021
397 Clouds 28 1009 84 10000 3.09 290 17:56 31.12.2021
398 Clouds 28 1009 84 10000 2.57 280 17:28 31.12.2021
399 Clouds 28 1009 82 10000 2.06 260 16:52 31.12.2021
400 Clouds 28 1008 83 10000 2.57 270 16:18 31.12.2021
401 Clouds 29 1009 85 10000 2.06 270 15:50 31.12.2021
402 Clouds 29 1009 84 10000 2.06 270 15:27 31.12.2021
403 Clouds 29 1009 85 10000 2.06 270 14:41 31.12.2021
404 Clouds 29 1008 85 10000 2.06 270 13:55 31.12.2021
405 Clouds 29 1008 82 10000 2.06 270 12:53 31.12.2021
406 Clouds 29 1008 79 10000 3.09 260 12:26 31.12.2021
407 Clouds 29 1007 78 10000 3.6 270 11:42 31.12.2021
408 Clouds 30 1007 77 10000 4.12 270 10:56 31.12.2021
409 Clouds 30 1006 76 10000 5.14 270 10:28 31.12.2021
410 Clouds 31 1006 74 10000 5.14 290 09:35 31.12.2021
411 Clouds 32 1007 67 10000 6.17 300 08:54 31.12.2021
412 Clouds 32 1007 66 10000 6.17 300 08:23 31.12.2021
413 Clouds 34 1007 64 10000 6.17 300 06:24 31.12.2021
414 Clouds 30 1008 80 10000 4.63 300 23:19 30.12.2021
415 Clouds 29 1008 81 10000 5.66 300 22:32 30.12.2021
416 Clouds 29 1007 82 10000 4.12 280 21:40 30.12.2021
417 Clouds 28 1007 82 10000 4.12 280 21:20 30.12.2021
418 Clouds 28 1007 81 10000 6.17 290 20:40 30.12.2021
419 Clouds 29 1007 84 10000 3.09 270 19:58 30.12.2021
420 Clouds 29 1008 84 10000 3.09 270 19:34 30.12.2021
421 Clouds 29 1007 81 10000 4.12 280 18:29 30.12.2021
422 Clouds 28 1007 84 10000 3.6 270 17:34 30.12.2021
423 Clouds 28 1008 85 10000 2.57 270 15:54 30.12.2021
424 Clouds 28 1008 83 10000 3.09 280 15:22 30.12.2021
425 Clear 28 1008 81 10000 2.57 280 14:36 30.12.2021
426 Clear 29 1007 80 10000 3.6 280 13:31 30.12.2021
427 Clouds 29 1007 80 10000 3.6 290 11:58 30.12.2021
428 Clouds 30 1006 70 10000 4.12 270 10:40 30.12.2021
429 Clouds 32 1006 63 10000 6.17 270 09:50 30.12.2021
430 Clouds 32 1006 63 10000 6.17 270 09:50 30.12.2021
431 Clouds 33 1005 61 10000 7.2 270 07:42 30.12.2021
432 Clouds 33 1006 66 10000 7.2 270 06:38 30.12.2021
433 Clouds 32 1008 69 10000 7.72 290 03:41 30.12.2021
434 Clouds 32 1008 68 10000 6.17 290 02:38 30.12.2021
435 Clouds 30 1008 81 10000 4.63 280 23:41 29.12.2021
436 Clouds 29 1008 81 10000 4.12 280 22:59 29.12.2021
437 Clouds 28 1007 82 10000 3.09 270 22:18 29.12.2021
438 Clouds 28 1007 81 10000 3.6 280 21:27 29.12.2021
439 Clouds 28 1008 80 10000 5.14 280 20:31 29.12.2021
440 Clouds 29 1006 80 10000 4.12 270 19:44 29.12.2021
441 Clouds 29 1008 80 10000 4.63 280 18:45 29.12.2021
442 Clouds 29 1013 81 10000 4.63 270 17:54 29.12.2021
443 Clouds 29 1013 81 10000 4.63 270 17:27 29.12.2021
444 Clouds 29 1008 83 10000 5.66 280 16:24 29.12.2021
445 Clouds 29 1008 82 10000 5.66 280 15:45 29.12.2021
446 Clouds 29 1007 79 10000 7.2 300 13:55 29.12.2021
447 Clouds 29 1007 78 10000 6.69 300 12:36 29.12.2021
448 Clouds 30 1006 78 10000 5.14 290 11:35 29.12.2021
449 Clouds 31 1006 75 10000 7.2 290 09:58 29.12.2021
450 Clouds 32 1005 68 10000 7.72 290 07:51 29.12.2021
451 Clouds 32 1005 69 10000 8.75 290 06:38 29.12.2021
452 Clouds 32 1005 69 10000 8.75 290 06:18 29.12.2021
453 Clouds 32 1005 68 10000 7.72 290 05:36 29.12.2021
454 Rain 32 1007 70 10000 8.75 290 02:46 29.12.2021
455 Clouds 30 1007 80 10000 7.72 300 00:23 29.12.2021
456 Clouds 29 1006 81 10000 7.2 290 23:34 28.12.2021
457 Clouds 29 1006 78 10000 7.72 290 22:42 28.12.2021
458 Clouds 29 1006 78 10000 7.72 290 22:24 28.12.2021
459 Clouds 28 1005 78 10000 7.2 290 21:37 28.12.2021
460 Clouds 27 1004 79 10000 3.6 300 20:39 28.12.2021
461 Clouds 26 1004 82 10000 5.14 300 19:24 28.12.2021
462 Clouds 26 1004 85 10000 3.6 290 18:39 28.12.2021
463 Clouds 25 1005 83 10000 3.6 270 17:59 28.12.2021
464 Clouds 25 1014 88 10000 3.6 260 16:34 28.12.2021
465 Rain 24 1005 88 10000 3.09 260 15:50 28.12.2021
466 Rain 25 1006 78 10000 3.6 250 15:21 28.12.2021
467 Rain 26 1007 80 10000 2.57 210 14:48 28.12.2021
468 Rain 26 1007 80 10000 2.57 210 14:21 28.12.2021
469 Clouds 27 1007 83 10000 3.6 270 13:42 28.12.2021
470 Clouds 27 1007 83 10000 3.6 270 13:42 28.12.2021
471 Clouds 29 1005 84 10000 3.6 270 13:24 28.12.2021
472 Clouds 29 1005 80 10000 2.57 240 12:49 28.12.2021
473 Clouds 29 1005 71 10000 5.66 260 11:46 28.12.2021
474 Clouds 32 1002 58 10000 8.75 260 08:35 28.12.2021
475 Clouds 31 1003 59 10000 7.2 230 06:42 28.12.2021
476 Clouds 26 1004 78 10000 6.17 230 00:34 28.12.2021
477 Clouds 25 1006 81 10000 5.66 230 23:24 27.12.2021
478 Clouds 23 1001 86 10000 6.17 230 21:42 27.12.2021
479 Clouds 23 1001 86 10000 6.17 230 21:21 27.12.2021
480 Clouds 23 1000 89 10000 6.17 230 20:24 27.12.2021
481 Clouds 24 1000 89 10000 6.17 240 19:41 27.12.2021
482 Clouds 24 1000 90 10000 3.09 260 18:52 27.12.2021
483 Clouds 24 1003 90 10000 3.6 180 17:49 27.12.2021
484 Clouds 24 1004 94 10000 4.12 210 16:55 27.12.2021
485 Rain 24 1001 94 10000 4.63 210 15:52 27.12.2021
486 Drizzle 24 1001 94 3800 5.66 210 14:33 27.12.2021
487 Rain 25 1001 94 6000 4.63 260 13:40 27.12.2021
488 Rain 25 1001 91 10000 4.63 260 12:47 27.12.2021
489 Rain 26 998 90 10000 5.14 280 10:32 27.12.2021
490 Rain 26 998 87 10000 5.14 280 09:57 27.12.2021
491 Clouds 28 998 85 10000 8.75 300 08:39 27.12.2021
492 Clouds 28 1001 85 10000 8.75 310 07:32 27.12.2021
493 Rain 27 1003 87 10000 8.75 330 02:24 27.12.2021
494 Rain 25 1000 94 9000 7.72 320 23:58 26.12.2021
495 Rain 25 1000 94 9000 7.72 320 23:58 26.12.2021
496 Rain 26 1001 94 2000 8.23 330 23:40 26.12.2021
497 Rain 26 1003 94 10000 6.69 340 22:36 26.12.2021
498 Rain 25 1000 94 3000 5.14 330 21:29 26.12.2021
499 Rain 26 999 92 10000 5.66 320 19:49 26.12.2021
500 Clouds 26 1004 90 3700 6.69 260 18:25 26.12.2021
501 Clouds 26 1003 89 10000 6.69 300 17:30 26.12.2021
502 Rain 26 1002 93 9000 6.69 270 14:32 26.12.2021
503 Rain 27 1005 87 9000 8.23 270 13:43 26.12.2021
504 Clouds 27 1002 87 10000 9.26 300 13:20 26.12.2021
505 Clouds 26 1002 93 10000 6.17 280 12:33 26.12.2021
506 Clouds 26 1001 90 10000 10.29 290 10:44 26.12.2021
507 Rain 27 1000 91 10000 5.66 270 09:28 26.12.2021
508 Rain 26 1002 93 8000 9.26 280 08:44 26.12.2021
509 Rain 27 1003 93 10000 8.75 290 07:59 26.12.2021
510 Rain 26 1000 93 7000 5.14 320 01:36 26.12.2021
511 Rain 26 1004 94 1500 7.2 310 23:58 25.12.2021
512 Rain 26 1004 94 8000 8.75 340 23:28 25.12.2021
513 Rain 25 999 91 10000 7.72 330 22:28 25.12.2021
514 Rain 25 1003 93 3000 9.26 310 21:18 25.12.2021
515 Rain 25 998 96 2600 10.29 310 19:28 25.12.2021
516 Rain 26 998 94 2700 9.26 340 18:57 25.12.2021
517 Rain 26 999 91 10000 13.38 310 18:25 25.12.2021
518 Rain 26 999 91 10000 8.23 360 16:46 25.12.2021
519 Rain 25 1005 92 8000 6.69 10 15:26 25.12.2021
520 Rain 26 1001 93 10000 5.14 340 13:43 25.12.2021
521 Rain 26 1000 90 10000 8.75 350 12:18 25.12.2021
522 Rain 25 1003 94 3000 3.6 70 10:32 25.12.2021
523 Rain 25 1002 94 8000 8.75 110 09:48 25.12.2021
524 Rain 26 1000 94 6000 8.75 100 05:39 25.12.2021
525 Rain 25 1002 93 10000 9.26 120 01:34 25.12.2021
526 Rain 25 1003 93 10000 7.72 120 00:18 25.12.2021
527 Rain 24 1002 94 10000 4.63 140 21:46 24.12.2021
528 Rain 24 1002 98 8000 3.6 140 19:26 24.12.2021
529 Rain 24 1003 97 10000 4.63 140 18:34 24.12.2021
530 Rain 24 1004 97 10000 5.66 120 16:40 24.12.2021
531 Rain 24 1005 97 10000 5.66 140 15:49 24.12.2021
532 Rain 24 1005 97 10000 5.66 150 15:20 24.12.2021
533 Rain 24 1006 94 10000 4.63 140 14:33 24.12.2021
534 Rain 24 1005 94 10000 5.14 140 13:50 24.12.2021
535 Rain 23 1005 94 10000 4.63 150 13:32 24.12.2021
536 Rain 24 1005 94 9000 5.66 110 12:39 24.12.2021
537 Rain 23 1006 90 2000 10.8 100 11:42 24.12.2021
538 Rain 24 1006 90 2000 10.8 100 11:24 24.12.2021
539 Rain 26 1004 94 10000 2.57 130 10:33 24.12.2021
540 Rain 26 1003 93 10000 2.06 100 08:40 24.12.2021
541 Rain 25 1004 94 10000 2.06 90 07:58 24.12.2021
542 Rain 25 1004 94 10000 2.06 90 07:58 24.12.2021
543 Rain 25 1004 94 10000 3.09 60 06:59 24.12.2021
544 Rain 26 1007 94 10000 3.09 130 00:22 24.12.2021
545 Rain 25 1006 94 10000 1.54 90 23:49 23.12.2021
546 Rain 25 1006 91 10000 3.09 130 22:51 23.12.2021
547 Rain 25 1006 91 10000 3.09 130 22:24 23.12.2021
548 Clouds 26 1006 91 10000 3.6 110 21:39 23.12.2021
549 Clouds 26 1005 93 10000 2.06 140 20:30 23.12.2021
550 Clouds 25 1006 93 10000 1.54 110 19:30 23.12.2021
551 Rain 26 1005 90 10000 2.06 130 18:27 23.12.2021
552 Rain 25 1005 90 10000 2.06 150 17:46 23.12.2021
553 Clouds 26 1006 94 10000 1.03 120 16:27 23.12.2021
554 Clouds 26 1006 89 10000 2.06 120 15:49 23.12.2021
555 Clouds 26 1006 89 10000 2.06 120 15:30 23.12.2021
556 Clear 26 1006 91 10000 0 0 14:42 23.12.2021
557 Clear 26 1006 94 10000 0.51 180 13:49 23.12.2021
558 Clear 27 1006 89 10000 1.54 170 11:59 23.12.2021
559 Rain 27 1005 85 10000 1.03 150 09:55 23.12.2021
560 Clouds 27 1005 85 10000 1.54 170 09:34 23.12.2021
561 Rain 27 1006 83 10000 2.06 140 08:41 23.12.2021
562 Rain 25 1004 88 10000 0.51 80 06:20 23.12.2021
563 Clouds 32 1007 63 10000 2.57 280 03:22 23.12.2021
564 Clouds 27 1006 91 10000 2.06 110 22:54 22.12.2021
565 Clouds 26 1006 94 10000 2.06 110 22:22 22.12.2021
566 Clouds 27 1005 94 10000 1.54 110 21:48 22.12.2021
567 Clouds 27 1005 94 10000 1.54 150 21:25 22.12.2021
568 Rain 27 1005 91 10000 1.03 300 20:41 22.12.2021
569 Rain 27 1005 94 10000 1.03 300 19:57 22.12.2021
570 Clouds 27 1005 94 10000 1.03 300 18:56 22.12.2021
571 Clouds 26 1006 94 10000 0 0 17:38 22.12.2021
572 Clouds 27 1007 91 10000 1.54 300 16:32 22.12.2021
573 Clouds 27 1008 90 10000 2.06 330 15:21 22.12.2021
574 Clouds 28 1007 89 10000 2.06 330 12:59 22.12.2021
575 Clouds 28 1006 83 10000 2.06 330 11:58 22.12.2021
576 Rain 27 1005 85 10000 2.06 340 09:53 22.12.2021
577 Clouds 28 1005 78 10000 3.09 160 08:58 22.12.2021
578 Thunderstorm 24 1005 83 10000 5.66 250 07:22 22.12.2021
579 Clouds 33 1006 61 10000 3.09 310 05:40 22.12.2021
580 Clouds 34 1006 60 10000 3.09 310 05:21 22.12.2021
581 Clouds 33 1007 65 10000 3.09 300 04:43 22.12.2021
582 Clouds 33 1007 63 10000 3.6 280 04:19 22.12.2021
583 Clouds 33 1008 62 10000 0.51 150 03:32 22.12.2021
584 Clouds 30 1007 81 10000 2.57 120 23:57 21.12.2021
585 Clouds 28 1007 89 10000 1.54 120 22:49 21.12.2021
586 Clouds 27 1007 90 10000 1.54 120 22:27 21.12.2021
587 Clouds 27 1007 90 10000 1.54 140 21:43 21.12.2021
588 Clouds 27 1006 90 10000 1.54 190 20:53 21.12.2021
589 Clouds 27 1007 90 10000 1.54 210 20:20 21.12.2021
590 Clouds 27 1006 90 10000 2.06 220 19:41 21.12.2021
591 Clouds 27 1007 90 10000 1.54 220 18:38 21.12.2021
592 Clouds 27 1007 90 10000 1.54 230 17:59 21.12.2021
593 Clouds 27 1007 89 10000 1.03 270 17:40 21.12.2021
594 Clouds 27 1008 85 10000 0 0 15:47 21.12.2021
595 Clouds 27 1008 85 10000 0 0 15:19 21.12.2021
596 Clouds 28 1008 80 10000 2.57 280 13:47 21.12.2021
597 Clouds 29 1008 80 10000 2.57 280 13:29 21.12.2021
598 Clouds 30 1007 75 10000 3.6 280 10:55 21.12.2021
599 Clouds 31 1006 69 10000 4.63 260 09:57 21.12.2021
600 Clouds 32 1006 65 10000 5.66 290 09:18 21.12.2021
601 Clouds 33 1007 63 10000 6.17 300 07:54 21.12.2021
602 Clouds 33 1007 62 10000 6.17 300 07:25 21.12.2021
603 Clouds 33 1009 57 10000 3.09 210 04:56 21.12.2021
604 Clouds 31 1010 64 10000 1.54 60 02:39 21.12.2021
605 Clouds 27 1011 78 10000 2.06 110 23:58 20.12.2021
606 Clouds 26 1010 88 10000 1.54 110 23:24 20.12.2021
607 Clouds 23 1010 94 10000 2.06 60 22:28 20.12.2021
608 Clear 23 1009 94 10000 1.03 10 21:43 20.12.2021
609 Clear 23 1009 94 10000 0.51 10 21:23 20.12.2021
610 Clouds 23 1009 94 10000 1.54 40 20:42 20.12.2021
611 Clouds 24 1010 88 10000 2.06 210 19:50 20.12.2021
612 Clouds 24 1011 88 10000 1.03 210 19:30 20.12.2021
613 Clouds 23 1009 94 10000 1.54 160 18:53 20.12.2021
614 Clouds 23 1011 94 10000 2.57 140 17:52 20.12.2021
615 Clouds 23 1011 94 10000 2.57 150 17:23 20.12.2021
616 Clouds 23 1012 94 10000 3.09 150 16:38 20.12.2021
617 Clouds 23 1011 93 10000 2.57 150 15:48 20.12.2021
618 Clouds 23 1009 89 10000 2.57 130 14:42 20.12.2021
619 Clouds 23 1009 90 10000 4.12 110 12:51 20.12.2021
620 Clouds 24 1009 93 10000 6.69 140 11:19 20.12.2021
621 Clear 25 1007 94 10000 5.14 340 09:47 20.12.2021
622 Rain 23 1009 97 10000 3.6 330 08:58 20.12.2021
623 Rain 23 1009 94 10000 0.51 270 08:40 20.12.2021
624 Rain 23 1010 94 5000 2.06 120 07:49 20.12.2021
625 Rain 23 1011 94 8000 4.63 140 07:25 20.12.2021
626 Clouds 34 1011 59 10000 3.09 300 03:43 20.12.2021
627 Clouds 31 1010 71 10000 3.6 310 23:58 19.12.2021
628 Clouds 30 1009 76 10000 3.6 320 22:45 19.12.2021
629 Clouds 29 1008 78 10000 2.57 340 21:50 19.12.2021
630 Clouds 29 1008 78 10000 2.57 330 21:29 19.12.2021
631 Clouds 29 1008 81 10000 3.6 300 20:30 19.12.2021
632 Clouds 29 1010 80 10000 3.6 320 19:46 19.12.2021
633 Clouds 29 1009 78 10000 2.57 310 18:58 19.12.2021
634 Clouds 29 1009 80 10000 2.57 310 18:29 19.12.2021
635 Clouds 29 1010 78 10000 2.06 330 17:51 19.12.2021
636 Clouds 29 1010 79 10000 2.57 320 17:18 19.12.2021
637 Clouds 29 1011 78 10000 2.57 300 16:26 19.12.2021
638 Clouds 30 1011 76 10000 3.6 310 15:31 19.12.2021
639 Clouds 30 1012 76 10000 3.09 300 14:59 19.12.2021
640 Clouds 30 1011 78 10000 3.09 300 14:36 19.12.2021
641 Clouds 30 1011 75 10000 2.57 300 13:22 19.12.2021
642 Clouds 30 1011 75 10000 3.6 310 12:33 19.12.2021
643 Clouds 30 1008 74 10000 3.6 320 11:44 19.12.2021
644 Clouds 30 1007 74 10000 3.6 320 11:18 19.12.2021
645 Clouds 31 1007 75 10000 5.14 340 10:25 19.12.2021
646 Clouds 34 1007 55 10000 5.66 340 09:37 19.12.2021
647 Clear 35 1007 43 10000 5.14 340 07:50 19.12.2021
648 Clouds 34 1012 55 10000 4.63 340 04:45 19.12.2021
649 Clouds 32 1014 66 10000 2.57 360 01:19 19.12.2021
650 Clouds 31 1013 70 10000 3.09 10 00:52 19.12.2021
651 Clouds 28 1009 84 10000 1.54 20 22:36 18.12.2021
652 Clouds 27 1009 84 10000 2.06 10 21:57 18.12.2021
653 Clouds 28 1009 83 10000 2.57 10 21:35 18.12.2021
654 Clouds 28 1008 81 10000 1.54 360 20:44 18.12.2021
655 Clouds 28 1008 80 10000 2.06 10 19:54 18.12.2021
656 Clouds 28 1008 80 10000 2.06 360 19:20 18.12.2021
657 Clouds 29 1008 80 10000 2.57 10 18:21 18.12.2021
658 Clouds 29 1009 77 10000 2.57 10 17:48 18.12.2021
659 Clouds 29 1010 77 10000 2.06 350 16:26 18.12.2021
660 Clouds 30 1010 74 10000 2.57 340 15:26 18.12.2021
661 Clouds 30 1010 74 10000 2.57 330 14:32 18.12.2021
662 Clouds 31 1009 71 10000 2.06 300 13:21 18.12.2021
663 Clouds 32 1007 63 10000 3.09 340 11:22 18.12.2021
664 Clouds 33 1006 58 10000 3.09 330 09:40 18.12.2021
665 Clouds 34 1006 52 10000 2.57 350 08:46 18.12.2021
666 Clouds 35 1006 46 10000 3.09 350 08:19 18.12.2021
667 Clouds 33 1009 58 10000 4.12 340 02:51 18.12.2021
668 Clouds 30 1012 80 10000 1.54 160 00:28 18.12.2021
669 Clouds 29 1008 85 10000 1.54 140 23:44 17.12.2021
670 Clear 26 1007 91 10000 1.03 90 21:56 17.12.2021
671 Clear 26 1007 91 10000 1.03 90 21:56 17.12.2021
672 Clouds 26 1007 91 10000 1.54 70 21:18 17.12.2021
673 Clouds 26 1007 91 10000 2.06 100 20:38 17.12.2021
674 Clouds 27 1006 92 10000 1.03 110 19:19 17.12.2021
675 Clouds 27 1007 90 10000 1.54 130 18:38 17.12.2021
676 Clouds 27 1008 86 10000 2.06 170 17:31 17.12.2021
677 Clouds 28 1008 85 10000 1.54 130 16:46 17.12.2021
678 Clouds 28 1007 85 10000 3.09 30 16:22 17.12.2021
679 Clouds 28 1008 84 10000 2.06 30 15:21 17.12.2021
680 Clouds 28 1008 84 10000 2.06 30 15:21 17.12.2021
681 Clear 27 1008 85 10000 2.06 130 14:39 17.12.2021
682 Rain 28 1008 83 10000 2.06 190 12:46 17.12.2021
683 Rain 29 1006 78 10000 1.54 270 11:34 17.12.2021
684 Rain 30 1006 72 10000 1.54 250 10:37 17.12.2021
685 Clouds 31 1006 70 10000 2.57 320 09:31 17.12.2021
686 Clouds 31 1006 66 10000 4.63 290 08:30 17.12.2021
687 Clouds 33 1006 57 10000 2.06 260 05:58 17.12.2021
688 Clouds 32 1011 63 10000 4.12 190 02:53 17.12.2021
689 Clouds 29 1008 81 10000 2.06 140 23:23 16.12.2021
690 -273 0 0 0 0 0 22:24 16.12.2021
691 -273 0 0 0 0 0 22:24 16.12.2021
692 Clouds 28 1007 85 10000 1.54 110 22:24 16.12.2021
693 Clouds 28 1007 85 10000 1.54 110 22:24 16.12.2021
694 Clouds 28 1007 85 10000 1.54 110 22:23 16.12.2021
695 Clouds 28 1007 85 10000 1.54 110 22:23 16.12.2021
696 Clouds 28 1006 85 10000 0.51 250 21:44 16.12.2021
697 Clouds 28 1006 85 10000 2.57 280 20:55 16.12.2021
698 Clouds 28 1005 85 10000 1.03 300 20:27 16.12.2021
699 Clouds 28 1005 86 10000 0 0 19:31 16.12.2021
700 Clouds 28 1006 83 10000 0 0 18:36 16.12.2021
701 Clouds 28 1006 83 10000 0 0 17:48 16.12.2021
702 Clouds 29 1006 82 10000 1.54 260 16:44 16.12.2021
703 Clouds 29 1007 79 10000 2.06 250 16:18 16.12.2021
704 Clouds 30 1007 78 10000 3.09 250 14:23 16.12.2021
705 Clouds 31 1007 76 10000 3.09 250 12:30 16.12.2021
706 Clouds 31 1005 70 10000 3.6 270 11:19 16.12.2021
707 Clouds 32 1005 69 10000 3.6 260 10:44 16.12.2021
708 Clouds 32 1004 70 10000 4.12 260 09:51 16.12.2021
709 Clouds 35 1005 49 10000 6.17 300 07:19 16.12.2021
710 Clouds 35 1006 52 10000 6.17 300 06:18 16.12.2021
711 Clouds 32 1008 71 10000 3.09 310 00:35 16.12.2021
712 Clouds 30 1008 82 10000 2.57 320 23:21 15.12.2021
713 Clouds 28 1007 90 10000 1.03 290 22:22 15.12.2021
714 Clouds 27 1007 89 10000 1.54 280 21:46 15.12.2021
715 Clouds 28 1007 89 10000 1.54 280 21:26 15.12.2021
716 Clouds 29 1006 86 10000 2.57 300 19:55 15.12.2021
717 Clouds 29 1006 83 10000 2.57 280 19:19 15.12.2021
718 Clouds 29 1006 83 10000 2.57 300 18:26 15.12.2021
719 Clouds 29 1007 83 10000 3.09 300 17:47 15.12.2021
720 Clouds 29 1007 85 10000 3.09 300 17:27 15.12.2021
721 Clouds 29 1008 82 10000 3.6 300 16:25 15.12.2021
722 Clouds 29 1008 82 10000 3.09 290 15:42 15.12.2021
723 Clouds 30 1008 82 10000 3.09 290 15:24 15.12.2021
724 Clouds 30 1008 78 10000 3.09 280 13:58 15.12.2021
725 Clouds 31 1006 77 10000 3.6 280 11:57 15.12.2021
726 Clouds 32 1005 66 10000 4.12 290 10:23 15.12.2021
727 Clouds 34 1005 62 10000 5.14 270 08:34 15.12.2021
728 Clouds 35 1006 59 10000 6.17 310 05:59 15.12.2021
729 Clouds 32 1009 71 10000 2.57 260 00:47 15.12.2021
730 Clouds 29 1008 81 10000 1.03 70 23:41 14.12.2021
731 Clouds 28 1008 83 10000 1.54 180 22:47 14.12.2021
732 Clouds 27 1007 81 10000 2.06 80 21:48 14.12.2021
733 Clear 28 1008 77 10000 1.54 300 20:26 14.12.2021
734 Clouds 27 1006 80 10000 6.17 350 19:40 14.12.2021
735 Clouds 29 1006 83 10000 2.57 330 18:42 14.12.2021
736 Clouds 30 1006 81 10000 3.6 320 17:58 14.12.2021
737 Clouds 30 1006 81 10000 4.63 320 17:27 14.12.2021
738 Clouds 30 1007 81 10000 4.63 310 16:38 14.12.2021
739 Clouds 30 1007 74 10000 3.6 310 14:52 14.12.2021
740 Clear 28 1007 74 10000 1.54 290 13:31 14.12.2021
741 Clouds 29 1006 65 10000 7.2 50 11:57 14.12.2021
742 Clouds 30 1006 64 10000 7.72 80 11:23 14.12.2021
743 Clouds 33 1004 63 10000 4.63 280 09:56 14.12.2021
744 Clouds 33 1004 60 10000 5.14 270 09:34 14.12.2021
745 Clouds 34 1004 59 10000 6.17 290 08:23 14.12.2021
746 Clouds 33 1004 62 10000 6.69 300 07:43 14.12.2021
747 Clouds 32 1008 67 10000 2.57 290 02:25 14.12.2021
748 Clouds 30 1006 77 10000 2.57 250 22:50 13.12.2021
749 Clouds 29 1005 77 10000 4.12 270 21:52 13.12.2021
750 Clouds 29 1005 79 10000 4.63 290 20:59 13.12.2021
751 Clouds 29 1005 79 10000 4.12 300 20:34 13.12.2021
752 Clouds 29 1005 79 10000 5.14 300 19:52 13.12.2021
753 Clouds 29 1007 77 10000 6.17 300 17:56 13.12.2021
754 Clouds 30 1007 77 10000 5.66 300 17:24 13.12.2021
755 Clear 30 1007 77 10000 5.66 300 15:50 13.12.2021
756 Clear 30 1007 77 10000 5.66 300 15:19 13.12.2021
757 Clear 30 1006 76 10000 5.14 310 13:38 13.12.2021
758 Clear 30 1006 74 10000 5.66 300 12:42 13.12.2021
759 Clear 30 1005 74 10000 4.63 290 11:54 13.12.2021
760 Clear 30 1005 74 10000 5.14 300 11:35 13.12.2021
761 Clear 30 1005 76 10000 5.66 300 10:43 13.12.2021
762 Rain 28 1004 83 10000 4.12 170 08:57 13.12.2021
763 Clouds 32 1004 54 10000 3.6 20 07:46 13.12.2021
764 Clouds 34 1007 61 10000 6.69 300 05:35 13.12.2021
765 Clouds 32 1007 71 10000 4.63 260 00:43 13.12.2021
766 Clouds 30 1006 80 10000 3.6 270 22:22 12.12.2021
767 Clouds 29 1005 83 10000 5.14 280 21:38 12.12.2021
768 Clouds 29 1005 78 10000 4.12 290 19:47 12.12.2021
769 Clouds 30 1007 80 10000 3.6 270 18:35 12.12.2021
770 Clouds 30 1007 80 10000 3.6 270 17:26 12.12.2021
771 Clouds 30 1006 79 10000 3.6 270 16:27 12.12.2021
772 Clouds 29 1006 82 10000 2.57 270 15:41 12.12.2021
773 Clouds 29 1006 82 10000 2.57 270 15:22 12.12.2021
774 Clouds 30 1007 79 10000 2.57 250 14:30 12.12.2021
775 Clouds 30 1007 79 10000 2.57 250 14:30 12.12.2021
776 Clouds 29 1007 81 10000 2.57 300 13:22 12.12.2021
777 Clouds 28 1006 75 10000 1.54 270 12:27 12.12.2021
778 Clouds 28 1006 75 10000 2.06 230 11:44 12.12.2021
779 Clouds 28 1006 75 10000 2.06 230 11:44 12.12.2021
780 Clouds 28 1006 73 10000 1.54 220 11:20 12.12.2021
781 Clouds 29 1005 72 10000 3.6 260 10:22 12.12.2021
782 Clouds 30 1005 73 10000 3.6 270 08:58 12.12.2021
783 Clouds 33 1008 61 10000 7.2 290 07:32 12.12.2021
784 Clouds 34 1009 64 10000 6.69 300 05:57 12.12.2021
785 Clouds 32 1007 67 10000 5.66 300 04:55 12.12.2021
786 Clouds 32 1008 67 10000 2.57 280 03:27 12.12.2021
787 Clouds 29 1008 84 10000 2.06 160 23:39 11.12.2021
788 Clouds 27 1007 93 10000 0 0 22:22 11.12.2021
789 Clouds 27 1007 92 10000 0 0 21:51 11.12.2021
790 Clouds 27 1008 89 10000 1.54 280 20:29 11.12.2021
791 Clouds 28 1006 85 10000 1.54 270 19:21 11.12.2021
792 Clouds 28 1006 85 10000 2.06 270 18:52 11.12.2021
793 Clouds 28 1006 86 10000 3.09 290 18:19 11.12.2021
794 Clouds 28 1008 83 10000 3.6 290 17:20 11.12.2021
795 Clouds 28 1007 82 10000 2.57 310 15:52 11.12.2021
796 Clouds 29 1008 80 10000 2.57 310 15:18 11.12.2021
797 Clouds 29 1007 78 10000 2.06 340 12:49 11.12.2021
798 Clouds 29 1006 62 10000 2.06 50 11:25 11.12.2021
799 Clouds 30 1006 66 10000 3.6 10 09:45 11.12.2021
800 Clouds 33 1005 58 10000 3.6 340 07:49 11.12.2021
801 Clear 29 1009 74 10000 1.03 150 02:20 11.12.2021
802 Clear 27 1008 80 10000 1.54 60 23:50 10.12.2021
803 Clouds 26 1007 84 10000 3.6 30 23:20 10.12.2021
804 Clouds 23 1007 88 10000 5.14 110 21:56 10.12.2021
805 Rain 23 1008 94 10000 3.09 140 20:57 10.12.2021
806 Rain 23 1009 94 5000 7.72 150 19:21 10.12.2021
807 Clouds 25 1008 89 10000 3.6 70 18:19 10.12.2021
808 Clouds 26 1008 78 10000 7.72 90 16:56 10.12.2021
809 Clouds 27 1008 77 10000 4.12 160 16:28 10.12.2021
810 Clouds 28 1009 79 10000 2.06 200 15:40 10.12.2021
811 Clouds 28 1009 79 10000 2.06 200 15:21 10.12.2021
812 Clouds 29 1008 75 10000 3.09 270 13:51 10.12.2021
813 Clouds 29 1008 79 10000 3.09 280 13:26 10.12.2021
814 Clouds 29 1007 79 10000 3.6 300 12:36 10.12.2021
815 Clouds 29 1006 78 10000 4.12 310 11:28 10.12.2021
816 Clouds 30 1005 74 10000 4.63 310 10:26 10.12.2021
817 Clouds 30 1005 74 10000 3.6 360 08:57 10.12.2021
818 Clouds 31 1005 65 10000 3.09 270 06:50 10.12.2021
819 Clouds 33 1008 64 10000 0.51 330 02:48 10.12.2021
820 Clouds 33 1008 64 10000 0.51 330 02:48 10.12.2021
821 Clouds 30 1009 75 10000 2.57 160 00:32 10.12.2021
822 Clouds 27 1009 85 10000 3.09 160 23:22 09.12.2021
823 Clouds 25 1008 91 10000 1.54 120 22:26 09.12.2021
824 Clouds 25 1008 90 10000 1.03 120 21:59 09.12.2021
825 Clouds 25 1008 90 10000 2.57 140 21:18 09.12.2021
826 Clouds 25 1008 89 10000 4.12 120 20:22 09.12.2021
827 Clouds 25 1008 90 10000 4.12 120 19:21 09.12.2021
828 Clouds 26 1007 90 10000 3.6 100 18:48 09.12.2021
829 Clouds 26 1007 91 10000 2.06 110 17:56 09.12.2021
830 Clouds 26 1007 94 10000 0 0 17:26 09.12.2021
831 Clouds 26 1007 94 10000 0.51 90 16:55 09.12.2021
832 Clouds 26 1008 94 10000 0 0 15:57 09.12.2021
833 Clouds 27 1008 93 10000 1.54 330 14:50 09.12.2021
834 Clouds 27 1009 90 10000 1.54 360 13:25 09.12.2021
835 Clear 27 1007 93 10000 0.51 330 12:42 09.12.2021
836 Clear 27 1007 87 10000 1.54 330 11:24 09.12.2021
837 Clouds 29 1006 81 10000 1.03 70 09:44 09.12.2021
838 Rain 26 1006 94 10000 5.66 250 06:50 09.12.2021
839 Rain 32 1008 67 10000 2.06 310 03:43 09.12.2021
840 Clouds 29 1009 79 10000 3.6 130 23:45 08.12.2021
841 Clouds 27 1009 87 10000 3.6 150 23:21 08.12.2021
842 Clouds 27 1008 89 10000 2.06 130 22:49 08.12.2021
843 Clouds 26 1007 90 10000 1.54 140 21:46 08.12.2021
844 Clouds 26 1007 90 10000 1.54 140 21:27 08.12.2021
845 Clouds 27 1007 86 10000 1.54 150 20:18 08.12.2021
846 Clouds 26 1007 88 10000 1.03 300 19:36 08.12.2021
847 Clouds 27 1007 87 10000 1.03 290 18:53 08.12.2021
848 Clouds 27 1008 81 10000 2.06 290 17:47 08.12.2021
849 Clouds 29 1009 81 10000 1.54 240 15:58 08.12.2021
850 Clouds 29 1009 81 10000 2.06 210 15:29 08.12.2021
851 Clouds 28 1009 81 10000 1.54 250 14:50 08.12.2021
852 Clouds 29 1008 76 10000 1.54 330 12:32 08.12.2021
853 Clouds 30 1007 72 10000 3.6 90 10:32 08.12.2021
854 Clouds 31 1006 63 10000 3.6 90 09:30 08.12.2021
855 Clouds 31 1007 68 10000 2.57 330 07:29 08.12.2021
856 Clouds 33 1009 64 10000 3.6 320 04:57 08.12.2021
857 Clouds 26 1010 89 10000 5.14 90 23:34 07.12.2021
858 Clouds 25 1008 87 10000 2.06 100 21:55 07.12.2021
859 Clouds 25 1008 87 10000 2.06 130 21:23 07.12.2021
860 Clouds 26 1008 89 10000 2.57 140 20:24 07.12.2021
861 Clouds 26 1008 89 10000 1.03 230 18:55 07.12.2021
862 Clouds 26 1009 85 10000 1.54 230 17:53 07.12.2021
863 Clouds 26 1008 85 10000 1.54 190 17:20 07.12.2021
864 Clouds 26 1009 89 10000 1.03 100 16:34 07.12.2021
865 Clear 27 1008 84 10000 1.54 140 15:35 07.12.2021
866 Clear 27 1008 78 10000 1.03 360 14:36 07.12.2021
867 Clear 27 1008 78 10000 1.03 360 13:18 07.12.2021
868 Clear 27 1007 77 10000 2.06 30 12:21 07.12.2021
869 Clouds 29 1006 76 10000 0.51 240 10:43 07.12.2021
870 Clouds 30 1005 74 10000 4.63 290 08:42 07.12.2021
871 Clouds 32 1006 59 10000 5.14 320 06:22 07.12.2021
872 Clouds 33 1007 61 10000 4.12 330 05:42 07.12.2021
873 Rain 25 1008 73 10000 7.72 70 23:58 06.12.2021
874 Rain 28 1007 90 10000 2.57 70 22:58 06.12.2021
875 Clouds 27 1011 91 10000 1.54 50 22:38 06.12.2021
876 Clouds 27 1011 93 10000 1.03 10 21:54 06.12.2021
877 Clouds 27 1006 87 10000 0.51 10 20:44 06.12.2021
878 Clouds 27 1006 86 10000 1.54 10 20:26 06.12.2021
879 Clouds 28 1005 86 10000 2.57 350 19:23 06.12.2021
880 Clouds 28 1005 85 10000 2.57 360 18:29 06.12.2021
881 Clouds 28 1005 84 10000 2.57 10 17:51 06.12.2021
882 Clouds 28 1006 85 10000 2.57 30 16:56 06.12.2021
883 Clouds 28 1006 84 10000 1.54 60 15:45 06.12.2021
884 Clouds 28 1006 87 10000 1.54 20 13:47 06.12.2021
885 Clouds 29 1005 81 10000 1.03 350 12:40 06.12.2021
886 Clouds 29 1005 78 10000 2.06 360 11:54 06.12.2021
887 Clouds 32 1004 68 10000 3.6 290 09:35 06.12.2021
888 Clouds 32 1004 64 10000 2.57 350 06:43 06.12.2021
889 Clouds 27 1006 88 10000 3.09 360 23:52 05.12.2021
890 Clouds 25 1006 88 10000 1.03 100 21:53 05.12.2021
891 Clear 25 1006 88 10000 1.54 130 21:25 05.12.2021
892 Clouds 25 1006 92 10000 3.6 110 20:20 05.12.2021
893 Clouds 25 1006 92 10000 3.6 100 19:49 05.12.2021
894 Clouds 24 1006 93 10000 3.6 110 19:21 05.12.2021
895 Rain 24 1006 92 10000 4.63 160 18:20 05.12.2021
896 Rain 25 1007 89 10000 7.2 160 17:49 05.12.2021
897 Rain 25 1007 85 10000 3.6 180 16:57 05.12.2021
898 Clouds 25 1007 87 10000 3.6 110 16:28 05.12.2021
899 Clouds 25 1007 88 10000 2.57 70 15:58 05.12.2021
900 Rain 25 1011 85 10000 8.75 90 14:45 05.12.2021
901 Clouds 25 1011 84 10000 8.75 90 14:27 05.12.2021
902 Clouds 26 1011 81 10000 6.17 110 13:28 05.12.2021
903 Rain 27 1010 85 10000 1.03 190 12:40 05.12.2021
904 Clouds 27 1007 86 10000 1.03 190 12:21 05.12.2021
905 Rain 27 1005 84 10000 3.6 230 11:35 05.12.2021
906 Rain 27 1005 84 10000 2.57 220 10:21 05.12.2021
907 Rain 26 1003 88 10000 1.54 250 08:50 05.12.2021
908 Clouds 34 1006 59 10000 4.12 310 04:56 05.12.2021
909 Clouds 32 1008 65 10000 2.06 280 01:23 05.12.2021
910 Clouds 27 1007 91 10000 1.03 150 22:32 04.12.2021
911 Clouds 27 1006 89 10000 1.03 100 21:36 04.12.2021
912 Rain 28 1006 86 10000 1.03 210 20:32 04.12.2021
913 Clouds 28 1006 88 10000 2.06 140 19:33 04.12.2021
914 Clouds 28 1006 87 10000 1.54 150 18:43 04.12.2021
915 Clouds 29 1007 79 10000 1.03 300 17:47 04.12.2021
916 Clouds 29 1007 78 10000 1.03 300 17:20 04.12.2021
917 Clouds 30 1007 77 10000 2.06 320 16:46 04.12.2021
918 Clouds 30 1008 76 10000 2.57 340 16:27 04.12.2021
919 Clear 30 1008 77 10000 3.09 310 12:44 04.12.2021
920 Clouds 30 1007 77 10000 3.6 330 11:34 04.12.2021
921 Clouds 31 1006 70 10000 4.63 330 10:57 04.12.2021
922 Clouds 33 1005 62 10000 4.12 310 09:40 04.12.2021
923 Clouds 33 1005 58 10000 4.12 300 08:29 04.12.2021
924 Clouds 34 1007 59 10000 3.09 350 04:43 04.12.2021
925 Clouds 31 1009 75 10000 1.54 60 00:56 04.12.2021
926 Clouds 29 1009 89 10000 1.54 70 23:43 03.12.2021
927 Clouds 27 1008 97 10000 1.54 90 22:53 03.12.2021
928 Clouds 27 1008 98 10000 1.54 100 21:54 03.12.2021
929 Clear 27 1007 98 10000 1.54 100 21:23 03.12.2021
930 Clouds 27 1007 98 10000 0.51 80 20:42 03.12.2021
931 Clouds 27 1009 98 10000 1.54 90 19:28 03.12.2021
932 Clouds 27 1008 94 10000 2.06 90 18:23 03.12.2021
933 Clouds 27 1009 94 10000 1.54 110 17:31 03.12.2021
934 Clouds 28 1009 89 10000 1.54 340 13:40 03.12.2021
935 Rain 27 1009 94 10000 1.54 20 12:44 03.12.2021
936 Thunderstorm 28 1008 78 10000 4.63 20 11:23 03.12.2021
937 Clouds 30 1008 79 10000 3.09 260 09:25 03.12.2021
938 Rain 29 1008 78 10000 2.06 270 08:20 03.12.2021
939 Thunderstorm 33 1006 66 7000 1.54 0 06:44 03.12.2021
940 Clouds 32 1011 75 10000 1.54 280 01:43 03.12.2021
941 Clouds 32 1009 77 10000 0.51 150 00:34 03.12.2021
942 Clouds 30 1009 88 10000 1.03 170 23:40 02.12.2021
943 Clouds 27 1007 95 10000 0 0 21:42 02.12.2021
944 Clouds 28 1007 92 10000 0 0 20:49 02.12.2021
945 Clouds 28 1007 92 10000 0 0 20:29 02.12.2021
946 Clouds 27 1007 89 10000 0 0 19:23 02.12.2021
947 Clouds 28 1007 83 10000 1.03 90 17:30 02.12.2021
948 Rain 29 1008 76 10000 2.06 240 15:42 02.12.2021
949 Rain 29 1008 76 10000 2.06 260 14:57 02.12.2021
950 Rain 29 1008 74 10000 1.54 240 13:54 02.12.2021
951 Clouds 29 1008 80 10000 2.06 240 12:52 02.12.2021
952 Clear 30 1008 78 10000 3.09 250 11:55 02.12.2021
953 Clouds 30 1006 64 10000 5.14 310 09:29 02.12.2021
954 Clouds 31 1005 64 10000 5.66 340 08:27 02.12.2021
955 Clouds 34 1008 59 10000 3.6 220 03:33 02.12.2021
956 Clouds 31 1010 75 10000 3.09 220 00:51 02.12.2021
957 Clouds 29 1008 87 10000 2.06 230 22:41 01.12.2021
958 Clouds 29 1008 88 10000 2.06 230 22:23 01.12.2021
959 Clouds 29 1007 84 10000 3.6 270 20:36 01.12.2021
960 Clouds 29 1007 84 10000 3.6 270 20:36 01.12.2021
961 Clouds 29 1006 85 10000 3.09 270 19:51 01.12.2021
962 Clouds 29 1006 83 10000 3.09 280 19:21 01.12.2021
963 Clouds 29 1008 87 10000 2.57 290 17:45 01.12.2021
964 Clouds 29 1008 87 10000 2.57 290 17:45 01.12.2021
965 Clouds 29 1007 98 10000 3.6 290 16:40 01.12.2021
966 Clear 29 1008 81 10000 2.57 290 14:50 01.12.2021
967 Clear 28 1008 78 10000 2.06 260 13:44 01.12.2021
968 Clear 27 1008 83 10000 1.03 180 12:30 01.12.2021
969 Clouds 28 1006 74 10000 4.63 240 10:42 01.12.2021
970 Clouds 27 1005 100 10000 3.09 330 08:58 01.12.2021
971 Clouds 28 1005 100 10000 5.14 310 08:26 01.12.2021
972 Thunderstorm 25 1006 94 6000 7.2 180 07:33 01.12.2021
973 Clouds 34 1008 61 10000 4.63 320 04:22 01.12.2021
974 Clouds 33 1009 64 10000 4.12 310 03:41 01.12.2021
975 Clouds 32 1009 68 10000 2.06 260 00:52 01.12.2021
976 Clouds 31 1009 73 10000 1.54 280 23:45 30.11.2021
977 Clouds 28 1008 89 10000 0 0 22:49 30.11.2021
978 Clouds 27 1007 86 10000 0.51 10 21:28 30.11.2021
979 Clouds 28 1007 85 10000 1.03 10 20:37 30.11.2021
980 Clouds 28 1006 84 10000 2.06 330 19:53 30.11.2021
981 Clouds 28 1006 82 10000 2.57 290 19:30 30.11.2021
982 Clouds 29 1005 79 10000 3.6 300 18:35 30.11.2021
983 Clouds 29 1007 81 10000 3.6 290 16:35 30.11.2021
984 Clouds 29 1007 80 10000 3.09 270 15:18 30.11.2021
985 Clear 29 1007 79 10000 3.09 270 14:20 30.11.2021
986 Clear 29 1007 78 10000 3.6 280 13:25 30.11.2021
987 Clear 29 1006 78 10000 3.6 290 12:45 30.11.2021
988 Clear 29 1005 78 10000 4.63 280 11:27 30.11.2021
989 Clear 30 1005 77 10000 5.14 280 10:56 30.11.2021
990 Clouds 30 1005 78 10000 5.14 270 10:31 30.11.2021
991 Clouds 33 1004 68 10000 6.69 320 08:52 30.11.2021
992 Clouds 34 1004 58 10000 7.72 310 08:20 30.11.2021
993 Clouds 34 1004 57 10000 7.72 310 07:47 30.11.2021
994 Clouds 32 1009 62 10000 3.09 220 02:41 30.11.2021
995 Clouds 32 1009 69 10000 3.6 200 01:41 30.11.2021
996 Clouds 30 1009 72 10000 3.6 200 00:19 30.11.2021
997 Clouds 28 1008 79 10000 2.57 140 23:24 29.11.2021
998 Clouds 27 1008 83 10000 3.09 110 22:55 29.11.2021
999 Clouds 27 1008 85 10000 3.6 110 22:33 29.11.2021
1000 Clear 27 1006 84 10000 0 0 21:29 29.11.2021
1001 Clouds 27 1006 84 10000 0 0 20:59 29.11.2021
1002 Clouds 27 1006 84 10000 0 0 20:32 29.11.2021
1003 Clouds 27 1006 82 10000 1.03 250 19:55 29.11.2021
1004 Clouds 28 1006 79 10000 2.06 250 19:35 29.11.2021
1005 Clouds 29 1006 76 10000 2.57 260 18:51 29.11.2021
1006 Clouds 29 1006 70 10000 3.31 262 17:49 29.11.2021
1007 Clouds 29 1006 69 10000 4.28 249 17:18 29.11.2021
1008 Clouds 29 1007 68 10000 4.33 244 16:29 29.11.2021
1009 Clouds 29 1007 68 10000 4.33 244 15:50 29.11.2021
1010 Clouds 30 1008 67 10000 4.04 248 14:43 29.11.2021
1011 Clouds 30 1008 66 10000 3.98 256 13:33 29.11.2021
1012 Clouds 30 1007 64 10000 4.31 268 12:37 29.11.2021
1013 Clouds 30 1006 64 10000 4.41 285 11:40 29.11.2021
1014 Clouds 30 1006 64 10000 4.8 295 10:51 29.11.2021
1015 Clouds 33 1005 55 10000 4.63 280 09:34 29.11.2021
1016 Clouds 32 1006 58 10000 4.63 360 06:20 29.11.2021
1017 Clouds 32 1010 55 10000 1.54 20 02:28 29.11.2021
1018 Clouds 30 1009 70 10000 2.06 140 00:42 29.11.2021
1019 Clouds 30 1009 70 10000 2.06 170 23:44 28.11.2021
1020 Clouds 29 1009 74 10000 1.54 130 23:23 28.11.2021
1021 Clouds 26 1007 89 10000 3.09 120 21:49 28.11.2021
1022 Clouds 27 1007 83 10000 1.03 260 21:23 28.11.2021
1023 Clouds 26 1006 89 10000 0 0 20:34 28.11.2021
1024 Clouds 26 1006 94 10000 0 0 19:25 28.11.2021
1025 Clouds 27 1006 83 10000 0 0 18:35 28.11.2021
1026 Clouds 27 1006 83 10000 0.51 260 17:55 28.11.2021
1027 Clouds 27 1007 89 10000 1.03 260 17:31 28.11.2021
1028 Clouds 28 1007 78 10000 2.06 280 16:40 28.11.2021
1029 Clouds 28 1007 78 10000 2.06 280 16:18 28.11.2021
1030 Clouds 28 1008 78 10000 1.03 310 15:31 28.11.2021
1031 Clouds 28 1008 78 10000 1.54 320 14:46 28.11.2021
1032 Clear 28 1008 78 10000 2.57 20 13:22 28.11.2021
1033 Clear 29 1008 74 10000 2.06 360 12:48 28.11.2021
1034 Clouds 30 1007 70 10000 3.6 360 11:18 28.11.2021
1035 Clouds 30 1007 70 10000 5.14 30 10:21 28.11.2021
1036 Clouds 32 1006 51 10000 5.14 10 09:38 28.11.2021
1037 Clouds 31 1006 58 10000 5.14 20 07:49 28.11.2021
1038 Clouds 28 1010 78 10000 3.6 100 00:20 28.11.2021
1039 Clouds 25 1008 88 10000 2.57 130 21:20 27.11.2021
1040 Clouds 25 1007 100 10000 0 0 19:47 27.11.2021
1041 Clouds 25 1007 94 10000 0 0 17:27 27.11.2021
1042 Clouds 25 1008 94 10000 0.51 190 15:58 27.11.2021
1043 Clear 25 1008 94 10000 0 0 13:58 27.11.2021
1044 Clouds 26 1008 94 10000 0.51 190 12:57 27.11.2021
1045 Clear 27 1007 83 10000 1.03 90 10:52 27.11.2021
1046 Clouds 27 1007 83 10000 3.09 150 09:53 27.11.2021
1047 Clouds 28 1006 78 10000 3.09 180 08:44 27.11.2021
1048 Rain 26 1007 89 10000 1.03 240 06:34 27.11.2021
1049 Rain 24 1011 88 10000 0 0 01:59 27.11.2021
1050 Rain 23 1010 100 8000 2.57 110 23:39 26.11.2021
1051 Clouds 25 1009 78 10000 3.6 100 22:26 26.11.2021
1052 Clouds 25 1008 83 10000 6.69 100 21:39 26.11.2021
1053 Clouds 25 1008 83 10000 6.69 100 21:18 26.11.2021
1054 Rain 25 1007 83 10000 7.72 100 20:40 26.11.2021
1055 Clouds 26 1007 83 10000 6.17 100 19:55 26.11.2021
1056 Clouds 26 1007 83 10000 1.03 360 18:44 26.11.2021
1057 Clouds 26 1007 83 10000 2.06 350 17:24 26.11.2021
1058 Clouds 26 1008 89 10000 2.57 40 16:29 26.11.2021
1059 Clouds 28 1009 74 10000 5.66 90 14:25 26.11.2021
1060 Clouds 30 1007 70 10000 2.57 320 13:31 26.11.2021
1061 Clouds 29 1006 61 10000 3.6 100 10:43 26.11.2021
1062 Clouds 33 1005 52 10000 6.69 300 09:41 26.11.2021
1063 Rain 34 1004 52 10000 6.69 300 08:50 26.11.2021
1064 Clouds 34 1004 54 10000 6.69 300 08:19 26.11.2021
1065 Clouds 34 1005 57 10000 5.66 290 06:30 26.11.2021
1066 Clouds 34 1006 52 10000 3.6 300 04:52 26.11.2021
1067 Clouds 33 1008 58 10000 3.09 290 03:34 26.11.2021
1068 Clouds 28 1008 75 10000 2.57 100 23:30 25.11.2021
1069 Clouds 26 1007 85 10000 2.57 90 22:25 25.11.2021
1070 Clouds 25 1006 88 10000 2.57 90 20:43 25.11.2021
1071 Clouds 25 1006 85 10000 1.54 100 19:21 25.11.2021
1072 Clouds 26 1006 83 10000 1.03 80 18:25 25.11.2021
1073 Clouds 26 1007 89 10000 1.54 130 17:27 25.11.2021
1074 Clouds 26 1007 89 10000 2.57 150 16:45 25.11.2021
1075 Clear 27 1007 78 10000 1.03 160 16:00 25.11.2021
1076 Clouds 27 1007 79 10000 3.09 140 14:31 25.11.2021
1077 Clear 27 1007 73 10000 1.03 80 12:57 25.11.2021
1078 Clear 28 1006 71 10000 1.54 30 11:57 25.11.2021
1079 Clear 29 1006 68 10000 1.54 80 10:49 25.11.2021
1080 Clouds 28 1007 74 10000 8.75 170 08:28 25.11.2021
1081 Clouds 33 1007 55 10000 4.63 330 03:18 25.11.2021
1082 Clouds 33 1008 58 10000 4.12 310 02:43 25.11.2021
1083 Clouds 27 1007 88 10000 1.03 350 22:41 24.11.2021
1084 Clouds 27 1007 82 10000 1.03 330 21:57 24.11.2021
1085 Clouds 27 1006 82 10000 1.54 330 21:22 24.11.2021
1086 Clouds 28 1006 84 10000 1.54 320 20:28 24.11.2021
1087 Clouds 28 1006 78 10000 2.06 300 19:40 24.11.2021
1088 Clouds 29 1006 76 10000 2.57 300 18:29 24.11.2021
1089 Clouds 29 1007 75 10000 3.6 300 16:48 24.11.2021
1090 Clouds 29 1007 74 10000 3.6 330 15:22 24.11.2021
1091 Clouds 30 1007 73 10000 3.6 300 14:31 24.11.2021
1092 Clouds 30 1007 77 10000 3.6 310 13:51 24.11.2021
1093 Clouds 30 1006 75 10000 4.63 330 11:49 24.11.2021
1094 Clouds 31 1005 68 10000 4.12 310 11:19 24.11.2021
1095 Clouds 32 1005 62 10000 3.6 300 10:38 24.11.2021
1096 Clouds 33 1005 59 10000 3.09 300 09:40 24.11.2021
1097 Clouds 34 1004 55 10000 5.14 300 07:42 24.11.2021
1098 Clouds 34 1005 59 10000 5.14 300 06:21 24.11.2021
1099 Clouds 33 1008 62 10000 3.6 320 03:47 24.11.2021
1100 Clouds 30 1008 81 10000 0.51 70 23:42 23.11.2021
1101 Clouds 28 1007 87 10000 1.03 40 22:39 23.11.2021
1102 Clouds 28 1007 87 10000 1.03 160 21:46 23.11.2021
1103 Clouds 29 1010 79 10000 1.54 240 20:47 23.11.2021
1104 Clouds 29 1007 78 10000 2.06 290 19:37 23.11.2021
1105 Clouds 29 1006 78 10000 3.09 310 18:37 23.11.2021
1106 Clouds 29 1006 78 10000 3.09 320 17:57 23.11.2021
1107 Clouds 29 1007 78 10000 3.09 300 16:54 23.11.2021
1108 Clouds 29 1007 78 10000 3.09 300 16:54 23.11.2021
1109 Clouds 29 1007 78 10000 3.09 290 15:41 23.11.2021
1110 Clouds 29 1007 78 10000 3.09 290 15:19 23.11.2021
1111 Clouds 29 1007 78 10000 3.09 290 13:43 23.11.2021
1112 Clouds 31 1006 70 10000 4.12 260 10:41 23.11.2021
1113 Clouds 31 1005 70 10000 5.14 280 09:57 23.11.2021
1114 Clouds 33 1004 61 10000 5.66 300 08:43 23.11.2021
1115 Clouds 33 1006 58 10000 5.66 310 05:57 23.11.2021
1116 Clouds 33 1008 62 10000 3.6 330 03:42 23.11.2021
1117 Clouds 32 1009 64 10000 2.06 340 00:28 23.11.2021
1118 Clouds 30 1008 78 10000 1.03 330 23:20 22.11.2021
1119 Clouds 27 1008 89 10000 0.51 330 22:32 22.11.2021
1120 Clouds 26 1007 90 10000 0 0 21:46 22.11.2021
1121 Clouds 27 1007 89 10000 1.54 330 21:26 22.11.2021
1122 Clouds 26 1007 89 10000 1.03 320 20:49 22.11.2021
1123 Clouds 26 1007 89 10000 1.03 320 20:49 22.11.2021
1124 Clouds 28 1006 85 10000 1.54 330 19:26 22.11.2021
1125 Clouds 28 1006 82 10000 2.57 330 18:58 22.11.2021
1126 Clouds 28 1006 82 10000 2.57 310 18:35 22.11.2021
1127 Clouds 29 1007 81 10000 3.6 310 16:56 22.11.2021
1128 Clouds 29 1008 75 10000 4.63 320 15:42 22.11.2021
1129 Clouds 29 1008 74 10000 4.63 320 12:56 22.11.2021
1130 Clouds 30 1007 72 10000 4.63 300 11:41 22.11.2021
1131 Clear 31 1007 66 10000 5.14 290 10:38 22.11.2021
1132 Clouds 32 1006 58 10000 6.17 300 09:24 22.11.2021
1133 Clouds 32 1006 59 10000 5.66 290 08:36 22.11.2021
1134 Clouds 33 1008 52 10000 4.63 320 04:32 22.11.2021
1135 Clouds 29 1009 79 10000 1.03 350 23:23 21.11.2021
1136 Clouds 28 1009 88 10000 1.03 290 22:46 21.11.2021
1137 Clouds 27 1007 90 10000 1.54 330 21:40 21.11.2021
1138 Clouds 27 1007 90 10000 4.63 310 20:41 21.11.2021
1139 Clouds 26 1007 93 10000 1.03 10 19:46 21.11.2021
1140 Clouds 27 1008 87 10000 2.57 330 17:59 21.11.2021
1141 Clouds 27 1008 85 10000 5.66 10 17:37 21.11.2021
1142 Clouds 29 1009 81 10000 4.12 280 15:25 21.11.2021
1143 Clouds 29 1010 80 9000 4.12 270 14:44 21.11.2021
1144 Clouds 30 1009 77 10000 4.12 280 13:40 21.11.2021
1145 Clouds 30 1009 76 10000 4.63 260 12:35 21.11.2021
1146 Clouds 30 1007 74 10000 4.63 270 11:42 21.11.2021
1147 Clouds 30 1007 74 10000 5.14 280 10:55 21.11.2021
1148 Clouds 31 1006 67 10000 4.63 290 10:18 21.11.2021
1149 Clouds 34 1006 49 10000 4.12 330 08:40 21.11.2021
1150 Clouds 34 1006 49 10000 4.12 330 08:20 21.11.2021
1151 Clear 35 1006 46 10000 5.66 330 07:41 21.11.2021
1152 Clear 34 1007 49 10000 5.14 330 05:49 21.11.2021
1153 Clouds 35 1008 49 10000 5.14 340 05:19 21.11.2021
1154 Clouds 34 1009 52 10000 4.63 10 03:18 21.11.2021
1155 Clouds 33 1010 53 10000 4.12 20 02:50 21.11.2021
1156 Clouds 32 1010 63 10000 4.12 50 00:56 21.11.2021
1157 Clouds 30 1010 74 10000 1.54 110 23:43 20.11.2021
1158 Clouds 28 1008 84 10000 1.54 70 21:40 20.11.2021
1159 Clouds 28 1008 84 10000 1.54 70 20:54 20.11.2021
1160 Clouds 29 1007 81 10000 1.54 20 18:46 20.11.2021
1161 Clouds 29 1007 84 10000 2.57 20 18:26 20.11.2021
1162 Clouds 29 1009 78 10000 1.54 10 17:26 20.11.2021
1163 Clouds 30 1010 76 10000 2.57 10 16:46 20.11.2021
1164 Clouds 30 1009 76 10000 2.57 10 14:46 20.11.2021
1165 Clouds 30 1009 79 10000 2.57 10 14:24 20.11.2021
1166 Clouds 30 1008 77 10000 2.06 330 12:22 20.11.2021
1167 Clouds 31 1007 66 10000 4.63 360 10:35 20.11.2021
1168 Clouds 33 1006 62 10000 5.14 20 09:39 20.11.2021
1169 Clouds 33 1006 62 10000 5.14 20 09:39 20.11.2021
1170 Clouds 35 1006 52 10000 6.17 20 07:37 20.11.2021
1171 Clouds 35 1008 45 10000 7.72 50 05:28 20.11.2021
1172 Clouds 35 1008 48 10000 7.2 60 04:50 20.11.2021
1173 Clouds 33 1010 62 10000 4.12 70 01:58 20.11.2021
1174 Clouds 31 1010 71 10000 4.12 100 00:40 20.11.2021
1175 Clouds 29 1009 80 10000 3.6 100 23:41 19.11.2021
1176 Clouds 28 1008 84 10000 3.09 90 22:21 19.11.2021
1177 Clouds 27 1007 85 10000 1.54 120 20:58 19.11.2021
1178 Clouds 27 1007 86 10000 1.54 130 20:36 19.11.2021
1179 Clouds 27 1009 83 10000 1.54 100 19:55 19.11.2021
1180 Clouds 27 1009 85 10000 1.03 80 18:54 19.11.2021
1181 Clouds 28 1009 82 10000 1.54 80 18:24 19.11.2021
1182 Rain 29 1008 81 10000 1.54 70 17:36 19.11.2021
1183 Clear 29 1008 80 10000 2.57 360 15:58 19.11.2021
1184 Clear 30 1008 75 10000 3.09 40 13:55 19.11.2021
1185 Clouds 31 1006 67 10000 3.6 60 10:28 19.11.2021
1186 Clouds 32 1005 65 10000 4.63 20 09:38 19.11.2021
1187 Clouds 32 1006 64 10000 3.09 30 08:24 19.11.2021
1188 Clouds 34 1008 56 10000 3.6 50 04:53 19.11.2021
1189 Clouds 30 1009 66 10000 3.6 80 02:40 19.11.2021
1190 Clouds 27 1010 69 10000 8.75 40 23:52 18.11.2021
1191 Clouds 27 1012 89 10000 0 0 22:21 18.11.2021
1192 Clouds 27 1007 86 10000 0.51 350 20:50 18.11.2021
1193 Clouds 27 1007 86 10000 0 0 20:31 18.11.2021
1194 Clouds 27 1007 85 10000 0 0 19:55 18.11.2021
1195 Clouds 27 1007 83 10000 0 0 19:34 18.11.2021
1196 Clouds 28 1007 82 10000 1.54 350 18:34 18.11.2021
1197 Clouds 28 1007 81 10000 1.03 330 17:51 18.11.2021
1198 Clouds 28 1008 78 10000 1.54 360 16:45 18.11.2021
1199 Clouds 28 1008 78 10000 1.54 360 16:45 18.11.2021
1200 Clear 29 1007 74 10000 2.06 340 15:51 18.11.2021
1201 Clouds 29 1011 80 10000 1.03 280 13:59 18.11.2021
1202 Clear 30 1006 72 10000 2.06 240 12:34 18.11.2021
1203 Clear 30 1006 71 10000 3.09 260 11:43 18.11.2021
1204 Clear 30 1006 71 10000 3.09 260 11:25 18.11.2021
1205 Clouds 31 1005 67 10000 4.12 280 10:19 18.11.2021
1206 Clouds 34 1006 55 10000 5.66 300 07:39 18.11.2021
1207 Clouds 35 1007 54 10000 5.66 320 05:59 18.11.2021
1208 Clouds 35 1011 53 10000 4.63 300 05:39 18.11.2021
1209 Clouds 33 1013 55 10000 2.06 30 01:24 18.11.2021
1210 Clouds 29 1009 71 10000 1.54 130 23:25 17.11.2021
1211 Clouds 26 1008 84 10000 2.57 140 22:34 17.11.2021
1212 Clouds 25 1008 86 10000 2.57 140 21:55 17.11.2021
1213 Clouds 26 1008 84 10000 2.06 150 21:35 17.11.2021
1214 Clouds 26 1007 89 10000 0.51 320 19:27 17.11.2021
1215 Clouds 27 1008 78 10000 2.06 350 17:31 17.11.2021
1216 Clouds 28 1009 73 10000 3.09 340 15:23 17.11.2021
1217 Clear 29 1009 65 10000 2.06 290 12:51 17.11.2021
1218 Clear 30 1008 64 10000 2.06 270 12:25 17.11.2021
1219 Clear 30 1008 60 10000 2.57 300 10:51 17.11.2021
1220 Clear 33 1007 50 10000 3.6 310 09:29 17.11.2021
1221 Clear 34 1007 46 10000 4.63 310 07:46 17.11.2021
1222 Clear 34 1008 47 10000 5.66 310 06:42 17.11.2021
1223 Clear 34 1011 39 10000 2.57 70 02:47 17.11.2021
1224 Clouds 29 1011 66 10000 1.54 140 23:46 16.11.2021
1225 Clouds 24 1010 83 10000 1.03 130 22:20 16.11.2021
1226 Clouds 25 1008 73 10000 1.54 150 20:19 16.11.2021
1227 Clouds 25 1008 73 10000 2.57 150 19:37 16.11.2021
1228 Clouds 25 1008 78 10000 1.03 40 18:43 16.11.2021
1229 Clouds 25 1008 78 10000 1.03 40 17:44 16.11.2021
1230 Clouds 25 1009 73 10000 1.03 40 16:59 16.11.2021
1231 Clouds 26 1009 69 10000 1.03 50 16:19 16.11.2021
1232 Clear 26 1009 61 10000 1.03 30 15:42 16.11.2021
1233 Clear 28 1009 54 10000 1.54 10 13:42 16.11.2021
1234 Clear 31 1008 46 10000 3.6 360 10:22 16.11.2021
1235 Clear 32 1008 43 10000 4.63 360 09:39 16.11.2021
1236 Clear 35 1007 31 10000 6.17 300 07:41 16.11.2021
1237 Clear 37 1008 18 10000 3.09 140 06:43 16.11.2021
1238 Clouds 26 1010 50 10000 3.6 130 23:26 15.11.2021
1239 Clouds 25 1009 66 10000 3.09 150 22:41 15.11.2021
1240 Clouds 24 1009 86 10000 2.57 150 21:57 15.11.2021
1241 Clear 24 1009 87 10000 2.06 150 21:31 15.11.2021
1242 Clouds 25 1008 91 10000 2.86 142 20:43 15.11.2021
1243 Clouds 25 1008 87 10000 2.29 140 19:26 15.11.2021
1244 Clouds 26 1008 83 10000 2.49 163 17:33 15.11.2021
1245 Clear 26 1009 78 10000 0 0 15:52 15.11.2021
1246 Clear 26 1009 78 10000 1.03 270 15:33 15.11.2021
1247 Clear 28 1009 70 10000 1.54 270 14:27 15.11.2021
1248 Clear 28 1009 67 10000 1.54 290 12:38 15.11.2021
1249 Clear 30 1007 53 10000 1.54 350 10:33 15.11.2021
1250 Clouds 33 1007 47 10000 2.57 350 09:22 15.11.2021
1251 Clear 35 1007 24 10000 3.09 210 07:23 15.11.2021
1252 Clouds 31 1011 64 10000 3.09 120 00:56 15.11.2021
1253 Clouds 27 1011 81 10000 1.54 140 22:44 14.11.2021
1254 Clouds 26 1011 82 10000 1.54 130 22:19 14.11.2021
1255 Clouds 27 1008 79 10000 2.57 45 19:22 14.11.2021
1256 Clouds 26 1008 81 10000 2.57 45 18:55 14.11.2021
1257 Clouds 26 1008 80 10000 2.57 45 18:36 14.11.2021
1258 Clouds 26 1008 80 10000 2.89 41 18:18 14.11.2021
1259 Clouds 27 1008 80 10000 2.89 41 17:58 14.11.2021
1260 Clouds 28 1009 76 10000 2.89 41 17:40 14.11.2021
1261 Clouds 28 1009 76 10000 2.97 7 17:22 14.11.2021
1262 Clouds 29 1009 73 10000 2.24 360 16:59 14.11.2021
1263 Clouds 29 1010 73 10000 2.24 360 16:40 14.11.2021
1264 Clouds 29 1010 73 10000 2.24 360 16:19 14.11.2021
1265 Clouds 29 1010 73 10000 3.09 360 15:20 14.11.2021
1266 Clear 30 1010 73 10000 3.6 10 14:45 14.11.2021
1267 Clear 29 1010 73 10000 3.09 20 14:22 14.11.2021
1268 Clear 29 1010 73 10000 2.06 20 13:52 14.11.2021
1269 Clear 29 1009 74 10000 2.06 10 13:27 14.11.2021
1270 Clear 29 1009 69 10000 1.54 20 12:23 14.11.2021
1271 Clear 30 1008 68 10000 2.06 30 11:28 14.11.2021
1272 Clouds 30 1008 69 10000 3.6 10 10:39 14.11.2021
1273 Clouds 31 1008 68 10000 3.6 20 09:41 14.11.2021
1274 Clouds 32 1008 65 10000 4.12 360 08:51 14.11.2021
1275 Clouds 34 1009 47 10000 5.66 110 04:47 14.11.2021
1276 Clear 26 1010 86 10000 1.54 90 23:27 13.11.2021
1277 Clouds 25 1009 88 10000 0 360 22:21 13.11.2021
1278 Rain 25 1008 89 10000 0 0 21:36 13.11.2021
1279 Rain 24 1008 90 10000 4.92 93 20:46 13.11.2021
1280 Rain 24 1008 91 10000 3.68 92 19:32 13.11.2021
1281 Rain 25 1008 90 10000 3.59 81 18:32 13.11.2021
1282 Rain 25 1008 90 10000 3.59 81 18:32 13.11.2021
1283 Rain 24 1009 92 10000 0.45 252 17:41 13.11.2021
1284 Rain 23 1009 78 10000 4.59 52 16:29 13.11.2021
1285 Clouds 26 1009 92 10000 5.22 51 14:45 13.11.2021
1286 Clouds 26 1010 92 10000 5.4 54 13:56 13.11.2021
1287 Rain 26 1009 93 10000 1.2 113 12:43 13.11.2021
1288 Rain 26 1008 93 10000 4.35 175 11:57 13.11.2021
1289 Rain 29 1009 74 10000 3.3 141 11:24 13.11.2021
1290 Rain 29 1009 74 10000 3.3 141 10:39 13.11.2021
1291 Rain 31 1007 64 10000 2.76 16 09:49 13.11.2021
1292 Thunderstorm 24 1008 94 400 6.69 130 09:31 13.11.2021
1293 Thunderstorm 26 1007 83 800 6.17 130 08:49 13.11.2021
1294 Clouds 35 1005 49 10000 6.17 350 07:54 13.11.2021
1295 Clear 34 1007 46 10000 3.6 310 04:43 13.11.2021
1296 Clear 35 1008 43 10000 4.63 310 04:20 13.11.2021
1297 Clouds 31 1009 71 10000 4.12 230 00:18 13.11.2021
1298 Clouds 29 1008 84 10000 2.57 220 22:34 12.11.2021
1299 Clouds 29 1008 84 10000 2.57 220 22:34 12.11.2021
1300 Clouds 29 1007 83 10000 2.06 250 20:49 12.11.2021
1301 Clouds 29 1006 83 10000 2.57 270 19:33 12.11.2021
1302 Clouds 29 1006 82 10000 2.57 270 18:59 12.11.2021
1303 Clouds 29 1007 82 10000 2.57 270 18:20 12.11.2021
1304 Clear 29 1008 75 10000 2.57 270 15:55 12.11.2021
1305 Clear 30 1008 74 10000 3.6 270 13:46 12.11.2021
1306 Clouds 30 1007 71 10000 3.6 280 11:26 12.11.2021
1307 Clouds 31 1006 69 10000 4.12 290 10:43 12.11.2021
1308 Clouds 33 1005 59 10000 5.14 280 08:59 12.11.2021
1309 Clouds 34 1005 59 10000 5.66 280 08:29 12.11.2021
1310 Clouds 31 1009 72 10000 3.6 270 00:37 12.11.2021
1311 Clouds 30 1008 75 10000 2.57 280 23:30 11.11.2021
1312 Clouds 29 1007 81 10000 2.57 280 22:27 11.11.2021
1313 Clouds 29 1006 82 10000 4.63 300 21:26 11.11.2021
1314 Clouds 29 1006 81 10000 4.12 290 20:18 11.11.2021
1315 Clouds 29 1004 80 10000 4.12 280 18:42 11.11.2021
1316 Clouds 29 1007 78 10000 3.6 280 17:42 11.11.2021
1317 Clouds 29 1008 78 10000 4.12 300 15:51 11.11.2021
1318 Clouds 30 1008 78 10000 2.57 280 14:44 11.11.2021
1319 Clouds 30 1008 78 10000 3.09 280 14:25 11.11.2021
1320 Clouds 30 1007 78 10000 3.6 290 13:36 11.11.2021
1321 Clouds 30 1007 78 10000 3.09 280 12:30 11.11.2021
1322 Clouds 30 1005 71 10000 4.12 270 10:24 11.11.2021
1323 Clouds 32 1004 69 10000 6.69 300 09:23 11.11.2021
1324 Clouds 34 1005 59 10000 7.72 310 07:34 11.11.2021
1325 Clouds 32 1008 70 10000 4.12 310 00:43 11.11.2021
1326 Clouds 30 1007 79 10000 3.09 300 22:46 10.11.2021
1327 Clouds 27 1007 85 10000 3.09 300 21:56 10.11.2021
1328 Clouds 28 1006 83 10000 2.57 300 21:18 10.11.2021
1329 Clouds 27 1007 88 10000 3.09 300 20:35 10.11.2021
1330 Clouds 28 1007 83 10000 2.57 290 19:46 10.11.2021
1331 Clouds 29 1006 75 10000 3.09 280 17:39 10.11.2021
1332 Clouds 29 1006 76 10000 2.57 270 16:21 10.11.2021
1333 Clouds 28 1007 81 10000 2.06 270 14:25 10.11.2021
1334 Clouds 28 1007 84 10000 3.09 270 13:40 10.11.2021
1335 Clouds 28 1007 90 10000 1.54 10 12:39 10.11.2021
1336 Clouds 29 1005 77 10000 4.12 350 10:20 10.11.2021
1337 Clouds 32 1005 63 10000 5.66 290 08:45 10.11.2021
1338 Clouds 33 1005 60 10000 5.66 280 07:22 10.11.2021
1339 Clouds 33 1006 64 10000 6.17 300 05:59 10.11.2021
1340 Clouds 33 1007 58 10000 5.66 290 04:59 10.11.2021
1341 Clouds 29 1008 83 10000 2.06 320 22:54 09.11.2021
1342 Clouds 27 1007 92 10000 2.06 310 21:47 09.11.2021
1343 Clouds 27 1006 87 10000 2.06 320 20:20 09.11.2021
1344 Clouds 27 1007 85 10000 1.54 320 19:20 09.11.2021
1345 Clouds 27 1006 82 10000 0 0 17:30 09.11.2021
1346 Clouds 28 1007 75 10000 1.54 230 15:38 09.11.2021
1347 Clouds 29 1007 78 10000 2.06 290 13:59 09.11.2021
1348 Rain 29 1006 81 10000 3.09 310 12:50 09.11.2021
1349 Rain 29 1006 77 10000 1.54 340 11:38 09.11.2021
1350 Rain 29 1006 75 10000 2.06 320 10:43 09.11.2021
1351 Rain 28 1005 69 10000 0.51 190 09:24 09.11.2021
1352 Rain 27 1006 78 10000 5.66 140 08:19 09.11.2021
1353 Clouds 34 1007 62 10000 6.17 300 05:45 09.11.2021
1354 Clouds 32 1009 64 10000 2.57 260 02:19 09.11.2021
1355 Clouds 32 1009 66 10000 1.03 170 01:39 09.11.2021
1356 Clouds 29 1008 78 10000 1.54 120 23:35 08.11.2021
1357 Clouds 27 1008 87 10000 1.54 70 22:49 08.11.2021
1358 Clouds 26 1008 89 10000 2.06 80 21:46 08.11.2021
1359 Clouds 26 1008 89 10000 2.06 80 21:46 08.11.2021
1360 Clouds 26 1007 89 10000 1.03 70 20:47 08.11.2021
1361 Clouds 26 1007 85 10000 1.54 90 19:48 08.11.2021
1362 Clouds 27 1007 89 10000 2.06 150 18:25 08.11.2021
1363 Clouds 27 1008 85 10000 1.54 120 16:21 08.11.2021
1364 Clouds 29 1009 81 10000 1.54 140 14:58 08.11.2021
1365 Clouds 29 1009 81 10000 1.54 180 14:37 08.11.2021
1366 Clouds 29 1008 81 10000 1.54 170 13:24 08.11.2021
1367 Clear 29 1007 80 10000 2.06 180 11:56 08.11.2021
1368 Rain 30 1006 75 10000 2.06 190 10:50 08.11.2021
1369 Clouds 32 1006 58 10000 3.6 270 09:39 08.11.2021
1370 Clouds 32 1006 58 10000 4.12 290 08:54 08.11.2021
1371 Clouds 33 1005 57 10000 5.14 290 07:29 08.11.2021
1372 Clouds 32 1008 63 10000 3.6 330 03:56 08.11.2021
1373 Clouds 32 1009 62 10000 2.06 340 03:28 08.11.2021
1374 Clouds 31 1009 67 10000 1.03 340 23:46 07.11.2021
1375 Clouds 26 1008 89 10000 1.54 350 21:48 07.11.2021
1376 Clouds 27 1007 88 10000 1.03 350 20:54 07.11.2021
1377 Clouds 28 1006 80 10000 2.57 360 19:30 07.11.2021
1378 Clouds 28 1006 83 10000 2.06 350 18:22 07.11.2021
1379 Clouds 28 1007 84 10000 1.54 360 16:54 07.11.2021
1380 Clouds 28 1007 85 10000 0 0 15:48 07.11.2021
1381 Clouds 28 1007 82 10000 0.51 280 14:29 07.11.2021
1382 Clouds 28 1007 79 10000 2.06 270 13:26 07.11.2021
1383 Clouds 29 1006 74 10000 3.09 310 11:43 07.11.2021
1384 Clouds 32 1007 62 10000 3.09 280 09:52 07.11.2021
1385 Clouds 33 1005 52 10000 3.09 310 07:54 07.11.2021
1386 Clouds 29 1009 78 10000 2.57 120 02:38 07.11.2021
1387 Rain 23 1010 88 8000 4.63 40 23:38 06.11.2021
1388 Rain 26 1008 89 10000 3.6 360 22:48 06.11.2021
1389 Clouds 26 1007 93 10000 1.54 60 21:33 06.11.2021
1390 Rain 26 1006 94 10000 0.51 210 20:50 06.11.2021
1391 Rain 26 1006 92 5000 2.57 260 18:56 06.11.2021
1392 Clouds 28 1007 82 10000 3.09 310 16:47 06.11.2021
1393 Clouds 28 1007 82 10000 3.09 310 16:47 06.11.2021
1394 Clouds 28 1007 82 10000 3.09 310 16:47 06.11.2021
1395 Clouds 28 1007 82 10000 3.09 310 16:47 06.11.2021
1396 Clouds 28 1007 82 10000 3.09 310 16:47 06.11.2021
1397 Clouds 28 1007 82 10000 2.57 310 15:20 06.11.2021
1398 Clouds 28 1006 78 10000 2.57 310 13:38 06.11.2021
1399 Clear 28 1005 77 10000 2.57 290 11:53 06.11.2021
1400 Clouds 31 1004 66 10000 3.09 290 09:33 06.11.2021
1401 Clouds 31 1004 65 10000 2.57 320 07:55 06.11.2021
1402 Clouds 30 1010 76 10000 3.6 190 02:36 06.11.2021
1403 Rain 26 1009 89 10000 1.03 140 23:37 05.11.2021
1404 Rain 26 1008 94 10000 3.09 100 22:39 05.11.2021
1405 Rain 25 1008 91 6000 2.06 150 21:50 05.11.2021
1406 Thunderstorm 26 1007 87 10000 2.57 60 20:20 05.11.2021
1407 Thunderstorm 26 1007 82 10000 4.12 20 19:48 05.11.2021
1408 Clouds 27 1007 90 10000 1.54 170 18:41 05.11.2021
1409 Clouds 28 1008 87 10000 0.51 190 17:30 05.11.2021
1410 Clouds 29 1008 81 10000 1.54 230 15:43 05.11.2021
1411 Rain 29 1008 84 10000 2.57 270 13:55 05.11.2021
1412 Rain 29 1007 78 10000 2.57 270 11:31 05.11.2021
1413 Clouds 32 1010 67 10000 3.6 310 08:41 05.11.2021
1414 Clouds 32 1006 65 10000 4.12 330 07:39 05.11.2021
1415 Clouds 32 1006 65 10000 4.12 330 07:39 05.11.2021
1416 Clouds 32 1008 65 10000 4.12 320 05:33 05.11.2021
1417 Clouds 32 1008 65 10000 4.12 320 05:33 05.11.2021
1418 Rain 32 1010 64 10000 1.03 360 02:26 05.11.2021
1419 Clouds 31 1011 71 10000 1.54 150 00:52 05.11.2021
1420 Clear 26 1010 94 10000 1.54 150 23:24 04.11.2021
1421 Rain 26 1009 89 10000 1.03 180 22:20 04.11.2021
1422 Rain 25 1009 94 10000 0 0 21:43 04.11.2021
1423 Clouds 25 1009 88 10000 1.03 180 20:53 04.11.2021
1424 Rain 25 1008 88 10000 1.54 220 20:22 04.11.2021
1425 Rain 25 1008 94 10000 0 0 19:47 04.11.2021
1426 Rain 24 1009 94 10000 1.54 310 18:52 04.11.2021
1427 Drizzle 24 1009 100 10000 2.06 340 18:18 04.11.2021
1428 Thunderstorm 24 1010 94 10000 2.06 90 16:53 04.11.2021
1429 Clouds 27 1011 89 10000 0.51 10 15:18 04.11.2021
1430 Clouds 30 1009 77 10000 1.03 290 12:53 04.11.2021
1431 Clouds 31 1007 62 10000 2.57 360 09:42 04.11.2021
1432 Clouds 29 1007 74 10000 1.54 280 08:31 04.11.2021
1433 Clouds 26 1008 83 10000 4.63 220 07:35 04.11.2021
1434 Clouds 34 1008 50 10000 6.69 360 06:18 04.11.2021
1435 Rain 28 1011 85 10000 2.57 130 22:53 03.11.2021
1436 Clouds 28 1010 89 10000 2.06 140 21:50 03.11.2021
1437 Clouds 28 1010 90 10000 1.03 100 21:30 03.11.2021
1438 Clouds 28 1009 94 10000 1.03 100 20:37 03.11.2021
1439 Clouds 28 1009 94 10000 1.03 100 20:18 03.11.2021
1440 Clouds 27 1009 89 2300 6.69 70 19:19 03.11.2021
1441 Clouds 29 1010 82 10000 1.54 60 18:25 03.11.2021
1442 Clouds 29 1011 84 10000 1.54 110 17:36 03.11.2021
1443 Clouds 29 1011 81 10000 1.03 340 16:27 03.11.2021
1444 Clouds 29 1011 80 10000 2.06 310 15:44 03.11.2021
1445 Clouds 30 1011 77 10000 3.09 320 14:25 03.11.2021
1446 Clear 30 1010 65 10000 3.09 40 12:33 03.11.2021
1447 Clouds 31 1008 64 10000 2.06 350 11:27 03.11.2021
1448 Clouds 31 1008 60 10000 3.09 10 10:49 03.11.2021
1449 Clouds 31 1008 60 10000 3.09 10 10:49 03.11.2021
1450 Clouds 31 1008 60 10000 3.09 10 10:49 03.11.2021
1451 Clouds 33 1007 57 10000 4.63 360 09:31 03.11.2021
1452 Clouds 33 1007 57 10000 4.63 360 09:31 03.11.2021
1453 Clouds 34 1007 52 10000 5.14 350 08:24 03.11.2021
1454 Clouds 35 1008 55 10000 5.14 10 07:39 03.11.2021
1455 Clouds 34 1010 59 10000 5.14 30 05:35 03.11.2021
1456 Clouds 28 1013 83 10000 5.14 50 03:19 03.11.2021
1457 Clouds 30 1017 75 10000 3.09 70 23:57 02.11.2021
1458 Clouds 27 1012 85 10000 2.57 100 22:48 02.11.2021
1459 Clouds 26 1011 85 10000 2.06 110 21:45 02.11.2021
1460 Clouds 27 1015 81 10000 2.57 80 20:34 02.11.2021
1461 Clouds 28 1010 81 10000 3.09 100 19:54 02.11.2021
1462 Clouds 28 1010 85 10000 2.57 110 19:18 02.11.2021
1463 Clouds 27 1010 87 10000 2.06 130 18:26 02.11.2021
1464 Clouds 28 1011 87 10000 1.54 130 17:43 02.11.2021
1465 Clouds 28 1011 84 10000 1.54 10 16:33 02.11.2021
1466 Clouds 28 1011 83 10000 2.06 340 15:48 02.11.2021
1467 Clouds 29 1011 84 10000 2.57 350 14:31 02.11.2021
1468 Clouds 29 1011 79 10000 1.03 330 13:28 02.11.2021
1469 Clouds 29 1010 78 10000 2.06 360 12:43 02.11.2021
1470 Clouds 29 1010 78 10000 2.57 360 11:38 02.11.2021
1471 Clouds 30 1009 77 10000 1.54 350 10:54 02.11.2021
1472 Clouds 30 1009 72 10000 3.6 360 10:30 02.11.2021
1473 Clouds 33 1009 60 10000 3.6 20 08:45 02.11.2021
1474 Clouds 33 1008 59 10000 3.6 50 07:36 02.11.2021
1475 Clear 28 1012 83 10000 1.54 110 03:51 02.11.2021
1476 Rain 26 1013 89 10000 0.51 160 02:35 02.11.2021
1477 Rain 24 1012 88 10000 3.6 150 23:20 01.11.2021
1478 Thunderstorm 25 1011 89 2000 10.29 60 21:27 01.11.2021
1479 Clouds 28 1009 82 10000 1.03 340 20:39 01.11.2021
1480 Clouds 28 1013 82 10000 1.03 360 19:58 01.11.2021
1481 Clouds 28 1009 82 10000 1.03 360 19:30 01.11.2021
1482 Clouds 28 1010 78 10000 1.54 340 18:23 01.11.2021
1483 Clouds 29 1010 76 10000 1.54 300 17:35 01.11.2021
1484 Clouds 29 1011 75 10000 1.03 290 16:50 01.11.2021
1485 Clouds 29 1011 75 10000 2.57 290 15:55 01.11.2021
1486 Clouds 30 1012 74 10000 3.09 300 15:27 01.11.2021
1487 Clouds 30 1011 72 10000 3.09 310 14:43 01.11.2021
1488 Clear 30 1011 70 10000 3.6 310 14:23 01.11.2021
1489 Clear 30 1011 70 10000 3.6 320 13:49 01.11.2021
1490 Clear 30 1010 72 10000 3.6 330 12:33 01.11.2021
1491 Rain 32 1008 59 10000 2.57 10 10:36 01.11.2021
1492 Thunderstorm 33 1008 53 10000 3.6 360 09:43 01.11.2021
1493 Clouds 35 1007 49 10000 4.12 350 07:50 01.11.2021
1494 Clouds 35 1007 49 10000 4.12 350 07:30 01.11.2021
1495 Clouds 34 1011 46 10000 2.57 90 03:45 01.11.2021
1496 Clear 30 1012 56 10000 4.63 130 00:41 01.11.2021
1497 Clear 26 1011 74 10000 3.6 130 22:31 31.10.2021
1498 Clouds 26 1010 76 10000 3.6 150 20:50 31.10.2021
1499 Clouds 26 1010 76 10000 3.09 140 19:20 31.10.2021
1500 Clouds 26 1011 74 10000 4.12 150 18:38 31.10.2021
1501 Clouds 26 1011 70 10000 3.6 150 17:31 31.10.2021
1502 Clear 27 1012 70 10000 5.66 140 15:50 31.10.2021
1503 Clear 27 1013 75 10000 5.14 150 13:58 31.10.2021
1504 Clear 28 1013 75 10000 3.09 180 12:49 31.10.2021
1505 Clear 29 1011 72 10000 4.63 200 11:40 31.10.2021
1506 Clear 30 1010 67 10000 4.63 200 10:42 31.10.2021
1507 Clear 34 1009 36 10000 3.09 290 09:21 31.10.2021
1508 Clear 34 1009 36 10000 3.09 290 09:21 31.10.2021
1509 Clear 34 1009 40 10000 3.6 270 08:19 31.10.2021
1510 Clouds 30 1015 71 10000 3.09 70 00:58 31.10.2021
1511 Clouds 26 1012 85 10000 1.54 70 22:45 30.10.2021
1512 Clouds 26 1010 85 10000 1.03 360 21:35 30.10.2021
1513 Clouds 27 1012 80 10000 0.51 360 20:33 30.10.2021
1514 Clouds 28 1011 75 10000 2.06 320 18:45 30.10.2021
1515 Clouds 29 1011 71 10000 2.57 320 17:25 30.10.2021
1516 Clear 30 1012 67 10000 3.6 350 14:50 30.10.2021
1517 Clear 30 1011 67 10000 3.09 330 13:39 30.10.2021
1518 Clear 30 1011 67 10000 3.09 330 13:21 30.10.2021
1519 Clear 31 1009 65 10000 3.6 340 11:58 30.10.2021
1520 Clouds 31 1009 64 10000 4.63 340 11:39 30.10.2021
1521 Clear 34 1008 53 10000 3.6 300 10:32 30.10.2021
1522 Clouds 34 1009 46 10000 2.57 310 08:52 30.10.2021
1523 Clouds 35 1009 46 10000 4.63 330 07:19 30.10.2021
1524 Clouds 34 1011 57 10000 4.63 310 05:39 30.10.2021
1525 Clouds 31 1013 74 10000 1.54 50 00:47 30.10.2021
1526 Clouds 28 1012 85 10000 1.03 80 22:43 29.10.2021
1527 Clouds 28 1012 85 10000 1.03 80 22:20 29.10.2021
1528 Clouds 28 1010 85 10000 0 0 20:46 29.10.2021
1529 Clouds 28 1010 83 10000 0.51 300 19:56 29.10.2021
1530 Clouds 29 1010 82 10000 2.06 250 18:33 29.10.2021
1531 Clouds 30 1012 73 10000 2.57 330 16:52 29.10.2021
1532 Clouds 29 1011 75 10000 3.6 320 14:36 29.10.2021
1533 Rain 31 1009 66 10000 4.12 330 11:56 29.10.2021
1534 Clouds 32 1008 58 10000 4.12 300 10:44 29.10.2021
1535 Clouds 34 1008 52 10000 4.63 310 08:38 29.10.2021
1536 Clouds 29 1012 73 10000 0 0 00:37 29.10.2021
1537 Clouds 28 1011 81 10000 1.54 330 23:25 28.10.2021
1538 Clouds 27 1010 80 10000 0.51 330 22:18 28.10.2021
1539 Clouds 28 1010 77 10000 1.54 330 20:54 28.10.2021
1540 Clouds 29 1009 74 10000 2.57 310 19:51 28.10.2021
1541 Clouds 29 1010 73 10000 2.06 340 18:26 28.10.2021
1542 Clouds 29 1010 71 10000 3.09 330 17:18 28.10.2021
1543 Rain 30 1011 71 10000 4.63 330 15:48 28.10.2021
1544 Clear 30 1010 70 10000 5.14 330 14:25 28.10.2021
1545 Clear 30 1010 65 10000 4.12 310 13:29 28.10.2021
1546 Rain 30 1009 71 10000 6.17 300 12:41 28.10.2021
1547 Clouds 32 1008 62 10000 5.14 330 10:57 28.10.2021
1548 Clouds 34 1007 55 10000 5.14 340 09:39 28.10.2021
1549 Clouds 34 1007 55 10000 5.14 340 09:20 28.10.2021
1550 Clear 34 1007 52 10000 5.14 340 08:35 28.10.2021
1551 Clouds 35 1008 46 10000 4.63 330 07:40 28.10.2021
1552 Clouds 29 1011 74 10000 1.03 180 00:21 28.10.2021
1553 Clouds 27 1011 87 10000 3.6 130 22:31 27.10.2021
1554 Clouds 28 1010 86 10000 1.54 150 21:34 27.10.2021
1555 Clouds 28 1012 81 10000 2.06 150 20:54 27.10.2021
1556 Clouds 28 1012 79 10000 1.54 210 20:34 27.10.2021
1557 Clouds 29 1012 77 10000 1.03 300 19:42 27.10.2021
1558 Clouds 29 1010 78 10000 2.06 310 18:53 27.10.2021
1559 Clouds 29 1012 76 10000 2.57 320 16:38 27.10.2021
1560 Clouds 29 1012 76 10000 2.57 320 16:18 27.10.2021
1561 Clouds 29 1012 76 10000 3.09 320 15:21 27.10.2021
1562 Clouds 30 1010 71 10000 4.12 320 12:57 27.10.2021
1563 Rain 33 1009 56 10000 2.57 310 10:59 27.10.2021
1564 Clouds 33 1009 52 10000 3.6 310 10:01 27.10.2021
1565 Clouds 33 1009 58 10000 3.6 320 08:58 27.10.2021
1566 Thunderstorm 31 1010 66 10000 4.12 350 07:36 27.10.2021
1567 Clouds 33 1011 55 10000 4.63 300 05:35 27.10.2021
1568 Clouds 31 1013 62 10000 1.03 340 01:18 27.10.2021
1569 Clouds 31 1012 69 10000 0 0 00:33 27.10.2021
1570 Clouds 28 1011 81 10000 2.06 70 23:51 26.10.2021
1571 Clouds 27 1011 85 10000 1.03 30 22:42 26.10.2021
1572 Clouds 27 1011 85 10000 1.03 30 22:19 26.10.2021
1573 Clear 28 1010 81 10000 1.54 320 20:59 26.10.2021
1574 Clouds 28 1010 78 10000 2.06 330 19:33 26.10.2021
1575 Clouds 29 1010 77 10000 3.09 340 18:53 26.10.2021
1576 Clouds 29 1011 71 10000 3.6 340 16:58 26.10.2021
1577 Clouds 29 1011 74 10000 3.09 330 15:34 26.10.2021
1578 Clear 31 1009 64 10000 3.09 300 11:50 26.10.2021
1579 Clouds 33 1008 56 10000 3.6 310 10:46 26.10.2021
1580 Clouds 34 1008 49 10000 5.14 350 08:24 26.10.2021
1581 Clouds 34 1009 49 10000 4.63 350 07:21 26.10.2021
1582 Clouds 26 1013 78 10000 1.54 100 23:53 25.10.2021
1583 Clouds 26 1013 79 10000 2.06 60 23:20 25.10.2021
1584 Clouds 26 1011 79 10000 0.51 110 22:21 25.10.2021
1585 Clouds 26 1010 79 10000 1.54 80 21:40 25.10.2021
1586 Clouds 26 1010 78 10000 1.54 110 20:19 25.10.2021
1587 Clouds 26 1010 78 10000 1.54 160 19:42 25.10.2021
1588 Clouds 26 1010 78 10000 1.54 160 19:20 25.10.2021
1589 Clouds 27 1010 76 10000 1.54 120 18:33 25.10.2021
1590 Clouds 28 1011 76 10000 0 0 16:38 25.10.2021
1591 Clear 28 1010 71 10000 0.51 260 14:45 25.10.2021
1592 Clear 29 1009 69 10000 2.06 200 12:31 25.10.2021
1593 Clear 32 1008 54 10000 2.57 260 10:30 25.10.2021
1594 Clouds 33 1008 48 10000 5.66 310 08:54 25.10.2021
1595 Clouds 33 1009 49 10000 4.63 320 06:26 25.10.2021
1596 Clouds 31 1012 66 10000 2.06 280 02:44 25.10.2021
1597 Clouds 30 1012 74 10000 0.51 230 00:48 25.10.2021
1598 Clouds 28 1011 84 10000 1.03 150 23:47 24.10.2021
1599 Clouds 27 1011 89 10000 1.03 150 23:19 24.10.2021
1600 Clouds 27 1010 85 10000 1.03 330 22:37 24.10.2021
1601 Clouds 27 1010 85 10000 1.03 330 22:18 24.10.2021
1602 Clouds 28 1010 81 10000 1.54 330 20:46 24.10.2021
1603 Clouds 28 1011 80 10000 1.54 330 20:27 24.10.2021
1604 Clouds 28 1011 81 10000 1.54 340 19:22 24.10.2021
1605 Clouds 28 1010 78 10000 1.54 360 18:27 24.10.2021
1606 Clouds 28 1011 77 10000 2.57 300 17:35 24.10.2021
1607 Clouds 29 1010 78 10000 3.6 310 15:55 24.10.2021
1608 Clouds 29 1011 80 10000 4.12 310 14:25 24.10.2021
1609 Clouds 30 1010 71 10000 5.14 300 12:58 24.10.2021
1610 Clouds 31 1009 60 10000 4.12 340 11:44 24.10.2021
1611 Clouds 33 1009 52 10000 4.63 340 10:56 24.10.2021
1612 Clouds 34 1009 40 10000 5.14 310 09:59 24.10.2021
1613 Clouds 34 1009 46 10000 6.17 330 07:41 24.10.2021
1614 Clouds 28 1012 78 10000 2.06 50 00:57 24.10.2021
1615 Clouds 26 1011 84 10000 2.57 110 23:47 23.10.2021
1616 Clear 26 1010 78 10000 2.57 20 22:18 23.10.2021
1617 Clouds 26 1011 83 10000 1.54 310 20:36 23.10.2021
1618 Clouds 24 1012 88 10000 3.09 190 18:59 23.10.2021
1619 Clouds 26 1012 73 10000 8.23 110 18:26 23.10.2021
1620 Clouds 29 1011 81 10000 1.03 340 17:43 23.10.2021
1621 Clouds 29 1012 79 10000 2.57 280 16:23 23.10.2021
1622 Clouds 29 1011 75 10000 4.12 290 14:27 23.10.2021
1623 Clouds 33 1013 54 10000 3.6 340 03:34 23.10.2021
1624 Clouds 30 1012 73 10000 4.12 350 00:19 23.10.2021
1625 Clouds 27 1011 84 10000 2.06 360 22:53 22.10.2021
1626 Clouds 28 1010 80 10000 2.57 330 20:37 22.10.2021
1627 Clouds 28 1011 78 10000 2.06 300 18:44 22.10.2021
1628 Clouds 29 1012 79 10000 3.6 330 17:43 22.10.2021
1629 Clouds 29 1011 78 10000 4.12 300 15:26 22.10.2021
1630 Clear 30 1011 78 10000 2.57 300 13:52 22.10.2021
1631 Clear 31 1008 69 10000 3.09 300 11:24 22.10.2021
1632 Clear 32 1008 62 10000 2.57 310 10:41 22.10.2021
1633 Clouds 32 1008 64 10000 2.57 310 09:56 22.10.2021
1634 Clouds 33 1008 62 10000 4.12 350 08:36 22.10.2021
1635 Clouds 33 1009 58 10000 4.12 340 07:22 22.10.2021
1636 Clouds 32 1013 64 10000 3.6 280 02:57 22.10.2021
1637 Clouds 29 1010 78 10000 4.12 280 23:57 21.10.2021
1638 Clouds 29 1010 80 10000 3.09 270 23:38 21.10.2021
1639 Clouds 29 1009 82 10000 4.12 290 21:52 21.10.2021
1640 Clouds 29 1008 82 10000 5.66 310 20:42 21.10.2021
1641 Clouds 29 1008 82 10000 5.66 310 20:19 21.10.2021
1642 Clouds 29 1008 82 10000 6.17 320 19:29 21.10.2021
1643 Clouds 29 1008 82 10000 6.17 330 18:46 21.10.2021
1644 Clouds 29 1009 82 10000 5.66 320 18:18 21.10.2021
1645 Clouds 29 1009 82 10000 4.63 320 17:37 21.10.2021
1646 Clouds 29 1010 81 10000 5.14 310 15:54 21.10.2021
1647 Clouds 29 1010 82 10000 5.66 310 15:20 21.10.2021
1648 Clouds 30 1010 77 10000 4.12 290 14:38 21.10.2021
1649 Clear 29 1009 76 10000 4.12 300 13:19 21.10.2021
1650 Clear 31 1008 71 10000 4.63 280 11:24 21.10.2021
1651 Clear 33 1007 58 10000 5.66 320 08:55 21.10.2021
1652 Dust 34 1010 59 10000 5.66 320 07:29 21.10.2021
1653 Clouds 33 1011 62 10000 5.14 300 03:31 21.10.2021
1654 Clouds 29 1009 83 10000 3.6 270 23:29 20.10.2021
1655 Clouds 28 1008 84 10000 4.12 290 22:18 20.10.2021
1656 Clouds 28 1008 85 10000 3.09 310 21:38 20.10.2021
1657 Clouds 28 1009 82 10000 3.6 330 20:54 20.10.2021
1658 Clouds 28 1009 82 10000 3.6 310 20:33 20.10.2021
1659 Clouds 28 1009 82 10000 3.09 310 19:57 20.10.2021
1660 Clear 29 1008 81 10000 2.57 300 18:54 20.10.2021
1661 Clear 29 1010 77 10000 2.57 290 17:50 20.10.2021
1662 Clear 29 1010 73 10000 4.63 300 15:39 20.10.2021
1663 Clouds 33 1008 42 10000 5.66 300 10:43 20.10.2021
1664 Clear 35 1008 36 10000 6.69 300 08:53 20.10.2021
1665 Clouds 34 1012 49 10000 4.63 310 04:50 20.10.2021
1666 Clouds 30 1013 75 10000 2.57 270 00:47 20.10.2021
1667 Clouds 30 1013 76 10000 2.06 270 00:18 20.10.2021
1668 Clouds 29 1011 82 10000 1.54 270 21:44 19.10.2021
1669 Clouds 29 1012 81 10000 2.57 250 20:54 19.10.2021
1670 Clouds 29 1012 82 10000 2.06 270 20:25 19.10.2021
1671 Clouds 28 1012 82 10000 2.06 280 19:41 19.10.2021
1672 Clouds 28 1012 82 10000 2.06 280 19:19 19.10.2021
1673 Clouds 29 1012 81 10000 1.54 280 17:59 19.10.2021
1674 Clouds 29 1013 79 10000 3.09 280 15:48 19.10.2021
1675 Clouds 29 1013 79 10000 3.09 250 15:20 19.10.2021
1676 Clouds 30 1014 77 10000 4.12 220 14:27 19.10.2021
1677 Clouds 30 1012 76 10000 4.12 270 13:35 19.10.2021
1678 Clouds 30 1011 71 10000 4.63 280 11:37 19.10.2021
1679 Clouds 31 1010 64 10000 5.66 250 10:36 19.10.2021
1680 Clouds 34 1010 46 10000 5.66 300 08:58 19.10.2021
1681 Clouds 34 1011 52 10000 6.69 310 07:20 19.10.2021
1682 Clouds 29 1013 80 10000 0.51 80 00:26 19.10.2021
1683 Clouds 27 1013 87 10000 1.54 70 23:51 18.10.2021
1684 Clouds 26 1012 86 10000 0 0 23:20 18.10.2021
1685 Clouds 26 1012 86 10000 0 0 22:54 18.10.2021
1686 Rain 27 1013 85 10000 1.54 330 21:54 18.10.2021
1687 Clouds 27 1011 83 10000 1.54 340 20:42 18.10.2021
1688 Clouds 27 1011 82 10000 1.54 340 20:19 18.10.2021
1689 Clouds 28 1013 81 10000 1.03 360 19:30 18.10.2021
1690 Clouds 28 1012 82 10000 1.03 290 18:58 18.10.2021
1691 Clouds 28 1013 78 10000 2.57 280 15:56 18.10.2021
1692 Clouds 29 1012 74 10000 2.57 280 14:30 18.10.2021
1693 Clouds 30 1010 66 10000 2.57 270 11:20 18.10.2021
1694 Clouds 33 1010 60 10000 4.12 310 09:37 18.10.2021
1695 Clouds 33 1011 55 10000 3.09 290 05:32 18.10.2021
1696 Clouds 27 1011 83 10000 0 0 23:51 17.10.2021
1697 Clouds 27 1010 82 10000 0 0 22:23 17.10.2021
1698 Clouds 27 1009 82 10000 1.03 330 21:42 17.10.2021
1699 Clouds 27 1010 82 10000 2.06 330 20:49 17.10.2021
1700 Clouds 27 1010 85 10000 1.54 290 19:56 17.10.2021
1701 Clouds 27 1011 82 10000 1.03 290 19:37 17.10.2021
1702 Clouds 28 1012 80 10000 0.89 290 18:28 17.10.2021
1703 Clouds 29 1013 74 10000 2.57 290 15:57 17.10.2021
1704 Clouds 29 1012 75 10000 2.57 280 14:38 17.10.2021
1705 Clouds 29 1011 74 10000 3.09 300 13:59 17.10.2021
1706 Clear 29 1011 74 10000 3.09 290 13:30 17.10.2021
1707 Clouds 31 1009 66 10000 5.14 340 11:27 17.10.2021
1708 Clouds 33 1008 55 10000 4.63 330 09:56 17.10.2021
1709 Clouds 33 1010 52 10000 4.63 340 08:29 17.10.2021
1710 Clouds 31 1012 61 10000 3.09 40 02:57 17.10.2021
1711 Clouds 29 1011 71 10000 2.06 10 00:30 17.10.2021
1712 Clouds 26 1009 81 10000 1.54 350 22:47 16.10.2021
1713 Clouds 27 1008 81 10000 2.06 10 20:45 16.10.2021
1714 Clouds 27 1009 81 10000 2.06 30 20:26 16.10.2021
1715 Clouds 27 1009 79 10000 1.54 60 19:40 16.10.2021
1716 Clouds 27 1009 79 10000 1.54 60 19:19 16.10.2021
1717 Clouds 27 1009 79 10000 1.54 60 19:19 16.10.2021
1718 Clouds 26 1009 81 10000 1.54 20 18:44 16.10.2021
1719 Clouds 26 1009 81 10000 1.54 20 18:23 16.10.2021
1720 Clouds 28 1010 75 10000 1.54 40 17:33 16.10.2021
1721 Clear 28 1010 73 10000 3.09 360 16:20 16.10.2021
1722 Clouds 29 1008 73 10000 5.14 320 13:26 16.10.2021
1723 Clouds 32 1007 61 10000 6.69 360 11:24 16.10.2021
1724 Clouds 33 1007 50 10000 6.17 30 09:35 16.10.2021
1725 Clouds 34 1009 56 10000 4.12 10 04:33 16.10.2021
1726 Clouds 29 1010 80 10000 3.6 70 00:51 16.10.2021
1727 Clouds 26 1009 86 10000 1.54 130 23:27 15.10.2021
1728 Clouds 26 1008 90 10000 1.54 90 22:21 15.10.2021
1729 Clouds 26 1007 89 10000 1.54 70 21:41 15.10.2021
1730 Clouds 27 1007 89 10000 1.54 70 20:54 15.10.2021
1731 Clouds 27 1007 89 10000 1.54 70 20:35 15.10.2021
1732 Clouds 26 1007 90 10000 1.54 10 19:20 15.10.2021
1733 Clouds 26 1007 86 10000 1.03 360 18:22 15.10.2021
1734 Clouds 26 1007 86 10000 1.03 360 18:22 15.10.2021
1735 Clear 28 1008 78 10000 2.57 280 15:49 15.10.2021
1736 Clear 29 1008 75 10000 3.09 310 14:26 15.10.2021
1737 Clear 30 1007 73 10000 4.63 310 12:26 15.10.2021
1738 Clouds 30 1007 67 10000 4.12 330 11:19 15.10.2021
1739 Clouds 31 1006 63 10000 6.69 310 10:31 15.10.2021
1740 Clouds 34 1006 59 10000 8.23 300 08:21 15.10.2021
1741 Clouds 34 1009 52 10000 3.6 310 04:46 15.10.2021
1742 Clouds 29 1010 76 10000 3.09 240 00:25 15.10.2021
1743 Clouds 27 1009 83 10000 1.54 280 23:26 14.10.2021
1744 Clouds 27 1008 83 10000 2.57 310 22:22 14.10.2021
1745 Clouds 27 1008 85 10000 2.57 320 21:37 14.10.2021
1746 Clouds 27 1008 81 10000 2.57 330 20:21 14.10.2021
1747 Clouds 28 1008 80 10000 3.09 340 19:46 14.10.2021
1748 Clouds 28 1008 82 10000 4.12 340 18:44 14.10.2021
1749 Clear 29 1010 77 10000 3.09 320 16:59 14.10.2021
1750 Clear 29 1010 80 10000 3.09 330 16:32 14.10.2021
1751 Clear 29 1009 81 10000 3.6 300 14:55 14.10.2021
1752 Clear 29 1009 77 10000 3.6 300 14:27 14.10.2021
1753 Clouds 29 1009 78 10000 4.12 300 13:34 14.10.2021
1754 Clear 31 1008 69 10000 1.03 330 11:35 14.10.2021
1755 Clouds 30 1008 51 10000 6.69 100 09:28 14.10.2021
1756 Clouds 34 1008 49 10000 5.81 320 06:21 14.10.2021
1757 Clouds 29 1009 83 10000 1.34 350 00:43 14.10.2021
1758 Clear 26 1008 89 10000 1.54 330 22:46 13.10.2021
1759 Clouds 27 1007 83 10000 1.03 330 21:37 13.10.2021
1760 Clouds 26 1007 88 10000 2.06 350 20:45 13.10.2021
1761 Clouds 27 1007 82 10000 1.03 240 19:41 13.10.2021
1762 Clouds 27 1007 84 10000 0.51 220 18:48 13.10.2021
1763 Clouds 27 1008 78 10000 1.54 220 17:28 13.10.2021
1764 Clouds 29 1009 76 10000 3.09 260 14:55 13.10.2021
1765 Clouds 29 1009 76 10000 3.09 250 14:34 13.10.2021
1766 Clouds 29 1008 73 10000 3.6 280 12:48 13.10.2021
1767 Clear 30 1007 67 10000 3.6 280 11:51 13.10.2021
1768 Clouds 32 1006 54 10000 5.14 290 10:21 13.10.2021
1769 Clouds 33 1006 43 10000 4.63 300 07:54 13.10.2021
1770 Clouds 32 1009 58 10000 3.6 310 05:40 13.10.2021
1771 Rain 31 1010 64 10000 3.6 340 02:23 13.10.2021
1772 Clouds 27 1009 83 10000 2.06 10 23:51 12.10.2021
1773 Clouds 26 1008 88 10000 2.57 360 23:27 12.10.2021
1774 Clear 26 1008 88 10000 2.06 30 22:41 12.10.2021
1775 Clouds 26 1007 85 10000 2.06 360 20:55 12.10.2021
1776 Clouds 26 1007 85 10000 1.54 350 20:31 12.10.2021
1777 Clouds 27 1007 81 10000 1.54 350 19:45 12.10.2021
1778 Clouds 27 1008 81 10000 2.06 330 18:26 12.10.2021
1779 Clouds 28 1009 78 10000 2.06 320 17:29 12.10.2021
1780 Clear 28 1009 78 10000 2.57 300 16:24 12.10.2021
1781 Clouds 28 1009 78 10000 3.09 300 15:35 12.10.2021
1782 Clouds 29 1009 74 10000 3.6 290 13:46 12.10.2021
1783 Clear 29 1008 71 10000 4.12 300 13:19 12.10.2021
1784 Clear 30 1007 67 10000 5.14 310 11:31 12.10.2021
1785 Clear 30 1007 67 10000 5.14 310 11:30 12.10.2021
1786 Clouds 32 1006 61 10000 5.14 320 09:41 12.10.2021
1787 Clouds 34 1006 49 10000 3.6 330 08:31 12.10.2021
1788 Clouds 31 1007 53 10000 2.57 140 06:46 12.10.2021
1789 Clouds 33 1009 55 10000 5.14 350 04:49 12.10.2021
1790 Clouds 33 1009 54 10000 4.63 330 04:28 12.10.2021
1791 Clouds 26 1008 92 10000 2.57 70 23:56 11.10.2021
1792 Clouds 26 1008 90 10000 2.06 70 23:36 11.10.2021
1793 Clouds 26 1007 90 10000 2.06 70 22:51 11.10.2021
1794 Clouds 26 1007 89 10000 2.06 70 21:27 11.10.2021
1795 Clouds 26 1007 82 10000 1.03 90 20:28 11.10.2021
1796 Clouds 26 1007 82 10000 2.06 100 19:35 11.10.2021
1797 Clouds 27 1008 82 10000 1.03 320 18:23 11.10.2021
1798 Clouds 28 1009 82 10000 1.54 270 16:41 11.10.2021
1799 Clouds 28 1009 82 10000 1.54 270 16:20 11.10.2021
1800 Clouds 29 1009 81 10000 2.06 240 15:44 11.10.2021
1801 Clouds 29 1009 77 10000 2.06 270 14:53 11.10.2021
1802 Clouds 29 1009 78 10000 3.09 280 14:19 11.10.2021
1803 Clouds 29 1008 75 10000 3.09 280 13:35 11.10.2021
1804 Clouds 30 1007 70 10000 4.63 320 11:18 11.10.2021
1805 Clouds 32 1006 60 10000 5.66 350 09:46 11.10.2021
1806 Clouds 34 1006 52 10000 4.63 330 08:31 11.10.2021
1807 Clouds 29 1009 74 10000 3.09 30 01:45 11.10.2021
1808 Clouds 29 1009 75 10000 3.09 20 00:58 11.10.2021
1809 Clouds 29 1009 78 10000 2.06 20 00:39 11.10.2021
1810 Clouds 27 1008 81 10000 1.54 360 22:41 10.10.2021
1811 Clouds 28 1009 80 10000 1.03 340 21:49 10.10.2021
1812 Clouds 28 1009 81 10000 1.54 340 21:19 10.10.2021
1813 Clouds 28 1007 80 10000 1.54 350 20:39 10.10.2021
1814 Clouds 28 1007 81 10000 1.54 350 20:19 10.10.2021
1815 Clouds 28 1007 76 10000 2.57 330 19:41 10.10.2021
1816 Clouds 28 1007 75 10000 3.09 300 18:57 10.10.2021
1817 Clouds 28 1008 75 10000 2.06 320 18:20 10.10.2021
1818 Clouds 28 1008 77 10000 2.57 330 15:49 10.10.2021
1819 Clouds 28 1008 74 10000 2.06 260 14:57 10.10.2021
1820 Clouds 29 1007 72 10000 2.57 300 13:41 10.10.2021
1821 Clear 30 1007 67 10000 2.57 260 12:43 10.10.2021
1822 Clouds 31 1006 56 10000 4.63 20 11:31 10.10.2021
1823 Clouds 33 1006 48 10000 5.14 10 10:29 10.10.2021
1824 Clouds 34 1006 46 10000 4.63 340 09:19 10.10.2021
1825 Clouds 33 1006 52 10000 4.63 340 08:50 10.10.2021
1826 Clouds 31 1010 64 10000 4.12 300 04:50 10.10.2021
1827 Clouds 31 1011 65 10000 1.54 350 02:20 10.10.2021
1828 Clouds 29 1013 73 10000 2.57 360 00:47 10.10.2021
1829 Clouds 26 1012 82 10000 1.54 330 23:45 09.10.2021
1830 Clouds 26 1012 81 10000 1.54 360 22:20 09.10.2021
1831 Clouds 27 1009 80 10000 2.57 340 21:30 09.10.2021
1832 Clouds 27 1008 80 10000 2.57 320 20:19 09.10.2021
1833 Clouds 27 1009 82 10000 2.06 290 19:41 09.10.2021
1834 Clouds 27 1009 82 10000 2.06 270 18:48 09.10.2021
1835 Clouds 27 1009 82 10000 2.06 290 18:26 09.10.2021
1836 Clouds 28 1009 80 10000 3.6 290 16:21 09.10.2021
1837 Clear 28 1009 75 10000 3.6 290 14:37 09.10.2021
1838 Clouds 28 1009 78 10000 4.63 300 13:39 09.10.2021
1839 Clouds 29 1008 72 10000 4.12 10 12:35 09.10.2021
1840 Clouds 31 1007 59 10000 4.63 20 10:47 09.10.2021
1841 Clouds 32 1007 57 10000 5.14 20 10:21 09.10.2021
1842 Clouds 33 1007 50 10000 5.14 10 09:23 09.10.2021
1843 Clouds 34 1007 49 10000 6.17 30 08:20 09.10.2021
1844 Clouds 34 1007 49 10000 6.17 30 08:20 09.10.2021
1845 Clouds 34 1008 59 10000 5.66 350 06:46 09.10.2021
1846 Clouds 33 1012 54 10000 5.14 350 04:55 09.10.2021
1847 Clouds 31 1014 59 10000 2.06 30 02:46 09.10.2021
1848 Clouds 29 1010 77 10000 1.54 20 00:43 09.10.2021
1849 Clouds 26 1010 82 10000 1.54 10 23:35 08.10.2021
1850 Clouds 26 1010 81 10000 2.57 360 22:47 08.10.2021
1851 Clouds 27 1010 84 10000 2.57 360 21:45 08.10.2021
1852 Clouds 27 1009 82 10000 2.57 340 20:30 08.10.2021
1853 Clouds 28 1010 80 10000 3.09 320 18:23 08.10.2021
1854 Clouds 28 1010 78 10000 4.12 310 17:18 08.10.2021
1855 Clouds 28 1010 78 10000 4.12 310 17:18 08.10.2021
1856 Clear 28 1010 78 10000 3.6 310 16:44 08.10.2021
1857 Clear 28 1010 75 10000 4.63 300 16:22 08.10.2021
1858 Clear 29 1009 70 10000 4.63 330 13:48 08.10.2021
1859 Clear 30 1008 60 10000 4.63 10 11:56 08.10.2021
1860 Clear 32 1007 54 10000 5.66 20 10:47 08.10.2021
1861 Clear 33 1007 51 10000 6.17 10 09:48 08.10.2021
1862 Clouds 33 1009 52 10000 3.09 290 06:49 08.10.2021
1863 Clouds 25 1010 89 10000 1.03 60 23:28 07.10.2021
1864 Clear 25 1009 88 10000 1.03 70 22:55 07.10.2021
1865 Clouds 25 1009 90 10000 1.54 60 21:30 07.10.2021
1866 Clouds 26 1009 89 10000 1.54 40 20:42 07.10.2021
1867 Clouds 26 1009 87 10000 0 0 19:38 07.10.2021
1868 Clouds 26 1009 86 10000 0 0 18:54 07.10.2021
1869 Clouds 27 1010 82 10000 1.03 260 17:34 07.10.2021
1870 Clouds 28 1010 81 10000 2.06 260 16:42 07.10.2021
1871 Clouds 29 1010 78 10000 3.09 270 14:56 07.10.2021
1872 Clouds 29 1009 76 10000 4.12 270 13:44 07.10.2021
1873 Clouds 29 1009 76 10000 5.14 270 13:20 07.10.2021
1874 Clear 30 1007 67 10000 6.17 280 11:26 07.10.2021
1875 Clear 31 1007 52 10000 5.66 310 10:47 07.10.2021
1876 Clear 34 1006 40 10000 4.63 350 09:47 07.10.2021
1877 Clear 36 1007 19 10000 6.17 340 08:55 07.10.2021
1878 Clear 36 1007 19 10000 5.66 20 08:20 07.10.2021
1879 Clear 35 1007 29 10000 4.63 360 07:39 07.10.2021
1880 Clear 34 1008 38 10000 5.14 350 06:47 07.10.2021
1881 Clouds 29 1012 75 10000 1.03 100 00:55 07.10.2021
1882 Clouds 26 1012 94 10000 1.54 80 23:25 06.10.2021
1883 Clouds 26 1011 90 10000 1.54 190 22:40 06.10.2021
1884 Clouds 26 1008 88 10000 1.54 210 21:40 06.10.2021
1885 Clouds 26 1008 87 10000 2.06 210 20:33 06.10.2021
1886 Clouds 27 1008 86 10000 2.06 220 19:23 06.10.2021
1887 Clouds 27 1009 82 10000 3.09 260 17:41 06.10.2021
1888 Clouds 28 1009 80 10000 3.09 260 15:44 06.10.2021
1889 Clear 28 1009 81 10000 3.09 280 14:53 06.10.2021
1890 Clear 28 1008 78 10000 4.63 300 13:31 06.10.2021
1891 Clear 28 1008 78 10000 4.63 300 12:47 06.10.2021
1892 Clear 29 1007 78 10000 4.12 300 12:28 06.10.2021
1893 Clear 29 1006 74 10000 4.63 300 11:38 06.10.2021
1894 Clouds 32 1006 60 10000 4.63 310 09:40 06.10.2021
1895 Clouds 33 1006 57 10000 4.12 310 08:59 06.10.2021
1896 Clouds 33 1006 59 10000 4.63 300 08:31 06.10.2021
1897 Clouds 33 1008 52 10000 4.63 310 06:18 06.10.2021
1898 Clouds 31 1011 62 10000 2.57 340 02:52 06.10.2021
1899 Clouds 29 1009 81 10000 1.54 330 00:24 06.10.2021
1900 Clouds 27 1009 88 10000 1.54 340 23:51 05.10.2021
1901 Clouds 26 1008 89 10000 1.54 330 23:30 05.10.2021
1902 Clouds 27 1008 89 10000 1.54 340 22:35 05.10.2021
1903 Clouds 27 1007 85 10000 2.06 320 21:57 05.10.2021
1904 Clouds 27 1007 86 10000 2.57 320 21:20 05.10.2021
1905 Clouds 27 1006 87 10000 2.57 320 20:31 05.10.2021
1906 Clouds 27 1006 86 10000 2.57 320 19:51 05.10.2021
1907 Clouds 27 1007 86 10000 2.57 320 19:24 05.10.2021
1908 Clouds 27 1007 86 10000 2.57 320 18:21 05.10.2021
1909 Clear 28 1007 83 10000 3.09 300 15:36 05.10.2021
1910 Clear 28 1007 82 10000 3.6 320 13:52 05.10.2021
1911 Clear 28 1006 78 10000 3.6 320 13:23 05.10.2021
1912 Clear 29 1006 75 10000 3.6 320 12:34 05.10.2021
1913 Clear 29 1005 72 10000 3.09 330 11:41 05.10.2021
1914 Clouds 31 1006 61 10000 3.6 310 10:37 05.10.2021
1915 Clouds 32 1006 59 10000 4.63 310 07:59 05.10.2021
1916 Clouds 30 1009 74 10000 2.06 30 01:46 05.10.2021
1917 Clouds 27 1007 86 10000 1.03 330 22:56 04.10.2021
1918 Clouds 28 1006 85 10000 3.6 280 21:27 04.10.2021
1919 Clouds 28 1006 86 10000 4.12 290 18:51 04.10.2021
1920 Clouds 28 1007 86 10000 4.63 300 17:29 04.10.2021
1921 Clear 28 1007 85 10000 3.09 280 15:33 04.10.2021
1922 Clear 28 1007 85 10000 3.09 280 14:46 04.10.2021
1923 Clear 28 1007 85 10000 3.6 280 14:18 04.10.2021
1924 Clear 28 1006 84 10000 3.6 280 13:32 04.10.2021
1925 Clouds 28 1006 81 10000 3.6 270 12:50 04.10.2021
1926 Clouds 29 1005 77 10000 4.12 270 11:34 04.10.2021
1927 Clouds 30 1004 74 10000 5.14 280 10:47 04.10.2021
1928 Clouds 31 1003 68 10000 6.69 290 09:44 04.10.2021
1929 Clouds 33 1005 62 10000 7.2 300 07:53 04.10.2021
1930 Clouds 33 1005 62 10000 7.2 290 06:50 04.10.2021
1931 Clouds 27 1007 86 10000 2.57 270 23:38 03.10.2021
1932 Clouds 27 1006 88 10000 3.09 290 21:56 03.10.2021
1933 Clouds 27 1006 88 10000 3.09 300 21:34 03.10.2021
1934 Clouds 27 1006 89 10000 3.6 280 20:49 03.10.2021
1935 Clouds 27 1005 88 10000 3.6 310 19:49 03.10.2021
1936 Clouds 27 1006 86 10000 3.6 330 18:29 03.10.2021
1937 Clouds 27 1006 84 10000 3.6 330 17:37 03.10.2021
1938 Clouds 27 1008 82 10000 2.57 290 15:30 03.10.2021
1939 Clear 27 1007 82 10000 4.12 300 14:31 03.10.2021
1940 Clear 27 1007 82 10000 4.12 300 14:31 03.10.2021
1941 Clouds 27 1007 81 10000 4.63 290 13:36 03.10.2021
1942 Clouds 28 1006 81 10000 4.63 290 12:47 03.10.2021
1943 Clouds 28 1006 77 10000 5.14 300 11:37 03.10.2021
1944 Clouds 30 1005 71 10000 6.17 300 10:21 03.10.2021
1945 Clouds 32 1007 65 10000 7.2 290 06:42 03.10.2021
1946 Clouds 27 1007 89 10000 2.57 270 22:59 02.10.2021
1947 Clouds 27 1006 90 10000 3.09 270 21:59 02.10.2021
1948 Clouds 26 1006 89 10000 3.6 270 20:33 02.10.2021
1949 Clouds 26 1006 89 10000 3.6 290 18:57 02.10.2021
1950 Clouds 26 1006 89 10000 3.6 290 18:20 02.10.2021
1951 Clouds 27 1007 89 10000 2.57 290 17:38 02.10.2021
1952 Clear 26 1008 89 10000 2.57 280 16:39 02.10.2021
1953 Clouds 29 1006 75 10000 2.57 290 07:51 02.10.2021
1954 Clouds 28 1010 74 10000 2.57 280 15:37 30.09.2021
1955 Clear 28 1010 70 10000 2.57 270 14:22 30.09.2021
1956 Clouds 29 1009 65 10000 2.57 290 11:58 30.09.2021
1957 Clouds 30 1008 58 10000 4.12 340 10:55 30.09.2021
1958 Clouds 32 1008 54 10000 4.63 360 10:25 30.09.2021
1959 Clouds 33 1008 49 10000 5.14 340 08:31 30.09.2021
1960 Clouds 32 1009 51 10000 4.12 340 07:36 30.09.2021
1961 Clouds 32 1011 48 10000 5.14 320 05:25 30.09.2021
1962 Clouds 32 1011 48 10000 5.14 320 05:25 30.09.2021
1963 Clouds 31 1013 65 10000 3.6 60 02:33 30.09.2021
1964 Clouds 27 1012 80 10000 3.6 30 00:31 30.09.2021
1965 Clouds 26 1010 90 10000 0.51 360 22:41 29.09.2021
1966 Clouds 26 1010 88 10000 0 0 21:28 29.09.2021
1967 Clouds 26 1010 85 10000 2.57 350 20:30 29.09.2021
1968 Clouds 27 1010 81 10000 1.03 270 19:56 29.09.2021
1969 Clouds 27 1011 78 10000 1.54 280 18:54 29.09.2021
1970 Clouds 27 1011 77 10000 2.06 270 17:58 29.09.2021
1971 Clouds 28 1012 76 10000 2.57 280 16:55 29.09.2021
1972 Clouds 28 1012 76 10000 2.57 270 16:22 29.09.2021
1973 Clouds 28 1014 77 10000 1.54 330 14:42 29.09.2021
1974 Clouds 29 1014 77 10000 1.54 330 14:18 29.09.2021
1975 Clear 28 1011 74 10000 2.06 330 13:27 29.09.2021
1976 Clear 29 1010 66 10000 3.6 360 12:38 29.09.2021
1977 Clear 31 1009 57 10000 5.14 360 10:57 29.09.2021
1978 Clouds 31 1008 56 10000 6.17 350 10:25 29.09.2021
1979 Clear 34 1008 45 10000 5.14 50 09:39 29.09.2021
1980 Clouds 33 1009 49 10000 4.63 350 07:48 29.09.2021
1981 Clouds 33 1011 56 10000 4.63 310 05:50 29.09.2021
1982 Clouds 25 1011 89 10000 1.03 30 23:36 28.09.2021
1983 Clouds 24 1011 89 10000 0 0 22:24 28.09.2021
1984 Clouds 25 1010 88 10000 1.54 20 21:45 28.09.2021
1985 Clouds 25 1010 84 10000 1.54 30 20:44 28.09.2021
1986 Clouds 26 1010 83 10000 1.54 350 19:47 28.09.2021
1987 Clouds 26 1011 79 10000 2.06 350 18:53 28.09.2021
1988 Clouds 26 1011 80 10000 2.06 340 18:27 28.09.2021
1989 Clouds 28 1015 76 10000 3.6 350 16:42 28.09.2021
1990 Clouds 28 1011 75 10000 4.63 290 14:52 28.09.2021
1991 Clouds 29 1014 74 10000 3.6 290 13:22 28.09.2021
1992 Clouds 29 1013 73 10000 4.12 290 12:22 28.09.2021
1993 Clouds 29 1009 72 10000 4.63 300 11:47 28.09.2021
1994 Clouds 29 1008 71 10000 5.14 300 11:25 28.09.2021
1995 Clouds 32 1007 51 10000 5.66 30 10:26 28.09.2021
1996 Clear 33 1007 45 10000 5.66 30 09:25 28.09.2021
1997 Clouds 33 1007 50 10000 5.14 10 08:43 28.09.2021
1998 Clouds 32 1008 53 10000 5.14 350 07:49 28.09.2021
1999 Clouds 32 1008 55 10000 5.14 340 06:23 28.09.2021
2000 Clouds 29 1011 65 10000 2.06 40 01:29 28.09.2021
2001 Clouds 28 1011 80 10000 1.03 90 00:28 28.09.2021
2002 Clouds 26 1011 89 10000 1.03 90 23:48 27.09.2021
2003 Clouds 26 1010 89 10000 1.54 70 23:23 27.09.2021
2004 Clouds 25 1014 92 10000 0 0 22:20 27.09.2021
2005 Clouds 25 1009 90 10000 0 0 20:54 27.09.2021
2006 Clouds 25 1013 90 10000 0 0 20:24 27.09.2021
2007 Clouds 25 1009 86 10000 1.03 340 19:36 27.09.2021
2008 Clouds 26 1010 86 10000 1.03 330 18:52 27.09.2021
2009 Clouds 26 1010 86 10000 1.03 330 18:52 27.09.2021
2010 Clouds 27 1010 81 10000 2.06 320 17:36 27.09.2021
2011 Clouds 27 1011 80 10000 2.57 300 16:53 27.09.2021
2012 Clouds 27 1011 79 10000 2.57 310 16:33 27.09.2021
2013 Clouds 27 1011 81 10000 2.06 280 15:36 27.09.2021
2014 Clouds 27 1010 78 10000 3.09 280 13:44 27.09.2021
2015 Clouds 28 1009 77 10000 4.12 280 12:22 27.09.2021
2016 Clouds 29 1008 64 10000 4.12 300 10:48 27.09.2021
2017 Clouds 32 1007 56 10000 3.6 300 09:40 27.09.2021
2018 Clouds 31 1008 55 10000 5.14 320 07:44 27.09.2021
2019 Clouds 30 1012 64 10000 1.03 290 03:31 27.09.2021
2020 Clouds 25 1011 88 10000 2.57 110 23:42 26.09.2021
2021 Clouds 24 1009 92 10000 2.06 110 21:55 26.09.2021
2022 Clouds 24 1010 89 10000 1.54 130 21:27 26.09.2021
2023 Clouds 24 1010 89 10000 1.54 130 21:27 26.09.2021
2024 Clouds 25 1009 85 10000 1.03 130 20:25 26.09.2021
2025 Clouds 25 1009 84 10000 1.54 230 19:54 26.09.2021
2026 Clouds 26 1010 81 10000 1.54 270 19:25 26.09.2021
2027 Clouds 26 1010 81 10000 1.54 270 19:25 26.09.2021
2028 Clouds 26 1010 81 10000 1.54 270 19:25 26.09.2021
2029 Clouds 26 1010 81 10000 1.54 270 19:25 26.09.2021
2030 Clouds 26 1010 81 10000 1.54 270 19:25 26.09.2021
2031 Clouds 26 1010 82 10000 2.06 260 18:41 26.09.2021
2032 Clouds 27 1010 80 10000 2.06 240 17:38 26.09.2021
2033 Clouds 27 1010 80 10000 2.06 240 17:20 26.09.2021
2034 Clouds 27 1011 80 10000 2.06 250 16:22 26.09.2021
2035 Clouds 26 1010 78 10000 2.57 270 15:27 26.09.2021
2036 Clear 27 1010 74 10000 3.09 270 14:22 26.09.2021
2037 Clear 27 1009 69 10000 0.51 270 13:42 26.09.2021
2038 Clear 28 1009 62 10000 1.54 320 12:31 26.09.2021
2039 Clear 28 1009 59 10000 2.06 330 11:56 26.09.2021
2040 Clear 29 1008 55 10000 2.57 350 11:23 26.09.2021
2041 Clear 32 1007 43 10000 5.66 10 09:51 26.09.2021
2042 Clouds 32 1008 54 10000 6.17 360 08:41 26.09.2021
2043 Clouds 26 1012 78 10000 3.09 110 00:30 26.09.2021
2044 Clouds 25 1012 83 10000 1.54 90 23:46 25.09.2021
2045 Clouds 25 1011 84 10000 2.06 80 22:39 25.09.2021
2046 Clouds 25 1011 85 10000 2.06 80 22:19 25.09.2021
2047 Clouds 25 1011 85 10000 2.06 80 22:19 25.09.2021
2048 Clouds 25 1013 85 10000 2.06 90 21:45 25.09.2021
2049 Clouds 25 1011 85 10000 1.54 40 20:52 25.09.2021
2050 Clouds 25 1011 85 10000 1.54 40 20:52 25.09.2021
2051 Clouds 26 1011 81 10000 0.51 230 19:41 25.09.2021
2052 Clouds 26 1011 84 10000 1.54 230 18:28 25.09.2021
2053 Clouds 26 1011 80 10000 1.03 230 17:45 25.09.2021
2054 Clear 27 1011 77 10000 5.14 300 14:39 25.09.2021
2055 Clear 27 1010 78 10000 4.12 310 13:55 25.09.2021
2056 Clouds 28 1010 66 10000 2.57 340 12:46 25.09.2021
2057 Clouds 28 1009 60 10000 4.63 10 11:27 25.09.2021
2058 Clear 30 1008 53 10000 5.14 360 10:20 25.09.2021
2059 Clear 31 1008 51 10000 5.14 360 09:22 25.09.2021
2060 Clear 32 1009 51 10000 4.12 360 07:48 25.09.2021
2061 Clouds 26 1013 79 10000 4.63 110 00:52 25.09.2021
2062 Clouds 22 1012 89 10000 2.57 110 23:25 24.09.2021
2063 Clouds 22 1012 91 10000 2.06 100 21:34 24.09.2021
2064 Clouds 23 1012 85 10000 1.54 80 20:32 24.09.2021
2065 Clouds 23 1012 83 10000 1.54 30 19:32 24.09.2021
2066 Clouds 23 1012 83 10000 1.54 30 19:32 24.09.2021
2067 Clouds 24 1012 85 10000 1.03 360 18:21 24.09.2021
2068 Clouds 25 1013 81 10000 1.54 360 17:53 24.09.2021
2069 Clouds 25 1013 81 10000 2.06 360 17:34 24.09.2021
2070 Clouds 26 1014 77 10000 2.57 340 15:59 24.09.2021
2071 Clouds 27 1011 71 10000 5.14 330 13:28 24.09.2021
2072 Clear 27 1011 66 10000 4.12 10 12:43 24.09.2021
2073 Clear 28 1011 65 10000 4.63 10 12:25 24.09.2021
2074 Clear 29 1009 54 10000 5.66 360 10:56 24.09.2021
2075 Clouds 30 1009 52 10000 6.17 10 09:57 24.09.2021
2076 Clouds 32 1009 49 10000 6.17 10 08:23 24.09.2021
2077 Clouds 31 1010 53 10000 6.69 360 07:30 24.09.2021
2078 Clouds 31 1011 45 10000 4.63 20 05:57 24.09.2021
2079 Clouds 30 1013 51 10000 2.06 110 04:51 24.09.2021
2080 Clear 21 1012 73 10000 1.54 90 22:44 23.09.2021
2081 Clouds 22 1012 73 10000 0.51 170 21:59 23.09.2021
2082 Clouds 22 1012 73 10000 0.51 170 21:20 23.09.2021
2083 Clouds 22 1012 73 10000 0.51 170 21:20 23.09.2021
2084 Clouds 23 1012 64 10000 1.54 200 20:32 23.09.2021
2085 Clouds 23 1013 66 10000 1.54 190 18:55 23.09.2021
2086 Clear 25 1014 64 10000 1.54 330 16:47 23.09.2021
2087 Clear 25 1014 62 10000 3.6 330 15:20 23.09.2021
2088 Clear 25 1013 62 10000 2.57 340 14:58 23.09.2021
2089 Clear 25 1013 55 10000 1.03 360 13:36 23.09.2021
2090 Clear 25 1013 54 10000 1.03 360 13:18 23.09.2021
2091 Clear 26 1012 47 10000 0.51 360 12:45 23.09.2021
2092 Clear 26 1012 46 10000 2.57 10 12:21 23.09.2021
2093 Clear 29 1010 36 10000 6.17 20 10:41 23.09.2021
2094 Clear 29 1010 37 10000 6.17 20 10:19 23.09.2021
2095 Clear 29 1010 37 10000 6.17 20 10:19 23.09.2021
2096 Clear 31 1010 35 10000 5.66 10 09:47 23.09.2021
2097 Clear 33 1012 10 10000 4.63 20 06:25 23.09.2021
2098 Clear 22 1015 24 10000 3.6 140 00:28 23.09.2021
2099 Clear 20 1014 28 10000 3.6 130 22:54 22.09.2021
2100 Clear 20 1014 28 10000 3.6 140 22:22 22.09.2021
2101 Clouds 21 1013 27 10000 3.09 140 21:44 22.09.2021
2102 Clouds 22 1013 23 10000 4.12 130 20:58 22.09.2021
2103 Clouds 21 1013 28 10000 2.57 110 20:27 22.09.2021
2104 Clouds 22 1013 26 10000 2.57 70 19:27 22.09.2021
2105 Clouds 25 1014 19 10000 4.63 130 18:35 22.09.2021
2106 Rain 24 1014 30 10000 0.45 235 17:38 22.09.2021
2107 Clear 27 1014 26 10000 5.91 131 15:53 22.09.2021
2108 Clear 25 1014 65 10000 1.54 240 14:37 22.09.2021
2109 Smoke 27 1013 54 10000 1.54 290 13:24 22.09.2021
2110 Smoke 29 1011 44 10000 3.09 360 11:20 22.09.2021
2111 Clear 30 1010 39 10000 6.17 360 10:18 22.09.2021
2112 Smoke 35 1010 13 10000 3.6 110 08:52 22.09.2021
2113 Clear 34 1010 13 10000 4.12 110 07:49 22.09.2021
2114 Clear 34 1011 10 10000 4.63 140 06:56 22.09.2021
2115 Clear 34 1012 13 10000 6.69 130 05:49 22.09.2021
2116 Clear 32 1013 10 10000 6.17 140 05:23 22.09.2021
2117 Clear 31 1015 18 10000 8.23 130 03:34 22.09.2021
2118 Clear 24 1014 50 10000 4.12 120 00:19 22.09.2021
2119 Clear 24 1013 57 10000 3.09 110 22:28 21.09.2021
2120 Clear 24 1012 65 10000 3.6 110 21:31 21.09.2021
2121 Clouds 24 1012 84 10000 5.66 125 19:38 21.09.2021
2122 Clouds 25 1013 83 10000 2.57 170 19:20 21.09.2021
2123 Clear 26 1013 78 10000 0 0 16:59 21.09.2021
2124 Clear 26 1013 78 10000 0 0 16:27 21.09.2021
2125 Clear 26 1014 78 10000 1.03 140 15:31 21.09.2021
2126 Clear 27 1013 76 10000 1.54 150 14:56 21.09.2021
2127 Clear 28 1012 63 10000 1.03 280 13:40 21.09.2021
2128 Clear 28 1012 63 10000 2.06 290 12:58 21.09.2021
2129 Clouds 31 1009 43 10000 3.23 299 11:19 21.09.2021
2130 Clear 31 1009 51 10000 5.14 300 09:54 21.09.2021
2131 Clear 33 1009 46 10000 7.2 310 07:51 21.09.2021
2132 Clouds 37 1010 18 10000 7.2 120 06:18 21.09.2021
2133 Clear 24 1012 83 10000 0 0 23:58 20.09.2021
2134 Clouds 24 1011 78 10000 1.54 70 21:58 20.09.2021
2135 Clouds 24 1011 78 10000 2.06 80 21:32 20.09.2021
2136 Clouds 24 1011 73 10000 1.54 90 20:29 20.09.2021
2137 Clouds 24 1011 73 10000 1.54 60 19:28 20.09.2021
2138 Clouds 25 1013 69 10000 1.54 100 17:39 20.09.2021
2139 Clear 25 1013 72 10000 1.54 90 16:33 20.09.2021
2140 Clear 25 1013 70 10000 1.03 80 15:49 20.09.2021
2141 Clear 25 1013 70 10000 0 0 15:22 20.09.2021
2142 Clear 26 1012 61 10000 0 0 13:43 20.09.2021
2143 Clear 27 1011 58 10000 2.06 360 12:35 20.09.2021
2144 Clear 29 1010 54 10000 4.12 10 11:23 20.09.2021
2145 Clear 31 1009 50 10000 7.2 10 09:57 20.09.2021
2146 Clear 31 1009 50 10000 6.69 10 09:36 20.09.2021
2147 Clear 31 1009 53 10000 8.75 360 08:58 20.09.2021
2148 Clear 36 1010 25 10000 7.2 130 06:55 20.09.2021
2149 Clear 23 1014 81 10000 2.06 140 23:45 19.09.2021
2150 Clear 22 1013 83 10000 1.03 130 22:26 19.09.2021
2151 Clouds 23 1012 83 10000 0 0 21:40 19.09.2021
2152 Clouds 24 1013 73 10000 1.54 130 20:34 19.09.2021
2153 Clouds 24 1013 77 10000 1.54 140 19:22 19.09.2021
2154 Clouds 25 1014 73 10000 0 0 18:29 19.09.2021
2155 Clouds 25 1014 73 10000 1.03 160 17:22 19.09.2021
2156 Clear 26 1014 74 10000 1.54 170 15:55 19.09.2021
2157 Clear 25 1014 75 10000 0 0 15:29 19.09.2021
2158 Clear 27 1013 68 10000 0.51 160 14:46 19.09.2021
2159 Clear 27 1012 64 10000 4.63 40 13:24 19.09.2021
2160 Clear 28 1012 62 10000 5.14 40 12:50 19.09.2021
2161 Clear 29 1011 55 10000 7.72 40 11:28 19.09.2021
2162 Clear 29 1011 54 10000 7.72 40 10:47 19.09.2021
2163 Clear 31 1011 51 10000 7.72 30 09:40 19.09.2021
2164 Clear 32 1011 46 10000 8.23 20 08:35 19.09.2021
2165 Clear 34 1012 34 10000 5.14 60 06:42 19.09.2021
2166 Clear 23 1014 86 10000 2.06 140 23:43 18.09.2021
2167 Clear 23 1013 88 10000 1.54 130 22:23 18.09.2021
2168 Clouds 24 1013 85 10000 1.54 150 20:52 18.09.2021
2169 Clouds 24 1013 85 10000 1.54 150 20:52 18.09.2021
2170 Clouds 23 1013 87 10000 1.54 100 20:32 18.09.2021
2171 Clouds 25 1013 82 10000 1.03 70 19:39 18.09.2021
2172 Clouds 25 1013 81 10000 1.03 70 19:20 18.09.2021
2173 Clouds 24 1014 82 10000 1.54 80 18:32 18.09.2021
2174 Clouds 26 1014 77 10000 1.54 40 17:34 18.09.2021
2175 Clouds 26 1014 75 10000 1.54 10 16:20 18.09.2021
2176 Clear 26 1013 73 10000 2.57 40 13:49 18.09.2021
2177 Clear 27 1013 70 10000 2.06 40 13:29 18.09.2021
2178 Clear 27 1012 68 10000 1.54 30 12:49 18.09.2021
2179 Clear 28 1011 62 10000 3.6 30 11:40 18.09.2021
2180 Clear 31 1010 51 10000 6.17 20 10:32 18.09.2021
2181 Clear 30 1010 56 10000 6.69 10 09:28 18.09.2021
2182 Clear 31 1010 54 10000 6.69 10 08:57 18.09.2021
2183 Clouds 32 1014 51 10000 0.89 228 03:51 18.09.2021
2184 Clouds 27 1014 78 10000 3.84 83 00:41 18.09.2021
2185 Clouds 24 1014 87 10000 2.94 82 23:48 17.09.2021
2186 Clouds 23 1013 92 10000 2.49 82 22:38 17.09.2021
2187 Clouds 24 1012 92 10000 1.54 60 22:19 17.09.2021
2188 Clouds 24 1012 93 10000 0.51 340 20:47 17.09.2021
2189 Clouds 25 1012 86 10000 1.54 340 19:22 17.09.2021
2190 Clouds 26 1013 78 10000 1.54 320 17:21 17.09.2021
2191 Clear 27 1013 78 10000 2.57 290 16:24 17.09.2021
2192 Clear 27 1012 61 10000 0 0 13:21 17.09.2021
2193 Clear 31 1009 43 10000 6.17 30 10:53 17.09.2021
2194 Clouds 32 1009 50 10000 6.69 360 08:46 17.09.2021
2195 Clear 33 1010 50 10000 6.69 300 06:53 17.09.2021
2196 Clear 27 1014 74 10000 2.06 120 01:26 17.09.2021
2197 Clear 24 1013 88 10000 1.54 150 23:25 16.09.2021
2198 Clear 24 1012 94 10000 2.06 120 22:25 16.09.2021
2199 Clouds 23 1012 94 10000 1.54 110 21:43 16.09.2021
2200 Clouds 24 1012 91 10000 1.54 100 21:22 16.09.2021
2201 Clouds 24 1012 91 10000 1.54 140 20:18 16.09.2021
2202 Clouds 24 1012 91 10000 1.54 140 20:18 16.09.2021
2203 Clouds 24 1013 97 10000 0 0 18:20 16.09.2021
2204 Clouds 24 1013 94 10000 0.51 250 17:33 16.09.2021
2205 Clouds 28 1013 80 10000 3.6 280 14:56 16.09.2021
2206 Clouds 28 1012 75 10000 2.57 340 13:56 16.09.2021
2207 Clouds 28 1011 67 10000 2.57 10 12:49 16.09.2021
2208 Clouds 29 1010 65 10000 4.63 30 12:28 16.09.2021
2209 Clouds 30 1009 59 10000 6.17 30 11:25 16.09.2021
2210 Clear 31 1008 56 10000 6.69 30 10:33 16.09.2021
2211 Clear 32 1008 54 10000 6.17 20 09:57 16.09.2021
2212 Clear 34 1009 47 10000 6.69 20 08:42 16.09.2021
2213 Clear 34 1009 47 10000 6.69 20 08:42 16.09.2021
2214 Clouds 33 1010 46 10000 7.2 10 07:36 16.09.2021
2215 Clear 34 1010 48 10000 5.66 20 06:46 16.09.2021
2216 Clear 34 1012 38 10000 5.14 70 05:26 16.09.2021
2217 Clouds 29 1014 69 10000 3.09 40 01:41 16.09.2021
2218 Clear 24 1013 91 10000 0 0 23:47 15.09.2021
2219 Clear 24 1012 90 10000 0 0 22:47 15.09.2021
2220 Clear 24 1012 90 10000 0 0 22:47 15.09.2021
2221 Clouds 25 1012 87 10000 1.03 310 21:48 15.09.2021
2222 Clouds 24 1011 89 10000 1.03 30 21:29 15.09.2021
2223 Clouds 26 1012 82 10000 2.57 20 19:58 15.09.2021
2224 Clouds 26 1012 81 10000 2.57 30 19:27 15.09.2021
2225 Clouds 26 1013 83 10000 4.12 360 18:20 15.09.2021
2226 Clouds 27 1013 84 10000 2.06 190 16:59 15.09.2021
2227 Clouds 28 1013 81 10000 3.6 200 15:46 15.09.2021
2228 Clouds 28 1013 83 10000 3.09 210 14:45 15.09.2021
2229 Clouds 28 1013 83 10000 3.09 210 14:45 15.09.2021
2230 Clear 28 1012 78 10000 3.09 210 13:52 15.09.2021
2231 Clear 28 1012 78 10000 3.09 210 13:30 15.09.2021
2232 Clear 29 1011 70 10000 2.57 230 12:48 15.09.2021
2233 Clouds 30 1010 66 10000 5.66 300 11:52 15.09.2021
2234 Clouds 30 1010 66 10000 5.66 300 11:52 15.09.2021
2235 Clouds 30 1010 66 10000 5.66 300 11:32 15.09.2021
2236 Clouds 30 1010 66 10000 2.06 290 10:55 15.09.2021
2237 Clouds 31 1009 62 10000 5.14 300 09:30 15.09.2021
2238 Clouds 32 1009 62 10000 5.66 320 08:20 15.09.2021
2239 Clouds 32 1013 64 10000 3.6 300 04:55 15.09.2021
2240 Clouds 25 1014 98 10000 1.03 260 23:54 14.09.2021
2241 Clouds 25 1012 94 10000 1.03 260 21:42 14.09.2021
2242 Clouds 25 1012 94 10000 0.51 260 20:39 14.09.2021
2243 Clouds 26 1012 94 10000 1.03 260 19:42 14.09.2021
2244 Clouds 26 1013 90 10000 1.54 260 17:40 14.09.2021
2245 Clouds 26 1013 90 10000 1.54 260 17:40 14.09.2021
2246 Clouds 27 1013 89 10000 1.54 260 16:59 14.09.2021
2247 Clear 26 1013 90 10000 2.06 280 15:37 14.09.2021
2248 Clear 26 1012 87 10000 2.06 260 14:31 14.09.2021
2249 Clear 27 1012 81 10000 3.6 240 12:45 14.09.2021
2250 Clouds 30 1010 70 10000 4.63 300 10:54 14.09.2021
2251 Clouds 31 1010 66 10000 4.63 350 09:51 14.09.2021
2252 Clouds 31 1010 65 10000 3.09 350 08:41 14.09.2021
2253 Clouds 25 1012 94 10000 2.57 20 06:24 14.09.2021
2254 Clouds 26 1014 93 10000 1.03 90 00:33 14.09.2021
2255 Clouds 26 1013 94 10000 2.06 110 22:53 13.09.2021
2256 Clouds 26 1012 94 10000 1.03 300 22:24 13.09.2021
2257 Clouds 25 1012 94 10000 1.03 300 21:51 13.09.2021
2258 Clouds 26 1012 91 10000 1.03 300 20:50 13.09.2021
2259 Clouds 26 1012 94 10000 1.03 200 19:22 13.09.2021
2260 Clouds 26 1012 94 10000 2.06 220 18:39 13.09.2021
2261 Clouds 26 1013 90 10000 1.54 230 16:50 13.09.2021
2262 Clear 27 1013 89 10000 2.06 260 15:31 13.09.2021
2263 Clear 27 1011 83 10000 4.12 270 12:26 13.09.2021
2264 Clouds 29 1010 74 10000 3.6 320 10:58 13.09.2021
2265 Clouds 29 1010 78 10000 2.06 310 09:40 13.09.2021
2266 Clouds 30 1013 69 10000 3.6 300 04:59 13.09.2021
2267 Clouds 25 1012 94 10000 1.54 120 23:41 12.09.2021
2268 Clouds 25 1011 90 10000 0 0 22:25 12.09.2021
2269 Clouds 25 1011 90 10000 1.54 200 21:37 12.09.2021
2270 Clouds 26 1011 86 10000 1.54 240 20:29 12.09.2021
2271 Clouds 26 1011 86 10000 1.54 210 19:51 12.09.2021
2272 Clouds 26 1011 86 10000 1.54 250 19:19 12.09.2021
2273 Clouds 26 1011 83 10000 2.06 270 18:20 12.09.2021
2274 Clouds 27 1012 81 10000 3.09 260 16:32 12.09.2021
2275 Clear 27 1011 82 10000 3.09 270 14:54 12.09.2021
2276 Clear 27 1011 80 10000 2.57 280 13:20 12.09.2021
2277 Clear 29 1008 60 10000 3.09 10 11:31 12.09.2021
2278 Clouds 32 1008 54 10000 5.14 20 09:27 12.09.2021
2279 Clouds 32 1008 54 10000 5.66 360 08:38 12.09.2021
2280 Clouds 29 1013 74 10000 1.54 160 01:50 12.09.2021
2281 Clouds 24 1011 91 10000 1.54 140 23:28 11.09.2021
2282 Clouds 24 1011 90 10000 1.54 160 21:50 11.09.2021
2283 Clear 25 1010 87 10000 1.54 200 20:31 11.09.2021
2284 Clear 25 1011 86 10000 2.06 240 19:21 11.09.2021
2285 Clouds 27 1012 81 10000 2.06 250 17:34 11.09.2021
2286 Clouds 27 1012 81 10000 3.09 270 15:48 11.09.2021
2287 Clouds 27 1011 78 10000 1.54 350 13:49 11.09.2021
2288 Clear 27 1010 72 10000 1.03 330 12:50 11.09.2021
2289 Clear 29 1009 65 10000 4.63 10 11:19 11.09.2021
2290 Clear 32 1008 50 10000 6.69 10 09:38 11.09.2021
2291 Clear 32 1009 48 10000 6.69 350 07:45 11.09.2021
2292 Clear 32 1010 52 10000 5.66 340 06:50 11.09.2021
2293 Clear 24 1012 88 10000 1.03 350 23:37 10.09.2021
2294 Clear 23 1012 91 10000 1.03 350 22:24 10.09.2021
2295 Clouds 23 1012 91 10000 0.51 350 21:54 10.09.2021
2296 Clouds 24 1012 88 10000 0 0 19:58 10.09.2021
2297 Clouds 25 1013 87 10000 1.03 350 18:27 10.09.2021
2298 Clouds 25 1014 84 10000 2.06 340 16:51 10.09.2021
2299 Clear 26 1012 78 10000 1.54 10 14:41 10.09.2021
2300 Clear 28 1011 65 10000 3.09 360 11:56 10.09.2021
2301 Clear 33 1011 43 10000 5.14 50 08:36 10.09.2021
2302 Clear 34 1011 37 10000 4.63 70 07:49 10.09.2021
2303 Clear 24 1015 69 10000 4.63 130 00:42 10.09.2021
2304 Clear 23 1014 83 10000 3.09 90 22:31 09.09.2021
2305 Clouds 24 1013 87 10000 2.57 100 21:45 09.09.2021
2306 Clouds 24 1014 90 10000 2.06 90 20:46 09.09.2021
2307 Clouds 25 1014 83 10000 1.54 80 19:54 09.09.2021
2308 Clouds 24 1014 87 10000 1.54 50 18:31 09.09.2021
2309 Clear 25 1014 79 10000 1.54 70 16:40 09.09.2021
2310 Clear 25 1014 79 10000 1.03 70 15:36 09.09.2021
2311 Clear 27 1012 67 10000 3.6 30 12:48 09.09.2021
2312 Smoke 28 1011 63 10000 5.14 30 11:41 09.09.2021
2313 Smoke 32 1011 45 10000 6.69 60 09:50 09.09.2021
2314 Clear 33 1011 38 10000 5.14 60 08:47 09.09.2021
2315 Clear 33 1011 38 10000 5.14 60 08:47 09.09.2021
2316 Clear 33 1013 31 10000 7.72 80 06:26 09.09.2021
2317 Clear 28 1016 35 10000 8.23 110 02:19 09.09.2021
2318 Clear 24 1014 46 10000 6.17 110 22:40 08.09.2021
2319 Clouds 25 1014 45 10000 6.17 120 21:31 08.09.2021
2320 Clouds 25 1014 55 10000 5.66 110 19:56 08.09.2021
2321 Clouds 26 1014 55 10000 5.66 100 18:58 08.09.2021
2322 Clouds 25 1014 58 10000 4.12 100 18:29 08.09.2021
2323 Clouds 26 1014 53 10000 4.63 90 17:55 08.09.2021
2324 Clear 27 1015 52 10000 4.63 70 16:28 08.09.2021
2325 Clear 28 1014 50 10000 3.09 60 14:25 08.09.2021
2326 Clear 28 1013 46 10000 2.57 60 12:46 08.09.2021
2327 Clear 29 1012 45 10000 3.09 50 12:26 08.09.2021
2328 Clear 31 1011 39 10000 2.57 90 11:29 08.09.2021
2329 Clear 33 1011 26 10000 6.69 100 10:33 08.09.2021
2330 Clear 33 1011 26 10000 6.69 120 09:59 08.09.2021
2331 Clear 34 1011 25 10000 7.2 120 08:31 08.09.2021
2332 Clear 34 1011 22 10000 8.23 110 07:32 08.09.2021
2333 Clear 31 1014 30 10000 9.77 110 04:19 08.09.2021
2334 Clear 24 1013 43 10000 4.12 130 22:43 07.09.2021
2335 Clear 24 1013 47 10000 3.6 110 21:52 07.09.2021
2336 Clouds 24 1013 40 10000 2.57 110 19:52 07.09.2021
2337 Clouds 24 1014 38 10000 4.12 130 18:45 07.09.2021
2338 Clouds 25 1014 43 10000 3.6 130 17:49 07.09.2021
2339 Clear 25 1015 65 10000 2.06 230 16:33 07.09.2021
2340 Clear 26 1014 61 10000 2.06 230 15:35 07.09.2021
2341 Clear 26 1014 61 10000 2.06 240 14:41 07.09.2021
2342 Clear 26 1013 57 10000 1.54 320 12:38 07.09.2021
2343 Clear 30 1012 37 10000 5.14 310 11:36 07.09.2021
2344 Clear 32 1011 24 10000 4.12 120 10:40 07.09.2021
2345 Clear 32 1012 25 10000 5.66 110 08:25 07.09.2021
2346 Clear 32 1013 25 10000 6.17 100 06:45 07.09.2021
2347 Smoke 31 1014 25 10000 7.2 130 05:24 07.09.2021
2348 Clear 25 1016 27 10000 7.72 150 02:32 07.09.2021
2349 Clear 23 1015 33 10000 6.17 150 00:43 07.09.2021
2350 Clear 23 1015 39 10000 5.66 140 23:34 06.09.2021
2351 Clear 23 1014 39 10000 5.14 140 22:53 06.09.2021
2352 Clear 23 1014 40 10000 4.63 130 22:32 06.09.2021
2353 Clear 24 1013 40 10000 4.63 140 20:55 06.09.2021
2354 Clouds 25 1013 42 10000 4.12 140 19:23 06.09.2021
2355 Clouds 24 1013 46 10000 3.6 130 18:46 06.09.2021
2356 Clouds 24 1013 47 10000 3.6 140 18:23 06.09.2021
2357 Clouds 25 1014 47 10000 3.09 140 17:36 06.09.2021
2358 Clear 25 1014 73 10000 1.03 220 15:52 06.09.2021
2359 Clear 26 1014 66 10000 0 0 13:48 06.09.2021
2360 Clear 26 1013 63 10000 1.54 320 12:47 06.09.2021
2361 Clear 30 1011 48 10000 4.63 360 10:45 06.09.2021
2362 Clear 33 1011 29 10000 6.17 100 07:59 06.09.2021
2363 Clear 30 1015 34 10000 6.17 140 04:48 06.09.2021
2364 Clouds 24 1014 45 10000 7.2 140 23:35 05.09.2021
2365 Clouds 24 1014 45 10000 5.14 140 22:48 05.09.2021
2366 Clouds 25 1013 61 10000 4.63 160 21:58 05.09.2021
2367 Clouds 25 1013 79 10000 2.57 100 21:30 05.09.2021
2368 Clouds 25 1013 81 10000 1.54 100 20:33 05.09.2021
2369 Clouds 25 1013 83 10000 0.51 110 18:46 05.09.2021
2370 Clouds 26 1014 78 10000 1.54 100 17:31 05.09.2021
2371 Smoke 27 1014 76 10000 2.57 180 15:28 05.09.2021
2372 Smoke 27 1014 69 10000 2.06 160 14:19 05.09.2021
2373 Smoke 28 1012 64 10000 2.06 300 12:29 05.09.2021
2374 Smoke 31 1010 49 10000 5.66 30 10:53 05.09.2021
2375 Clouds 31 1010 49 10000 6.69 30 10:23 05.09.2021
2376 Clear 32 1009 48 10000 7.2 30 09:21 05.09.2021
2377 Clear 33 1010 50 10000 4.63 30 07:51 05.09.2021
2378 Clouds 28 1013 78 10000 3.6 80 01:22 05.09.2021
2379 Clouds 25 1013 88 10000 1.54 70 00:27 05.09.2021
2380 Clouds 24 1012 89 10000 0.51 70 23:39 04.09.2021
2381 Clouds 24 1012 89 10000 1.03 70 22:36 04.09.2021
2382 Clouds 25 1012 85 10000 4.12 60 21:56 04.09.2021
2383 Clouds 27 1012 84 10000 2.57 330 19:41 04.09.2021
2384 Clouds 27 1012 83 10000 0.51 350 18:43 04.09.2021
2385 Clouds 26 1012 79 10000 0.51 190 16:22 04.09.2021
2386 Clear 28 1011 67 10000 2.06 190 13:22 04.09.2021
2387 Clouds 29 1009 62 10000 6.17 20 11:19 04.09.2021
2388 Clouds 32 1008 53 10000 6.17 30 09:19 04.09.2021
2389 Clouds 33 1010 46 10000 4.12 80 05:50 04.09.2021
2390 Clouds 26 1012 86 10000 1.03 80 00:25 04.09.2021
2391 Clouds 25 1011 86 10000 1.54 90 23:31 03.09.2021
2392 Clouds 25 1010 86 10000 1.03 100 22:35 03.09.2021
2393 Clouds 25 1011 86 10000 0 0 21:35 03.09.2021
2394 Clouds 25 1011 86 10000 0 0 21:35 03.09.2021
2395 Clouds 26 1010 82 10000 0.51 60 20:42 03.09.2021
2396 Clouds 26 1011 83 10000 1.54 60 19:50 03.09.2021
2397 Clouds 27 1011 78 10000 2.57 50 19:18 03.09.2021
2398 Clouds 28 1012 74 10000 1.54 320 17:47 03.09.2021
2399 Clouds 28 1012 83 10000 4.63 300 16:34 03.09.2021
2400 Clouds 28 1011 78 10000 3.09 20 14:53 03.09.2021
2401 Clouds 29 1008 66 10000 6.17 40 11:59 03.09.2021
2402 Clouds 31 1007 57 10000 7.2 30 10:31 03.09.2021
2403 Clouds 33 1007 55 10000 7.2 10 08:46 03.09.2021
2404 Clouds 33 1008 46 10000 7.72 20 07:44 03.09.2021
2405 Clouds 28 1012 77 10000 3.6 100 01:40 03.09.2021
2406 Clouds 25 1011 91 10000 0 0 23:20 02.09.2021
2407 Clouds 27 1011 81 10000 1.03 60 21:35 02.09.2021
2408 Clouds 27 1011 77 10000 0.51 10 19:55 02.09.2021
2409 Clouds 28 1012 82 10000 1.54 290 17:32 02.09.2021
2410 Clear 28 1012 79 10000 2.57 340 15:52 02.09.2021
2411 Clear 28 1010 78 10000 4.12 20 13:57 02.09.2021
2412 Clear 28 1010 75 10000 4.63 30 12:48 02.09.2021
2413 Clouds 29 1009 67 10000 6.17 30 11:35 02.09.2021
2414 Clear 32 1008 58 10000 6.69 360 09:40 02.09.2021
2415 Clear 33 1009 46 10000 6.69 20 07:48 02.09.2021
2416 Clear 34 1009 40 10000 5.66 40 07:18 02.09.2021
2417 Clouds 30 1014 56 10000 5.14 80 02:56 02.09.2021
2418 Clear 29 1014 63 10000 4.63 90 01:56 02.09.2021
2419 Clear 28 1013 70 10000 4.12 100 01:25 02.09.2021
2420 Clouds 26 1012 84 10000 1.03 90 23:39 01.09.2021
2421 Clouds 26 1012 82 10000 1.54 70 22:40 01.09.2021
2422 Clouds 26 1012 79 10000 2.57 50 21:39 01.09.2021
2423 Clouds 27 1012 79 10000 2.57 40 20:39 01.09.2021
2424 Clouds 26 1012 87 10000 1.54 320 18:43 01.09.2021
2425 Clouds 26 1012 86 10000 2.06 300 17:40 01.09.2021
2426 Clouds 26 1012 84 10000 1.54 300 16:47 01.09.2021
2427 Rain 26 1012 80 10000 1.54 350 15:29 01.09.2021
2428 Clear 28 1010 69 10000 3.6 30 12:19 01.09.2021
2429 Clear 29 1009 66 10000 4.63 20 11:44 01.09.2021
2430 Clear 33 1009 52 10000 6.69 330 08:48 01.09.2021
2431 Clear 32 1010 58 10000 6.69 290 07:52 01.09.2021
2432 Clouds 31 1012 62 10000 5.14 300 05:23 01.09.2021
2433 Clouds 25 1012 87 10000 1.54 190 22:41 31.08.2021
2434 Clouds 26 1012 84 10000 1.54 190 21:27 31.08.2021
2435 Clouds 27 1012 81 10000 0.51 260 19:46 31.08.2021
2436 Clouds 27 1012 78 10000 1.03 300 18:29 31.08.2021
2437 Clouds 28 1013 74 10000 3.09 320 17:37 31.08.2021
2438 Clouds 28 1013 77 10000 3.09 330 16:53 31.08.2021
2439 Clouds 28 1013 73 10000 3.6 320 16:24 31.08.2021
2440 Clouds 28 1013 73 10000 3.6 320 16:24 31.08.2021
2441 Clear 26 1011 75 10000 0 0 13:20 31.08.2021
2442 Clear 29 1010 65 10000 4.12 20 11:28 31.08.2021
2443 Clear 30 1010 57 10000 4.63 20 10:52 31.08.2021
2444 Clear 31 1009 51 10000 4.63 360 09:44 31.08.2021
2445 Clouds 32 1009 54 10000 5.66 350 08:38 31.08.2021
2446 Clear 32 1011 54 10000 5.14 310 05:59 31.08.2021
2447 Clouds 30 1014 56 10000 3.09 70 03:40 31.08.2021
2448 Clear 23 1012 94 10000 0.51 190 23:35 30.08.2021
2449 Clouds 23 1012 94 10000 2.06 160 21:45 30.08.2021
2450 Clouds 23 1012 94 10000 2.06 160 21:27 30.08.2021
2451 Clouds 24 1012 94 10000 2.06 170 20:20 30.08.2021
2452 Clouds 25 1011 88 10000 2.06 190 19:29 30.08.2021
2453 Clouds 25 1012 88 10000 2.06 240 18:30 30.08.2021
2454 Clouds 24 1012 91 10000 2.06 210 17:44 30.08.2021
2455 Clear 25 1012 83 10000 1.54 230 16:20 30.08.2021
2456 Clear 26 1012 78 10000 1.54 250 15:38 30.08.2021
2457 Clear 26 1011 79 10000 2.57 240 13:35 30.08.2021
2458 Clear 27 1010 70 10000 2.57 280 12:24 30.08.2021
2459 Clear 33 1008 40 10000 4.63 350 08:58 30.08.2021
2460 Clear 22 1011 96 10000 0.51 230 22:27 29.08.2021
2461 Clouds 23 1011 93 10000 2.06 230 21:32 29.08.2021
2462 Clouds 23 1011 93 10000 0 0 19:59 29.08.2021
2463 Clouds 23 1011 91 10000 0 0 19:18 29.08.2021
2464 Clouds 24 1012 91 10000 1.54 190 17:47 29.08.2021
2465 Clear 25 1011 85 10000 3.6 220 15:47 29.08.2021
2466 Clear 26 1011 81 10000 3.09 230 14:18 29.08.2021
2467 Clear 26 1010 76 10000 3.6 240 13:33 29.08.2021
2468 Clear 26 1009 68 10000 2.57 270 12:31 29.08.2021
2469 Clear 27 1009 66 10000 3.09 280 11:45 29.08.2021
2470 Clouds 29 1008 52 8000 3.6 310 10:52 29.08.2021
2471 Clear 30 1008 50 10000 3.6 340 10:33 29.08.2021
2472 Clear 31 1008 49 10000 4.63 350 09:54 29.08.2021
2473 Clear 34 1009 37 10000 3.09 350 06:55 29.08.2021
2474 Clear 23 1012 83 10000 2.06 140 00:20 29.08.2021
2475 Clouds 23 1011 88 10000 1.54 160 21:50 28.08.2021
2476 Clouds 23 1011 83 10000 2.57 190 19:54 28.08.2021
2477 Clouds 23 1011 77 10000 1.54 130 18:28 28.08.2021
2478 Clouds 23 1012 74 10000 2.06 170 17:48 28.08.2021
2479 Clouds 23 1012 74 10000 2.06 170 17:48 28.08.2021
2480 Clear 23 1012 77 10000 0 0 16:58 28.08.2021
2481 Clear 23 1012 72 10000 0 0 15:32 28.08.2021
2482 Clear 25 1012 64 10000 1.03 110 14:19 28.08.2021
2483 Clear 26 1011 61 10000 1.54 50 13:43 28.08.2021
2484 Clear 27 1010 55 10000 3.09 30 12:41 28.08.2021
2485 Clear 28 1010 51 10000 4.63 30 11:51 28.08.2021
2486 Clear 31 1009 41 10000 4.63 360 10:29 28.08.2021
2487 Clear 32 1009 43 10000 5.66 330 08:38 28.08.2021
2488 Clear 34 1010 19 10000 6.17 100 06:23 28.08.2021
2489 Clear 22 1011 94 10000 1.03 130 22:28 27.08.2021
2490 Clouds 22 1011 93 10000 1.54 130 20:56 27.08.2021
2491 Clouds 22 1012 90 10000 1.54 100 20:19 27.08.2021
2492 Clouds 22 1012 91 10000 0 0 18:46 27.08.2021
2493 Clouds 23 1012 89 10000 0.51 90 18:28 27.08.2021
2494 Clear 23 1013 90 10000 0.51 70 16:55 27.08.2021
2495 Clear 24 1013 84 10000 2.06 40 15:21 27.08.2021
2496 Clear 24 1013 84 10000 2.06 40 15:21 27.08.2021
2497 Clear 25 1012 80 10000 3.6 210 14:38 27.08.2021
2498 Clear 27 1011 68 10000 3.09 260 12:30 27.08.2021
2499 Clear 28 1010 56 10000 3.6 290 11:24 27.08.2021
2500 Clear 30 1009 51 10000 4.63 350 10:42 27.08.2021
2501 Clear 32 1009 41 10000 4.12 330 09:30 27.08.2021
2502 Clear 33 1009 35 10000 4.63 310 08:41 27.08.2021
2503 Clear 33 1011 22 10000 6.69 100 05:53 27.08.2021
2504 Clear 29 1013 52 10000 4.63 100 02:44 27.08.2021
2505 Clear 23 1012 89 10000 1.54 140 00:31 27.08.2021
2506 Clear 22 1011 88 10000 1.03 50 22:29 26.08.2021
2507 Clear 22 1011 88 8000 0.51 50 21:57 26.08.2021
2508 Clouds 23 1011 78 10000 1.03 50 20:18 26.08.2021
2509 Clouds 23 1012 82 10000 2.57 60 18:49 26.08.2021
2510 Clouds 25 1012 80 10000 2.57 350 17:34 26.08.2021
2511 Clouds 25 1012 73 10000 0.51 350 16:32 26.08.2021
2512 Clouds 24 1012 79 10000 0 0 15:53 26.08.2021
2513 Clear 25 1010 72 10000 2.06 360 13:29 26.08.2021
2514 Clear 25 1010 68 10000 1.54 360 12:49 26.08.2021
2515 Clear 27 1009 57 10000 1.54 340 11:51 26.08.2021
2516 Clear 31 1009 41 10000 4.12 360 09:40 26.08.2021
2517 Clear 32 1009 37 10000 4.63 350 08:27 26.08.2021
2518 Clear 23 1013 56 10000 4.12 100 00:46 26.08.2021
2519 Clear 21 1012 66 10000 3.6 150 22:46 25.08.2021
2520 Clear 21 1012 73 10000 3.6 150 22:26 25.08.2021
2521 Clouds 21 1012 94 10000 2.06 190 20:58 25.08.2021
2522 Clouds 21 1012 94 10000 1.54 210 20:31 25.08.2021
2523 Clouds 22 1012 88 10000 2.06 220 19:55 25.08.2021
2524 Clouds 22 1012 89 10000 0 0 18:18 25.08.2021
2525 Clear 24 1013 83 10000 1.03 240 16:31 25.08.2021
2526 Clear 25 1012 73 10000 2.06 250 15:40 25.08.2021
2527 Clear 25 1012 69 10000 2.06 240 14:47 25.08.2021
2528 Clear 24 1011 69 10000 2.06 360 13:58 25.08.2021
2529 Clear 26 1011 57 10000 1.03 80 12:40 25.08.2021
2530 Clear 28 1010 44 10000 2.06 80 11:21 25.08.2021
2531 Clear 30 1010 31 10000 3.09 80 10:26 25.08.2021
2532 Clear 31 1010 31 10000 2.57 80 09:42 25.08.2021
2533 Clear 31 1010 30 10000 3.09 90 08:39 25.08.2021
2534 Clear 31 1011 28 10000 4.12 70 07:32 25.08.2021
2535 Clear 23 1014 61 10000 3.09 120 01:26 25.08.2021
2536 Clear 21 1013 81 10000 3.09 90 23:40 24.08.2021
2537 Clouds 21 1013 78 10000 6.17 80 21:41 24.08.2021
2538 Clouds 21 1013 88 10000 6.17 50 20:23 24.08.2021
2539 Clouds 21 1013 88 10000 6.69 60 19:44 24.08.2021
2540 Clouds 23 1013 94 6000 4.63 90 17:56 24.08.2021
2541 Clouds 23 1013 100 10000 3.6 80 17:22 24.08.2021
2542 Clouds 23 1013 100 5000 5.66 120 16:38 24.08.2021
2543 Clouds 25 1012 87 8000 4.12 200 14:24 24.08.2021
2544 Clouds 27 1011 74 10000 3.09 190 12:45 24.08.2021
2545 Clouds 27 1010 77 10000 3.6 230 11:25 24.08.2021
2546 Clouds 30 1009 69 10000 3.09 310 10:47 24.08.2021
2547 Clouds 31 1009 67 10000 3.09 310 10:25 24.08.2021
2548 Clouds 31 1009 62 10000 4.63 30 08:39 24.08.2021
2549 Clouds 30 1011 72 10000 4.63 340 06:35 24.08.2021
2550 Clouds 31 1013 66 10000 2.06 300 03:49 24.08.2021
2551 Clouds 24 1012 92 10000 1.54 150 23:59 23.08.2021
2552 Clouds 25 1011 91 10000 1.54 320 22:51 23.08.2021
2553 Clouds 25 1011 89 10000 0 0 21:52 23.08.2021
2554 Clouds 25 1011 87 10000 1.03 320 20:25 23.08.2021
2555 Clouds 26 1012 84 10000 1.54 340 18:39 23.08.2021
2556 Clouds 26 1012 84 10000 3.6 310 16:29 23.08.2021
2557 Clear 26 1011 81 10000 1.54 210 13:58 23.08.2021
2558 Clear 27 1010 77 10000 2.57 350 12:34 23.08.2021
2559 Clouds 29 1009 73 10000 3.6 310 11:24 23.08.2021
2560 Clouds 30 1009 65 10000 4.12 350 10:36 23.08.2021
2561 Clouds 31 1009 62 10000 5.66 350 09:21 23.08.2021
2562 Clouds 32 1009 59 10000 5.14 330 07:54 23.08.2021
2563 Clouds 31 1010 60 10000 4.12 340 06:47 23.08.2021
2564 Clouds 32 1012 54 10000 3.6 270 04:46 23.08.2021
2565 Clear 25 1013 91 10000 0.51 180 00:48 23.08.2021
2566 Fog 21 1012 95 9000 1.03 180 22:43 22.08.2021
2567 Clouds 21 1012 95 10000 1.03 180 21:58 22.08.2021
2568 Clear 22 1012 92 10000 1.03 180 20:21 22.08.2021
2569 Clouds 23 1012 91 10000 1.03 180 18:54 22.08.2021
2570 Clear 25 1012 86 10000 1.54 210 16:27 22.08.2021
2571 Clear 26 1012 82 10000 3.6 220 14:55 22.08.2021
2572 Clear 26 1011 79 10000 3.6 230 13:59 22.08.2021
2573 Clear 26 1011 76 10000 3.6 240 13:20 22.08.2021
2574 Clear 26 1011 76 10000 3.6 240 13:20 22.08.2021
2575 Clear 26 1011 76 10000 3.6 240 13:20 22.08.2021
2576 Clear 26 1011 74 10000 3.09 260 12:50 22.08.2021
2577 Clear 27 1010 68 10000 2.57 290 11:55 22.08.2021
2578 Clear 27 1010 68 10000 3.6 290 11:33 22.08.2021
2579 Clear 30 1009 58 10000 5.66 310 09:59 22.08.2021
2580 Clear 33 1010 48 10000 4.12 330 07:59 22.08.2021
2581 Clouds 31 1013 53 10000 2.57 310 04:46 22.08.2021
2582 Fog 22 1013 95 9000 1.54 170 22:49 21.08.2021
2583 Clear 23 1012 95 10000 2.06 180 22:25 21.08.2021
2584 Clear 22 1013 89 10000 2.06 230 19:22 21.08.2021
2585 Clear 22 1013 78 10000 1.03 180 18:39 21.08.2021
2586 Clear 22 1013 83 10000 0.51 180 17:48 21.08.2021
2587 Clouds 22 1013 78 10000 0 0 16:50 21.08.2021
2588 Clear 23 1013 73 10000 1.54 200 15:51 21.08.2021
2589 Clear 23 1013 72 10000 1.54 200 15:26 21.08.2021
2590 Clear 24 1013 65 10000 1.03 240 14:20 21.08.2021
2591 Clear 26 1011 56 10000 2.06 30 12:41 21.08.2021
2592 Clear 26 1011 56 10000 2.06 30 12:22 21.08.2021
2593 Clear 31 1010 44 10000 5.66 360 09:21 21.08.2021
2594 Clear 27 1014 72 10000 2.06 60 01:39 21.08.2021
2595 Clear 22 1013 91 10000 0 0 22:41 20.08.2021
2596 Clear 22 1013 91 10000 0.51 170 20:47 20.08.2021
2597 Clear 24 1013 85 10000 2.06 360 17:46 20.08.2021
2598 Clear 24 1013 75 10000 2.57 110 15:42 20.08.2021
2599 Clear 26 1012 68 10000 0 0 13:23 20.08.2021
2600 Clear 27 1011 63 10000 4.63 20 11:32 20.08.2021
2601 Clouds 29 1010 58 10000 5.14 20 10:37 20.08.2021
2602 Clear 30 1010 54 10000 5.66 360 09:29 20.08.2021
2603 Clouds 31 1011 52 10000 4.63 10 08:38 20.08.2021
2604 Clouds 31 1012 59 10000 5.14 290 06:22 20.08.2021
2605 Clouds 31 1014 55 10000 5.14 90 04:21 20.08.2021
2606 Clouds 23 1014 89 10000 1.54 130 00:18 20.08.2021
2607 Clear 23 1013 85 10000 3.09 110 22:39 19.08.2021
2608 Clear 23 1013 84 10000 3.09 110 22:18 19.08.2021
2609 Clear 23 1012 83 10000 0.51 120 20:23 19.08.2021
2610 Clouds 22 1013 83 10000 1.54 130 18:57 19.08.2021
2611 Clear 23 1013 84 10000 1.54 130 17:18 19.08.2021
2612 Clear 24 1013 79 10000 1.03 160 15:40 19.08.2021
2613 Clear 26 1011 73 10000 2.06 30 13:19 19.08.2021
2614 Clear 27 1011 66 10000 3.09 30 12:31 19.08.2021
2615 Clear 28 1010 58 10000 4.12 20 11:21 19.08.2021
2616 Clear 30 1009 52 10000 5.66 360 09:50 19.08.2021
2617 Clear 30 1009 51 10000 5.66 10 09:30 19.08.2021
2618 Clear 31 1009 50 10000 5.14 360 08:54 19.08.2021
2619 Clear 33 1011 27 10000 3.6 90 06:32 19.08.2021
2620 Clear 28 1014 62 10000 4.12 80 02:22 19.08.2021
2621 Clear 26 1013 77 10000 3.6 90 01:41 19.08.2021
2622 Clouds 23 1011 86 10000 2.06 110 22:42 18.08.2021
2623 Clouds 23 1011 83 10000 2.06 100 21:37 18.08.2021
2624 Clouds 23 1011 87 10000 3.09 110 20:24 18.08.2021
2625 Clear 22 1011 89 10000 1.54 210 19:28 18.08.2021
2626 Clear 22 1011 88 10000 0 0 18:46 18.08.2021
2627 Clear 23 1012 82 10000 2.57 270 17:29 18.08.2021
2628 Clear 23 1012 76 10000 1.54 50 15:46 18.08.2021
2629 Clear 24 1012 71 10000 1.54 80 15:22 18.08.2021
2630 Clear 25 1011 63 10000 0 0 13:29 18.08.2021
2631 Clear 27 1010 57 10000 2.57 20 12:41 18.08.2021
2632 Clear 27 1010 57 10000 2.57 20 12:23 18.08.2021
2633 Clouds 30 1009 53 10000 5.66 360 09:25 18.08.2021
2634 Clear 32 1012 36 10000 3.09 50 04:30 18.08.2021
2635 Clear 22 1013 67 10000 1.54 110 00:41 18.08.2021
2636 Clear 20 1012 88 10000 0.51 260 22:28 17.08.2021
2637 Clouds 21 1012 78 10000 0.51 260 21:22 17.08.2021
2638 Clouds 21 1011 82 9000 0 0 20:43 17.08.2021
2639 Clear 21 1012 84 10000 0 0 18:56 17.08.2021
2640 Clear 23 1013 73 10000 0.51 200 17:27 17.08.2021
2641 Clear 23 1013 79 10000 1.03 20 16:31 17.08.2021
2642 Clear 24 1013 77 10000 2.06 230 15:35 17.08.2021
2643 Clear 25 1013 78 10000 1.54 250 13:57 17.08.2021
2644 Clear 28 1011 61 10000 3.09 340 11:36 17.08.2021
2645 Clear 33 1010 25 10000 4.63 60 09:20 17.08.2021
2646 Clear 33 1011 26 10000 4.63 70 07:44 17.08.2021
2647 Clear 21 1014 59 10000 3.6 150 23:30 16.08.2021
2648 Clear 21 1014 69 10000 3.6 150 22:54 16.08.2021
2649 Clear 21 1014 76 10000 3.09 140 22:36 16.08.2021
2650 Clouds 22 1014 71 10000 2.57 140 21:52 16.08.2021
2651 Clear 22 1014 62 10000 2.06 140 20:53 16.08.2021
2652 Clear 22 1014 67 10000 3.09 120 19:44 16.08.2021
2653 Clear 23 1014 59 10000 2.57 90 19:22 16.08.2021
2654 Clear 23 1014 77 10000 1.03 90 18:22 16.08.2021
2655 Clear 23 1015 80 10000 1.54 80 17:51 16.08.2021
2656 Clear 26 1015 69 10000 2.06 230 15:30 16.08.2021
2657 Clear 27 1015 69 10000 2.57 230 14:36 16.08.2021
2658 Clear 26 1014 69 10000 0.51 340 13:31 16.08.2021
2659 Clear 27 1014 66 10000 1.54 340 12:31 16.08.2021
2660 Clear 31 1012 48 10000 5.66 350 10:37 16.08.2021
2661 Clear 35 1012 25 10000 4.12 130 08:44 16.08.2021
2662 Clear 35 1012 26 10000 4.63 110 07:33 16.08.2021
2663 Clear 34 1013 31 10000 7.72 120 06:35 16.08.2021
2664 Clear 28 1017 58 10000 6.69 150 02:18 16.08.2021
2665 Clear 23 1014 92 10000 1.54 90 21:53 15.08.2021
2666 Clouds 23 1014 90 10000 1.54 70 20:28 15.08.2021
2667 Clouds 24 1015 83 10000 0 0 18:47 15.08.2021
2668 Clouds 25 1015 83 10000 1.54 70 17:54 15.08.2021
2669 Clouds 25 1016 81 10000 2.06 60 17:32 15.08.2021
2670 Clear 25 1016 83 10000 0 0 16:24 15.08.2021
2671 Clear 26 1015 75 10000 0 0 14:42 15.08.2021
2672 Clear 27 1014 69 10000 1.54 180 13:55 15.08.2021
2673 Clear 29 1012 62 10000 4.12 20 11:18 15.08.2021
2674 Clear 34 1011 38 10000 4.63 60 08:59 15.08.2021
2675 Clear 27 1015 68 10000 3.09 140 01:56 15.08.2021
2676 Clear 24 1015 86 10000 2.06 150 00:37 15.08.2021
2677 Clouds 23 1013 91 9000 2.06 180 21:59 14.08.2021
2678 Clouds 23 1013 91 10000 1.54 160 20:58 14.08.2021
2679 Clear 23 1013 89 10000 1.54 180 19:43 14.08.2021
2680 Clear 24 1013 84 10000 0 0 18:40 14.08.2021
2681 Clear 24 1014 83 10000 0 0 16:59 14.08.2021
2682 Clear 24 1014 82 10000 0 0 15:47 14.08.2021
2683 Clear 26 1014 77 10000 3.6 50 14:24 14.08.2021
2684 Clear 27 1012 71 10000 4.12 40 12:19 14.08.2021
2685 Clouds 29 1011 64 10000 5.14 20 10:45 14.08.2021
2686 Clear 32 1011 54 10000 7.2 360 07:40 14.08.2021
2687 Clear 21 1015 83 10000 1.03 140 23:53 13.08.2021
2688 Clear 21 1013 82 10000 1.54 130 22:26 13.08.2021
2689 Clear 22 1013 75 10000 1.03 150 20:31 13.08.2021
2690 Clear 23 1014 78 10000 2.06 160 18:47 13.08.2021
2691 Clear 23 1014 72 10000 2.06 190 17:43 13.08.2021
2692 Clear 24 1014 67 10000 1.54 190 16:24 13.08.2021
2693 Clear 26 1012 58 10000 3.09 50 13:30 13.08.2021
2694 Clear 29 1011 46 10000 5.66 50 11:20 13.08.2021
2695 Clear 34 1009 23 10000 4.63 130 09:41 13.08.2021
2696 Clear 34 1010 22 10000 6.17 130 08:36 13.08.2021
2697 Clear 34 1011 25 10000 7.2 110 07:19 13.08.2021
2698 Clear 32 1014 28 10000 9.26 120 04:59 13.08.2021
2699 Clear 22 1014 91 10000 1.54 150 23:37 12.08.2021
2700 Clouds 23 1014 86 10000 1.03 170 21:20 12.08.2021
2701 Clouds 23 1014 83 10000 1.03 140 20:22 12.08.2021
2702 Clouds 23 1014 83 6000 1.03 140 19:42 12.08.2021
2703 Clouds 24 1015 79 10000 1.03 140 17:51 12.08.2021
2704 Clear 24 1015 76 10000 1.54 160 16:29 12.08.2021
2705 Clear 24 1015 76 10000 1.54 160 16:29 12.08.2021
2706 Clear 24 1015 76 10000 1.54 160 16:29 12.08.2021
2707 Clear 25 1015 70 10000 1.54 140 14:52 12.08.2021
2708 Clear 27 1013 62 10000 4.12 40 12:59 12.08.2021
2709 Clear 30 1012 55 10000 6.17 40 10:49 12.08.2021
2710 Clear 34 1012 42 10000 6.69 130 07:56 12.08.2021
2711 Clouds 27 1016 82 10000 3.6 60 01:51 12.08.2021
2712 Clear 23 1015 90 10000 0 0 22:54 11.08.2021
2713 Clouds 23 1015 87 10000 1.54 90 20:45 11.08.2021
2714 Clear 23 1016 84 10000 1.03 100 18:28 11.08.2021
2715 Clear 24 1016 79 10000 2.06 90 15:39 11.08.2021
2716 Clear 25 1016 78 10000 1.54 90 15:20 11.08.2021
2717 Clear 25 1015 77 10000 1.03 90 14:22 11.08.2021
2718 Clear 27 1013 70 10000 4.12 30 12:30 11.08.2021
2719 Clear 28 1013 68 10000 4.12 30 11:46 11.08.2021
2720 Clear 28 1013 66 10000 5.14 30 11:22 11.08.2021
2721 Clear 31 1012 55 10000 5.14 360 09:46 11.08.2021
2722 Clear 33 1013 43 10000 4.63 20 07:59 11.08.2021
2723 Clouds 23 1015 87 10000 1.54 80 23:34 10.08.2021
2724 Clouds 23 1015 81 10000 1.03 90 22:32 10.08.2021
2725 Clouds 23 1014 83 10000 1.54 80 21:19 10.08.2021
2726 Clouds 24 1014 83 10000 1.03 120 19:52 10.08.2021
2727 Clouds 24 1015 89 10000 1.54 170 18:33 10.08.2021
2728 Clear 25 1015 83 10000 0.51 360 16:37 10.08.2021
2729 Clear 25 1015 82 10000 0 0 14:53 10.08.2021
2730 Clear 26 1013 68 10000 5.66 40 12:26 10.08.2021
2731 Clouds 30 1012 52 10000 6.17 20 10:38 10.08.2021
2732 Clear 33 1012 37 10000 5.14 10 06:55 10.08.2021
2733 Clouds 31 1014 40 10000 5.66 50 04:58 10.08.2021
2734 Clouds 22 1014 83 10000 1.54 100 23:42 09.08.2021
2735 Clear 20 1014 91 10000 1.54 100 21:55 09.08.2021
2736 Clear 20 1013 90 10000 1.54 120 21:36 09.08.2021
2737 Clear 21 1014 91 10000 1.03 140 19:37 09.08.2021
2738 Clear 22 1014 89 10000 1.03 190 17:54 09.08.2021
2739 Clear 24 1014 78 10000 2.06 220 15:35 09.08.2021
2740 Clear 23 1014 78 10000 0 0 14:25 09.08.2021
2741 Clear 24 1013 76 10000 2.06 20 13:27 09.08.2021
2742 Clear 26 1013 67 10000 3.09 360 11:47 09.08.2021
2743 Clear 31 1012 45 10000 4.63 330 08:31 09.08.2021
2744 Clear 27 1016 49 10000 5.14 80 02:54 09.08.2021
2745 Clear 20 1014 83 10000 2.57 160 21:28 08.08.2021
2746 Clear 19 1014 82 10000 1.54 140 19:51 08.08.2021
2747 Clear 21 1015 79 10000 2.06 180 16:55 08.08.2021
2748 Clear 22 1016 73 10000 1.54 180 15:42 08.08.2021
2749 Clear 23 1015 70 10000 2.57 30 13:41 08.08.2021
2750 Clear 26 1014 58 10000 2.57 350 11:41 08.08.2021
2751 Clear 32 1013 22 10000 2.57 200 08:21 08.08.2021
2752 Clear 30 1015 28 10000 4.63 120 06:40 08.08.2021
2753 Clouds 21 1017 60 10000 4.12 100 00:33 08.08.2021
2754 Clear 21 1016 56 10000 5.14 100 23:18 07.08.2021
2755 Clear 20 1016 51 10000 2.57 110 21:41 07.08.2021
2756 Clear 19 1016 59 10000 2.57 140 20:55 07.08.2021
2757 Clouds 19 1017 85 10000 1.03 160 17:57 07.08.2021
2758 Clear 21 1017 81 10000 0 0 16:50 07.08.2021
2759 Clear 22 1017 67 10000 1.54 180 14:56 07.08.2021
2760 Clear 22 1016 71 10000 1.03 50 13:33 07.08.2021
2761 Clear 28 1014 45 10000 4.63 350 10:27 07.08.2021
2762 Clear 30 1015 21 10000 3.6 120 06:31 07.08.2021
2763 Clear 22 1018 30 10000 5.14 130 01:51 07.08.2021
2764 Clouds 19 1017 31 10000 3.6 130 21:51 06.08.2021
2765 Clear 21 1017 27 10000 4.12 120 20:34 06.08.2021
2766 Clouds 21 1017 26 10000 4.12 130 19:56 06.08.2021
2767 Clouds 21 1017 28 10000 4.63 140 18:45 06.08.2021
2768 Clouds 21 1019 27 10000 3.6 150 17:23 06.08.2021
2769 Clear 29 1014 20 10000 2.57 100 10:53 06.08.2021
2770 Clear 31 1017 12 10000 4.12 120 09:56 06.08.2021
2771 Clear 30 1017 11 10000 5.66 140 07:47 06.08.2021
2772 Clear 20 1017 31 10000 5.14 130 23:33 05.08.2021
2773 Clouds 21 1017 34 10000 4.12 140 21:56 05.08.2021
2774 Clouds 22 1016 34 10000 4.63 140 20:44 05.08.2021
2775 Clouds 22 1017 35 10000 4.12 140 19:25 05.08.2021
2776 Clouds 24 1017 37 10000 2.57 150 16:33 05.08.2021
2777 Clear 26 1017 53 10000 1.54 230 14:49 05.08.2021
2778 Clear 29 1014 26 10000 3.09 120 11:34 05.08.2021
2779 Clear 32 1013 22 10000 4.63 130 08:38 05.08.2021
2780 Clear 29 1017 26 10000 7.2 110 04:50 05.08.2021
2781 Clear 22 1016 46 10000 3.6 130 23:36 04.08.2021
2782 Clouds 22 1016 51 10000 4.12 140 21:44 04.08.2021
2783 Clouds 22 1016 53 10000 4.12 140 21:21 04.08.2021
2784 Clouds 23 1016 82 10000 3.6 170 18:22 04.08.2021
2785 Clear 25 1017 79 10000 2.06 180 16:42 04.08.2021
2786 Clear 27 1016 72 10000 2.06 200 14:43 04.08.2021
2787 Clear 28 1014 64 10000 4.63 10 11:34 04.08.2021
2788 Clouds 31 1016 52 10000 5.14 100 04:55 04.08.2021
2789 Clouds 23 1014 85 10000 2.57 70 20:35 03.08.2021
2790 Clouds 23 1014 90 10000 2.06 70 19:59 03.08.2021
2791 Clouds 23 1015 90 10000 1.03 90 17:50 03.08.2021
2792 Clear 24 1015 86 10000 1.54 160 16:23 03.08.2021
2793 Clear 26 1013 72 10000 1.54 290 12:20 03.08.2021
2794 Clouds 29 1012 65 10000 4.63 310 10:39 03.08.2021
2795 Clouds 30 1013 59 10000 4.63 330 06:46 03.08.2021
2796 Clouds 24 1013 84 10000 2.57 180 17:48 02.08.2021
2797 Clear 23 1013 87 10000 1.03 200 16:38 02.08.2021
2798 Clear 25 1013 82 10000 2.06 180 14:51 02.08.2021
2799 Clear 28 1011 62 10000 4.63 30 11:59 02.08.2021
2800 Clear 28 1011 62 10000 4.63 30 11:59 02.08.2021
2801 Clear 28 1011 60 10000 5.14 30 11:34 02.08.2021
2802 Clear 32 1010 46 10000 5.14 20 09:49 02.08.2021
2803 Clear 22 1013 95 10000 1.03 110 22:40 01.08.2021
2804 Clouds 23 1012 91 10000 0 0 18:19 01.08.2021
2805 Clear 24 1012 84 10000 0 0 15:29 01.08.2021
2806 Clear 28 1010 70 10000 4.63 10 11:38 01.08.2021
2807 Clouds 31 1009 58 10000 4.63 10 09:25 01.08.2021
2808 Clouds 30 1015 63 10000 2.57 90 03:48 01.08.2021
2809 Clouds 24 1008 95 10000 1.54 160 22:52 31.07.2021
2810 Clear 23 1012 93 10000 1.03 160 20:52 31.07.2021
2811 Clear 23 1013 91 10000 0 0 17:49 31.07.2021
2812 Clear 23 1013 88 10000 1.03 250 16:36 31.07.2021
2813 Clear 26 1012 80 10000 2.57 300 12:38 31.07.2021
2814 Clouds 30 1013 57 10000 3.6 340 08:34 31.07.2021
2815 Clouds 30 1013 57 10000 3.6 340 08:34 31.07.2021
2816 Clear 25 1017 89 10000 1.54 70 01:38 31.07.2021
2817 Clouds 23 1013 95 10000 1.54 150 20:31 30.07.2021
2818 Clouds 23 1013 92 10000 1.54 150 19:23 30.07.2021
2819 Clouds 31 1014 57 10000 4.63 350 07:50 30.07.2021
2820 Clear 24 1013 91 10000 1.54 220 16:53 29.07.2021
2821 Clouds 31 1012 62 10000 3.6 310 06:32 29.07.2021
2822 Clouds 31 1013 61 10000 3.09 290 04:29 29.07.2021
2823 Clouds 21 1012 95 10000 1.03 110 21:21 28.07.2021
2824 Clouds 24 1013 91 10000 1.54 180 17:22 28.07.2021
2825 Clear 25 1013 82 10000 2.57 220 15:25 28.07.2021
2826 Clouds 31 1012 60 10000 5.14 330 07:53 28.07.2021
2827 Clouds 21 1013 96 8000 1.03 140 22:54 27.07.2021
2828 Clouds 22 1012 95 9000 2.06 150 21:27 27.07.2021
2829 Clear 25 1013 77 10000 1.54 200 14:52 27.07.2021
2830 Clear 29 1014 55 10000 4.63 360 10:46 27.07.2021
2831 Clouds 31 1012 51 10000 5.14 330 07:59 27.07.2021
2832 Clouds 23 1016 87 10000 1.03 350 17:43 26.07.2021
2833 Clear 24 1013 81 10000 0 0 15:31 26.07.2021
2834 Clouds 29 1013 61 10000 4.63 80 04:51 26.07.2021
2835 Clouds 23 1013 97 10000 2.57 80 20:56 25.07.2021
2836 Clouds 23 1013 95 10000 1.54 240 18:24 25.07.2021
2837 Clear 24 1014 89 10000 1.54 260 15:46 25.07.2021
2838 Clear 28 1012 53 10000 3.09 320 10:56 25.07.2021
2839 Clouds 30 1012 60 10000 5.14 310 08:19 25.07.2021
2840 Clouds 22 1012 93 10000 1.03 350 21:22 24.07.2021
2841 Clouds 22 1012 93 10000 2.06 340 20:18 24.07.2021
2842 Clear 24 1013 86 10000 2.06 230 14:37 24.07.2021
2843 Clear 29 1014 45 10000 1.54 220 04:20 24.07.2021
2844 Clear 24 1012 82 10000 1.54 270 14:37 23.07.2021
2845 Clear 25 1011 74 10000 2.57 270 12:41 23.07.2021
2846 Clouds 30 1013 60 10000 2.57 240 04:48 23.07.2021
2847 Clouds 21 1012 94 10000 1.54 240 19:26 22.07.2021
2848 Clear 26 1010 48 10000 2.06 330 11:21 22.07.2021
2849 Clear 30 1010 41 10000 3.6 350 08:38 22.07.2021
2850 Clear 27 1015 50 10000 1.03 10 03:22 22.07.2021
2851 Clouds 18 1013 90 10000 0 0 21:45 21.07.2021
2852 Clouds 18 1013 90 10000 1.03 160 21:27 21.07.2021
2853 Clear 23 1013 60 10000 1.54 10 13:23 21.07.2021
2854 Clear 30 1010 42 10000 4.12 330 09:24 21.07.2021
2855 Smoke 31 1012 18 5000 3.09 140 07:25 21.07.2021
2856 Clouds 20 1014 79 8000 2.57 140 23:28 20.07.2021
2857 Clear 23 1015 82 10000 3.09 180 16:37 20.07.2021
2858 Clear 23 1015 83 10000 3.09 190 15:59 20.07.2021
2859 Clear 24 1015 80 10000 2.57 190 15:24 20.07.2021
2860 Clear 29 1012 51 10000 4.12 350 10:21 20.07.2021
2861 Clear 30 1014 29 10000 6.17 80 04:48 20.07.2021
2862 Clear 21 1013 58 10000 3.6 120 22:25 19.07.2021
2863 Clear 26 1012 70 10000 1.54 360 12:53 19.07.2021
2864 Clear 30 1011 55 10000 3.6 330 10:29 19.07.2021
2865 Clouds 22 1012 84 10000 2.57 200 19:38 18.07.2021
2866 Clear 24 1012 69 10000 1.03 50 13:49 18.07.2021
2867 Clear 28 1010 57 10000 3.09 20 10:18 18.07.2021
2868 Clear 21 1011 84 10000 3.09 80 22:25 17.07.2021
2869 Clouds 21 1012 85 10000 2.06 110 21:45 17.07.2021
2870 Clear 22 1011 84 10000 2.06 160 21:23 17.07.2021
2871 Clear 26 1010 76 10000 2.57 280 12:28 17.07.2021
2872 Clear 31 1007 53 10000 3.6 340 08:55 17.07.2021
2873 Clear 26 1012 64 10000 3.09 130 02:46 17.07.2021
2874 Clear 25 1011 75 10000 2.57 270 13:22 16.07.2021
2875 Clear 31 1010 58 10000 5.14 310 07:33 16.07.2021
2876 Fog 23 1012 96 10000 0 0 00:41 16.07.2021
2877 Clear 25 1011 87 10000 1.54 350 13:53 15.07.2021
2878 Clear 27 1011 77 10000 1.54 350 12:25 15.07.2021
2879 Clouds 31 1010 65 10000 4.12 340 07:27 15.07.2021
2880 Clouds 22 1011 91 10000 0.51 170 19:39 14.07.2021
2881 Clear 23 1011 83 10000 0.51 270 15:55 14.07.2021
2882 Clear 30 1007 51 10000 4.63 350 09:52 14.07.2021
2883 Clear 20 1011 84 10000 1.54 60 23:19 13.07.2021
2884 Clouds 20 1010 83 10000 0 0 19:57 13.07.2021
2885 Clouds 21 1010 79 10000 1.54 180 19:37 13.07.2021
2886 Clouds 21 1010 78 10000 1.54 180 19:18 13.07.2021
2887 Clouds 23 1011 73 10000 0 0 18:42 13.07.2021
2888 Clouds 23 1011 74 10000 0 0 18:23 13.07.2021
2889 Clear 25 1010 73 10000 2.57 260 13:21 13.07.2021
2890 Clear 31 1008 40 10000 3.6 300 09:23 13.07.2021
2891 Clouds 21 1011 61 10000 2.06 70 20:24 12.07.2021
2892 Clear 22 1012 81 10000 1.03 210 16:46 12.07.2021
2893 Clear 26 1010 68 10000 2.57 260 12:22 12.07.2021
2894 Clear 20 1013 45 10000 3.09 100 23:22 11.07.2021
2895 Clouds 19 1012 82 10000 1.03 180 19:57 11.07.2021
2896 Clear 25 1012 69 10000 2.06 330 12:41 11.07.2021
2897 Clear 21 1013 60 10000 3.09 90 23:57 10.07.2021
2898 Clear 24 1013 84 10000 1.54 180 15:30 10.07.2021
2899 Clear 33 1010 35 10000 2.06 180 07:50 10.07.2021
2900 Clouds 26 1014 80 10000 4.63 120 02:18 10.07.2021
2901 Clouds 23 1013 91 10000 1.54 90 18:29 09.07.2021
2902 Clear 24 1012 85 10000 1.54 70 14:50 09.07.2021
2903 Clear 26 1011 73 10000 3.6 30 12:24 09.07.2021
2904 Fog 21 1012 98 10000 2.06 90 23:52 08.07.2021
2905 Fog 21 1012 95 10000 0 0 22:48 08.07.2021
2906 Clouds 22 1012 95 10000 1.03 40 18:57 08.07.2021
2907 Clouds 22 1012 91 10000 0 0 17:43 08.07.2021
2908 Clear 25 1011 78 10000 0 0 13:32 08.07.2021
2909 Clear 24 1011 79 10000 1.54 30 12:45 08.07.2021
2910 Clear 26 1010 74 10000 2.06 350 11:50 08.07.2021
2911 Clear 28 1009 63 10000 4.12 360 10:30 08.07.2021
2912 Clear 31 1012 38 10000 2.57 290 05:30 08.07.2021
2913 Clear 26 1013 59 10000 2.06 200 02:22 08.07.2021
2914 Clear 21 1012 87 10000 1.03 160 22:56 07.07.2021
2915 Clear 21 1012 86 10000 1.54 170 22:19 07.07.2021
2916 Clouds 21 1010 86 10000 2.06 170 21:43 07.07.2021
2917 Clouds 21 1010 86 10000 2.06 170 21:43 07.07.2021
2918 Clouds 21 1010 86 10000 2.06 170 21:23 07.07.2021
2919 Clouds 22 1012 89 10000 3.09 190 19:57 07.07.2021
2920 Clouds 22 1012 86 10000 3.6 190 19:28 07.07.2021
2921 Clouds 23 1015 89 10000 3.09 190 17:36 07.07.2021
2922 Clear 23 1012 78 10000 1.03 10 15:45 07.07.2021
2923 Clear 25 1011 71 10000 2.06 10 12:27 07.07.2021
2924 Clear 31 1009 42 10000 3.6 20 08:39 07.07.2021
2925 Clear 31 1011 38 10000 4.12 70 06:46 07.07.2021
2926 Clear 31 1011 37 10000 5.66 80 05:48 07.07.2021
2927 Clear 20 1012 73 10000 3.6 160 23:47 06.07.2021
2928 Clear 21 1011 78 10000 3.6 200 19:30 06.07.2021
2929 Clear 22 1012 77 10000 3.6 190 18:48 06.07.2021
2930 Clear 22 1012 77 10000 3.6 180 18:30 06.07.2021
2931 Clear 24 1013 75 10000 2.06 210 14:58 06.07.2021
2932 Clear 24 1011 76 10000 2.06 260 12:58 06.07.2021
2933 Clear 29 1010 49 10000 4.12 320 09:42 06.07.2021
2934 Clouds 32 1010 31 8000 5.14 290 08:35 06.07.2021
2935 Clear 31 1010 33 10000 3.09 80 07:34 06.07.2021
2936 Clouds 21 1013 45 6000 4.63 150 01:43 06.07.2021
2937 Clear 19 1011 48 10000 4.12 150 22:44 05.07.2021
2938 Clouds 20 1011 48 10000 3.6 150 20:27 05.07.2021
2939 Clear 20 1012 55 10000 2.57 170 16:50 05.07.2021
2940 Clear 30 1010 29 10000 2.57 90 08:45 05.07.2021
2941 Clear 28 1012 29 10000 4.12 140 05:47 05.07.2021
2942 Clear 26 1013 30 10000 4.63 130 04:40 05.07.2021
2943 Clear 19 1013 42 10000 4.63 140 23:19 04.07.2021
2944 Clouds 20 1013 45 10000 4.12 150 20:42 04.07.2021
2945 Clear 21 1014 44 10000 3.09 160 16:57 04.07.2021
2946 Rain 22 1013 43 10000 1.54 120 13:37 04.07.2021
2947 Clear 28 1011 28 10000 4.12 90 09:28 04.07.2021
2948 Clear 18 1013 59 10000 3.6 130 23:34 03.07.2021
2949 Clear 19 1012 57 10000 4.12 140 22:40 03.07.2021
2950 Clear 22 1013 47 10000 3.09 160 15:41 03.07.2021
2951 Clear 24 1012 46 10000 2.57 170 12:39 03.07.2021
2952 Clear 30 1009 25 10000 4.63 140 09:41 03.07.2021
2953 Clear 31 1009 25 10000 4.63 140 09:20 03.07.2021
2954 Clear 31 1010 25 10000 4.12 160 08:44 03.07.2021
2955 Clouds 22 1012 52 10000 3.09 160 17:57 02.07.2021
2956 Clear 32 1010 32 10000 5.14 130 07:41 02.07.2021
2957 Clear 32 1011 35 10000 5.66 120 06:34 02.07.2021
2958 Clear 21 1013 70 10000 3.09 100 23:25 01.07.2021
2959 Clear 22 1013 70 10000 2.57 130 22:29 01.07.2021
2960 Clear 23 1012 67 10000 3.09 90 21:34 01.07.2021
2961 Clouds 25 1013 66 10000 2.57 100 19:37 01.07.2021
2962 Clouds 24 1013 66 10000 2.57 100 19:18 01.07.2021
2963 Clouds 23 1013 79 10000 1.54 110 18:46 01.07.2021
2964 Clear 23 1013 82 10000 2.06 190 17:33 01.07.2021
2965 Clear 24 1013 78 10000 2.06 190 15:51 01.07.2021
2966 Clear 24 1013 81 10000 2.06 180 15:22 01.07.2021
2967 Clear 26 1011 72 10000 2.06 310 11:48 01.07.2021
2968 Clear 33 1010 31 10000 5.14 130 08:53 01.07.2021
2969 Clear 22 1013 71 10000 4.12 80 23:23 30.06.2021
2970 Clear 23 1013 67 10000 6.17 90 22:21 30.06.2021
2971 Clouds 23 1013 67 10000 5.66 90 21:55 30.06.2021
2972 Clouds 23 1013 75 10000 2.57 120 20:59 30.06.2021
2973 Clouds 22 1013 83 10000 2.57 130 20:20 30.06.2021
2974 Clear 24 1014 79 10000 3.6 190 16:42 30.06.2021
2975 Clear 25 1013 70 10000 0 0 13:25 30.06.2021
2976 Clear 30 1011 49 10000 4.63 20 09:59 30.06.2021
2977 Clouds 22 1013 75 10000 4.12 100 23:58 29.06.2021
2978 Clear 23 1013 93 10000 3.09 180 19:31 29.06.2021
2979 Clear 24 1013 86 10000 2.57 220 17:45 29.06.2021
2980 Clear 24 1013 87 10000 3.09 220 17:24 29.06.2021
2981 Clear 23 1014 82 10000 2.57 200 15:51 29.06.2021
2982 Clear 23 1013 82 10000 1.03 30 14:55 29.06.2021
2983 Clear 24 1013 76 10000 1.54 20 13:23 29.06.2021
2984 Clear 29 1015 50 10000 6.17 110 04:38 29.06.2021
2985 Clear 20 1014 76 10000 3.09 130 23:24 28.06.2021
2986 Clouds 21 1013 94 10000 2.57 180 20:59 28.06.2021
2987 Clouds 22 1014 94 10000 1.54 190 18:42 28.06.2021
2988 Clear 22 1014 90 10000 3.09 190 16:58 28.06.2021
2989 Clear 23 1013 78 10000 1.03 50 14:31 28.06.2021
2990 Clear 25 1012 68 10000 2.57 10 11:57 28.06.2021
2991 Clear 19 1015 68 10000 3.6 150 23:47 27.06.2021
2992 Clear 19 1015 67 10000 2.57 130 22:31 27.06.2021
2993 Clouds 21 1018 61 10000 3.09 140 19:44 27.06.2021
2994 Clouds 22 1018 59 10000 3.6 160 18:19 27.06.2021
2995 Clear 23 1016 83 10000 2.57 210 15:39 27.06.2021
2996 Clear 26 1014 67 10000 2.57 330 11:22 27.06.2021
2997 Clear 21 1016 60 10000 5.14 130 00:42 27.06.2021
2998 Clouds 21 1015 66 10000 5.14 140 21:53 26.06.2021
2999 Clouds 22 1015 67 10000 5.66 140 20:49 26.06.2021
3000 Clouds 23 1018 67 10000 5.14 150 19:48 26.06.2021
3001 Clear 25 1015 76 10000 3.09 110 15:40 26.06.2021
3002 Clear 26 1015 71 10000 2.57 90 14:26 26.06.2021
3003 Clouds 27 1012 71 10000 5.14 40 11:33 26.06.2021
3004 Clouds 31 1013 54 10000 2.57 110 07:20 26.06.2021
3005 Clouds 23 1013 92 10000 3.6 90 22:26 25.06.2021
3006 Clouds 25 1013 86 10000 1.54 80 20:37 25.06.2021
3007 Clouds 26 1013 85 10000 1.03 120 18:48 25.06.2021
3008 Clouds 26 1013 89 10000 1.54 130 17:30 25.06.2021
3009 Clouds 26 1014 89 10000 3.09 190 16:22 25.06.2021
3010 Clouds 26 1013 84 10000 1.54 40 13:42 25.06.2021
3011 Clouds 29 1011 71 10000 3.6 340 10:29 25.06.2021
3012 Clouds 30 1011 61 10000 4.12 100 07:24 25.06.2021
3013 Clouds 30 1012 65 10000 4.12 100 06:31 25.06.2021
3014 Clouds 24 1013 75 10000 5.66 130 01:38 25.06.2021
3015 Clouds 25 1013 83 10000 4.63 160 21:48 24.06.2021
3016 Clouds 25 1012 88 10000 2.57 160 20:44 24.06.2021
3017 Clouds 25 1012 89 10000 2.57 160 20:19 24.06.2021
3018 Clouds 26 1013 86 10000 2.06 210 18:35 24.06.2021
3019 Clouds 27 1013 85 10000 2.57 200 15:24 24.06.2021
3020 Clouds 27 1013 85 10000 1.54 190 14:54 24.06.2021
3021 Clouds 27 1012 78 10000 1.54 50 13:34 24.06.2021
3022 Clouds 29 1011 69 10000 2.57 270 10:23 24.06.2021
3023 Clouds 29 1011 72 10000 4.63 210 08:33 24.06.2021
3024 Clouds 29 1012 65 10000 3.09 210 07:34 24.06.2021
3025 Clouds 25 1013 91 10000 2.06 120 00:46 24.06.2021
3026 Clouds 25 1013 94 10000 1.03 130 22:30 23.06.2021
3027 Clouds 25 1013 94 10000 2.06 170 21:35 23.06.2021
3028 Clouds 25 1013 92 10000 1.54 350 20:21 23.06.2021
3029 Clouds 26 1014 92 10000 1.03 350 18:32 23.06.2021
3030 Clouds 26 1014 90 10000 2.06 10 17:18 23.06.2021
3031 Clear 26 1013 83 10000 2.57 360 14:31 23.06.2021
3032 Clear 27 1013 72 10000 3.09 30 12:50 23.06.2021
3033 Clear 28 1012 68 10000 3.09 360 11:38 23.06.2021
3034 Clouds 30 1010 59 10000 4.63 30 09:54 23.06.2021
3035 Clouds 32 1012 45 10000 4.12 50 08:42 23.06.2021
3036 Clouds 31 1012 48 10000 5.14 70 07:50 23.06.2021
3037 Clouds 31 1013 53 10000 5.14 80 05:55 23.06.2021
3038 Clouds 27 1015 76 10000 3.6 90 02:26 23.06.2021
3039 Clear 24 1014 94 10000 3.09 90 00:21 23.06.2021
3040 Clear 23 1014 95 10000 2.06 120 23:47 22.06.2021
3041 Clear 23 1013 91 10000 1.03 130 22:43 22.06.2021
3042 Clouds 23 1013 91 10000 1.03 80 21:46 22.06.2021
3043 Clouds 23 1013 92 10000 2.06 80 20:55 22.06.2021
3044 Clear 24 1013 93 10000 3.6 70 19:23 22.06.2021
3045 Clear 24 1014 91 10000 3.6 60 18:40 22.06.2021
3046 Clear 24 1014 90 10000 3.6 60 18:18 22.06.2021
3047 Clear 24 1015 86 10000 3.6 70 17:20 22.06.2021
3048 Clear 25 1015 82 10000 3.09 70 15:48 22.06.2021
3049 Clear 25 1014 69 10000 4.12 60 14:32 22.06.2021
3050 Clear 25 1014 75 10000 4.12 60 13:42 22.06.2021
3051 Clear 26 1013 74 10000 4.12 60 12:31 22.06.2021
3052 Clear 28 1012 59 10000 5.14 60 10:57 22.06.2021
3053 Clear 31 1011 51 10000 4.12 20 08:56 22.06.2021
3054 Clouds 29 1013 60 10000 5.66 60 04:43 22.06.2021
3055 Clear 21 1013 84 10000 3.09 80 00:37 22.06.2021
3056 Clear 21 1012 86 10000 3.09 70 22:59 21.06.2021
3057 Clouds 21 1012 84 10000 2.57 90 21:38 21.06.2021
3058 Clouds 20 1012 87 10000 1.54 110 20:52 21.06.2021
3059 Clear 22 1013 73 10000 1.03 70 19:56 21.06.2021
3060 Clear 22 1013 73 10000 1.54 40 19:31 21.06.2021
3061 Clear 22 1013 73 10000 1.03 30 18:22 21.06.2021
3062 Clear 21 1014 73 10000 1.03 50 16:54 21.06.2021
3063 Clear 22 1014 68 10000 0.51 50 16:29 21.06.2021
3064 Clear 22 1013 68 10000 1.54 40 15:56 21.06.2021
3065 Clear 22 1013 68 10000 2.06 50 15:19 21.06.2021
3066 Clear 23 1013 69 10000 2.06 40 13:47 21.06.2021
3067 Clear 23 1013 68 10000 2.06 50 12:55 21.06.2021
3068 Clear 24 1013 65 10000 2.57 50 12:31 21.06.2021
3069 Clear 29 1012 48 10000 5.14 30 10:43 21.06.2021
3070 Clear 29 1012 47 10000 5.14 30 10:22 21.06.2021
3071 Clear 31 1011 37 10000 3.6 100 08:47 21.06.2021
3072 Clear 31 1012 36 10000 4.12 90 07:57 21.06.2021
3073 Clear 23 1015 42 10000 3.6 120 01:53 21.06.2021
3074 Clear 19 1015 47 10000 3.09 120 23:52 20.06.2021
3075 Clear 18 1014 52 10000 3.6 120 23:32 20.06.2021
3076 Clear 18 1014 59 10000 3.09 130 22:47 20.06.2021
3077 Clear 18 1014 69 9000 3.09 140 21:48 20.06.2021
3078 Clear 18 1014 79 10000 2.57 150 20:27 20.06.2021
3079 Clear 18 1014 87 10000 3.09 170 19:38 20.06.2021
3080 Clear 19 1014 89 10000 3.6 160 18:49 20.06.2021
3081 Clear 19 1014 85 10000 2.57 170 17:45 20.06.2021
3082 Clear 20 1015 77 10000 2.06 170 16:44 20.06.2021
3083 Clear 20 1015 73 10000 1.54 80 15:38 20.06.2021
3084 Clear 20 1015 73 10000 1.54 80 15:19 20.06.2021
3085 Clear 21 1015 68 9000 1.54 50 14:38 20.06.2021
3086 Clear 22 1014 64 10000 2.06 40 13:28 20.06.2021
3087 Clear 22 1014 65 10000 2.57 20 12:20 20.06.2021
3088 Clear 24 1013 60 10000 2.57 10 11:43 20.06.2021
3089 Clear 27 1012 45 10000 3.6 320 09:50 20.06.2021
3090 Clear 29 1012 38 10000 3.09 310 08:59 20.06.2021
3091 Clouds 25 1016 36 10000 5.66 110 04:32 20.06.2021
3092 Clear 19 1015 50 10000 3.6 130 23:35 19.06.2021
3093 Clear 19 1014 50 10000 3.6 130 22:51 19.06.2021
3094 Clouds 19 1014 51 10000 4.12 130 21:49 19.06.2021
3095 Clouds 19 1014 51 10000 4.12 130 21:49 19.06.2021
3096 Clouds 20 1014 45 10000 3.6 150 20:40 19.06.2021
3097 Clouds 21 1014 49 10000 4.12 140 18:48 19.06.2021
3098 Clouds 21 1014 46 10000 4.12 140 18:18 19.06.2021
3099 Clouds 22 1015 47 10000 4.12 140 17:22 19.06.2021
3100 Clear 22 1015 53 10000 3.09 150 15:55 19.06.2021
3101 Clear 23 1015 49 10000 2.57 150 14:21 19.06.2021
3102 Clear 24 1014 50 10000 2.06 70 12:47 19.06.2021
3103 Clear 26 1013 42 10000 2.06 70 11:53 19.06.2021
3104 Clear 29 1013 36 10000 3.6 110 10:42 19.06.2021
3105 Clear 29 1013 34 10000 3.6 110 10:22 19.06.2021
3106 Clear 30 1012 31 10000 4.12 100 08:57 19.06.2021
3107 Clear 30 1013 32 10000 4.63 80 07:44 19.06.2021
3108 Clear 29 1015 32 10000 5.66 140 05:55 19.06.2021
3109 Clear 24 1016 51 10000 6.69 120 01:45 19.06.2021
3110 Clear 22 1015 65 10000 4.63 120 00:18 19.06.2021
3111 Clear 22 1014 67 10000 4.63 120 23:29 18.06.2021
3112 Clear 23 1014 67 10000 4.12 110 22:50 18.06.2021
3113 Clear 23 1014 65 10000 3.6 130 22:21 18.06.2021
3114 Clouds 25 1012 60 10000 4.63 100 21:29 18.06.2021
3115 Clouds 25 1012 59 10000 4.12 100 20:58 18.06.2021
3116 Clouds 25 1013 72 10000 3.6 150 19:38 18.06.2021
3117 Clouds 25 1014 89 10000 2.57 180 18:23 18.06.2021
3118 Clouds 25 1014 90 10000 3.6 180 17:29 18.06.2021
3119 Clear 25 1014 91 10000 3.09 180 16:21 18.06.2021
3120 Clear 25 1014 87 10000 2.57 190 15:43 18.06.2021
3121 Clear 25 1014 73 10000 1.03 180 14:32 18.06.2021
3122 Clear 26 1014 76 10000 2.06 60 13:37 18.06.2021
3123 Clear 26 1013 74 10000 2.57 50 12:45 18.06.2021
3124 Clear 27 1013 74 10000 2.57 40 12:26 18.06.2021
3125 Clear 28 1012 66 10000 3.6 40 11:28 18.06.2021
3126 Clear 29 1012 62 10000 5.14 40 10:52 18.06.2021
3127 Clear 30 1011 63 10000 4.12 30 10:22 18.06.2021
3128 Clear 30 1011 60 10000 4.63 20 09:44 18.06.2021
3129 Clear 32 1011 48 10000 5.66 100 08:49 18.06.2021
3130 Clear 33 1011 46 10000 4.63 100 08:22 18.06.2021
3131 Clear 33 1012 45 10000 5.14 90 07:24 18.06.2021
3132 Clear 26 1015 75 10000 1.54 90 01:43 18.06.2021
3133 Clear 22 1014 90 10000 1.54 80 23:42 17.06.2021
3134 Clear 22 1014 90 10000 0 0 22:55 17.06.2021
3135 Clear 21 1013 91 10000 0.51 70 22:24 17.06.2021
3136 Clouds 22 1013 94 10000 0 0 21:46 17.06.2021
3137 Clouds 22 1013 92 10000 0 0 20:57 17.06.2021
3138 Clouds 22 1013 92 10000 0 0 20:27 17.06.2021
3139 Clouds 22 1013 91 10000 0 0 19:48 17.06.2021
3140 Clouds 23 1014 88 10000 1.03 100 18:48 17.06.2021
3141 Clouds 24 1014 84 10000 1.54 80 17:48 17.06.2021
3142 Clouds 24 1014 84 10000 0.51 230 17:20 17.06.2021
3143 Clear 25 1014 82 10000 2.06 220 16:27 17.06.2021
3144 Clear 25 1014 79 10000 2.06 240 15:39 17.06.2021
3145 Clear 25 1014 78 10000 2.06 250 14:24 17.06.2021
3146 Clear 25 1013 79 10000 1.54 290 12:54 17.06.2021
3147 Clear 26 1013 76 10000 2.06 280 12:30 17.06.2021
3148 Clouds 27 1012 72 10000 3.6 320 11:21 17.06.2021
3149 Clouds 28 1012 67 10000 3.6 340 10:42 17.06.2021
3150 Clouds 28 1012 64 10000 3.6 340 10:19 17.06.2021
3151 Clouds 29 1011 60 10000 3.6 340 09:38 17.06.2021
3152 Clouds 31 1011 55 10000 4.12 310 08:31 17.06.2021
3153 Clear 31 1011 48 10000 4.12 310 07:47 17.06.2021
3154 Clouds 31 1014 49 10000 2.57 220 04:36 17.06.2021
3155 Clear 23 1015 94 10000 1.03 190 00:43 17.06.2021
3156 Clear 22 1014 95 10000 0 0 23:38 16.06.2021
3157 Clear 22 1014 96 10000 0 0 23:18 16.06.2021
3158 Clear 22 1014 94 10000 0 0 22:18 16.06.2021
3159 Clouds 23 1013 97 10000 1.54 190 21:39 16.06.2021
3160 Clouds 23 1013 97 10000 1.54 190 21:18 16.06.2021
3161 Clouds 23 1013 94 10000 3.09 190 20:36 16.06.2021
3162 Clouds 24 1013 94 10000 4.12 190 19:49 16.06.2021
3163 Clouds 24 1014 94 10000 3.09 190 19:28 16.06.2021
3164 Clouds 24 1014 90 10000 2.06 190 18:49 16.06.2021
3165 Clouds 24 1014 90 10000 2.57 210 18:23 16.06.2021
3166 Clouds 24 1014 92 10000 2.57 210 17:28 16.06.2021
3167 Clear 25 1014 86 10000 3.6 210 16:58 16.06.2021
3168 Clouds 25 1014 89 10000 3.09 230 16:40 16.06.2021
3169 Clear 25 1014 89 10000 2.06 210 15:49 16.06.2021
3170 Clear 25 1014 88 10000 2.06 210 15:26 16.06.2021
3171 Clear 24 1014 84 10000 1.03 50 14:43 16.06.2021
3172 Clear 24 1014 78 10000 1.03 50 14:25 16.06.2021
3173 Clear 25 1013 78 10000 1.54 10 13:43 16.06.2021
3174 Clear 25 1013 78 10000 1.54 10 13:22 16.06.2021
3175 Clear 25 1012 76 10000 2.06 30 12:35 16.06.2021
3176 Clouds 26 1012 72 10000 2.06 10 11:59 16.06.2021
3177 Clear 27 1012 69 10000 2.57 20 11:31 16.06.2021
3178 Clouds 28 1009 67 10000 3.6 360 10:44 16.06.2021
3179 Clouds 29 1013 67 10000 3.6 350 09:50 16.06.2021
3180 Clouds 29 1013 66 10000 3.09 360 09:23 16.06.2021
3181 Clouds 30 1013 62 10000 4.63 350 08:19 16.06.2021
3182 Clouds 31 1012 57 10000 3.6 300 07:38 16.06.2021
3183 Clouds 28 1016 70 10000 0.51 200 02:59 16.06.2021
3184 Clouds 23 1014 99 10000 1.54 140 00:48 16.06.2021
3185 Fog 22 1016 99 10000 2.06 170 23:44 15.06.2021
3186 Fog 22 1016 99 10000 2.06 170 23:44 15.06.2021
3187 Fog 22 1014 99 10000 2.06 170 23:20 15.06.2021
3188 Mist 21 1013 96 10000 0.51 190 22:40 15.06.2021
3189 Clear 21 1013 98 9000 0 0 21:57 15.06.2021
3190 Clouds 21 1012 93 10000 0 0 20:54 15.06.2021
3191 Clouds 22 1012 95 10000 1.03 230 19:58 15.06.2021
3192 Clouds 22 1012 95 10000 1.54 230 19:22 15.06.2021
3193 Clouds 23 1012 92 6000 0.51 220 17:41 15.06.2021
3194 Clear 23 1013 94 10000 1.54 220 16:42 15.06.2021
3195 Clear 23 1013 88 10000 1.54 270 15:42 15.06.2021
3196 Clear 24 1013 88 10000 2.06 270 14:53 15.06.2021
3197 Clear 25 1012 86 10000 1.54 270 14:23 15.06.2021
3198 Clear 24 1012 87 10000 1.03 280 13:37 15.06.2021
3199 Clear 24 1012 83 10000 1.54 330 12:50 15.06.2021
3200 Clear 25 1011 79 10000 1.54 300 12:18 15.06.2021
3201 Clear 26 1011 72 10000 2.57 280 11:24 15.06.2021
3202 Clear 27 1011 68 10000 3.09 270 10:56 15.06.2021
3203 Clouds 27 1010 72 10000 4.12 290 10:36 15.06.2021
3204 Clouds 28 1010 65 10000 5.66 300 09:50 15.06.2021
3205 Clouds 29 1010 54 10000 5.66 300 08:44 15.06.2021
3206 Clouds 30 1010 53 10000 5.14 310 08:19 15.06.2021
3207 Clouds 30 1010 51 10000 4.12 320 06:58 15.06.2021
3208 Clouds 30 1011 53 10000 2.57 310 05:58 15.06.2021
3209 Clouds 26 1013 79 10000 1.54 120 02:53 15.06.2021
3210 Fog 22 1013 97 4900 1.54 180 00:38 15.06.2021
3211 Fog 22 1013 97 4900 1.54 180 00:38 15.06.2021
3212 Clouds 22 1011 98 10000 3.09 200 23:33 14.06.2021
3213 Clouds 22 1011 97 10000 2.57 190 22:48 14.06.2021
3214 Clouds 22 1011 98 10000 2.06 190 22:22 14.06.2021
3215 Clouds 22 1011 95 10000 2.57 200 21:58 14.06.2021
3216 Clouds 23 1011 95 10000 1.54 200 21:27 14.06.2021
3217 Clouds 23 1011 95 10000 2.57 210 20:58 14.06.2021
3218 Clouds 23 1011 95 10000 2.06 210 20:40 14.06.2021
3219 Clouds 23 1011 99 10000 1.54 220 19:48 14.06.2021
3220 Clouds 22 1011 90 10000 0.51 230 19:28 14.06.2021
3221 Clouds 23 1011 90 10000 2.06 240 18:47 14.06.2021
3222 Clouds 22 1011 92 10000 1.54 240 18:21 14.06.2021
3223 Clouds 22 1011 95 10000 0.51 270 17:36 14.06.2021
3224 Clear 22 1011 94 10000 0 0 16:52 14.06.2021
3225 Clear 22 1012 91 10000 0 0 15:54 14.06.2021
3226 Clear 22 1012 91 10000 0 0 15:36 14.06.2021
3227 Clear 23 1012 86 10000 0.51 270 14:52 14.06.2021
3228 Clear 25 1012 82 10000 1.54 270 13:50 14.06.2021
3229 Clouds 25 1012 77 10000 1.54 250 13:23 14.06.2021
3230 Clear 24 1011 78 10000 2.06 270 12:51 14.06.2021
3231 Clear 25 1011 71 10000 2.06 280 11:57 14.06.2021
3232 Rain 26 1010 73 10000 2.57 290 11:36 14.06.2021
3233 Clear 27 1010 64 10000 4.63 310 10:24 14.06.2021
3234 Rain 29 1009 58 10000 5.66 310 09:26 14.06.2021
3235 Rain 30 1009 53 10000 6.69 310 08:46 14.06.2021
3236 Rain 31 1010 47 10000 6.17 310 07:56 14.06.2021
3237 Clear 32 1010 48 10000 5.14 310 07:35 14.06.2021
3238 Clear 30 1012 32 10000 2.57 210 05:45 14.06.2021
3239 Clear 29 1013 44 10000 2.57 180 03:40 14.06.2021
3240 Clear 21 1013 86 10000 0 0 00:26 14.06.2021
3241 Clear 22 1013 83 10000 1.03 190 23:24 13.06.2021
3242 Clear 22 1012 83 10000 2.57 190 22:41 13.06.2021
3243 Clear 22 1012 83 10000 2.57 190 22:21 13.06.2021
3244 Clear 22 1012 83 10000 2.57 190 22:21 13.06.2021
3245 Clear 22 1012 83 10000 2.06 190 21:53 13.06.2021
3246 Clouds 22 1012 88 10000 2.57 190 21:33 13.06.2021
3247 Clouds 22 1012 88 10000 2.57 190 20:48 13.06.2021
3248 Clouds 23 1012 90 10000 3.09 190 20:29 13.06.2021
3249 Clouds 24 1012 93 10000 2.06 200 19:49 13.06.2021
3250 Clouds 24 1012 93 10000 2.06 200 19:49 13.06.2021
3251 Clouds 24 1012 94 10000 2.06 210 19:30 13.06.2021
3252 Clouds 24 1012 94 10000 2.06 210 19:30 13.06.2021
3253 Clouds 24 1012 94 10000 2.57 220 18:55 13.06.2021
3254 Rain 24 1012 92 10000 2.06 240 18:23 13.06.2021
3255 Rain 25 1014 94 10000 3.09 240 17:43 13.06.2021
3256 Clouds 24 1014 91 10000 2.06 230 16:38 13.06.2021
3257 Clear 24 1013 91 10000 2.06 280 15:41 13.06.2021
3258 Clear 24 1013 88 10000 1.54 330 14:48 13.06.2021
3259 Clear 25 1012 86 10000 1.54 350 14:21 13.06.2021
3260 Clear 25 1012 83 10000 1.54 350 13:25 13.06.2021
3261 Clear 25 1011 86 10000 2.06 360 12:54 13.06.2021
3262 Clear 26 1011 82 10000 2.06 360 12:35 13.06.2021
3263 Clear 26 1011 79 10000 2.57 350 11:47 13.06.2021
3264 Clear 28 1010 72 10000 3.09 340 10:59 13.06.2021
3265 Clear 28 1010 69 10000 3.09 340 10:38 13.06.2021
3266 Clouds 29 1012 64 10000 3.6 330 09:49 13.06.2021
3267 Clouds 30 1012 64 10000 4.12 350 09:30 13.06.2021
3268 Clear 31 1010 60 10000 4.12 350 08:59 13.06.2021
3269 Clear 31 1010 51 10000 4.12 340 08:34 13.06.2021
3270 Clouds 31 1013 51 10000 5.14 360 07:34 13.06.2021
3271 Clear 29 1014 58 10000 4.63 60 04:21 13.06.2021
3272 Fog 20 1013 96 10000 1.03 110 23:50 12.06.2021
3273 Fog 20 1013 96 10000 1.54 70 23:19 12.06.2021
3274 Clear 21 1013 94 10000 2.06 180 22:30 12.06.2021
3275 Clouds 21 1013 92 10000 2.57 190 21:44 12.06.2021
3276 Clouds 21 1013 92 10000 2.57 190 21:44 12.06.2021
3277 Clouds 22 1013 90 10000 2.57 180 20:52 12.06.2021
3278 Clouds 22 1013 89 10000 2.06 180 20:22 12.06.2021
3279 Clouds 23 1014 86 10000 2.57 180 19:57 12.06.2021
3280 Clouds 22 1014 88 10000 2.06 170 18:57 12.06.2021
3281 Clouds 22 1014 91 10000 3.09 170 18:30 12.06.2021
3282 Clouds 23 1016 90 10000 2.06 170 17:39 12.06.2021
3283 Clouds 23 1016 90 9000 2.57 180 16:59 12.06.2021
3284 Clear 24 1015 87 10000 2.57 190 15:40 12.06.2021
3285 Clear 24 1014 87 10000 2.06 190 14:54 12.06.2021
3286 Clear 24 1014 86 10000 2.06 190 14:32 12.06.2021
3287 Clear 25 1014 80 10000 0 0 13:58 12.06.2021
3288 Clear 25 1013 76 10000 1.03 350 12:41 12.06.2021
3289 Clear 25 1013 75 10000 1.03 350 12:23 12.06.2021
3290 Clear 25 1013 75 10000 1.03 350 12:23 12.06.2021
3291 Clear 26 1012 72 10000 2.57 350 11:35 12.06.2021
3292 Clear 28 1012 65 10000 3.09 350 10:46 12.06.2021
3293 Clear 28 1012 64 10000 3.09 350 10:27 12.06.2021
3294 Clouds 29 1013 60 10000 3.09 350 09:45 12.06.2021
3295 Clouds 30 1014 51 9000 3.09 290 08:35 12.06.2021
3296 Clouds 31 1013 46 9000 4.12 250 07:35 12.06.2021
3297 Smoke 30 1015 49 5000 4.12 100 05:40 12.06.2021
3298 Clear 20 1014 54 10000 3.6 100 00:38 12.06.2021
3299 Clear 19 1013 54 10000 2.06 130 22:26 11.06.2021
3300 Rain 19 1013 51 10000 3.09 130 21:58 11.06.2021
3301 Clouds 19 1013 60 10000 3.09 120 21:34 11.06.2021
3302 Rain 20 1013 59 10000 2.57 120 20:56 11.06.2021
3303 Rain 20 1013 65 10000 3.09 140 20:21 11.06.2021
3304 Rain 19 1013 83 10000 1.54 170 19:23 11.06.2021
3305 Clouds 20 1014 85 10000 2.06 170 18:37 11.06.2021
3306 Rain 20 1014 86 10000 2.06 150 17:48 11.06.2021
3307 Rain 20 1013 83 10000 0 0 16:33 11.06.2021
3308 Rain 22 1013 78 10000 0 0 15:26 11.06.2021
3309 Rain 22 1013 74 10000 1.03 230 14:42 11.06.2021
3310 Rain 23 1012 74 10000 0 0 13:39 11.06.2021
3311 Clouds 24 1012 66 10000 2.06 20 12:29 11.06.2021
3312 Rain 24 1012 64 10000 2.06 10 11:52 11.06.2021
3313 Rain 25 1011 62 10000 2.57 10 11:24 11.06.2021
3314 Rain 29 1011 46 10000 3.09 300 09:37 11.06.2021
3315 Rain 30 1011 42 10000 3.6 300 08:57 11.06.2021
3316 Clear 30 1011 38 10000 4.12 260 07:54 11.06.2021
3317 Rain 29 1012 35 10000 3.09 50 06:26 11.06.2021
3318 Clear 18 1013 44 10000 2.57 130 23:45 10.06.2021
3319 Rain 19 1012 42 10000 4.12 140 22:42 10.06.2021
3320 Rain 19 1012 42 10000 4.12 140 22:23 10.06.2021
3321 Rain 19 1012 42 10000 3.6 140 21:41 10.06.2021
3322 Rain 19 1012 43 10000 3.09 130 20:59 10.06.2021
3323 Rain 20 1012 39 10000 3.6 140 19:56 10.06.2021
3324 Clouds 20 1012 41 10000 4.12 140 19:26 10.06.2021
3325 Clouds 20 1013 40 10000 3.6 150 18:34 10.06.2021
3326 Clouds 21 1013 39 10000 3.6 140 17:58 10.06.2021
3327 Clouds 21 1013 41 10000 3.6 140 17:23 10.06.2021
3328 Clear 21 1012 42 10000 2.57 140 16:43 10.06.2021
3329 Clear 21 1012 43 10000 2.57 150 15:55 10.06.2021
3330 Clear 21 1012 45 10000 2.06 110 13:43 10.06.2021
3331 Clear 22 1011 44 10000 2.06 100 12:45 10.06.2021
3332 Clear 25 1010 39 10000 1.54 110 11:32 10.06.2021
3333 Clear 28 1010 33 10000 2.06 120 10:36 10.06.2021
3334 Clear 30 1010 24 10000 4.63 170 08:35 10.06.2021
3335 Clear 21 1014 44 10000 5.14 140 01:21 10.06.2021
3336 Clear 19 1013 48 10000 4.12 140 00:20 10.06.2021
3337 Clear 19 1012 51 10000 3.6 150 22:53 09.06.2021
3338 Clear 20 1012 51 10000 3.09 140 22:19 09.06.2021
3339 Clouds 20 1012 54 10000 2.57 130 21:31 09.06.2021
3340 Rain 21 1012 46 10000 2.57 120 20:51 09.06.2021
3341 Clouds 21 1012 46 10000 2.57 130 20:18 09.06.2021
3342 Clouds 21 1012 52 10000 3.09 130 19:45 09.06.2021
3343 Clouds 22 1013 57 10000 3.09 150 17:48 09.06.2021
3344 Clear 24 1013 73 10000 3.6 190 15:35 09.06.2021
3345 Clear 24 1012 75 10000 2.57 180 14:53 09.06.2021
3346 Clear 24 1012 72 10000 1.03 50 13:58 09.06.2021
3347 Clear 24 1011 72 10000 1.03 50 13:29 09.06.2021
3348 Clear 26 1011 65 10000 1.54 30 12:40 09.06.2021
3349 Clear 27 1010 60 10000 3.09 30 11:31 09.06.2021
3350 Clear 31 1010 44 10000 4.12 80 09:46 09.06.2021
3351 Clear 32 1010 27 10000 4.63 50 08:49 09.06.2021
3352 Clear 32 1010 35 10000 5.14 80 07:19 09.06.2021
3353 Clear 31 1011 43 10000 6.17 100 05:44 09.06.2021
3354 Clear 21 1011 92 10000 0.51 50 22:59 08.06.2021
3355 Clear 21 1011 92 10000 0.51 50 22:39 08.06.2021
3356 Clear 21 1011 92 10000 0.51 50 21:57 08.06.2021
3357 Clear 22 1012 90 10000 0 0 19:55 08.06.2021
3358 Clouds 24 1012 84 10000 1.54 160 17:55 08.06.2021
3359 Clouds 24 1012 83 10000 1.54 160 17:37 08.06.2021
3360 Clear 24 1013 87 10000 2.06 190 16:20 08.06.2021
3361 Clear 25 1012 83 10000 1.54 30 13:34 08.06.2021
3362 Clouds 26 1011 81 10000 2.57 10 12:29 08.06.2021
3363 Clouds 30 1010 57 10000 4.12 350 08:42 08.06.2021
3364 Clouds 31 1012 39 10000 3.09 330 05:24 08.06.2021
3365 Clear 21 1013 94 10000 1.03 190 23:54 07.06.2021
3366 Clouds 22 1013 89 10000 3.09 210 20:55 07.06.2021
3367 Clouds 23 1013 90 10000 1.03 180 19:42 07.06.2021
3368 Clouds 24 1014 86 10000 1.54 190 17:21 07.06.2021
3369 Clear 24 1014 73 10000 1.03 360 14:38 07.06.2021
3370 Clear 25 1012 75 10000 1.54 10 12:38 07.06.2021
3371 Clear 26 1011 68 10000 3.6 10 11:24 07.06.2021
3372 Clouds 28 1015 58 10000 3.6 350 10:20 07.06.2021
3373 Clouds 29 1014 56 10000 4.12 350 09:30 07.06.2021
3374 Clouds 30 1016 48 10000 5.14 310 07:53 07.06.2021
3375 Clouds 29 1013 50 10000 3.09 90 04:42 07.06.2021
3376 Clouds 20 1013 58 10000 3.09 140 21:26 06.06.2021
3377 Clouds 20 1013 67 10000 2.06 140 19:53 06.06.2021
3378 Clouds 20 1017 73 10000 1.54 170 18:18 06.06.2021
3379 Clear 22 1014 71 10000 2.57 190 15:54 06.06.2021
3380 Clear 23 1012 56 10000 2.06 50 12:54 06.06.2021
3381 Clear 24 1012 51 10000 0.51 160 12:24 06.06.2021
3382 Clear 28 1011 38 10000 1.54 70 10:40 06.06.2021
3383 Clear 29 1011 32 10000 3.09 70 10:22 06.06.2021
3384 Clear 30 1010 29 10000 3.09 100 09:28 06.06.2021
3385 Clear 30 1010 28 10000 4.63 120 08:54 06.06.2021
3386 Clear 29 1011 27 10000 4.12 110 06:26 06.06.2021
3387 Clear 19 1015 63 10000 3.09 130 00:18 06.06.2021
3388 Clear 19 1014 57 10000 3.09 120 22:49 05.06.2021
3389 Clouds 19 1014 56 10000 3.09 130 21:46 05.06.2021
3390 Clouds 20 1014 51 10000 4.12 140 19:56 05.06.2021
3391 Clouds 21 1014 48 10000 3.6 140 18:44 05.06.2021
3392 Clear 23 1014 43 10000 2.57 150 16:19 05.06.2021
3393 Clear 24 1014 48 10000 2.57 140 15:26 05.06.2021
3394 Clear 25 1013 46 10000 2.57 110 12:49 05.06.2021
3395 Clear 26 1012 43 10000 2.57 100 11:40 05.06.2021
3396 Clear 30 1011 29 10000 3.09 130 09:26 05.06.2021
3397 Clear 31 1011 31 10000 4.63 110 07:54 05.06.2021
3398 Clear 28 1015 36 10000 6.17 120 04:25 05.06.2021
3399 Clear 23 1013 63 10000 4.63 140 22:24 04.06.2021
3400 Clouds 24 1013 64 10000 4.63 140 21:42 04.06.2021
3401 Clouds 24 1013 71 10000 3.09 120 20:32 04.06.2021
3402 Clouds 26 1013 70 10000 3.6 140 18:43 04.06.2021
3403 Clouds 26 1014 75 10000 2.57 160 18:23 04.06.2021
3404 Clouds 26 1014 75 10000 3.09 180 15:56 04.06.2021
3405 Clear 26 1012 75 10000 3.09 40 12:57 04.06.2021
3406 Clouds 27 1011 69 10000 3.6 40 11:30 04.06.2021
3407 Clouds 27 1011 69 10000 3.6 40 11:30 04.06.2021
3408 Clear 31 1010 49 10000 6.69 90 08:53 04.06.2021
3409 Clear 32 1012 50 10000 5.66 90 06:44 04.06.2021
3410 Clouds 27 1015 80 10000 4.63 50 01:36 04.06.2021
3411 Clouds 24 1013 94 10000 2.57 70 22:23 03.06.2021
3412 Clouds 25 1012 94 10000 1.54 30 20:37 03.06.2021
3413 Clouds 24 1013 92 10000 1.03 180 19:54 03.06.2021
3414 Clouds 25 1013 93 10000 1.03 180 18:29 03.06.2021
3415 Clouds 25 1013 91 10000 2.06 200 17:32 03.06.2021
3416 Clear 26 1013 86 10000 1.03 250 15:19 03.06.2021
3417 Clear 26 1012 83 10000 1.54 250 12:59 03.06.2021
3418 Clouds 28 1010 72 10000 4.12 10 10:41 03.06.2021
3419 Clouds 29 1010 70 10000 5.14 360 09:51 03.06.2021
3420 Clouds 30 1010 65 10000 4.12 360 08:40 03.06.2021
3421 Clouds 24 1012 91 10000 2.06 100 00:27 03.06.2021
3422 Clear 24 1013 91 10000 1.54 120 22:57 02.06.2021
3423 Clouds 24 1012 91 10000 2.57 120 21:36 02.06.2021
3424 Clouds 23 1012 91 10000 1.54 150 20:55 02.06.2021
3425 Clouds 24 1013 90 10000 1.54 130 20:24 02.06.2021
3426 Clouds 24 1014 91 10000 2.06 150 18:29 02.06.2021
3427 Clear 25 1013 89 10000 1.54 180 16:36 02.06.2021
3428 Clear 26 1013 85 10000 3.09 30 14:32 02.06.2021
3429 Clear 26 1012 80 10000 2.57 40 12:47 02.06.2021
3430 Clouds 29 1010 66 10000 4.63 30 10:56 02.06.2021
3431 Clouds 29 1010 65 10000 4.63 30 10:38 02.06.2021
3432 Clouds 30 1009 60 10000 5.66 20 09:49 02.06.2021
3433 Clouds 31 1010 57 6000 5.66 30 08:56 02.06.2021
3434 Clouds 32 1009 51 10000 5.14 30 08:18 02.06.2021
3435 Clouds 30 1011 59 10000 5.66 70 04:31 02.06.2021
3436 Clouds 29 1012 64 10000 6.69 70 03:33 02.06.2021
3437 Clear 24 1012 90 10000 2.57 60 22:24 01.06.2021
3438 Clouds 24 1012 92 10000 1.54 110 20:51 01.06.2021
3439 Clouds 23 1012 92 10000 2.06 100 19:50 01.06.2021
3440 Clouds 23 1012 88 10000 0.51 60 17:30 01.06.2021
3441 Clear 24 1012 84 10000 1.03 60 16:20 01.06.2021
3442 Clear 25 1012 79 10000 2.57 40 14:20 01.06.2021
3443 Clear 26 1011 74 10000 3.09 30 12:37 01.06.2021
3444 Clear 27 1010 73 10000 3.09 30 11:43 01.06.2021
3445 Clear 28 1014 70 10000 4.12 30 11:19 01.06.2021
3446 Clouds 29 1009 68 10000 4.63 30 10:22 01.06.2021
3447 Clouds 30 1008 62 10000 5.14 10 09:24 01.06.2021
3448 Clouds 31 1009 59 10000 0.51 200 08:20 01.06.2021
3449 Clouds 30 1011 58 10000 3.6 100 05:24 01.06.2021
3450 Clouds 22 1011 98 10000 3.09 140 23:42 31.05.2021
3451 Clouds 22 1011 98 10000 3.6 140 23:22 31.05.2021
3452 Clouds 22 1016 98 10000 3.09 140 22:35 31.05.2021
3453 Clouds 22 1011 96 10000 2.57 160 21:24 31.05.2021
3454 Clouds 22 1011 95 10000 1.03 150 20:24 31.05.2021
3455 Clouds 23 1011 95 10000 0.51 40 19:23 31.05.2021
3456 Clouds 23 1011 91 10000 1.54 40 17:58 31.05.2021
3457 Clear 24 1012 90 10000 2.06 30 16:56 31.05.2021
3458 Clear 24 1012 87 10000 2.06 40 16:19 31.05.2021
3459 Clear 24 1011 83 10000 2.57 30 13:54 31.05.2021
3460 Clear 24 1011 82 10000 2.06 20 13:23 31.05.2021
3461 Clear 25 1010 80 10000 2.57 40 12:38 31.05.2021
3462 Clear 26 1010 76 10000 3.6 40 11:48 31.05.2021
3463 Clear 27 1009 69 10000 3.6 20 10:46 31.05.2021
3464 Clouds 29 1013 58 10000 5.14 30 09:40 31.05.2021
3465 Clouds 29 1013 58 10000 5.14 30 09:40 31.05.2021
3466 Clouds 30 1009 56 10000 4.63 20 08:42 31.05.2021
3467 Clouds 31 1009 53 10000 4.63 40 07:55 31.05.2021
3468 Clouds 31 1009 53 10000 4.63 40 07:36 31.05.2021
3469 Clouds 24 1012 85 10000 2.57 100 00:52 31.05.2021
3470 Clouds 22 1011 90 10000 1.54 130 23:24 30.05.2021
3471 Clouds 22 1011 90 10000 1.54 170 22:43 30.05.2021
3472 Clouds 22 1011 90 10000 1.54 150 22:23 30.05.2021
3473 Clouds 22 1011 91 10000 2.06 160 21:42 30.05.2021
3474 Clouds 22 1011 91 10000 1.54 160 21:18 30.05.2021
3475 Clouds 23 1011 88 10000 1.54 160 20:39 30.05.2021
3476 Clouds 23 1011 83 10000 1.03 140 19:52 30.05.2021
3477 Clouds 23 1011 89 10000 1.03 120 19:22 30.05.2021
3478 Clouds 23 1015 87 10000 1.54 160 18:26 30.05.2021
3479 Clouds 23 1012 88 10000 2.57 170 17:18 30.05.2021
3480 Clear 23 1012 85 10000 2.06 170 16:40 30.05.2021
3481 Clear 24 1012 83 10000 1.54 170 15:53 30.05.2021
3482 Clear 24 1012 85 10000 1.54 90 15:22 30.05.2021
3483 Clear 25 1011 78 10000 2.57 40 13:41 30.05.2021
3484 Clear 26 1010 74 10000 2.57 30 12:23 30.05.2021
3485 Clear 27 1010 70 10000 3.6 10 11:20 30.05.2021
3486 Clear 28 1009 68 10000 3.6 10 10:39 30.05.2021
3487 Clear 28 1009 68 10000 3.6 360 10:18 30.05.2021
3488 Clouds 29 1009 64 10000 4.12 340 09:44 30.05.2021
3489 Clouds 29 1009 62 10000 4.63 330 09:25 30.05.2021
3490 Clouds 30 1009 52 10000 3.09 280 08:22 30.05.2021
3491 Clouds 29 1010 55 10000 4.63 100 05:43 30.05.2021
3492 Clouds 23 1012 66 10000 2.57 90 00:55 30.05.2021
3493 Clouds 22 1012 64 10000 4.12 100 23:49 29.05.2021
3494 Clouds 21 1011 66 10000 3.6 130 22:25 29.05.2021
3495 Clouds 21 1011 72 10000 3.09 130 21:54 29.05.2021
3496 Clouds 21 1011 73 10000 2.57 130 21:21 29.05.2021
3497 Clouds 22 1011 68 10000 3.09 120 20:48 29.05.2021
3498 Clouds 22 1011 73 10000 2.57 130 20:29 29.05.2021
3499 Clouds 22 1011 80 10000 2.57 160 19:45 29.05.2021
3500 Clouds 22 1011 91 10000 2.57 160 18:39 29.05.2021
3501 Clouds 22 1012 90 10000 0 0 17:27 29.05.2021
3502 Clear 23 1012 84 10000 1.54 180 16:23 29.05.2021
3503 Clear 24 1012 79 10000 1.54 200 14:59 29.05.2021
3504 Clear 24 1012 78 10000 0 0 13:53 29.05.2021
3505 Clear 25 1012 77 10000 1.03 290 13:21 29.05.2021
3506 Clear 25 1012 76 10000 2.57 30 12:43 29.05.2021
3507 Clear 25 1011 74 10000 2.06 30 12:25 29.05.2021
3508 Clear 26 1011 68 10000 3.09 10 11:25 29.05.2021
3509 Clear 27 1010 62 10000 3.6 360 10:51 29.05.2021
3510 Clear 28 1010 58 10000 3.6 350 10:26 29.05.2021
3511 Clear 30 1010 49 10000 3.09 300 09:22 29.05.2021
3512 Clear 31 1010 35 10000 2.06 230 08:57 29.05.2021
3513 Clear 31 1010 33 10000 1.03 60 07:58 29.05.2021
3514 Clear 31 1011 36 10000 3.6 90 06:50 29.05.2021
3515 Clear 21 1014 57 10000 3.09 130 00:54 29.05.2021
3516 Clear 20 1013 60 10000 3.09 130 23:50 28.05.2021
3517 Clouds 22 1013 54 10000 4.12 130 21:55 28.05.2021
3518 Clouds 22 1013 54 10000 4.12 130 21:36 28.05.2021
3519 Clouds 22 1013 51 10000 4.12 120 20:47 28.05.2021
3520 Clouds 21 1014 52 10000 3.09 140 19:58 28.05.2021
3521 Clouds 22 1014 51 10000 3.09 140 19:37 28.05.2021
3522 Clouds 22 1014 50 10000 3.6 130 18:49 28.05.2021
3523 Clouds 23 1014 48 10000 3.6 140 18:27 28.05.2021
3524 Clouds 23 1015 47 10000 3.6 140 17:32 28.05.2021
3525 Clear 23 1015 49 10000 3.6 150 16:42 28.05.2021
3526 Clear 24 1015 47 10000 3.09 150 15:58 28.05.2021
3527 Clear 24 1015 45 10000 3.6 150 15:33 28.05.2021
3528 Rain 25 1015 44 10000 3.09 130 14:38 28.05.2021
3529 Clear 25 1014 41 10000 3.09 130 13:46 28.05.2021
3530 Clear 25 1014 44 10000 3.6 130 12:59 28.05.2021
3531 Clear 25 1014 48 10000 3.6 130 12:37 28.05.2021
3532 Clear 27 1012 42 10000 3.09 140 11:44 28.05.2021
3533 Clear 28 1012 37 10000 3.6 120 10:53 28.05.2021
3534 Clear 30 1012 34 10000 4.12 100 10:30 28.05.2021
3535 Clear 31 1011 32 10000 6.17 110 09:31 28.05.2021
3536 Clear 31 1011 33 10000 4.63 140 08:49 28.05.2021
3537 Clear 31 1011 27 10000 5.14 110 08:31 28.05.2021
3538 Clear 31 1012 34 10000 5.14 140 07:50 28.05.2021
3539 Clear 30 1012 35 10000 5.14 110 07:32 28.05.2021
3540 Clear 31 1012 35 10000 5.66 150 06:43 28.05.2021
3541 Clear 28 1015 41 10000 8.75 110 04:32 28.05.2021
3542 Clear 22 1015 66 10000 3.6 130 23:57 27.05.2021
3543 Clear 22 1015 63 10000 3.6 120 23:34 27.05.2021
3544 Clear 23 1014 62 10000 4.12 120 22:22 27.05.2021
3545 Clouds 23 1014 63 10000 4.63 120 21:48 27.05.2021
3546 Clouds 23 1014 63 10000 4.63 120 21:48 27.05.2021
3547 Clouds 23 1014 63 10000 4.63 120 21:48 27.05.2021
3548 Clouds 23 1014 63 10000 4.63 120 21:48 27.05.2021
3549 Clouds 23 1014 61 10000 4.12 120 21:28 27.05.2021
3550 Clouds 23 1014 50 10000 4.63 110 20:48 27.05.2021
3551 Clouds 24 1015 50 10000 4.63 110 20:25 27.05.2021
3552 Clouds 24 1015 56 10000 5.14 110 19:32 27.05.2021
3553 Clouds 25 1015 54 10000 5.66 110 18:45 27.05.2021
3554 Clouds 25 1015 52 10000 5.66 100 18:27 27.05.2021
3555 Clouds 26 1015 45 10000 6.17 110 17:32 27.05.2021
3556 Clear 27 1014 50 10000 6.17 110 16:58 27.05.2021
3557 Clouds 26 1014 50 10000 7.2 130 16:32 27.05.2021
3558 Clear 26 1014 50 10000 6.17 120 15:44 27.05.2021
3559 Clear 26 1014 53 10000 3.6 130 15:18 27.05.2021
3560 Clear 25 1015 44 10000 2.57 120 14:35 27.05.2021
3561 Clear 26 1014 57 10000 3.09 110 13:59 27.05.2021
3562 Clear 26 1014 57 10000 2.57 120 13:41 27.05.2021
3563 Clear 27 1014 57 10000 2.57 120 13:19 27.05.2021
3564 Clear 27 1013 54 10000 3.6 100 12:46 27.05.2021
3565 Clear 27 1013 54 10000 3.6 100 12:25 27.05.2021
3566 Clear 27 1013 54 10000 3.09 100 11:55 27.05.2021
3567 Clear 27 1013 52 10000 2.57 90 11:19 27.05.2021
3568 Clear 29 1012 47 10000 5.66 100 10:45 27.05.2021
3569 Clear 30 1012 36 10000 5.66 100 09:58 27.05.2021
3570 Clear 30 1012 37 10000 6.17 100 09:34 27.05.2021
3571 Clear 31 1012 38 10000 7.2 100 08:28 27.05.2021
3572 Clear 31 1013 39 10000 7.72 90 07:31 27.05.2021
3573 Clear 29 1015 50 10000 8.75 120 04:21 27.05.2021
3574 Clear 24 1016 59 10000 3.6 120 00:49 27.05.2021
3575 Clear 22 1015 73 10000 3.09 130 23:39 26.05.2021
3576 Clear 22 1015 74 10000 3.09 130 23:21 26.05.2021
3577 Clear 22 1015 84 10000 2.06 130 22:42 26.05.2021
3578 Clear 21 1015 86 10000 2.06 130 22:21 26.05.2021
3579 Clouds 21 1015 89 10000 2.57 140 21:39 26.05.2021
3580 Clouds 22 1015 89 10000 2.57 140 21:21 26.05.2021
3581 Clouds 21 1014 92 10000 2.06 120 20:43 26.05.2021
3582 Clouds 21 1015 91 10000 2.06 120 20:22 26.05.2021
3583 Clouds 21 1015 91 10000 2.06 110 19:49 26.05.2021
3584 Clouds 22 1015 89 10000 2.06 110 19:22 26.05.2021
3585 Clouds 23 1015 86 10000 1.54 120 18:53 26.05.2021
3586 Clouds 24 1014 81 10000 2.57 100 18:18 26.05.2021
3587 Clouds 24 1015 80 10000 3.09 110 17:20 26.05.2021
3588 Clear 24 1015 80 10000 1.54 110 16:42 26.05.2021
3589 Clear 24 1015 80 10000 1.54 110 16:20 26.05.2021
3590 Clear 25 1014 79 10000 1.54 90 15:47 26.05.2021
3591 Clear 23 1015 82 10000 1.54 90 15:24 26.05.2021
3592 Clear 25 1014 80 10000 1.54 50 14:47 26.05.2021
3593 Clear 25 1015 78 10000 1.54 50 14:21 26.05.2021
3594 Clear 25 1014 76 10000 2.57 30 13:50 26.05.2021
3595 Clear 25 1014 74 10000 2.06 40 13:18 26.05.2021
3596 Clouds 26 1014 71 5000 1.54 20 12:29 26.05.2021
3597 Clouds 27 1014 65 4000 2.57 50 11:42 26.05.2021
3598 Clouds 27 1014 64 4000 2.57 50 11:23 26.05.2021
3599 Clouds 28 1012 62 5000 3.09 70 10:40 26.05.2021
3600 Clouds 28 1012 61 6000 4.63 60 10:21 26.05.2021
3601 Clear 29 1012 52 10000 5.66 80 09:51 26.05.2021
3602 Clear 31 1011 43 10000 5.66 90 09:29 26.05.2021
3603 Clear 31 1011 41 10000 6.17 70 08:49 26.05.2021
3604 Clear 32 1012 39 10000 7.2 90 07:38 26.05.2021
3605 Clear 32 1012 39 10000 6.69 80 06:43 26.05.2021
3606 Clear 30 1013 44 10000 5.66 130 05:27 26.05.2021
3607 Clear 30 1013 44 10000 5.66 130 05:27 26.05.2021
3608 Clear 23 1014 77 10000 4.12 110 00:20 26.05.2021
3609 Clear 22 1013 78 10000 3.6 110 23:26 25.05.2021
3610 Clear 22 1013 80 10000 2.57 120 22:46 25.05.2021
3611 Clouds 23 1013 80 10000 2.06 110 21:56 25.05.2021
3612 Clouds 23 1013 84 10000 2.06 90 21:30 25.05.2021
3613 Clouds 23 1013 78 10000 2.57 110 20:51 25.05.2021
3614 Clear 23 1013 83 10000 2.06 160 20:32 25.05.2021
3615 Clouds 23 1013 91 10000 3.22 102 19:41 25.05.2021
3616 Clouds 23 1013 91 10000 3.06 124 19:22 25.05.2021
3617 Clouds 24 1014 85 10000 2.06 170 18:46 25.05.2021
3618 Clouds 25 1013 82 10000 2.06 170 18:24 25.05.2021
3619 Clouds 25 1013 81 10000 1.54 170 17:33 25.05.2021
3620 Clear 25 1013 80 10000 0 0 16:40 25.05.2021
3621 Clear 24 1013 82 10000 0 0 16:21 25.05.2021
3622 Clear 25 1013 81 10000 1.54 80 15:40 25.05.2021
3623 Clear 26 1013 77 10000 1.54 80 15:18 25.05.2021
3624 Clear 25 1013 78 10000 2.06 70 14:47 25.05.2021
3625 Clear 25 1013 78 10000 2.06 60 14:22 25.05.2021
3626 Clear 26 1013 76 10000 2.06 60 13:43 25.05.2021
3627 Clear 26 1012 76 10000 2.06 60 13:24 25.05.2021
3628 Clear 27 1012 69 10000 3.09 40 12:45 25.05.2021
3629 Clear 27 1012 69 10000 3.09 40 12:23 25.05.2021
3630 Clear 28 1012 67 10000 3.09 40 11:41 25.05.2021
3631 Clear 28 1012 67 10000 3.09 40 11:41 25.05.2021
3632 Clear 29 1012 63 10000 4.63 90 10:58 25.05.2021
3633 Clouds 30 1011 55 10000 4.63 90 10:32 25.05.2021
3634 Clear 32 1010 44 10000 5.14 110 09:42 25.05.2021
3635 Clear 32 1010 45 10000 6.17 80 08:36 25.05.2021
3636 Clear 32 1011 45 10000 5.66 60 07:36 25.05.2021
3637 Clear 32 1012 48 10000 5.66 90 05:49 25.05.2021
3638 Clouds 29 1014 60 10000 5.14 120 03:30 25.05.2021
3639 Clouds 23 1014 78 10000 3.09 140 00:35 25.05.2021
3640 Clouds 23 1013 79 10000 4.12 140 23:30 24.05.2021
3641 Clouds 23 1013 79 10000 3.09 140 22:47 24.05.2021
3642 Clouds 23 1013 80 10000 2.57 130 22:28 24.05.2021
3643 Clouds 22 1013 80 10000 2.57 130 21:47 24.05.2021
3644 Clouds 23 1013 83 10000 2.57 140 21:19 24.05.2021
3645 Clouds 23 1013 88 10000 2.57 160 20:38 24.05.2021
3646 Clouds 23 1013 87 10000 2.57 160 20:20 24.05.2021
3647 Clouds 23 1013 86 10000 2.57 170 19:47 24.05.2021
3648 Clouds 23 1013 90 10000 2.57 170 19:28 24.05.2021
3649 Clouds 23 1013 89 10000 1.03 170 18:53 24.05.2021
3650 Clouds 24 1013 87 10000 1.54 150 18:23 24.05.2021
3651 Clouds 24 1013 85 10000 1.54 20 17:46 24.05.2021
3652 Clouds 24 1013 88 10000 1.54 20 17:21 24.05.2021
3653 Clear 24 1013 81 10000 2.06 30 16:43 24.05.2021
3654 Clear 24 1013 80 10000 2.57 30 15:46 24.05.2021
3655 Clear 25 1013 78 10000 3.6 40 14:58 24.05.2021
3656 Clear 25 1013 78 10000 3.6 40 14:58 24.05.2021
3657 Clear 25 1013 76 10000 3.6 30 14:36 24.05.2021
3658 Clear 25 1013 76 10000 3.6 30 14:36 24.05.2021
3659 Clear 25 1013 72 10000 3.6 30 13:55 24.05.2021
3660 Clear 25 1013 69 10000 4.12 40 13:26 24.05.2021
3661 Clear 26 1013 65 10000 4.12 40 12:49 24.05.2021
3662 Clear 26 1012 61 10000 4.12 50 12:28 24.05.2021
3663 Clear 27 1012 59 10000 3.6 40 11:43 24.05.2021
3664 Clear 27 1012 57 10000 4.63 40 11:23 24.05.2021
3665 Clear 29 1011 47 10000 5.66 20 10:41 24.05.2021
3666 Clear 29 1011 47 10000 5.66 20 10:19 24.05.2021
3667 Clear 32 1011 31 10000 3.6 70 09:28 24.05.2021
3668 Clear 32 1011 31 10000 4.12 100 08:56 24.05.2021
3669 Clear 32 1011 29 10000 5.14 70 08:35 24.05.2021
3670 Clear 32 1011 33 10000 5.14 70 06:57 24.05.2021
3671 Clear 30 1014 48 10000 5.66 90 04:26 24.05.2021
3672 Clear 28 1014 59 10000 7.72 90 02:43 24.05.2021
3673 Clouds 23 1013 86 10000 3.09 110 00:33 24.05.2021
3674 Clouds 23 1012 89 10000 2.57 100 23:37 23.05.2021
3675 Clouds 23 1012 89 10000 2.57 100 23:19 23.05.2021
3676 Clouds 23 1016 89 10000 1.54 130 22:25 23.05.2021
3677 Clouds 23 1016 89 10000 1.03 140 21:45 23.05.2021
3678 Clouds 24 1016 91 10000 2.06 130 21:20 23.05.2021
3679 Clouds 24 1016 90 10000 2.06 150 20:48 23.05.2021
3680 Clouds 23 1016 90 10000 1.54 150 20:30 23.05.2021
3681 Clouds 23 1012 94 10000 0 0 19:43 23.05.2021
3682 Clouds 23 1012 94 10000 0.51 90 19:24 23.05.2021
3683 Clouds 23 1012 94 10000 1.54 160 18:35 23.05.2021
3684 Clouds 23 1012 94 10000 2.06 170 17:51 23.05.2021
3685 Clouds 24 1012 89 10000 2.06 180 17:32 23.05.2021
3686 Clear 24 1012 88 10000 2.06 180 16:54 23.05.2021
3687 Clear 24 1012 86 10000 1.03 180 16:26 23.05.2021
3688 Clear 23 1012 89 10000 1.54 190 15:59 23.05.2021
3689 Clear 25 1012 83 10000 2.06 180 15:33 23.05.2021
3690 Clear 25 1012 82 10000 2.57 190 14:58 23.05.2021
3691 Clear 25 1012 82 10000 0.51 60 14:34 23.05.2021
3692 Clear 25 1011 79 10000 1.03 60 13:48 23.05.2021
3693 Clear 26 1011 79 10000 2.06 50 13:25 23.05.2021
3694 Clear 26 1010 77 10000 2.57 20 12:33 23.05.2021
3695 Clear 27 1010 72 10000 2.57 10 11:51 23.05.2021
3696 Clouds 28 1009 72 10000 3.09 360 11:25 23.05.2021
3697 Clear 29 1009 64 10000 3.6 350 10:37 23.05.2021
3698 Clear 29 1009 62 10000 3.6 350 10:18 23.05.2021
3699 Clouds 30 1009 59 10000 4.12 350 09:36 23.05.2021
3700 Clouds 31 1009 58 10000 4.12 350 08:27 23.05.2021
3701 Clouds 32 1009 48 10000 5.14 320 07:45 23.05.2021
3702 Clouds 33 1009 43 10000 5.14 320 07:27 23.05.2021
3703 Clouds 33 1009 43 10000 5.14 320 07:27 23.05.2021
3704 Clouds 31 1014 52 10000 5.14 120 05:27 23.05.2021
3705 Clouds 25 1012 79 10000 1.54 110 00:59 23.05.2021
3706 Clouds 21 1011 94 10000 2.57 120 23:42 22.05.2021
3707 Clouds 21 1011 92 10000 2.57 120 23:21 22.05.2021
3708 Clouds 21 1011 90 10000 1.54 100 22:44 22.05.2021
3709 Clouds 21 1010 90 10000 1.54 180 22:26 22.05.2021
3710 Clouds 22 1010 87 10000 1.54 180 21:47 22.05.2021
3711 Clouds 21 1010 90 10000 0 0 21:25 22.05.2021
3712 Clouds 22 1010 92 10000 0.51 120 20:50 22.05.2021
3713 Clouds 22 1010 90 10000 1.54 130 20:22 22.05.2021
3714 Clouds 22 1010 90 10000 1.03 140 19:37 22.05.2021
3715 Clouds 22 1010 92 10000 1.03 140 19:19 22.05.2021
3716 Clouds 22 1010 90 10000 1.03 170 18:39 22.05.2021
3717 Clouds 23 1010 88 10000 1.03 170 17:56 22.05.2021
3718 Clouds 22 1011 86 9000 0.51 70 17:31 22.05.2021
3719 Clear 24 1011 78 10000 2.06 180 16:51 22.05.2021
3720 Clear 24 1011 78 10000 2.06 180 16:51 22.05.2021
3721 Clear 23 1011 81 10000 0 0 15:58 22.05.2021
3722 Clear 24 1011 78 10000 1.03 40 15:30 22.05.2021
3723 Clear 25 1011 78 10000 0 0 14:33 22.05.2021
3724 Clear 25 1011 73 10000 1.03 40 13:55 22.05.2021
3725 Clear 24 1011 77 10000 1.54 20 13:34 22.05.2021
3726 Clear 25 1010 72 10000 2.06 30 12:52 22.05.2021
3727 Clear 26 1010 72 10000 2.57 30 12:23 22.05.2021
3728 Clear 26 1009 68 10000 3.6 30 11:44 22.05.2021
3729 Clear 28 1009 64 10000 4.12 10 10:52 22.05.2021
3730 Clear 29 1008 60 10000 4.63 10 10:28 22.05.2021
3731 Clear 30 1008 52 10000 5.14 30 09:38 22.05.2021
3732 Clear 32 1008 36 10000 3.6 80 08:34 22.05.2021
3733 Clear 32 1012 38 10000 3.6 100 07:48 22.05.2021
3734 Clear 31 1010 41 10000 5.66 100 05:59 22.05.2021
3735 Clouds 29 1012 60 10000 4.63 110 02:57 22.05.2021
3736 Clear 22 1011 90 10000 1.54 90 23:51 21.05.2021
3737 Clear 23 1010 90 10000 2.06 130 23:18 21.05.2021
3738 Clear 22 1010 94 10000 2.06 110 22:29 21.05.2021
3739 Clouds 23 1014 94 10000 1.54 80 21:51 21.05.2021
3740 Clouds 23 1009 94 10000 1.54 70 21:27 21.05.2021
3741 Clouds 23 1009 98 10000 1.03 70 20:52 21.05.2021
3742 Clouds 23 1009 94 10000 0.51 70 20:31 21.05.2021
3743 Clouds 23 1010 94 10000 1.03 70 19:59 21.05.2021
3744 Clouds 23 1010 94 10000 1.54 70 19:31 21.05.2021
3745 Clouds 24 1010 91 10000 0.51 230 18:56 21.05.2021
3746 Clouds 24 1010 91 10000 1.54 230 18:28 21.05.2021
3747 Clouds 24 1010 90 10000 1.54 230 17:47 21.05.2021
3748 Clouds 25 1011 92 10000 1.03 230 17:29 21.05.2021
3749 Clear 25 1011 90 10000 2.06 220 16:45 21.05.2021
3750 Clear 25 1011 86 10000 1.54 210 16:26 21.05.2021
3751 Clear 25 1012 86 10000 1.54 200 15:44 21.05.2021
3752 Clear 25 1012 82 10000 1.03 200 15:26 21.05.2021
3753 Clear 25 1012 81 10000 1.03 200 14:52 21.05.2021
3754 Clear 25 1012 81 10000 1.03 200 14:52 21.05.2021
3755 Clear 25 1012 81 10000 2.57 210 14:32 21.05.2021
3756 Clear 26 1011 78 10000 2.57 20 13:29 21.05.2021
3757 Clear 26 1010 72 10000 2.57 20 12:25 21.05.2021
3758 Clear 27 1010 69 10000 3.09 10 11:58 21.05.2021
3759 Clear 28 1010 68 10000 3.6 20 11:33 21.05.2021
3760 Clear 29 1009 63 10000 3.6 10 10:52 21.05.2021
3761 Clear 29 1009 61 10000 4.63 20 10:28 21.05.2021
3762 Clear 31 1009 48 10000 3.09 20 09:33 21.05.2021
3763 Clear 33 1009 33 10000 2.57 80 08:47 21.05.2021
3764 Clear 33 1009 33 10000 4.12 140 08:21 21.05.2021
3765 Clear 33 1009 33 10000 2.57 110 07:27 21.05.2021
3766 Clear 32 1011 36 10000 5.66 100 05:58 21.05.2021
3767 Clear 25 1012 89 10000 2.57 160 00:56 21.05.2021
3768 Clear 24 1012 92 10000 1.03 170 00:19 21.05.2021
3769 Clear 23 1012 90 10000 1.03 150 23:39 20.05.2021
3770 Clear 23 1012 90 10000 1.03 150 23:19 20.05.2021
3771 Clear 24 1011 90 10000 1.54 160 22:40 20.05.2021
3772 Clear 24 1011 90 10000 1.54 160 22:20 20.05.2021
3773 Clouds 23 1012 90 10000 2.06 160 21:48 20.05.2021
3774 Clouds 24 1012 94 10000 2.57 150 21:19 20.05.2021
3775 Clouds 24 1012 94 9000 1.03 170 20:37 20.05.2021
3776 Clouds 24 1012 94 9000 1.03 170 20:18 20.05.2021
3777 Clouds 24 1012 90 10000 1.54 170 19:42 20.05.2021
3778 Clouds 24 1012 90 10000 1.54 170 19:22 20.05.2021
3779 Clouds 25 1012 90 10000 2.57 170 18:37 20.05.2021
3780 Clouds 25 1013 87 10000 2.57 180 17:53 20.05.2021
3781 Clouds 25 1013 86 10000 2.57 190 17:33 20.05.2021
3782 Clear 25 1013 86 10000 2.06 190 16:56 20.05.2021
3783 Clear 25 1013 85 10000 2.06 190 16:30 20.05.2021
3784 Clear 25 1013 81 10000 2.06 190 15:43 20.05.2021
3785 Clear 25 1013 81 10000 1.54 200 15:25 20.05.2021
3786 Clear 26 1013 80 10000 2.06 30 14:42 20.05.2021
3787 Clear 26 1013 81 10000 2.06 30 14:21 20.05.2021
3788 Clear 26 1013 79 10000 2.57 30 13:42 20.05.2021
3789 Clear 27 1012 70 10000 3.09 40 12:57 20.05.2021
3790 Clear 27 1012 69 10000 3.09 30 12:37 20.05.2021
3791 Clear 27 1012 69 10000 3.09 30 12:18 20.05.2021
3792 Clear 28 1011 65 10000 4.12 30 11:22 20.05.2021
3793 Clear 29 1011 61 10000 3.6 40 10:58 20.05.2021
3794 Clear 29 1010 61 10000 4.63 30 10:37 20.05.2021
3795 Clear 30 1010 60 10000 4.63 30 10:18 20.05.2021
3796 Clear 33 1010 44 10000 4.12 30 09:41 20.05.2021
3797 Clear 32 1010 35 10000 4.12 30 09:21 20.05.2021
3798 Clear 34 1009 38 10000 3.6 120 08:53 20.05.2021
3799 Clear 34 1009 38 10000 3.6 120 08:33 20.05.2021
3800 Clear 35 1009 34 10000 4.63 70 07:51 20.05.2021
3801 Clear 34 1009 36 10000 5.66 60 07:28 20.05.2021
3802 Clear 34 1010 36 10000 7.2 80 06:47 20.05.2021
3803 Clear 33 1011 38 10000 7.2 80 05:46 20.05.2021
3804 Clear 32 1012 42 10000 7.72 90 04:30 20.05.2021
3805 Clear 27 1013 66 10000 3.09 140 01:36 20.05.2021
3806 Clear 24 1012 75 10000 2.06 150 00:19 20.05.2021
3807 Clear 23 1012 77 10000 2.06 150 23:43 19.05.2021
3808 Clear 23 1012 74 10000 2.57 160 23:21 19.05.2021
3809 Clear 23 1011 74 10000 2.57 140 22:42 19.05.2021
3810 Clear 23 1011 76 10000 2.57 140 22:20 19.05.2021
3811 Clouds 24 1011 73 10000 2.06 150 21:45 19.05.2021
3812 Clouds 24 1011 73 10000 1.54 160 21:23 19.05.2021
3813 Clouds 23 1011 77 10000 2.57 160 20:59 19.05.2021
3814 Clouds 24 1011 75 10000 2.06 180 20:27 19.05.2021
3815 Clouds 25 1011 73 10000 3.09 190 19:54 19.05.2021
3816 Clouds 25 1011 72 10000 3.09 190 19:27 19.05.2021
3817 Clouds 25 1011 72 10000 3.09 190 19:27 19.05.2021
3818 Clouds 26 1011 70 10000 3.09 190 18:54 19.05.2021
3819 Clouds 25 1011 72 10000 3.09 190 18:33 19.05.2021
3820 Clouds 25 1011 73 10000 3.09 190 17:59 19.05.2021
3821 Clouds 25 1012 74 10000 3.09 190 17:24 19.05.2021
3822 Clear 25 1012 75 10000 3.09 190 16:49 19.05.2021
3823 Clear 25 1012 76 10000 2.06 190 16:30 19.05.2021
3824 Clear 26 1012 78 10000 2.57 210 15:52 19.05.2021
3825 Clear 26 1012 80 10000 3.6 190 15:31 19.05.2021
3826 Clear 25 1012 76 10000 3.09 190 14:55 19.05.2021
3827 Clear 25 1012 73 10000 1.54 40 14:25 19.05.2021
3828 Clear 26 1012 75 10000 1.54 40 13:45 19.05.2021
3829 Clear 26 1011 76 10000 2.06 50 13:25 19.05.2021
3830 Clear 27 1011 65 10000 2.06 50 12:42 19.05.2021
3831 Clear 27 1011 65 10000 2.06 50 12:21 19.05.2021
3832 Clear 28 1010 64 10000 2.57 30 11:45 19.05.2021
3833 Clear 28 1010 61 10000 3.09 30 11:25 19.05.2021
3834 Clear 30 1010 55 10000 3.6 20 10:59 19.05.2021
3835 Clear 30 1009 52 10000 3.6 60 10:38 19.05.2021
3836 Clear 32 1009 46 10000 4.63 80 09:57 19.05.2021
3837 Clear 32 1009 40 10000 5.14 60 09:29 19.05.2021
3838 Clear 32 1009 45 10000 5.66 100 08:56 19.05.2021
3839 Clear 33 1009 44 10000 5.14 100 08:35 19.05.2021
3840 Clear 33 1009 44 10000 4.12 80 07:56 19.05.2021
3841 Clear 33 1010 43 10000 5.66 70 06:53 19.05.2021
3842 Clear 32 1010 45 10000 7.2 90 06:31 19.05.2021
3843 Clear 30 1012 44 10000 6.17 90 04:43 19.05.2021
3844 Clear 27 1013 49 10000 7.2 110 02:26 19.05.2021
3845 Clear 22 1012 57 10000 2.57 120 00:33 19.05.2021
3846 Clear 21 1012 62 10000 2.57 130 23:49 18.05.2021
3847 Clear 22 1011 58 10000 3.6 120 22:59 18.05.2021
3848 Clear 21 1011 58 10000 3.09 130 22:35 18.05.2021
3849 Clear 21 1011 58 10000 3.09 130 21:59 18.05.2021
3850 Clear 22 1011 57 10000 3.6 140 21:39 18.05.2021
3851 Clear 22 1011 56 10000 3.6 150 20:58 18.05.2021
3852 Clear 22 1011 58 10000 3.09 150 20:40 18.05.2021
3853 Clouds 22 1011 58 10000 3.09 150 20:18 18.05.2021
3854 Clouds 22 1011 61 10000 3.09 150 19:44 18.05.2021
3855 Clouds 22 1012 63 10000 3.09 150 19:21 18.05.2021
3856 Clouds 22 1012 66 10000 3.6 170 18:45 18.05.2021
3857 Clouds 22 1012 67 10000 3.09 180 18:24 18.05.2021
3858 Clouds 24 1012 60 10000 3.09 180 17:44 18.05.2021
3859 Clouds 24 1012 62 10000 3.6 180 17:23 18.05.2021
3860 Clear 25 1013 60 10000 3.6 200 16:34 18.05.2021
3861 Clear 24 1013 77 10000 2.57 190 15:56 18.05.2021
3862 Clear 24 1013 74 10000 2.57 200 15:34 18.05.2021
3863 Clear 24 1013 73 10000 3.09 180 14:58 18.05.2021
3864 Clear 24 1013 73 10000 0.51 50 14:29 18.05.2021
3865 Clear 24 1012 69 10000 1.54 50 13:28 18.05.2021
3866 Clear 25 1011 64 10000 3.09 30 12:37 18.05.2021
3867 Clear 26 1011 64 10000 3.09 30 12:18 18.05.2021
3868 Clear 27 1010 53 10000 2.06 10 11:35 18.05.2021
3869 Clear 29 1009 45 10000 3.09 30 10:53 18.05.2021
3870 Clear 29 1009 43 10000 3.6 50 10:30 18.05.2021
3871 Clear 30 1009 36 10000 3.6 90 09:53 18.05.2021
3872 Clear 31 1009 36 10000 3.6 100 09:33 18.05.2021
3873 Clear 31 1009 33 10000 3.09 80 08:50 18.05.2021
3874 Clear 31 1009 31 10000 3.6 50 08:19 18.05.2021
3875 Clear 31 1010 30 10000 3.6 110 07:38 18.05.2021
3876 Clear 31 1011 27 10000 4.63 140 06:29 18.05.2021
3877 Clear 25 1014 44 10000 4.63 130 02:30 18.05.2021
3878 Clear 24 1014 49 10000 4.12 140 01:48 18.05.2021
3879 Clear 21 1013 60 10000 3.6 140 00:43 18.05.2021
3880 Clear 21 1013 60 10000 3.6 140 00:23 18.05.2021
3881 Clear 21 1013 56 10000 2.57 140 23:39 17.05.2021
3882 Clear 21 1013 56 10000 2.57 140 23:20 17.05.2021
3883 Clear 21 1012 56 10000 3.09 130 22:43 17.05.2021
3884 Clear 21 1012 56 10000 3.09 130 22:23 17.05.2021
3885 Clouds 22 1012 53 10000 3.6 130 21:55 17.05.2021
3886 Clouds 21 1012 60 10000 2.57 120 21:21 17.05.2021
3887 Rain 22 1012 53 10000 4.12 150 20:40 17.05.2021
3888 Clouds 22 1012 53 10000 4.12 150 20:21 17.05.2021
3889 Rain 22 1012 60 10000 3.6 150 19:45 17.05.2021
3890 Rain 22 1013 56 10000 3.09 160 19:27 17.05.2021
3891 Clouds 22 1012 56 10000 3.09 170 18:50 17.05.2021
3892 Rain 23 1013 60 10000 2.57 150 18:31 17.05.2021
3893 Rain 24 1013 60 10000 3.09 150 17:52 17.05.2021
3894 Rain 24 1013 60 10000 3.09 150 17:52 17.05.2021
3895 Clouds 24 1013 64 10000 2.57 170 17:32 17.05.2021
3896 Clear 24 1013 73 10000 3.6 180 16:56 17.05.2021
3897 Clear 23 1013 78 10000 3.09 190 16:24 17.05.2021
3898 Clear 22 1012 73 10000 1.54 70 15:38 17.05.2021
3899 Clear 23 1012 73 10000 1.54 70 15:19 17.05.2021
3900 Clear 23 1012 68 10000 1.03 70 14:45 17.05.2021
3901 Clear 23 1012 69 10000 1.54 70 14:24 17.05.2021
3902 Clear 24 1012 61 10000 1.54 60 13:49 17.05.2021
3903 Clear 25 1011 57 10000 2.57 40 12:43 17.05.2021
3904 Clear 25 1011 57 10000 2.57 40 12:24 17.05.2021
3905 Clear 28 1011 42 10000 2.57 70 11:48 17.05.2021
3906 Clear 28 1011 42 10000 2.57 70 11:22 17.05.2021
3907 Clear 29 1010 39 10000 3.09 70 10:55 17.05.2021
3908 Clear 30 1010 35 10000 3.6 80 10:29 17.05.2021
3909 Clear 31 1010 35 10000 4.12 60 09:52 17.05.2021
3910 Clear 31 1009 35 10000 3.6 70 08:50 17.05.2021
3911 Clear 31 1009 33 10000 4.63 80 08:20 17.05.2021
3912 Clear 31 1010 33 10000 4.12 70 07:30 17.05.2021
3913 Clear 31 1010 33 10000 4.12 70 07:30 17.05.2021
3914 Clear 31 1010 33 10000 4.63 110 06:37 17.05.2021
3915 Clear 30 1011 32 10000 5.66 110 05:20 17.05.2021
3916 Clear 27 1013 34 10000 6.69 120 02:57 17.05.2021
3917 Clear 23 1013 43 10000 4.12 140 01:29 17.05.2021
3918 Clear 20 1013 52 10000 3.09 140 00:33 17.05.2021
3919 Clear 19 1012 52 10000 3.09 140 23:30 16.05.2021
3920 Clear 19 1012 52 10000 3.6 140 22:51 16.05.2021
3921 Clear 19 1012 52 10000 4.12 150 22:29 16.05.2021
3922 Clear 19 1012 52 10000 4.12 150 21:51 16.05.2021
3923 Clear 20 1011 49 10000 4.12 140 21:32 16.05.2021
3924 Clear 20 1012 49 10000 3.6 150 20:52 16.05.2021
3925 Clear 20 1012 49 10000 3.6 150 20:29 16.05.2021
3926 Clear 21 1012 46 10000 4.12 160 19:59 16.05.2021
3927 Clear 21 1012 43 10000 3.6 160 19:38 16.05.2021
3928 Clear 21 1012 43 10000 3.6 160 19:18 16.05.2021
3929 Clear 22 1012 46 10000 2.57 150 18:41 16.05.2021
3930 Clear 22 1012 46 10000 2.57 150 18:22 16.05.2021
3931 Clear 21 1012 49 10000 3.09 150 17:48 16.05.2021
3932 Clouds 22 1013 53 10000 3.09 150 17:29 16.05.2021
3933 Clear 22 1013 53 10000 3.09 160 16:58 16.05.2021
3934 Clear 21 1013 64 10000 2.57 170 16:39 16.05.2021
3935 Clear 22 1013 64 10000 2.57 170 16:19 16.05.2021
3936 Clear 21 1013 68 10000 1.54 170 15:43 16.05.2021
3937 Clear 23 1013 64 10000 3.6 180 15:21 16.05.2021
3938 Clear 22 1013 68 10000 1.03 60 14:44 16.05.2021
3939 Clear 21 1013 68 10000 1.03 60 14:19 16.05.2021
3940 Clear 23 1012 64 10000 0.51 60 13:51 16.05.2021
3941 Clear 23 1012 60 10000 1.54 50 13:21 16.05.2021
3942 Clear 24 1012 50 10000 2.06 50 12:52 16.05.2021
3943 Clear 24 1011 46 10000 1.03 70 12:33 16.05.2021
3944 Clear 25 1011 41 10000 1.54 70 11:58 16.05.2021
3945 Clear 26 1010 36 10000 1.54 70 11:33 16.05.2021
3946 Clear 28 1010 28 10000 3.09 80 10:53 16.05.2021
3947 Clear 29 1010 26 10000 3.6 80 10:32 16.05.2021
3948 Clear 30 1009 28 10000 4.12 100 09:50 16.05.2021
3949 Clear 30 1009 26 10000 3.6 110 09:27 16.05.2021
3950 Clear 30 1009 28 10000 5.14 90 08:50 16.05.2021
3951 Clear 30 1009 28 10000 5.14 90 08:24 16.05.2021
3952 Clear 31 1010 29 10000 4.63 90 07:32 16.05.2021
3953 Clear 30 1010 30 10000 5.66 110 06:49 16.05.2021
3954 Clear 25 1013 41 10000 7.72 130 02:36 16.05.2021
3955 Clear 20 1012 52 10000 3.6 150 00:42 16.05.2021
3956 Clear 19 1012 52 10000 2.57 140 23:43 15.05.2021
3957 Clear 19 1011 52 10000 2.57 140 23:21 15.05.2021
3958 Clear 20 1010 49 10000 3.09 140 22:38 15.05.2021
3959 Clear 20 1010 49 10000 3.09 140 22:19 15.05.2021
3960 Clouds 20 1010 49 10000 3.09 140 21:31 15.05.2021
3961 Clouds 20 1010 49 10000 2.57 140 20:59 15.05.2021
3962 Clouds 21 1010 43 10000 3.09 140 20:36 15.05.2021
3963 Clouds 21 1010 43 10000 3.09 140 20:18 15.05.2021
3964 Clouds 21 1011 40 10000 3.09 140 19:31 15.05.2021
3965 Clouds 23 1011 35 10000 3.6 140 18:23 15.05.2021
3966 Clouds 22 1011 40 10000 3.09 150 17:55 15.05.2021
3967 Clouds 22 1011 43 10000 2.57 140 17:24 15.05.2021
3968 Clear 22 1011 43 10000 2.06 150 16:44 15.05.2021
3969 Clear 22 1011 49 10000 2.06 140 16:24 15.05.2021
3970 Clear 22 1011 60 10000 2.06 160 15:57 15.05.2021
3971 Clear 22 1011 73 10000 2.69 158 14:53 15.05.2021
3972 Clear 21 1011 68 10000 0.51 100 14:29 15.05.2021
3973 Clear 23 1011 64 10000 1.03 70 13:53 15.05.2021
3974 Clear 23 1011 56 10000 1.03 20 13:29 15.05.2021
3975 Clear 25 1010 50 10000 2.01 304 12:22 15.05.2021
3976 Clear 26 1010 41 10000 2.01 304 11:43 15.05.2021
3977 Clear 29 1009 30 10000 2.06 70 10:54 15.05.2021
3978 Clear 31 1009 22 10000 3.09 90 09:59 15.05.2021
3979 Clear 31 1009 22 10000 3.09 120 09:21 15.05.2021
3980 Clear 32 1009 22 10000 4.12 140 08:23 15.05.2021
3981 Clear 31 1009 23 10000 3.09 130 07:26 15.05.2021
3982 Clear 31 1009 25 10000 3.09 100 06:54 15.05.2021
3983 Clear 31 1010 23 10000 4.63 110 06:34 15.05.2021
3984 Clear 29 1012 28 10000 6.17 120 04:21 15.05.2021
3985 Clear 21 1012 52 10000 4.63 140 00:51 15.05.2021
3986 Clear 20 1011 52 10000 3.6 110 23:48 14.05.2021
3987 Clear 20 1011 49 10000 2.57 110 22:58 14.05.2021
3988 Clear 20 1011 52 10000 2.06 120 22:25 14.05.2021
3989 Clouds 21 1010 46 10000 3.09 140 21:41 14.05.2021
3990 Clear 21 1010 46 10000 3.09 140 21:18 14.05.2021
3991 Clear 22 1010 46 10000 4.63 140 20:35 14.05.2021
3992 Clear 23 1010 43 10000 4.63 140 19:51 14.05.2021
3993 Clear 22 1011 49 10000 3.6 150 19:31 14.05.2021
3994 Clear 22 1011 49 10000 4.12 150 18:57 14.05.2021
3995 Clouds 23 1011 46 10000 3.09 150 18:34 14.05.2021
3996 Clouds 23 1011 49 10000 2.57 170 17:49 14.05.2021
3997 Clouds 22 1011 49 10000 2.57 150 17:25 14.05.2021
3998 Clear 22 1011 49 10000 2.57 140 16:48 14.05.2021
3999 Clear 22 1011 60 10000 1.54 130 16:30 14.05.2021
4000 Clear 22 1011 60 10000 1.54 130 16:29 14.05.2021
4001 Clear 23 1011 56 10000 1.03 130 15:59 14.05.2021
4002 Clear 22 1011 73 10000 0.51 120 15:20 14.05.2021
4003 Clear 23 1011 68 10000 2.13 195 14:40 14.05.2021
4004 Clear 24 1011 60 10000 1.65 220 13:45 14.05.2021
4005 Clear 24 1010 53 10000 0.51 80 13:26 14.05.2021
4006 Clear 24 1010 50 10000 2.06 100 12:37 14.05.2021
4007 Clear 25 1010 50 10000 2.06 100 12:18 14.05.2021
4008 Clear 27 1009 36 10000 2.06 80 11:26 14.05.2021
4009 Clear 30 1009 32 10000 2.57 70 10:43 14.05.2021
4010 Clear 31 1009 25 10000 3.6 70 10:24 14.05.2021
4011 Clear 32 1008 27 10000 3.09 80 09:44 14.05.2021
4012 Clear 32 1008 23 10000 2.57 90 09:25 14.05.2021
4013 Clear 33 1008 24 10000 4.63 110 08:34 14.05.2021
4014 Clear 32 1009 25 10000 3.6 110 07:35 14.05.2021
4015 Clear 32 1010 22 10000 5.66 100 06:43 14.05.2021
4016 Clear 28 1012 34 10000 5.14 120 02:46 14.05.2021
4017 Clear 22 1012 49 10000 4.63 150 00:59 14.05.2021
4018 Clear 21 1011 52 10000 3.09 150 23:54 13.05.2021
4019 Clear 21 1011 52 10000 2.57 150 23:32 13.05.2021
4020 Clear 21 1010 52 10000 3.6 150 22:59 13.05.2021
4021 Clear 21 1010 52 10000 4.12 150 22:39 13.05.2021
4022 Clear 21 1010 52 10000 4.12 150 22:21 13.05.2021
4023 Clear 23 1011 44 10000 3.09 130 21:41 13.05.2021
4024 Clear 23 1010 46 10000 3.09 130 21:22 13.05.2021
4025 Clear 23 1009 45 10000 3.6 120 20:46 13.05.2021
4026 Clear 23 1010 48 10000 3.6 150 19:56 13.05.2021
4027 Clear 23 1010 48 10000 3.6 150 19:37 13.05.2021
4028 Clear 23 1010 48 10000 3.6 150 19:19 13.05.2021
4029 Clear 23 1010 49 10000 3.09 150 18:45 13.05.2021
4030 Clear 23 1010 50 10000 3.09 160 18:22 13.05.2021
4031 Clouds 24 1010 49 10000 2.57 160 17:41 13.05.2021
4032 Clouds 24 1010 48 10000 2.57 160 17:22 13.05.2021
4033 Clear 24 1010 48 10000 3.09 160 16:52 13.05.2021
4034 Clear 24 1010 48 10000 3.09 150 16:20 13.05.2021
4035 Clear 24 1010 48 10000 2.06 150 15:56 13.05.2021
4036 Clear 25 1010 47 10000 2.57 160 15:25 13.05.2021
4037 Clear 26 1010 49 10000 2.06 150 14:58 13.05.2021
4038 Clear 24 1010 44 10000 2.57 150 14:39 13.05.2021
4039 Clear 25 1010 47 10000 2.57 150 14:21 13.05.2021
4040 Clear 25 1010 50 10000 2.57 130 13:43 13.05.2021
4041 Clear 25 1010 50 10000 2.57 130 13:24 13.05.2021
4042 Clear 26 1009 47 10000 1.03 140 12:42 13.05.2021
4043 Clear 26 1009 47 10000 1.03 140 12:20 13.05.2021
4044 Clear 30 1008 41 10000 2.06 140 11:40 13.05.2021
4045 Clear 29 1008 52 10000 1.36 42 10:56 13.05.2021
4046 Clear 31 1008 33 10000 3.6 140 10:37 13.05.2021
4047 Clear 33 1008 28 10000 4.12 150 09:56 13.05.2021
4048 Clear 33 1007 27 10000 4.12 150 09:30 13.05.2021
4049 Clear 33 1008 29 10000 4.12 110 08:39 13.05.2021
4050 Clear 33 1008 29 10000 4.12 110 08:20 13.05.2021
4051 Clear 33 1008 28 10000 4.12 110 07:21 13.05.2021
4052 Clear 32 1010 31 10000 5.14 130 05:55 13.05.2021
4053 Clear 27 1012 41 10000 4.63 130 02:40 13.05.2021
4054 Rain 23 1012 51 10000 4.63 140 00:56 13.05.2021
4055 Rain 22 1012 55 10000 4.12 140 23:43 12.05.2021
4056 Clear 22 1011 49 10000 3.09 120 22:57 12.05.2021
4057 Clear 22 1011 51 10000 3.09 130 22:23 12.05.2021
4058 Clear 22 1011 50 10000 4.12 140 21:55 12.05.2021
4059 Clear 22 1009 49 10000 3.6 150 21:19 12.05.2021
4060 Clear 23 1009 49 10000 3.6 150 20:50 12.05.2021
4061 Clouds 23 1009 50 10000 3.6 140 19:54 12.05.2021
4062 Rain 24 1010 48 10000 3.09 150 19:20 12.05.2021
4063 Rain 24 1011 51 10000 3.6 170 18:28 12.05.2021
4064 Rain 24 1011 50 10000 3.6 160 17:55 12.05.2021
4065 Clouds 25 1010 48 10000 3.09 150 17:35 12.05.2021
4066 Rain 25 1011 51 10000 2.57 150 16:53 12.05.2021
4067 Rain 25 1011 51 10000 2.57 150 16:32 12.05.2021
4068 Clear 25 1011 50 10000 3.09 160 15:44 12.05.2021
4069 Clear 25 1011 57 10000 2.57 150 15:24 12.05.2021
4070 Clear 27 1011 42 10000 3.09 140 14:39 12.05.2021
4071 Clear 27 1011 42 10000 3.09 140 14:39 12.05.2021
4072 Clear 26 1011 47 10000 3.09 130 13:59 12.05.2021
4073 Clear 26 1011 53 10000 2.06 130 13:39 12.05.2021
4074 Rain 27 1010 47 10000 1.54 130 12:43 12.05.2021
4075 Clear 27 1010 47 10000 1.54 130 12:24 12.05.2021
4076 Rain 29 1009 35 10000 2.06 90 11:36 12.05.2021
4077 Clear 31 1009 33 10000 3.6 80 10:59 12.05.2021
4078 Rain 33 1009 29 10000 4.12 90 10:32 12.05.2021
4079 Rain 33 1008 29 10000 5.66 90 09:48 12.05.2021
4080 Rain 33 1008 27 10000 4.12 130 09:28 12.05.2021
4081 Clear 34 1008 27 10000 4.12 140 08:55 12.05.2021
4082 Clear 34 1008 27 10000 5.14 100 08:29 12.05.2021
4083 Clear 34 1009 26 10000 6.17 80 07:50 12.05.2021
4084 Clear 33 1010 27 10000 6.17 120 06:31 12.05.2021
4085 Rain 26 1012 47 10000 4.12 130 01:41 12.05.2021
4086 Clouds 24 1012 50 10000 3.6 100 00:37 12.05.2021
4087 Clear 23 1012 49 10000 3.09 110 23:48 11.05.2021
4088 Clear 23 1011 53 10000 3.09 120 23:28 11.05.2021
4089 Clear 23 1011 46 10000 4.12 110 22:57 11.05.2021
4090 Clear 23 1011 46 10000 4.12 110 22:38 11.05.2021
4091 Clear 24 1011 46 10000 3.6 100 22:18 11.05.2021
4092 Clear 24 1011 44 10000 3.6 100 21:44 11.05.2021
4093 Clear 24 1011 44 10000 3.6 100 21:25 11.05.2021
4094 Rain 24 1011 47 10000 3.6 100 20:44 11.05.2021
4095 Clear 24 1011 47 10000 3.6 110 20:25 11.05.2021
4096 Clear 24 1011 50 10000 2.57 90 19:44 11.05.2021
4097 Clouds 24 1011 50 10000 3.6 110 19:23 11.05.2021
4098 Clouds 24 1011 50 10000 3.09 100 18:48 11.05.2021
4099 Clouds 24 1011 53 10000 3.09 90 18:28 11.05.2021
4100 Clouds 25 1011 50 10000 3.6 80 17:44 11.05.2021
4101 Clouds 26 1012 47 10000 5.14 70 17:23 11.05.2021
4102 Clear 26 1012 44 10000 2.57 110 16:52 11.05.2021
4103 Clear 26 1012 44 10000 2.57 110 16:27 11.05.2021
4104 Clear 24 1012 61 10000 1.54 150 15:45 11.05.2021
4105 Clear 25 1012 61 10000 1.54 150 15:20 11.05.2021
4106 Clear 25 1011 61 10000 1.54 80 14:44 11.05.2021
4107 Clear 25 1011 61 10000 1.54 80 14:24 11.05.2021
4108 Clear 25 1011 57 10000 1.03 60 13:58 11.05.2021
4109 Clear 26 1011 53 10000 1.03 90 13:24 11.05.2021
4110 Clear 26 1010 44 10000 1.54 80 12:59 11.05.2021
4111 Clear 26 1010 44 10000 1.54 80 12:40 11.05.2021
4112 Clear 27 1010 44 10000 1.54 80 11:53 11.05.2021
4113 Clear 29 1010 37 10000 2.06 90 11:32 11.05.2021
4114 Clear 31 1009 31 10000 2.57 90 10:59 11.05.2021
4115 Clear 32 1009 29 10000 4.12 90 10:39 11.05.2021
4116 Clear 33 1009 27 10000 5.14 100 09:59 11.05.2021
4117 Clear 33 1009 27 10000 4.63 80 09:41 11.05.2021
4118 Clear 33 1009 27 10000 4.63 80 09:23 11.05.2021
4119 Clear 34 1009 26 10000 5.66 90 08:50 11.05.2021
4120 Clear 34 1009 26 10000 6.69 80 08:32 11.05.2021
4121 Clear 34 1009 24 10000 6.69 100 07:55 11.05.2021
4122 Clear 34 1009 24 10000 7.2 100 07:30 11.05.2021
4123 Clear 33 1010 24 10000 6.17 120 06:18 11.05.2021
4124 Clear 27 1012 57 10000 3.6 90 01:26 11.05.2021
4125 Clear 24 1012 73 10000 2.06 90 00:39 11.05.2021
4126 Clear 23 1011 73 10000 2.06 90 23:49 10.05.2021
4127 Clear 23 1011 73 10000 2.57 100 23:22 10.05.2021
4128 Clear 23 1011 78 10000 2.57 110 22:50 10.05.2021
4129 Clear 23 1011 83 10000 2.06 140 22:26 10.05.2021
4130 Clouds 22 1011 94 10000 1.54 140 21:50 10.05.2021
4131 Clouds 23 1011 88 10000 1.54 120 21:28 10.05.2021
4132 Clouds 23 1011 88 10000 1.54 120 20:45 10.05.2021
4133 Clouds 23 1011 88 10000 1.03 120 20:23 10.05.2021
4134 Clouds 24 1011 88 10000 2.06 170 19:56 10.05.2021
4135 Clouds 24 1011 83 10000 1.54 170 19:38 10.05.2021
4136 Clouds 24 1011 83 10000 1.54 170 19:19 10.05.2021
4137 Clouds 24 1012 83 10000 1.03 230 18:45 10.05.2021
4138 Clouds 25 1012 78 10000 1.54 230 18:20 10.05.2021
4139 Clouds 26 1012 78 10000 2.06 240 17:41 10.05.2021
4140 Clear 26 1012 78 10000 2.06 240 16:56 10.05.2021
4141 Clear 25 1012 78 10000 2.57 240 16:28 10.05.2021
4142 Clear 26 1012 78 10000 1.54 250 15:52 10.05.2021
4143 Clear 25 1012 78 10000 1.54 260 15:30 10.05.2021
4144 Clear 24 1012 83 10000 1.03 290 14:55 10.05.2021
4145 Clear 25 1012 73 10000 1.54 320 14:31 10.05.2021
4146 Clear 25 1012 73 10000 1.54 310 13:52 10.05.2021
4147 Clear 27 1011 69 10000 1.54 320 12:58 10.05.2021
4148 Clear 27 1010 65 10000 2.57 320 12:34 10.05.2021
4149 Clear 27 1010 61 10000 2.06 320 11:58 10.05.2021
4150 Clear 28 1009 61 10000 3.09 340 11:38 10.05.2021
4151 Clear 28 1009 61 10000 3.09 340 11:19 10.05.2021
4152 Clear 28 1009 61 10000 3.09 340 11:19 10.05.2021
4153 Clear 30 1009 42 10000 3.09 350 10:45 10.05.2021
4154 Clear 31 1009 42 10000 3.09 80 10:21 10.05.2021
4155 Clear 32 1008 35 10000 3.09 150 09:39 10.05.2021
4156 Clear 32 1008 35 10000 3.09 140 08:47 10.05.2021
4157 Clear 32 1009 35 10000 3.6 100 08:29 10.05.2021
4158 Clear 32 1009 35 10000 2.57 130 07:51 10.05.2021
4159 Clear 32 1009 37 10000 3.09 90 07:31 10.05.2021
4160 Clear 32 1009 37 10000 5.14 150 06:48 10.05.2021
4161 Clouds 30 1012 51 10000 2.06 150 03:54 10.05.2021
4162 Clouds 24 1012 88 10000 2.46 142 00:41 10.05.2021
4163 Clouds 23 1011 83 10000 3.6 120 23:22 09.05.2021
4164 Clouds 23 1011 88 10000 2.57 140 22:38 09.05.2021
4165 Clouds 23 1011 88 10000 2.57 140 22:19 09.05.2021
4166 Clouds 23 1010 88 10000 1.54 150 21:47 09.05.2021
4167 Clouds 23 1010 83 10000 1.54 170 20:56 09.05.2021
4168 Clouds 23 1010 83 10000 2.06 170 20:36 09.05.2021
4169 Clouds 23 1011 83 10000 1.54 150 19:55 09.05.2021
4170 Clouds 23 1011 83 10000 1.54 130 19:30 09.05.2021
4171 Clouds 24 1011 78 10000 1.54 150 18:53 09.05.2021
4172 Clouds 24 1011 78 10000 1.03 170 18:32 09.05.2021
4173 Clouds 24 1011 78 10000 1.54 170 17:54 09.05.2021
4174 Clouds 24 1011 78 10000 1.03 160 17:20 09.05.2021
4175 Clear 24 1011 78 10000 2.12 96 16:37 09.05.2021
4176 Clear 23 1011 78 10000 0.8 61 16:18 09.05.2021
4177 Clear 24 1011 69 10000 1.54 30 15:21 09.05.2021
4178 Clear 24 1011 69 10000 1.03 30 14:43 09.05.2021
4179 Clear 24 1011 69 10000 1.03 30 14:43 09.05.2021
4180 Clear 24 1011 65 10000 1.03 30 13:48 09.05.2021
4181 Clear 26 1011 65 10000 1.03 20 13:21 09.05.2021
4182 Clouds 26 1010 61 10000 2.06 20 12:32 09.05.2021
4183 Clouds 27 1010 54 10000 2.57 30 11:45 09.05.2021
4184 Clouds 28 1009 51 10000 3.09 20 11:22 09.05.2021
4185 Clouds 30 1009 48 10000 3.6 20 10:44 09.05.2021
4186 Clear 30 1008 45 10000 3.6 10 10:20 09.05.2021
4187 Clear 30 1008 51 10000 3.6 340 09:35 09.05.2021
4188 Clouds 31 1008 55 10000 4.63 350 08:57 09.05.2021
4189 Clouds 31 1008 48 10000 4.63 340 08:35 09.05.2021
4190 Clouds 31 1009 51 10000 5.14 300 07:57 09.05.2021
4191 Clouds 32 1009 51 10000 4.63 310 07:25 09.05.2021
4192 Rain 32 1010 40 10000 4.63 280 06:36 09.05.2021
4193 Clouds 26 1011 73 10000 1.03 120 01:20 09.05.2021
4194 Clouds 21 1010 88 10000 1.03 140 23:51 08.05.2021
4195 Clouds 21 1010 94 10000 1.03 110 23:29 08.05.2021
4196 Clear 21 1009 94 10000 1.54 100 22:49 08.05.2021
4197 Clear 21 1009 88 10000 2.06 100 22:20 08.05.2021
4198 Clear 21 1009 94 10000 2.06 70 21:49 08.05.2021
4199 Clouds 22 1009 94 10000 1.54 60 21:19 08.05.2021
4200 Clouds 22 1009 94 10000 1.54 60 21:19 08.05.2021
4201 Clouds 22 1009 88 10000 2.57 80 20:51 08.05.2021
4202 Clouds 22 1009 88 10000 2.06 130 20:27 08.05.2021
4203 Clouds 23 1009 88 10000 1.03 180 19:26 08.05.2021
4204 Clouds 24 1009 83 10000 2.06 190 18:54 08.05.2021
4205 Clouds 24 1009 83 10000 2.06 190 18:54 08.05.2021
4206 Clouds 23 1010 88 10000 1.66 116 18:36 08.05.2021
4207 Clouds 23 1010 88 10000 1.03 220 17:55 08.05.2021
4208 Clouds 24 1010 78 10000 1.03 200 17:30 08.05.2021
4209 Clear 23 1011 83 10000 0.51 20 16:31 08.05.2021
4210 Clear 23 1011 83 10000 1.26 240 15:56 08.05.2021
4211 Clear 23 1011 83 10000 0.51 20 15:33 08.05.2021
4212 Clear 24 1011 78 10000 1.54 20 14:51 08.05.2021
4213 Clear 25 1011 69 10000 2.06 40 14:24 08.05.2021
4214 Clear 25 1010 73 10000 3.09 30 13:55 08.05.2021
4215 Clear 26 1010 69 10000 2.06 20 13:24 08.05.2021
4216 Clear 26 1009 65 10000 2.57 30 12:38 08.05.2021
4217 Clear 27 1009 61 10000 3.09 10 11:53 08.05.2021
4218 Clear 27 1008 61 10000 2.57 10 11:29 08.05.2021
4219 Clouds 29 1008 54 10000 3.6 30 10:42 08.05.2021
4220 Clouds 29 1008 54 10000 3.6 30 10:22 08.05.2021
4221 Clouds 30 1008 54 10000 4.12 360 09:52 08.05.2021
4222 Clouds 30 1007 51 10000 4.63 350 09:33 08.05.2021
4223 Clouds 32 1008 48 10000 4.12 340 08:30 08.05.2021
4224 Clouds 32 1008 51 10000 3.09 320 07:41 08.05.2021
4225 Clouds 32 1008 51 10000 3.09 320 07:23 08.05.2021
4226 Clear 33 1009 40 10000 4.63 270 06:40 08.05.2021
4227 Clouds 28 1011 65 10000 2.06 100 02:30 08.05.2021
4228 Clouds 25 1011 83 10000 0.51 80 00:51 08.05.2021
4229 Clouds 24 1010 88 10000 2.95 107 00:31 08.05.2021
4230 Clear 22 1010 94 10000 1.03 80 23:34 07.05.2021
4231 Clear 22 1010 94 10000 0.51 80 22:57 07.05.2021
4232 Clouds 22 1009 88 10000 2.06 80 22:33 07.05.2021
4233 Clouds 23 1009 88 10000 3.09 111 21:45 07.05.2021
4234 Clouds 23 1009 83 10000 1.03 230 21:27 07.05.2021
4235 Clouds 24 1009 78 10000 2.06 230 20:52 07.05.2021
4236 Clouds 24 1009 83 10000 2.57 220 20:32 07.05.2021
4237 Clouds 24 1009 83 10000 2.06 210 19:50 07.05.2021
4238 Clouds 24 1010 83 10000 2.06 210 19:29 07.05.2021
4239 Clouds 24 1010 83 10000 2.57 200 18:48 07.05.2021
4240 Clouds 24 1010 83 10000 1.54 190 18:28 07.05.2021
4241 Clouds 24 1010 83 10000 3.04 127 17:43 07.05.2021
4242 Clouds 23 1010 83 10000 2.35 150 17:20 07.05.2021
4243 Clear 24 1011 78 10000 0.51 190 16:41 07.05.2021
4244 Clear 24 1011 78 10000 0.51 190 16:23 07.05.2021
4245 Clear 25 1011 73 10000 1.03 180 15:44 07.05.2021
4246 Clear 24 1011 78 10000 1.42 243 15:26 07.05.2021
4247 Clear 25 1011 69 10000 0.51 360 14:39 07.05.2021
4248 Clear 26 1011 69 10000 0.51 360 14:20 07.05.2021
4249 Clear 26 1011 69 10000 0.51 360 14:20 07.05.2021
4250 Clouds 26 1010 65 10000 1.03 360 13:34 07.05.2021
4251 Clouds 27 1010 61 10000 1.54 360 12:54 07.05.2021
4252 Rain 27 1009 61 10000 1.54 330 12:34 07.05.2021
4253 Rain 28 1009 65 10000 2.57 10 11:53 07.05.2021
4254 Rain 28 1009 58 10000 3.6 360 11:31 07.05.2021
4255 Rain 29 1008 54 10000 3.09 350 10:53 07.05.2021
4256 Clouds 30 1008 54 10000 4.12 350 10:25 07.05.2021
4257 Clouds 31 1008 48 10000 4.12 350 09:59 07.05.2021
4258 Clouds 31 1008 48 10000 4.63 340 09:18 07.05.2021
4259 Clouds 32 1007 48 10000 3.6 340 08:47 07.05.2021
4260 Clouds 32 1007 48 10000 3.6 330 08:23 07.05.2021
4261 Clear 32 1009 35 10000 2.57 80 06:47 07.05.2021
4262 Clear 32 1010 37 10000 3.09 120 05:44 07.05.2021
4263 Clear 28 1012 54 10000 4.63 90 02:27 07.05.2021
4264 Clear 23 1010 78 10000 2.57 130 23:36 06.05.2021
4265 Clear 24 1010 73 10000 2.57 130 22:39 06.05.2021
4266 Clear 23 1010 83 10000 2.06 150 21:50 06.05.2021
4267 Clear 23 1010 83 10000 2.57 160 20:50 06.05.2021
4268 Clear 23 1010 83 10000 2.06 160 20:26 06.05.2021
4269 Clear 23 1010 83 10000 3.09 160 19:56 06.05.2021
4270 Clear 23 1010 83 10000 2.57 170 19:37 06.05.2021
4271 Clear 24 1010 83 10000 2.57 170 19:18 06.05.2021
4272 Clear 24 1010 83 10000 3.09 190 18:37 06.05.2021
4273 Clear 24 1010 83 10000 2.57 180 17:58 06.05.2021
4274 Clear 24 1010 83 10000 3.09 190 17:39 06.05.2021
4275 Clear 24 1010 83 10000 3.09 190 17:18 06.05.2021
4276 Clear 24 1011 78 10000 1.54 170 16:46 06.05.2021
4277 Clear 24 1011 73 10000 2.06 150 16:23 06.05.2021
4278 Clear 23 1011 78 10000 2.03 177 15:42 06.05.2021
4279 Clear 24 1011 78 10000 0.45 129 15:22 06.05.2021
4280 Clear 25 1010 69 10000 0.9 15 14:26 06.05.2021
4281 Clear 25 1010 69 10000 1.03 30 13:55 06.05.2021
4282 Clear 25 1010 69 10000 1.03 30 13:55 06.05.2021
4283 Clear 25 1010 65 10000 1.54 40 13:27 06.05.2021
4284 Clear 26 1010 61 10000 1.54 40 12:55 06.05.2021
4285 Clear 26 1009 57 10000 2.06 30 12:33 06.05.2021
4286 Clear 28 1009 51 10000 1.54 70 11:49 06.05.2021
4287 Clear 30 1009 42 10000 2.06 80 11:25 06.05.2021
4288 Clear 31 1009 37 10000 3.09 90 10:52 06.05.2021
4289 Clear 31 1008 33 10000 3.09 80 10:27 06.05.2021
4290 Clear 32 1008 35 10000 3.6 110 09:51 06.05.2021
4291 Clear 32 1008 33 10000 1.54 240 09:31 06.05.2021
4292 Clear 33 1008 29 10000 3.6 80 08:51 06.05.2021
4293 Clear 33 1008 31 10000 2.57 80 08:24 06.05.2021
4294 Clear 33 1008 31 10000 2.57 90 07:52 06.05.2021
4295 Clear 33 1008 29 10000 2.06 40 07:30 06.05.2021
4296 Clear 32 1009 31 10000 3.6 100 06:27 06.05.2021
4297 Clear 32 1010 33 10000 4.63 100 05:50 06.05.2021
4298 Clouds 32 1010 43 10000 0.45 204 04:36 06.05.2021
4299 Clouds 29 1012 51 10000 6.17 110 02:35 06.05.2021
4300 Clouds 25 1011 73 10000 3.09 100 00:20 06.05.2021
4301 Clear 23 1010 78 10000 4.63 80 22:47 05.05.2021
4302 Clear 24 1009 73 10000 3.6 100 22:22 05.05.2021
4303 Clouds 24 1009 69 10000 3.09 120 21:42 05.05.2021
4304 Clouds 23 1009 69 10000 3.09 120 21:21 05.05.2021
4305 Clouds 23 1009 78 10000 3.09 150 20:36 05.05.2021
4306 Clouds 23 1009 83 10000 2.06 160 19:56 05.05.2021
4307 Clouds 23 1009 83 10000 1.54 150 19:37 05.05.2021
4308 Clouds 23 1009 83 10000 1.54 150 19:18 05.05.2021
4309 Clouds 23 1010 83 10000 2.06 140 18:21 05.05.2021
4310 Clouds 23 1010 83 10000 2.57 170 17:53 05.05.2021
4311 Clouds 23 1010 83 10000 1.54 170 17:28 05.05.2021
4312 Clear 23 1010 83 10000 1.54 140 16:53 05.05.2021
4313 Clear 23 1010 83 10000 1.03 70 16:32 05.05.2021
4314 Clear 24 1011 83 10000 1.03 20 15:52 05.05.2021
4315 Clear 24 1011 73 10000 1.03 20 15:22 05.05.2021
4316 Clear 24 1011 73 10000 1.03 20 15:22 05.05.2021
4317 Clear 24 1011 73 10000 1.03 20 15:22 05.05.2021
4318 Clear 24 1011 73 10000 1.54 20 14:44 05.05.2021
4319 Clear 24 1011 78 10000 1.54 20 14:25 05.05.2021
4320 Clear 25 1010 73 10000 2.57 20 13:45 05.05.2021
4321 Clear 25 1010 73 10000 2.57 20 13:24 05.05.2021
4322 Clear 25 1009 65 10000 2.57 20 12:30 05.05.2021
4323 Clear 26 1009 57 10000 2.06 10 11:54 05.05.2021
4324 Clear 28 1009 45 10000 2.06 60 11:36 05.05.2021
4325 Clear 29 1009 45 10000 2.06 60 11:18 05.05.2021
4326 Clear 30 1008 35 10000 3.6 90 10:40 05.05.2021
4327 Clear 32 1008 33 10000 4.63 100 09:53 05.05.2021
4328 Clear 32 1007 33 10000 4.63 90 09:29 05.05.2021
4329 Clear 32 1007 31 10000 4.63 70 08:43 05.05.2021
4330 Clear 32 1007 31 10000 4.63 70 08:24 05.05.2021
4331 Clear 32 1008 33 10000 5.14 70 07:48 05.05.2021
4332 Clear 32 1008 31 10000 4.63 70 07:22 05.05.2021
4333 Clear 32 1009 29 10000 4.63 90 06:37 05.05.2021
4334 Clear 27 1012 42 10000 5.66 100 02:20 05.05.2021
4335 Clear 22 1011 57 10000 3.6 110 00:22 05.05.2021
4336 Clear 22 1010 64 10000 3.6 100 23:38 04.05.2021
4337 Clear 23 1010 64 10000 3.6 110 22:55 04.05.2021
4338 Clear 23 1010 69 10000 3.6 130 22:37 04.05.2021
4339 Clear 24 1010 69 10000 3.6 130 22:18 04.05.2021
4340 Clear 24 1010 61 10000 3.6 100 21:42 04.05.2021
4341 Clear 24 1010 61 10000 3.6 100 21:18 04.05.2021
4342 Clear 24 1010 69 10000 3.6 130 20:43 04.05.2021
4343 Clouds 23 1010 73 10000 3.6 150 20:23 04.05.2021
4344 Clouds 24 1010 73 10000 2.57 160 19:43 04.05.2021
4345 Clouds 24 1010 73 10000 2.57 150 19:25 04.05.2021
4346 Clouds 23 1010 78 10000 1.54 150 18:52 04.05.2021
4347 Clouds 23 1010 83 10000 1.54 150 18:32 04.05.2021
4348 Clouds 24 1010 73 10000 1.54 140 17:50 04.05.2021
4349 Clouds 24 1011 83 10000 2.57 140 17:25 04.05.2021
4350 Clear 24 1011 78 10000 2.06 190 16:47 04.05.2021
4351 Clear 24 1011 78 10000 1.54 190 16:22 04.05.2021
4352 Clear 23 1011 83 10000 3.08 57 15:46 04.05.2021
4353 Clear 24 1011 78 10000 0.51 50 15:20 04.05.2021
4354 Clear 25 1011 73 10000 1.03 30 14:29 04.05.2021
4355 Clear 26 1011 69 10000 2.06 50 13:41 04.05.2021
4356 Clear 26 1011 69 10000 2.06 50 13:21 04.05.2021
4357 Clear 26 1010 65 10000 2.57 30 12:53 04.05.2021
4358 Clear 26 1010 61 10000 2.57 40 12:27 04.05.2021
4359 Clear 29 1009 48 10000 2.57 70 11:45 04.05.2021
4360 Clear 30 1009 48 10000 2.57 70 11:24 04.05.2021
4361 Clear 31 1008 40 10000 3.6 80 10:43 04.05.2021
4362 Clear 32 1008 37 10000 4.63 90 10:22 04.05.2021
4363 Clear 32 1008 37 10000 5.66 100 09:41 04.05.2021
4364 Clear 32 1008 37 10000 5.66 100 09:19 04.05.2021
4365 Clear 32 1008 35 10000 5.66 110 08:43 04.05.2021
4366 Clear 33 1008 33 10000 6.17 90 08:19 04.05.2021
4367 Rain 33 1008 33 10000 6.69 80 07:44 04.05.2021
4368 Rain 32 1009 35 10000 6.17 100 06:41 04.05.2021
4369 Rain 32 1009 35 10000 6.17 100 06:18 04.05.2021
4370 Clouds 31 1012 42 10000 6.17 80 03:57 04.05.2021
4371 Rain 28 1012 61 10000 4.12 110 01:33 04.05.2021
4372 Rain 24 1010 69 10000 3.6 100 23:52 03.05.2021
4373 Clear 25 1010 73 10000 2.57 100 23:30 03.05.2021
4374 Clear 25 1010 73 10000 2.57 100 23:30 03.05.2021
4375 Clear 25 1010 73 10000 2.57 100 23:30 03.05.2021
4376 Rain 24 1009 78 10000 3.09 120 22:39 03.05.2021
4377 Rain 24 1009 78 10000 3.09 120 22:39 03.05.2021
4378 Rain 24 1009 78 10000 3.09 120 22:21 03.05.2021
4379 Rain 24 1009 83 10000 3.09 110 21:42 03.05.2021
4380 Rain 25 1009 83 10000 3.09 110 21:22 03.05.2021
4381 Rain 25 1009 83 10000 3.09 110 21:22 03.05.2021
4382 Clouds 25 1009 78 10000 2.06 110 20:49 03.05.2021
4383 Rain 25 1009 78 10000 2.57 130 20:29 03.05.2021
4384 Rain 25 1010 73 10000 2.57 140 19:51 03.05.2021
4385 Clouds 25 1010 73 10000 1.54 140 19:30 03.05.2021
4386 Clouds 24 1010 78 10000 2.06 150 18:38 03.05.2021
4387 Rain 24 1010 78 10000 1.54 180 17:53 03.05.2021
4388 Clouds 23 1011 88 10000 1.54 130 17:33 03.05.2021
4389 Clear 24 1011 88 10000 1.54 130 16:52 03.05.2021
4390 Clear 24 1011 88 10000 0.51 60 16:24 03.05.2021
4391 Rain 25 1011 83 10000 2.06 180 15:50 03.05.2021
4392 Clear 24 1011 83 10000 1.03 160 15:23 03.05.2021
4393 Rain 26 1011 78 10000 1.54 40 14:37 03.05.2021
4394 Rain 26 1011 78 10000 1.54 40 14:18 03.05.2021
4395 Clear 26 1010 74 10000 2.57 40 13:34 03.05.2021
4396 Clear 26 1010 74 10000 3.09 40 12:58 03.05.2021
4397 Rain 27 1010 65 10000 2.57 40 12:31 03.05.2021
4398 Rain 28 1009 51 10000 3.09 50 11:51 03.05.2021
4399 Rain 29 1009 51 10000 3.09 50 11:31 03.05.2021
4400 Rain 30 1009 42 10000 3.09 60 10:52 03.05.2021
4401 Rain 31 1009 37 10000 4.63 90 10:31 03.05.2021
4402 Clear 32 1008 35 10000 5.14 100 09:56 03.05.2021
4403 Clear 32 1008 35 10000 4.63 90 09:36 03.05.2021
4404 Clear 32 1008 35 10000 5.14 110 08:44 03.05.2021
4405 Clear 33 1008 33 10000 5.66 110 08:24 03.05.2021
4406 Clear 33 1008 33 10000 5.66 100 07:52 03.05.2021
4407 Clear 33 1009 35 10000 8.23 90 06:34 03.05.2021
4408 Clear 32 1010 35 10000 8.23 100 05:55 03.05.2021
4409 Clouds 30 1012 54 10000 5.14 70 03:39 03.05.2021
4410 Clouds 24 1011 73 10000 4.63 100 00:22 03.05.2021
4411 Rain 24 1011 64 10000 4.63 110 23:27 02.05.2021
4412 Clouds 24 1011 64 10000 5.14 100 22:51 02.05.2021
4413 Clouds 24 1010 60 10000 4.12 130 22:32 02.05.2021
4414 Clouds 24 1010 60 10000 4.12 130 22:32 02.05.2021
4415 Clear 23 1010 64 10000 3.6 130 21:59 02.05.2021
4416 Clear 23 1010 64 10000 4.12 130 21:40 02.05.2021
4417 Clear 23 1010 64 10000 4.12 130 21:22 02.05.2021
4418 Rain 23 1010 78 10000 2.57 150 20:24 02.05.2021
4419 Clear 23 1011 83 10000 1.54 140 19:43 02.05.2021
4420 Clear 23 1011 83 10000 2.57 150 19:23 02.05.2021
4421 Clear 23 1011 78 10000 3.09 160 18:46 02.05.2021
4422 Clear 23 1011 78 10000 3.09 160 18:28 02.05.2021
4423 Clear 24 1011 78 10000 1.54 160 17:49 02.05.2021
4424 Clear 22 1012 88 10000 1.03 160 17:29 02.05.2021
4425 Clear 23 1012 83 10000 3.01 114 16:59 02.05.2021
4426 Rain 23 1012 83 10000 1.54 160 16:40 02.05.2021
4427 Clear 23 1012 83 10000 1.54 160 16:21 02.05.2021
4428 Clear 23 1012 83 10000 1.54 150 15:43 02.05.2021
4429 Rain 24 1012 73 10000 1.54 160 15:23 02.05.2021
4430 Rain 24 1012 73 10000 1.54 160 15:23 02.05.2021
4431 Clear 24 1012 73 10000 1.03 60 14:41 02.05.2021
4432 Clear 25 1012 73 10000 1.03 60 14:23 02.05.2021
4433 Clear 25 1012 69 10000 2.06 50 13:45 02.05.2021
4434 Clear 26 1012 69 10000 2.57 60 13:22 02.05.2021
4435 Clear 26 1011 61 10000 1.54 70 12:43 02.05.2021
4436 Clear 27 1011 61 10000 1.54 70 12:23 02.05.2021
4437 Clear 27 1011 57 10000 2.06 70 11:50 02.05.2021
4438 Clear 29 1010 45 10000 2.06 70 11:31 02.05.2021
4439 Clear 30 1010 40 10000 3.6 70 10:56 02.05.2021
4440 Clear 31 1010 35 10000 4.12 70 10:21 02.05.2021
4441 Clear 32 1010 33 10000 3.09 80 09:47 02.05.2021
4442 Clear 32 1010 33 10000 3.09 90 09:28 02.05.2021
4443 Clear 32 1010 33 10000 3.09 90 09:28 02.05.2021
4444 Clear 33 1010 33 10000 4.12 90 08:54 02.05.2021
4445 Clear 32 1010 33 10000 3.6 90 08:31 02.05.2021
4446 Clear 32 1010 35 10000 4.12 110 07:53 02.05.2021
4447 Clear 32 1010 35 10000 3.6 120 07:21 02.05.2021
4448 Clear 32 1012 35 10000 5.66 80 05:27 02.05.2021
4449 Clouds 27 1014 65 10000 5.66 100 01:46 02.05.2021
4450 Clouds 24 1013 73 10000 3.6 100 23:49 01.05.2021
4451 Clear 25 1012 73 10000 3.6 100 23:29 01.05.2021
4452 Clear 25 1012 73 10000 4.12 100 22:57 01.05.2021
4453 Clear 25 1012 69 10000 3.6 100 22:32 01.05.2021
4454 Clouds 25 1012 83 10000 3.09 140 21:57 01.05.2021
4455 Rain 24 1012 83 10000 2.57 150 21:39 01.05.2021
4456 Rain 24 1012 83 10000 2.57 150 21:39 01.05.2021
4457 Clouds 24 1012 83 10000 2.57 150 21:21 01.05.2021
4458 Clouds 25 1012 83 10000 2.57 150 20:45 01.05.2021
4459 Clouds 25 1012 88 10000 1.54 160 20:25 01.05.2021
4460 Clouds 24 1012 94 10000 1.03 190 19:52 01.05.2021
4461 Clouds 25 1012 88 10000 2.06 200 19:30 01.05.2021
4462 Clouds 25 1012 88 10000 2.06 220 18:50 01.05.2021
4463 Clouds 25 1012 83 10000 1.54 230 18:24 01.05.2021
4464 Clouds 26 1013 83 10000 2.57 220 17:46 01.05.2021
4465 Clouds 26 1013 83 10000 2.57 220 17:27 01.05.2021
4466 Clear 26 1013 83 10000 2.06 240 16:45 01.05.2021
4467 Clear 25 1013 88 10000 1.54 250 16:25 01.05.2021
4468 Clear 25 1013 88 10000 1.54 250 15:25 01.05.2021
4469 Clear 26 1013 78 10000 1.03 10 14:20 01.05.2021
4470 Clear 26 1013 78 10000 1.03 10 14:20 01.05.2021
4471 Clear 26 1013 73 10000 2.06 10 13:27 01.05.2021
4472 Clear 26 1012 69 10000 2.57 330 12:57 01.05.2021
4473 Clear 26 1012 69 10000 2.57 330 12:57 01.05.2021
4474 Clear 27 1012 69 10000 1.03 360 12:27 01.05.2021
4475 Clouds 27 1011 61 10000 1.54 70 11:58 01.05.2021
4476 Clear 28 1011 48 10000 2.06 90 11:40 01.05.2021
4477 Clear 29 1011 48 10000 2.06 90 11:21 01.05.2021
4478 Clear 31 1011 37 10000 3.6 100 10:42 01.05.2021
4479 Clear 32 1010 37 10000 3.6 110 09:52 01.05.2021
4480 Clear 32 1010 35 10000 3.6 120 09:26 01.05.2021
4481 Clear 32 1010 35 10000 3.09 90 08:44 01.05.2021
4482 Clear 32 1011 35 10000 3.6 110 07:41 01.05.2021
4483 Clear 32 1012 33 10000 5.66 100 06:40 01.05.2021
4484 Clouds 30 1014 45 10000 5.14 100 04:37 01.05.2021
4485 Clear 23 1014 68 10000 3.09 130 00:38 01.05.2021
4486 Clear 23 1014 68 10000 3.09 130 00:19 01.05.2021
4487 Clouds 22 1013 68 10000 2.57 120 23:25 30.04.2021
4488 Clear 22 1013 88 10000 1.54 140 22:38 30.04.2021
4489 Clouds 22 1013 94 10000 1.54 130 22:19 30.04.2021
4490 Clouds 22 1013 94 10000 1.54 130 21:45 30.04.2021
4491 Clear 23 1012 88 10000 2.06 150 21:23 30.04.2021
4492 Clear 23 1012 94 10000 1.54 160 20:45 30.04.2021
4493 Clouds 24 1012 88 10000 2.57 160 19:59 30.04.2021
4494 Clouds 24 1012 83 10000 2.57 170 19:39 30.04.2021
4495 Clouds 24 1012 83 10000 2.57 160 18:47 30.04.2021
4496 Clouds 24 1013 94 10000 2.06 170 18:27 30.04.2021
4497 Clouds 24 1013 83 10000 1.54 170 17:53 30.04.2021
4498 Clouds 24 1013 83 10000 2.06 180 17:28 30.04.2021
4499 Clouds 24 1013 83 10000 2.06 180 17:28 30.04.2021
4500 Clear 23 1012 88 10000 1.54 130 16:53 30.04.2021
4501 Clear 24 1012 88 10000 1.03 70 16:31 30.04.2021
4502 Clear 25 1012 88 10000 1.03 70 15:42 30.04.2021
4503 Clear 24 1012 88 10000 1.03 70 15:21 30.04.2021
4504 Clear 25 1012 88 10000 1.03 70 14:50 30.04.2021
4505 Clear 26 1012 78 10000 1.54 70 14:28 30.04.2021
4506 Clear 26 1012 78 10000 2.06 70 13:55 30.04.2021
4507 Clear 26 1012 74 10000 2.57 60 13:36 30.04.2021
4508 Clear 27 1012 74 10000 2.57 50 12:47 30.04.2021
4509 Clear 27 1011 69 10000 3.09 40 12:29 30.04.2021
4510 Clear 28 1011 58 10000 2.06 70 11:46 30.04.2021
4511 Clouds 29 1010 51 10000 2.57 70 11:22 30.04.2021
4512 Clouds 31 1010 45 10000 3.09 80 10:47 30.04.2021
4513 Clear 31 1010 40 10000 4.12 90 10:27 30.04.2021
4514 Clear 32 1010 37 10000 6.17 90 09:37 30.04.2021
4515 Clear 32 1010 37 10000 6.17 90 09:37 30.04.2021
4516 Clear 32 1010 37 10000 4.63 140 08:57 30.04.2021
4517 Clear 33 1010 33 10000 4.12 100 08:26 30.04.2021
4518 Clear 32 1011 37 10000 4.12 110 07:35 30.04.2021
4519 Clear 32 1011 45 10000 4.12 80 06:54 30.04.2021
4520 Clear 32 1011 40 10000 5.14 110 06:26 30.04.2021
4521 Clear 31 1012 48 10000 4.63 100 05:42 30.04.2021
4522 Clouds 30 1014 48 10000 5.66 80 02:58 30.04.2021
4523 Clouds 28 1014 74 10000 3.09 100 01:46 30.04.2021
4524 Clouds 25 1013 83 10000 1.03 140 00:39 30.04.2021
4525 Clouds 24 1012 88 10000 1.54 150 23:29 29.04.2021
4526 Clouds 24 1012 83 10000 1.54 130 22:45 29.04.2021
4527 Clouds 24 1012 88 10000 1.03 130 22:25 29.04.2021
4528 Clouds 24 1012 88 10000 2.06 130 21:54 29.04.2021
4529 Clouds 24 1012 83 10000 2.57 140 21:36 29.04.2021
4530 Clouds 24 1012 83 10000 2.57 140 21:18 29.04.2021
4531 Clouds 24 1012 94 10000 1.03 170 20:41 29.04.2021
4532 Clouds 24 1012 94 10000 1.03 170 20:23 29.04.2021
4533 Clouds 25 1012 83 10000 2.57 170 19:43 29.04.2021
4534 Clouds 25 1012 83 10000 2.57 170 19:21 29.04.2021
4535 Clouds 25 1012 83 10000 2.06 150 18:44 29.04.2021
4536 Clouds 25 1012 83 10000 2.57 160 18:23 29.04.2021
4537 Clouds 25 1012 83 10000 1.54 170 17:46 29.04.2021
4538 Clouds 25 1012 83 10000 1.03 150 17:20 29.04.2021
4539 Clear 26 1012 83 10000 3.32 55 16:47 29.04.2021
4540 Rain 26 1012 78 10000 3.57 42 16:25 29.04.2021
4541 Clear 27 1012 74 10000 1.54 100 15:53 29.04.2021
4542 Clear 27 1012 74 10000 2.06 100 15:27 29.04.2021
4543 Clouds 27 1013 65 10000 4.12 170 14:47 29.04.2021
4544 Clouds 27 1013 65 10000 4.12 170 14:25 29.04.2021
4545 Clear 26 1012 78 10000 1.54 60 13:46 29.04.2021
4546 Clear 27 1012 78 10000 2.57 40 13:24 29.04.2021
4547 Clear 27 1012 78 10000 2.57 50 12:45 29.04.2021
4548 Clear 27 1011 74 10000 2.57 50 12:27 29.04.2021
4549 Clouds 28 1010 69 10000 3.09 40 11:48 29.04.2021
4550 Clouds 28 1010 70 10000 4.12 40 11:26 29.04.2021
4551 Clouds 29 1010 70 10000 4.12 50 10:52 29.04.2021
4552 Clouds 29 1010 65 10000 4.63 60 10:31 29.04.2021
4553 Clouds 30 1010 62 10000 5.14 60 09:46 29.04.2021
4554 Clouds 30 1010 62 10000 4.63 50 09:27 29.04.2021
4555 Clouds 30 1010 66 10000 4.63 50 08:52 29.04.2021
4556 Clouds 31 1010 62 10000 5.66 40 08:32 29.04.2021
4557 Clouds 31 1010 58 10000 5.66 40 07:48 29.04.2021
4558 Clouds 32 1011 55 10000 5.66 50 06:59 29.04.2021
4559 Clouds 31 1012 58 10000 5.66 60 05:32 29.04.2021
4560 Clear 26 1012 83 10000 3.6 90 00:54 29.04.2021
4561 Clear 25 1012 88 10000 3.09 100 23:49 28.04.2021
4562 Clear 25 1012 88 10000 3.09 100 23:49 28.04.2021
4563 Clear 25 1011 88 10000 3.6 110 23:19 28.04.2021
4564 Clear 24 1011 88 10000 3.09 120 22:37 28.04.2021
4565 Clear 25 1011 88 10000 3.09 120 22:19 28.04.2021
4566 Clouds 24 1011 100 10000 2.06 130 21:38 28.04.2021
4567 Clouds 24 1011 100 10000 2.06 130 21:20 28.04.2021
4568 Clouds 25 1011 94 10000 2.57 130 20:42 28.04.2021
4569 Clouds 25 1011 94 10000 2.57 130 20:24 28.04.2021
4570 Clouds 25 1011 94 10000 3.6 120 19:47 28.04.2021
4571 Clouds 25 1012 94 10000 3.6 110 19:25 28.04.2021
4572 Clouds 25 1012 94 10000 3.09 90 18:51 28.04.2021
4573 Clouds 25 1012 94 10000 2.57 80 18:30 28.04.2021
4574 Clouds 25 1012 89 10000 3.6 90 17:49 28.04.2021
4575 Clouds 25 1012 89 10000 3.6 90 17:26 28.04.2021
4576 Clouds 26 1012 89 10000 4.12 90 16:45 28.04.2021
4577 Clouds 26 1012 89 10000 3.6 70 16:18 28.04.2021
4578 Clouds 26 1013 94 10000 3.6 70 15:46 28.04.2021
4579 Clouds 26 1013 94 10000 3.09 110 14:57 28.04.2021
4580 Clouds 25 1012 100 10000 2.57 70 14:39 28.04.2021
4581 Clouds 25 1012 100 10000 2.57 70 14:19 28.04.2021
4582 Clouds 25 1012 94 8000 2.06 70 13:36 28.04.2021
4583 Clouds 27 1012 89 10000 2.57 80 12:57 28.04.2021
4584 Clouds 27 1011 89 10000 1.54 100 12:39 28.04.2021
4585 Clouds 27 1011 89 10000 1.03 110 11:56 28.04.2021
4586 Clouds 27 1011 89 10000 0.51 10 11:32 28.04.2021
4587 Clouds 27 1010 89 10000 1.03 90 10:56 28.04.2021
4588 Clouds 27 1010 83 10000 2.2 51 10:37 28.04.2021
4589 Clouds 27 1010 83 10000 1.84 45 10:19 28.04.2021
4590 Clouds 27 1010 83 10000 0.51 320 09:40 28.04.2021
4591 Clouds 27 1010 83 10000 0.51 320 09:21 28.04.2021
4592 Clouds 26 1010 94 10000 2.06 40 08:43 28.04.2021
4593 Clouds 28 1011 89 1400 5.14 30 07:30 28.04.2021
4594 Clouds 32 1010 55 10000 3.09 80 06:36 28.04.2021
4595 Clouds 31 1011 62 10000 3.6 90 05:25 28.04.2021
4596 Clouds 29 1013 74 10000 4.63 100 02:40 28.04.2021
4597 Clouds 27 1013 78 10000 4.63 130 01:24 28.04.2021
4598 Clear 25 1012 88 10000 2.06 130 23:58 27.04.2021
4599 Clear 24 1012 88 10000 2.06 140 23:40 27.04.2021
4600 Clouds 24 1011 88 10000 2.57 140 22:52 27.04.2021
4601 Clouds 24 1011 88 10000 2.57 140 22:33 27.04.2021
4602 Clouds 25 1011 94 10000 3.09 150 21:57 27.04.2021
4603 Clouds 25 1011 83 10000 2.06 160 21:39 27.04.2021
4604 Clouds 25 1011 83 10000 2.06 160 21:18 27.04.2021
4605 Clouds 25 1012 89 10000 2.06 150 20:43 27.04.2021
4606 Clouds 25 1012 89 10000 2.06 150 20:19 27.04.2021
4607 Clouds 25 1012 94 10000 1.54 160 19:41 27.04.2021
4608 Clouds 25 1012 94 10000 1.54 160 19:21 27.04.2021
4609 Clouds 25 1012 94 10000 1.03 150 18:46 27.04.2021
4610 Clouds 25 1012 94 10000 1.54 170 18:28 27.04.2021
4611 Clouds 25 1012 94 10000 1.03 120 17:42 27.04.2021
4612 Clouds 25 1012 94 10000 1.03 120 17:24 27.04.2021
4613 Clouds 25 1012 94 10000 1.03 130 16:43 27.04.2021
4614 Clouds 25 1012 94 10000 1.03 130 16:43 27.04.2021
4615 Clouds 25 1012 94 10000 1.03 130 16:43 27.04.2021
4616 Clouds 25 1012 94 10000 1.54 150 16:23 27.04.2021
4617 Clouds 25 1012 94 10000 2.57 140 15:44 27.04.2021
4618 Clear 25 1012 89 10000 1.03 120 15:22 27.04.2021
4619 Clear 25 1012 89 10000 1.03 140 14:50 27.04.2021
4620 Clear 25 1012 89 10000 1.03 110 14:28 27.04.2021
4621 Clear 26 1013 89 10000 2.06 100 13:57 27.04.2021
4622 Clouds 26 1012 89 10000 2.57 80 13:32 27.04.2021
4623 Clouds 26 1012 89 10000 2.06 110 12:44 27.04.2021
4624 Clouds 26 1011 89 10000 3.09 140 11:59 27.04.2021
4625 Clouds 25 1011 94 10000 2.57 180 11:32 27.04.2021
4626 Clouds 26 1010 83 10000 3.09 140 10:58 27.04.2021
4627 Clouds 25 1010 88 10000 3.6 130 10:32 27.04.2021
4628 Clouds 26 1010 83 8000 6.69 110 09:56 27.04.2021
4629 Clouds 29 1009 83 5000 7.2 80 08:58 27.04.2021
4630 Clouds 32 1009 58 10000 5.66 40 08:38 27.04.2021
4631 Clouds 32 1009 55 10000 4.12 90 07:50 27.04.2021
4632 Clouds 32 1009 55 10000 4.12 90 07:28 27.04.2021
4633 Clouds 31 1010 58 10000 4.63 70 06:38 27.04.2021
4634 Clouds 32 1011 55 10000 5.14 90 05:34 27.04.2021
4635 Clouds 32 1011 55 10000 5.14 90 05:34 27.04.2021
4636 Clouds 32 1011 55 10000 5.14 90 05:34 27.04.2021
4637 Clouds 29 1013 70 10000 3.6 90 02:36 27.04.2021
4638 Clouds 25 1013 88 10000 1.03 60 00:30 27.04.2021
4639 Clear 25 1012 88 10000 1.54 90 23:50 26.04.2021
4640 Clear 24 1012 88 10000 3.02 101 23:22 26.04.2021
4641 Clear 25 1012 88 10000 1.03 90 22:53 26.04.2021
4642 Clear 25 1011 88 10000 1.03 90 22:30 26.04.2021
4643 Clouds 25 1011 88 10000 2.06 100 21:44 26.04.2021
4644 Clouds 25 1011 88 10000 2.57 90 21:23 26.04.2021
4645 Clouds 25 1011 88 10000 2.57 100 20:54 26.04.2021
4646 Clouds 25 1011 83 10000 3.09 110 20:35 26.04.2021
4647 Clouds 25 1010 83 10000 1.03 90 19:52 26.04.2021
4648 Clouds 25 1011 78 10000 1.54 90 19:34 26.04.2021
4649 Clouds 25 1011 78 10000 2.06 110 18:48 26.04.2021
4650 Clouds 26 1011 78 10000 2.57 140 18:30 26.04.2021
4651 Clouds 25 1011 78 10000 2.06 130 17:52 26.04.2021
4652 Clouds 26 1012 78 10000 2.57 160 17:32 26.04.2021
4653 Clouds 25 1012 78 10000 2.57 140 16:50 26.04.2021
4654 Clouds 25 1012 78 10000 2.57 140 16:30 26.04.2021
4655 Clouds 25 1012 78 10000 2.57 140 16:30 26.04.2021
4656 Clouds 26 1012 74 10000 3.09 150 15:58 26.04.2021
4657 Clouds 26 1012 69 10000 3.6 130 15:39 26.04.2021
4658 Clouds 27 1012 69 10000 3.6 130 15:20 26.04.2021
4659 Clouds 27 1013 65 10000 4.12 130 14:44 26.04.2021
4660 Clouds 27 1013 65 10000 3.09 110 14:24 26.04.2021
4661 Clouds 28 1012 65 10000 1.54 30 13:44 26.04.2021
4662 Clouds 28 1012 65 10000 1.54 30 13:23 26.04.2021
4663 Clouds 28 1011 61 10000 2.57 20 12:24 26.04.2021
4664 Clouds 29 1010 54 10000 3.09 350 11:39 26.04.2021
4665 Clouds 31 1010 51 10000 2.57 350 10:58 26.04.2021
4666 Clouds 31 1009 51 10000 3.09 350 10:36 26.04.2021
4667 Clouds 31 1009 51 10000 3.09 350 10:18 26.04.2021
4668 Clouds 33 1009 46 10000 4.12 320 09:46 26.04.2021
4669 Clouds 33 1009 46 10000 4.12 320 09:21 26.04.2021
4670 Clouds 33 1009 43 10000 4.63 320 08:37 26.04.2021
4671 Clouds 32 1009 43 10000 4.63 320 08:18 26.04.2021
4672 Clouds 33 1009 43 10000 5.14 310 07:49 26.04.2021
4673 Clear 33 1009 46 10000 2.57 80 06:56 26.04.2021
4674 Clear 32 1010 45 10000 2.57 70 06:20 26.04.2021
4675 Clear 32 1011 43 10000 4.63 90 04:40 26.04.2021
4676 Clear 31 1012 45 10000 4.63 100 03:45 26.04.2021
4677 Clear 27 1012 51 10000 2.57 150 01:52 26.04.2021
4678 Clear 23 1011 61 10000 3.09 160 00:48 26.04.2021
4679 Clouds 23 1011 69 10000 3.09 170 00:21 26.04.2021
4680 Clear 23 1011 73 10000 1.54 170 23:42 25.04.2021
4681 Clear 22 1011 73 10000 1.54 170 23:24 25.04.2021
4682 Clear 23 1010 69 10000 2.57 190 22:40 25.04.2021
4683 Clear 23 1010 69 10000 2.57 190 22:19 25.04.2021
4684 Clouds 22 1010 69 10000 2.57 190 21:43 25.04.2021
4685 Clouds 23 1010 65 10000 2.57 190 21:25 25.04.2021
4686 Clouds 23 1010 65 10000 3.09 200 20:51 25.04.2021
4687 Clouds 23 1010 65 10000 2.06 200 20:28 25.04.2021
4688 Clouds 24 1011 61 10000 2.06 230 19:52 25.04.2021
4689 Clouds 23 1011 65 10000 2.06 240 19:28 25.04.2021
4690 Clouds 25 1011 61 10000 2.57 240 18:58 25.04.2021
4691 Clouds 25 1011 61 10000 2.57 250 18:39 25.04.2021
4692 Clouds 25 1011 61 10000 2.57 250 18:21 25.04.2021
4693 Clouds 26 1012 57 10000 1.54 230 17:42 25.04.2021
4694 Clouds 26 1012 57 10000 1.54 230 17:21 25.04.2021
4695 Clear 26 1012 54 10000 2.06 250 16:44 25.04.2021
4696 Clear 25 1012 54 10000 2.06 260 16:24 25.04.2021
4697 Clear 26 1012 54 10000 2.57 280 15:42 25.04.2021
4698 Clear 26 1012 54 10000 2.57 280 15:20 25.04.2021
4699 Clear 26 1012 50 10000 2.57 270 14:23 25.04.2021
4700 Clear 26 1012 54 10000 2.57 270 13:56 25.04.2021
4701 Clear 26 1011 54 10000 2.57 270 13:24 25.04.2021
4702 Clear 26 1011 50 10000 2.57 280 12:51 25.04.2021
4703 Clear 27 1011 47 10000 2.06 290 12:33 25.04.2021
4704 Clear 27 1010 42 10000 2.06 300 11:59 25.04.2021
4705 Clear 28 1010 37 10000 2.57 320 11:34 25.04.2021
4706 Clear 30 1010 35 10000 2.57 330 10:52 25.04.2021
4707 Clear 30 1009 30 10000 3.6 310 10:22 25.04.2021
4708 Clear 31 1009 30 10000 3.6 330 09:48 25.04.2021
4709 Clear 33 1009 27 10000 3.09 320 09:26 25.04.2021
4710 Clear 33 1009 27 10000 3.09 320 09:26 25.04.2021
4711 Clear 32 1009 22 10000 3.6 190 08:30 25.04.2021
4712 Clear 32 1009 22 10000 3.6 190 08:30 25.04.2021
4713 Clear 32 1009 22 10000 3.6 50 07:48 25.04.2021
4714 Clear 32 1009 22 10000 3.6 80 07:21 25.04.2021
4715 Clear 32 1010 20 10000 2.06 90 06:51 25.04.2021
4716 Clear 32 1011 19 10000 3.09 130 05:29 25.04.2021
4717 Clear 31 1012 25 10000 2.57 160 04:42 25.04.2021
4718 Clear 26 1013 34 10000 3.09 150 01:47 25.04.2021
4719 Clear 25 1013 31 10000 2.57 130 01:25 25.04.2021
4720 Clear 22 1012 31 10000 3.09 120 00:27 25.04.2021
4721 Clear 20 1012 30 10000 3.09 120 23:49 24.04.2021
4722 Clear 22 1012 35 10000 2.06 130 23:26 24.04.2021
4723 Clear 20 1011 46 10000 3.6 150 22:46 24.04.2021
4724 Clouds 19 1011 63 10000 1.54 160 21:56 24.04.2021
4725 Clouds 21 1011 52 10000 1.54 170 21:29 24.04.2021
4726 Clouds 21 1011 49 10000 2.06 150 20:57 24.04.2021
4727 Clouds 20 1011 56 10000 1.54 160 20:36 24.04.2021
4728 Clouds 21 1011 56 10000 1.54 160 20:18 24.04.2021
4729 Clouds 22 1011 49 10000 2.57 160 19:39 24.04.2021
4730 Clouds 22 1011 49 10000 2.57 160 19:19 24.04.2021
4731 Clouds 23 1012 43 10000 3.09 140 18:41 24.04.2021
4732 Clouds 23 1012 43 10000 3.09 140 18:20 24.04.2021
4733 Clouds 24 1012 41 10000 3.09 140 17:31 24.04.2021
4734 Clear 24 1012 46 10000 3.09 150 16:53 24.04.2021
4735 Clear 25 1012 44 10000 2.57 150 16:34 24.04.2021
4736 Clear 25 1011 44 10000 3.09 160 15:44 24.04.2021
4737 Clear 25 1011 38 10000 2.57 160 15:25 24.04.2021
4738 Clear 26 1011 36 10000 3.09 160 14:34 24.04.2021
4739 Clear 26 1011 36 10000 3.09 160 14:34 24.04.2021
4740 Rain 26 1011 36 10000 3.6 160 13:56 24.04.2021
4741 Clear 25 1011 41 10000 2.57 150 13:37 24.04.2021
4742 Clear 27 1010 32 10000 2.57 140 12:43 24.04.2021
4743 Clear 27 1010 32 10000 2.57 140 12:18 24.04.2021
4744 Clear 27 1010 30 10000 2.57 130 11:47 24.04.2021
4745 Clear 29 1010 25 10000 3.6 140 11:18 24.04.2021
4746 Clear 31 1010 22 10000 4.12 130 10:43 24.04.2021
4747 Clear 32 1009 17 10000 6.17 130 09:57 24.04.2021
4748 Clear 33 1009 18 10000 6.17 130 09:32 24.04.2021
4749 Clear 33 1010 19 10000 6.17 140 07:57 24.04.2021
4750 Clear 33 1010 17 10000 6.69 160 07:27 24.04.2021
4751 Clear 32 1012 20 10000 6.69 140 05:21 24.04.2021
4752 Clear 26 1013 57 10000 4.63 150 01:34 24.04.2021
4753 Clear 23 1012 60 10000 2.57 160 23:48 23.04.2021
4754 Clear 24 1011 64 10000 3.6 140 22:48 23.04.2021
4755 Clear 23 1011 68 10000 2.06 150 22:21 23.04.2021
4756 Clouds 23 1011 78 10000 4.29 120 21:49 23.04.2021
4757 Clouds 24 1010 69 10000 1.03 110 21:28 23.04.2021
4758 Clouds 24 1010 65 10000 2.57 120 20:43 23.04.2021
4759 Clouds 25 1010 65 10000 2.57 120 20:22 23.04.2021
4760 Clouds 25 1011 73 10000 2.57 130 19:56 23.04.2021
4761 Clouds 25 1011 83 10000 2.57 120 19:35 23.04.2021
4762 Clouds 26 1011 94 10000 2.06 140 18:59 23.04.2021
4763 Clouds 26 1011 89 10000 2.06 170 18:37 23.04.2021
4764 Clouds 27 1012 83 10000 2.06 200 17:59 23.04.2021
4765 Clouds 27 1012 83 10000 2.06 210 17:39 23.04.2021
4766 Clouds 27 1012 83 10000 2.06 210 17:20 23.04.2021
4767 Clouds 27 1012 83 10000 2.06 220 16:46 23.04.2021
4768 Clouds 28 1012 83 10000 2.06 210 16:25 23.04.2021
4769 Clouds 28 1011 79 10000 1.54 240 15:41 23.04.2021
4770 Clouds 27 1011 78 10000 1.54 290 14:51 23.04.2021
4771 Clouds 28 1010 74 10000 1.54 330 13:42 23.04.2021
4772 Clouds 28 1010 74 10000 1.54 330 13:23 23.04.2021
4773 Clouds 28 1010 74 10000 1.54 350 12:34 23.04.2021
4774 Clouds 29 1009 70 10000 2.06 350 11:55 23.04.2021
4775 Clouds 30 1009 58 10000 2.57 20 11:35 23.04.2021
4776 Clouds 31 1009 48 10000 2.57 90 10:54 23.04.2021
4777 Clouds 31 1009 48 10000 2.57 90 10:54 23.04.2021
4778 Clouds 33 1008 46 10000 3.6 80 10:35 23.04.2021
4779 Clouds 33 1008 43 10000 3.09 120 09:55 23.04.2021
4780 Clouds 33 1008 43 10000 3.09 80 09:28 23.04.2021
4781 Clear 33 1007 43 10000 5.14 80 08:45 23.04.2021
4782 Clear 33 1008 43 10000 5.14 100 07:50 23.04.2021
4783 Clouds 34 1008 43 10000 4.63 100 07:20 23.04.2021
4784 Clouds 33 1010 51 10000 5.14 90 05:37 23.04.2021
4785 Clouds 31 1011 51 10000 5.66 70 03:45 23.04.2021
4786 Clouds 30 1012 74 10000 4.12 90 02:48 23.04.2021
4787 Clear 26 1010 89 10000 3.09 70 00:21 23.04.2021
4788 Clear 26 1009 89 10000 4.12 50 23:21 22.04.2021
4789 Clouds 26 1009 83 10000 2.57 80 22:39 22.04.2021
4790 Clouds 26 1009 83 10000 2.57 80 22:19 22.04.2021
4791 Clouds 26 1009 78 10000 2.57 140 21:43 22.04.2021
4792 Clouds 26 1009 78 10000 2.57 140 21:24 22.04.2021
4793 Clouds 26 1009 78 10000 2.06 150 20:54 22.04.2021
4794 Clouds 26 1009 78 10000 1.54 170 20:29 22.04.2021
4795 Clouds 26 1009 78 10000 1.54 170 19:54 22.04.2021
4796 Clouds 27 1009 83 10000 1.54 150 19:33 22.04.2021
4797 Clouds 27 1009 83 10000 2.57 180 18:49 22.04.2021
4798 Clouds 27 1009 83 10000 2.06 180 18:21 22.04.2021
4799 Clouds 27 1010 83 10000 3.09 190 17:52 22.04.2021
4800 Clouds 28 1010 83 10000 2.06 190 17:21 22.04.2021
4801 Clear 28 1010 78 10000 1.54 240 16:50 22.04.2021
4802 Clear 28 1010 74 10000 2.06 240 16:29 22.04.2021
4803 Clear 28 1010 74 10000 2.06 250 15:55 22.04.2021
4804 Clear 28 1010 74 10000 2.06 240 15:35 22.04.2021
4805 Clear 28 1010 74 10000 2.57 250 14:54 22.04.2021
4806 Clear 28 1010 74 10000 2.06 250 14:33 22.04.2021
4807 Clear 29 1010 74 10000 2.06 260 13:58 22.04.2021
4808 Clouds 29 1010 74 10000 2.06 260 13:38 22.04.2021
4809 Clouds 29 1010 74 10000 2.06 260 13:19 22.04.2021
4810 Clear 29 1009 74 10000 2.57 270 12:44 22.04.2021
4811 Clear 29 1009 70 10000 3.09 270 12:20 22.04.2021
4812 Clouds 30 1009 70 10000 3.09 280 11:45 22.04.2021
4813 Clouds 30 1008 70 10000 4.12 290 11:22 22.04.2021
4814 Clouds 31 1008 58 10000 4.63 300 10:44 22.04.2021
4815 Clouds 31 1007 58 10000 5.14 300 10:22 22.04.2021
4816 Clouds 33 1007 55 10000 4.63 300 09:44 22.04.2021
4817 Clouds 34 1007 52 10000 5.66 300 09:19 22.04.2021
4818 Clear 34 1007 49 10000 5.14 300 08:38 22.04.2021
4819 Clear 35 1007 43 10000 5.14 300 08:18 22.04.2021
4820 Clear 35 1008 36 10000 4.63 310 07:40 22.04.2021
4821 Clear 35 1008 36 10000 4.63 310 07:20 22.04.2021
4822 Clear 35 1008 31 10000 3.09 70 06:27 22.04.2021
4823 Clear 35 1008 31 10000 3.09 70 06:27 22.04.2021
4824 Clouds 35 1009 33 10000 2.57 180 05:26 22.04.2021
4825 Clouds 33 1010 35 10000 2.57 180 04:29 22.04.2021
4826 Clear 27 1010 83 10000 2.57 200 00:55 22.04.2021
4827 Clear 26 1010 89 10000 1.54 220 23:47 21.04.2021
4828 Clear 26 1009 89 10000 2.06 230 23:26 21.04.2021
4829 Clear 26 1009 89 10000 1.54 230 22:42 21.04.2021
4830 Clear 26 1009 89 10000 1.54 230 22:24 21.04.2021
4831 Clouds 26 1009 89 10000 1.54 230 21:49 21.04.2021
4832 Clouds 26 1009 78 10000 2.06 230 21:24 21.04.2021
4833 Clouds 26 1009 89 10000 1.54 220 20:58 21.04.2021
4834 Clouds 26 1009 83 10000 2.06 230 20:21 21.04.2021
4835 Clouds 26 1009 83 10000 2.06 240 19:43 21.04.2021
4836 Clouds 27 1009 83 10000 2.06 230 19:24 21.04.2021
4837 Clouds 27 1009 78 10000 2.57 230 18:46 21.04.2021
4838 Clouds 27 1010 78 10000 3.6 220 18:27 21.04.2021
4839 Clouds 27 1010 78 10000 2.57 230 17:48 21.04.2021
4840 Clouds 27 1011 78 10000 2.57 220 17:25 21.04.2021
4841 Clouds 27 1011 78 10000 2.57 220 17:25 21.04.2021
4842 Clear 27 1011 78 10000 2.57 230 16:55 21.04.2021
4843 Clear 28 1011 78 10000 2.06 240 15:59 21.04.2021
4844 Clear 28 1011 78 10000 2.06 230 15:41 21.04.2021
4845 Clear 28 1012 70 10000 2.06 230 14:58 21.04.2021
4846 Clear 28 1012 70 10000 2.06 240 14:40 21.04.2021
4847 Clear 28 1012 70 10000 2.06 240 14:18 21.04.2021
4848 Clouds 28 1011 70 10000 2.06 250 13:40 21.04.2021
4849 Clouds 28 1011 70 10000 2.06 250 13:21 21.04.2021
4850 Clouds 28 1010 65 10000 2.06 280 12:31 21.04.2021
4851 Clouds 29 1010 65 10000 2.06 280 11:50 21.04.2021
4852 Clouds 29 1010 58 10000 3.6 270 11:30 21.04.2021
4853 Clouds 30 1010 62 10000 3.6 290 10:52 21.04.2021
4854 Clouds 31 1009 58 10000 3.6 290 10:34 21.04.2021
4855 Clouds 32 1009 55 10000 4.12 290 09:51 21.04.2021
4856 Clouds 32 1009 58 10000 4.63 290 09:19 21.04.2021
4857 Clouds 32 1008 55 10000 6.17 300 08:40 21.04.2021
4858 Clouds 33 1008 55 10000 6.17 300 08:20 21.04.2021
4859 Clouds 33 1009 51 10000 4.63 320 07:31 21.04.2021
4860 Clouds 33 1009 49 10000 4.63 310 06:57 21.04.2021
4861 Clouds 33 1009 49 10000 4.63 310 06:57 21.04.2021
4862 Clouds 34 1011 43 10000 2.06 250 05:22 21.04.2021
4863 Clear 28 1012 74 10000 2.57 230 01:32 21.04.2021
4864 Clear 25 1011 83 10000 1.54 210 23:51 20.04.2021
4865 Clear 25 1010 78 10000 1.54 200 23:31 20.04.2021
4866 Clear 26 1010 78 10000 1.54 230 22:41 20.04.2021
4867 Clear 26 1010 78 10000 1.54 230 22:22 20.04.2021
4868 Clouds 25 1010 78 10000 1.54 230 21:47 20.04.2021
4869 Clouds 25 1010 78 10000 2.06 210 21:26 20.04.2021
4870 Clouds 25 1009 83 10000 1.54 210 20:45 20.04.2021
4871 Clouds 26 1009 83 10000 2.06 220 20:24 20.04.2021
4872 Clouds 26 1009 83 10000 2.06 200 19:57 20.04.2021
4873 Clouds 26 1010 83 10000 2.06 220 19:39 20.04.2021
4874 Clouds 25 1010 83 10000 2.06 220 19:21 20.04.2021
4875 Clouds 26 1010 74 10000 2.57 210 18:36 20.04.2021
4876 Clouds 27 1010 74 10000 2.06 260 17:55 20.04.2021
4877 Clouds 26 1010 74 10000 2.06 240 17:37 20.04.2021
4878 Clear 26 1011 74 10000 1.54 240 16:50 20.04.2021
4879 Clear 26 1011 83 10000 1.54 260 15:53 20.04.2021
4880 Clear 26 1011 83 10000 1.54 280 15:29 20.04.2021
4881 Clear 27 1011 74 10000 2.06 280 14:58 20.04.2021
4882 Clear 27 1010 74 10000 1.54 290 14:35 20.04.2021
4883 Rain 27 1010 74 10000 1.03 280 13:53 20.04.2021
4884 Clouds 26 1010 69 10000 1.54 290 13:24 20.04.2021
4885 Clouds 27 1010 65 10000 1.54 290 12:44 20.04.2021
4886 Clouds 27 1009 58 10000 1.54 290 12:22 20.04.2021
4887 Clouds 29 1009 58 10000 1.54 260 11:45 20.04.2021
4888 Clouds 29 1009 51 10000 2.06 290 11:22 20.04.2021
4889 Clear 31 1008 51 10000 2.57 340 10:44 20.04.2021
4890 Clear 31 1008 51 10000 2.57 340 10:23 20.04.2021
4891 Clear 32 1008 45 10000 3.09 310 09:40 20.04.2021
4892 Clouds 32 1008 45 10000 2.57 330 08:56 20.04.2021
4893 Clouds 33 1008 45 10000 3.09 340 08:25 20.04.2021
4894 Clouds 32 1008 43 10000 3.6 350 07:49 20.04.2021
4895 Clouds 33 1009 35 10000 4.63 350 06:49 20.04.2021
4896 Clouds 33 1010 35 10000 3.6 350 05:40 20.04.2021
4897 Clouds 32 1011 37 10000 2.06 320 04:42 20.04.2021
4898 Clear 26 1010 69 10000 2.57 150 01:57 20.04.2021
4899 Clear 23 1010 88 10000 2.98 168 00:38 20.04.2021
4900 Clear 23 1009 88 10000 3.23 179 23:38 19.04.2021
4901 Clear 23 1009 88 10000 1.54 210 22:58 19.04.2021
4902 Clear 23 1008 83 10000 1.54 210 22:36 19.04.2021
4903 Clouds 23 1008 88 10000 1.54 220 21:51 19.04.2021
4904 Clouds 24 1008 88 10000 1.54 230 21:33 19.04.2021
4905 Clouds 23 1008 88 10000 1.03 230 20:56 19.04.2021
4906 Clouds 23 1008 88 10000 1.03 210 20:38 19.04.2021
4907 Clouds 24 1008 88 10000 1.03 210 20:19 19.04.2021
4908 Clouds 24 1009 83 10000 1.03 220 19:41 19.04.2021
4909 Clouds 24 1009 83 10000 1.03 220 19:23 19.04.2021
4910 Clouds 24 1009 83 10000 1.03 220 18:47 19.04.2021
4911 Clouds 24 1009 83 10000 1.03 220 18:47 19.04.2021
4912 Clouds 25 1009 78 10000 2.06 230 18:22 19.04.2021
4913 Clouds 25 1009 78 10000 1.54 230 17:54 19.04.2021
4914 Clouds 26 1009 69 10000 1.54 230 17:29 19.04.2021
4915 Clear 26 1010 65 10000 1.54 240 16:57 19.04.2021
4916 Clouds 27 1010 65 10000 2.06 250 16:38 19.04.2021
4917 Clouds 27 1010 65 10000 2.06 250 16:20 19.04.2021
4918 Clear 27 1010 61 10000 2.06 240 15:33 19.04.2021
4919 Clear 27 1010 61 10000 1.54 250 14:56 19.04.2021
4920 Clear 28 1010 57 10000 2.57 260 14:37 19.04.2021
4921 Clear 28 1010 57 10000 2.57 260 14:18 19.04.2021
4922 Clouds 26 1010 65 10000 2.06 290 13:36 19.04.2021
4923 Clouds 27 1010 65 10000 2.06 290 13:18 19.04.2021
4924 Clouds 28 1009 58 10000 1.54 300 12:40 19.04.2021
4925 Clouds 29 1009 58 10000 1.54 300 12:20 19.04.2021
4926 Clouds 29 1009 58 10000 2.06 350 11:52 19.04.2021
4927 Clear 29 1009 54 10000 2.57 330 11:21 19.04.2021
4928 Clear 31 1008 51 10000 3.09 340 10:45 19.04.2021
4929 Clear 31 1008 48 10000 3.6 330 10:20 19.04.2021
4930 Clear 32 1008 43 10000 4.63 350 09:48 19.04.2021
4931 Clear 33 1008 31 10000 2.57 340 09:27 19.04.2021
4932 Clear 33 1007 33 10000 3.09 80 08:54 19.04.2021
4933 Clear 33 1007 31 10000 3.6 80 08:24 19.04.2021
4934 Clear 33 1007 33 10000 4.63 80 07:45 19.04.2021
4935 Clouds 33 1008 31 10000 5.14 80 07:18 19.04.2021
4936 Clear 32 1009 31 10000 4.63 110 05:43 19.04.2021
4937 Clear 28 1011 42 10000 3.6 150 02:34 19.04.2021
4938 Clear 24 1010 50 10000 3.09 130 00:45 19.04.2021
4939 Clear 23 1009 53 10000 2.57 140 23:38 18.04.2021
4940 Clear 22 1009 53 10000 2.57 140 23:18 18.04.2021
4941 Clear 22 1009 56 10000 2.57 150 22:43 18.04.2021
4942 Clear 22 1009 64 10000 2.57 170 22:23 18.04.2021
4943 Clouds 22 1009 60 10000 3.09 160 21:29 18.04.2021
4944 Clouds 23 1009 64 10000 2.57 160 20:56 18.04.2021
4945 Clouds 23 1009 60 10000 2.57 170 20:37 18.04.2021
4946 Clouds 23 1009 60 10000 2.57 170 20:19 18.04.2021
4947 Clouds 23 1009 68 10000 2.57 170 19:44 18.04.2021
4948 Clouds 23 1009 64 10000 2.57 180 19:21 18.04.2021
4949 Clouds 23 1010 64 10000 3.09 170 18:46 18.04.2021
4950 Clouds 24 1010 61 10000 2.06 170 18:27 18.04.2021
4951 Clouds 24 1010 61 10000 3.09 170 17:50 18.04.2021
4952 Clouds 24 1011 61 10000 2.57 170 17:30 18.04.2021
4953 Clear 25 1011 57 10000 2.06 170 16:54 18.04.2021
4954 Clear 25 1011 57 10000 1.54 170 16:35 18.04.2021
4955 Clear 24 1011 61 10000 2.06 170 15:51 18.04.2021
4956 Rain 24 1011 61 10000 2.06 170 15:30 18.04.2021
4957 Clear 24 1011 65 10000 1.54 160 14:58 18.04.2021
4958 Clear 24 1011 69 10000 1.03 160 14:39 18.04.2021
4959 Clear 24 1011 69 10000 1.03 160 14:18 18.04.2021
4960 Clear 25 1011 57 10000 1.54 120 13:44 18.04.2021
4961 Clear 25 1011 57 10000 1.54 120 13:26 18.04.2021
4962 Clear 25 1010 54 10000 2.06 110 12:35 18.04.2021
4963 Clear 28 1009 37 10000 2.06 100 11:52 18.04.2021
4964 Clear 29 1009 37 10000 2.06 100 11:27 18.04.2021
4965 Clear 30 1009 30 10000 3.6 110 10:54 18.04.2021
4966 Clear 31 1009 27 10000 3.6 120 10:35 18.04.2021
4967 Clear 32 1008 27 10000 4.63 130 09:58 18.04.2021
4968 Clear 32 1008 25 10000 4.63 110 09:39 18.04.2021
4969 Clear 33 1008 25 10000 4.63 110 09:19 18.04.2021
4970 Clear 32 1008 25 10000 4.63 130 08:41 18.04.2021
4971 Clear 32 1008 25 10000 4.63 130 08:19 18.04.2021
4972 Clear 32 1009 27 10000 6.69 140 07:39 18.04.2021
4973 Clear 32 1010 27 10000 5.14 130 05:56 18.04.2021
4974 Clear 31 1011 29 10000 5.14 150 05:26 18.04.2021
4975 Clear 30 1012 30 10000 5.66 140 04:30 18.04.2021
4976 Clear 28 1012 36 10000 7.72 130 02:23 18.04.2021
4977 Clear 24 1011 53 10000 4.12 150 00:41 18.04.2021
4978 Clear 22 1011 56 10000 3.6 150 23:52 17.04.2021
4979 Clear 23 1010 56 10000 3.6 150 23:22 17.04.2021
4980 Clear 23 1010 56 10000 3.09 160 22:43 17.04.2021
4981 Clear 23 1010 53 10000 3.09 150 22:21 17.04.2021
4982 Clouds 24 1010 50 10000 3.09 150 21:41 17.04.2021
4983 Clouds 24 1010 50 10000 3.09 150 21:21 17.04.2021
4984 Clouds 24 1010 47 10000 4.63 140 20:29 17.04.2021
4985 Clouds 25 1010 50 10000 4.63 140 19:46 17.04.2021
4986 Clouds 25 1010 50 10000 4.63 140 19:46 17.04.2021
4987 Clouds 25 1010 53 10000 4.12 150 19:23 17.04.2021
4988 Clouds 25 1010 53 10000 3.6 140 18:59 17.04.2021
4989 Clouds 26 1011 57 10000 3.6 140 18:40 17.04.2021
4990 Clouds 26 1011 57 10000 3.6 140 18:20 17.04.2021
4991 Clouds 26 1011 53 10000 3.6 150 17:41 17.04.2021
4992 Clear 27 1011 54 10000 3.6 150 16:56 17.04.2021
4993 Clear 27 1011 54 10000 2.57 150 16:29 17.04.2021
4994 Clear 27 1011 54 10000 2.57 150 16:29 17.04.2021
4995 Clear 28 1011 51 10000 3.09 150 15:56 17.04.2021
4996 Clear 28 1011 65 10000 1.54 170 14:51 17.04.2021
4997 Clear 29 1011 74 10000 2.06 230 14:33 17.04.2021
4998 Clear 29 1011 74 10000 2.57 240 13:50 17.04.2021
4999 Clear 29 1011 74 10000 2.57 250 13:27 17.04.2021
5000 Clear 29 1010 74 10000 1.54 270 12:42 17.04.2021
5001 Clear 29 1010 74 10000 1.54 270 12:21 17.04.2021
5002 Clouds 29 1009 70 10000 2.57 290 11:50 17.04.2021
5003 Clouds 29 1009 70 10000 2.57 290 11:30 17.04.2021
5004 Clouds 30 1009 66 10000 2.57 340 10:46 17.04.2021
5005 Clouds 30 1009 66 10000 2.57 340 10:27 17.04.2021
5006 Clouds 31 1008 62 10000 3.6 350 09:44 17.04.2021
5007 Clouds 32 1008 58 10000 3.09 330 08:41 17.04.2021
5008 Clouds 31 1008 58 10000 3.09 330 08:22 17.04.2021
5009 Clouds 32 1009 58 10000 2.57 300 06:58 17.04.2021
5010 Clouds 31 1012 66 10000 1.54 280 03:55 17.04.2021
5011 Clouds 32 1013 58 10000 0.51 220 03:37 17.04.2021
5012 Clouds 28 1012 78 10000 2.06 20 00:49 17.04.2021
5013 Clouds 27 1012 89 10000 1.03 40 00:28 17.04.2021
5014 Clouds 25 1012 94 10000 1.03 50 23:48 16.04.2021
5015 Clouds 25 1012 94 10000 1.03 50 23:48 16.04.2021
5016 Clouds 25 1011 89 10000 1.03 10 23:25 16.04.2021
5017 Clouds 26 1011 94 10000 2.06 20 22:46 16.04.2021
5018 Clouds 26 1011 94 10000 2.06 20 22:21 16.04.2021
5019 Clouds 26 1011 94 10000 1.03 10 21:51 16.04.2021
5020 Clouds 26 1011 94 10000 0.54 91 21:30 16.04.2021
5021 Clouds 26 1011 94 10000 0.54 91 21:30 16.04.2021
5022 Clouds 26 1011 94 10000 0.89 187 20:50 16.04.2021
5023 Clouds 26 1011 94 10000 0.51 360 20:24 16.04.2021
5024 Clouds 26 1011 94 10000 1.03 360 19:52 16.04.2021
5025 Clouds 26 1011 89 10000 1.03 260 19:29 16.04.2021
5026 Clouds 26 1012 89 10000 2.51 154 18:40 16.04.2021
5027 Clouds 27 1012 89 10000 1.04 136 18:19 16.04.2021
5028 Clouds 27 1012 83 10000 1.54 230 17:37 16.04.2021
5029 Clouds 28 1012 83 10000 1.54 230 17:18 16.04.2021
5030 Clouds 27 1012 78 10000 2.57 210 16:42 16.04.2021
5031 Clouds 28 1012 78 10000 2.57 210 16:23 16.04.2021
5032 Clouds 28 1012 78 10000 2.06 230 15:44 16.04.2021
5033 Clouds 28 1012 78 10000 1.54 240 15:18 16.04.2021
5034 Clear 28 1012 78 10000 2.06 260 14:42 16.04.2021
5035 Clear 28 1012 78 10000 2.06 260 14:18 16.04.2021
5036 Clear 28 1011 78 10000 2.57 270 13:42 16.04.2021
5037 Clear 28 1011 78 10000 2.57 270 13:20 16.04.2021
5038 Clear 29 1011 74 10000 2.57 260 12:47 16.04.2021
5039 Clouds 29 1011 74 10000 2.57 260 12:27 16.04.2021
5040 Clouds 29 1011 74 10000 2.57 260 12:27 16.04.2021
5041 Clouds 29 1010 74 10000 3.09 280 11:49 16.04.2021
5042 Clouds 29 1010 74 10000 2.57 290 11:26 16.04.2021
5043 Clouds 30 1010 70 10000 3.6 310 10:48 16.04.2021
5044 Clouds 31 1009 66 10000 4.12 300 10:26 16.04.2021
5045 Clouds 31 1009 62 10000 4.12 330 09:52 16.04.2021
5046 Clouds 31 1009 66 10000 3.6 340 09:24 16.04.2021
5047 Clouds 32 1009 62 10000 4.12 350 08:46 16.04.2021
5048 Clouds 32 1009 62 10000 4.12 350 08:28 16.04.2021
5049 Clouds 32 1009 62 10000 3.6 340 07:53 16.04.2021
5050 Clouds 32 1009 62 10000 3.6 310 07:34 16.04.2021
5051 Clouds 32 1010 62 10000 3.6 320 06:56 16.04.2021
5052 Clouds 32 1011 55 10000 2.57 250 05:33 16.04.2021
5053 Clouds 31 1012 62 10000 2.57 100 04:19 16.04.2021
5054 Clouds 25 1012 83 10000 2.06 130 00:54 16.04.2021
5055 Clouds 25 1012 88 10000 1.54 140 00:36 16.04.2021
5056 Clouds 25 1012 88 10000 1.54 140 00:18 16.04.2021
5057 Clouds 25 1011 83 10000 2.06 140 23:36 15.04.2021
5058 Clear 24 1011 88 10000 2.06 120 22:53 15.04.2021
5059 Clouds 25 1010 88 10000 1.54 130 22:33 15.04.2021
5060 Clouds 24 1011 94 10000 2.57 60 21:59 15.04.2021
5061 Clouds 24 1011 88 10000 2.57 110 21:40 15.04.2021
5062 Clouds 24 1011 88 10000 2.57 110 21:19 15.04.2021
5063 Clouds 24 1011 94 9000 8.23 60 20:40 15.04.2021
5064 Clouds 24 1011 94 9000 8.23 60 20:21 15.04.2021
5065 Clouds 26 1011 83 10000 7.72 70 19:43 15.04.2021
5066 Clouds 27 1010 83 10000 1.54 150 19:24 15.04.2021
5067 Clouds 26 1011 83 10000 1.54 150 18:42 15.04.2021
5068 Clouds 26 1011 83 10000 1.54 150 18:20 15.04.2021
5069 Clouds 26 1011 83 10000 2.06 170 17:54 15.04.2021
5070 Clouds 26 1011 89 10000 2.31 92 17:36 15.04.2021
5071 Clouds 26 1011 83 10000 0.51 360 16:57 15.04.2021
5072 Clear 26 1011 83 10000 1.03 350 16:39 15.04.2021
5073 Clear 26 1011 83 10000 1.03 350 16:20 15.04.2021
5074 Clear 27 1011 83 10000 1.03 330 15:44 15.04.2021
5075 Clear 27 1011 74 10000 1.03 260 15:25 15.04.2021
5076 Clear 28 1011 74 10000 1.03 360 14:40 15.04.2021
5077 Clear 28 1011 74 10000 1.03 360 14:22 15.04.2021
5078 Clouds 28 1010 70 10000 2.06 30 13:42 15.04.2021
5079 Clouds 29 1010 70 10000 2.06 30 13:18 15.04.2021
5080 Clouds 29 1009 65 10000 3.09 20 12:40 15.04.2021
5081 Clouds 29 1009 65 10000 3.09 20 12:20 15.04.2021
5082 Clouds 29 1009 65 10000 3.6 30 11:45 15.04.2021
5083 Clouds 29 1009 58 10000 3.6 30 11:23 15.04.2021
5084 Clouds 30 1009 58 10000 4.63 30 10:49 15.04.2021
5085 Clouds 30 1008 55 10000 4.12 50 10:27 15.04.2021
5086 Clouds 31 1008 51 10000 4.63 50 09:48 15.04.2021
5087 Clouds 32 1008 48 10000 5.14 60 09:23 15.04.2021
5088 Clouds 32 1008 51 10000 3.09 80 08:47 15.04.2021
5089 Clouds 32 1008 51 10000 3.09 80 07:53 15.04.2021
5090 Clouds 32 1008 48 10000 2.57 100 07:24 15.04.2021
5091 Clouds 32 1009 48 10000 3.09 90 06:40 15.04.2021
5092 Clouds 32 1009 48 10000 3.09 90 06:21 15.04.2021
5093 Clouds 32 1011 55 10000 3.6 70 04:51 15.04.2021
5094 Clouds 25 1012 89 10000 2.57 70 01:24 15.04.2021
5095 Clouds 24 1010 88 10000 1.54 70 23:42 14.04.2021
5096 Clouds 24 1010 88 10000 1.54 70 23:22 14.04.2021
5097 Clear 24 1010 88 10000 1.03 70 22:46 14.04.2021
5098 Clouds 25 1010 88 10000 1.03 90 22:25 14.04.2021
5099 Clouds 24 1010 88 10000 1.54 80 21:49 14.04.2021
5100 Clouds 24 1010 88 10000 1.03 80 21:31 14.04.2021
5101 Clouds 24 1009 88 10000 1.54 80 20:56 14.04.2021
5102 Clouds 25 1009 94 10000 1.54 50 20:34 14.04.2021
5103 Clouds 25 1009 94 10000 1.54 50 20:34 14.04.2021
5104 Clouds 25 1009 88 10000 1.7 94 19:54 14.04.2021
5105 Clouds 24 1009 88 10000 1.03 270 19:21 14.04.2021
5106 Clouds 25 1010 94 10000 1.03 300 18:57 14.04.2021
5107 Clouds 25 1010 94 10000 1.54 310 18:22 14.04.2021
5108 Clouds 25 1010 94 10000 1.03 320 17:59 14.04.2021
5109 Clouds 26 1010 89 10000 1.54 310 17:28 14.04.2021
5110 Clear 25 1010 89 10000 1.54 330 16:54 14.04.2021
5111 Clear 26 1010 89 10000 1.54 360 16:28 14.04.2021
5112 Clear 26 1010 89 10000 1.54 20 15:47 14.04.2021
5113 Clear 26 1011 89 10000 1.54 40 15:27 14.04.2021
5114 Clear 26 1011 83 10000 1.03 10 14:56 14.04.2021
5115 Clouds 26 1010 83 10000 1.54 360 14:37 14.04.2021
5116 Clouds 27 1010 83 10000 1.54 360 14:18 14.04.2021
5117 Clear 27 1010 78 10000 1.54 360 13:44 14.04.2021
5118 Clouds 28 1009 70 10000 2.06 360 12:41 14.04.2021
5119 Rain 28 1009 70 10000 2.06 360 12:18 14.04.2021
5120 Clouds 29 1009 66 10000 2.57 350 11:39 14.04.2021
5121 Clouds 29 1009 66 10000 2.57 350 11:39 14.04.2021
5122 Clouds 29 1009 66 10000 2.57 350 11:19 14.04.2021
5123 Clouds 30 1008 58 10000 4.12 340 10:33 14.04.2021
5124 Clouds 32 1007 58 10000 5.14 350 09:43 14.04.2021
5125 Clouds 32 1007 58 10000 5.14 350 09:23 14.04.2021
5126 Clouds 33 1008 52 10000 5.14 10 08:48 14.04.2021
5127 Clouds 33 1008 55 10000 3.6 110 08:23 14.04.2021
5128 Clouds 34 1008 26 10000 3.6 160 07:27 14.04.2021
5129 Clouds 33 1009 31 10000 3.09 130 06:27 14.04.2021
5130 Clouds 34 1010 27 10000 3.09 150 05:24 14.04.2021
5131 Clouds 29 1012 74 10000 2.57 190 02:24 14.04.2021
5132 Clouds 27 1012 89 10000 1.54 210 00:50 14.04.2021
5133 Clouds 26 1011 94 10000 0.51 210 00:27 14.04.2021
5134 Clouds 25 1011 94 10000 1.54 250 23:31 13.04.2021
5135 Clouds 25 1010 100 10000 1.54 270 22:44 13.04.2021
5136 Clouds 25 1010 94 10000 0.51 320 22:20 13.04.2021
5137 Clouds 25 1010 100 10000 0.51 110 21:48 13.04.2021
5138 Clouds 26 1010 94 10000 0.51 130 21:30 13.04.2021
5139 Clouds 25 1010 94 10000 1.25 182 20:48 13.04.2021
5140 Clouds 25 1010 89 10000 1.34 192 20:24 13.04.2021
5141 Clouds 25 1010 89 10000 1.03 40 19:58 13.04.2021
5142 Clouds 26 1010 89 10000 1.03 350 19:25 13.04.2021
5143 Clouds 26 1010 89 10000 1.54 300 18:49 13.04.2021
5144 Clouds 26 1010 83 10000 2.57 260 18:30 13.04.2021
5145 Clouds 26 1010 83 10000 2.57 260 18:30 13.04.2021
5146 Clouds 26 1010 83 10000 2.57 260 18:30 13.04.2021
5147 Clouds 26 1010 89 10000 1.54 330 17:40 13.04.2021
5148 Clouds 26 1010 89 10000 1.54 330 17:19 13.04.2021
5149 Clear 26 1010 89 10000 1.54 330 16:45 13.04.2021
5150 Clear 26 1011 89 10000 1.54 340 16:26 13.04.2021
5151 Clear 26 1011 89 10000 1.54 340 16:26 13.04.2021
5152 Clouds 26 1011 89 10000 1.54 340 15:55 13.04.2021
5153 Clouds 27 1011 83 10000 0.51 290 15:36 13.04.2021
5154 Clouds 26 1011 83 10000 1.03 310 14:54 13.04.2021
5155 Clouds 27 1011 83 10000 1.03 340 14:24 13.04.2021
5156 Clouds 27 1011 78 10000 1.03 290 13:53 13.04.2021
5157 Clear 28 1010 70 10000 1.03 310 13:27 13.04.2021
5158 Clouds 28 1010 65 10000 1.54 300 12:59 13.04.2021
5159 Clouds 28 1010 70 10000 2.06 320 12:41 13.04.2021
5160 Clouds 28 1010 70 10000 2.06 320 12:22 13.04.2021
5161 Clouds 29 1009 66 10000 2.57 330 11:36 13.04.2021
5162 Clouds 30 1009 66 10000 3.09 350 10:57 13.04.2021
5163 Clouds 31 1008 62 10000 3.6 340 10:39 13.04.2021
5164 Clouds 31 1008 62 10000 3.6 340 10:18 13.04.2021
5165 Clouds 32 1008 62 10000 4.12 340 09:42 13.04.2021
5166 Clouds 33 1008 62 10000 4.12 340 09:18 13.04.2021
5167 Clouds 33 1008 62 10000 4.12 340 09:18 13.04.2021
5168 Clouds 33 1008 58 10000 3.6 330 08:42 13.04.2021
5169 Clouds 33 1009 58 10000 3.6 350 08:21 13.04.2021
5170 Clouds 33 1009 58 10000 3.6 350 08:21 13.04.2021
5171 Clouds 33 1009 58 10000 3.09 320 07:36 13.04.2021
5172 Clouds 33 1010 58 10000 3.09 300 06:59 13.04.2021
5173 Clouds 32 1010 62 10000 2.57 320 06:18 13.04.2021
5174 Clouds 31 1013 58 10000 2.57 50 02:52 13.04.2021
5175 Clouds 29 1012 74 10000 2.57 170 01:28 13.04.2021
5176 Clouds 26 1012 94 10000 1.54 200 23:49 12.04.2021
5177 Clouds 26 1011 94 10000 0.51 190 23:29 12.04.2021
5178 Clouds 26 1011 94 10000 2.36 123 22:43 12.04.2021
5179 Clouds 26 1011 94 10000 1.03 240 22:25 12.04.2021
5180 Clouds 26 1010 94 10000 1.63 142 21:47 12.04.2021
5181 Clouds 26 1010 94 10000 1.03 10 21:23 12.04.2021
5182 Clouds 26 1010 94 10000 1.54 210 20:45 12.04.2021
5183 Clouds 26 1010 94 10000 2.06 220 20:26 12.04.2021
5184 Clouds 26 1010 94 10000 0.51 190 19:58 12.04.2021
5185 Clouds 27 1011 94 10000 1.03 210 19:38 12.04.2021
5186 Clouds 26 1011 94 10000 1.03 210 19:19 12.04.2021
5187 Clouds 26 1011 94 10000 1.03 200 18:46 12.04.2021
5188 Clouds 27 1011 89 10000 1.03 230 18:27 12.04.2021
5189 Clouds 28 1011 83 10000 1.54 240 17:45 12.04.2021
5190 Clouds 28 1011 83 10000 2.06 220 17:24 12.04.2021
5191 Clear 27 1011 83 10000 1.54 250 16:49 12.04.2021
5192 Clear 28 1011 83 10000 1.54 240 16:28 12.04.2021
5193 Clear 27 1011 83 10000 2.06 250 15:54 12.04.2021
5194 Clear 28 1011 78 10000 2.06 240 15:33 12.04.2021
5195 Clouds 28 1011 78 10000 2.06 270 14:55 12.04.2021
5196 Clouds 28 1011 74 10000 2.06 270 14:36 12.04.2021
5197 Clouds 29 1011 74 10000 2.57 260 13:53 12.04.2021
5198 Clouds 28 1010 74 10000 2.06 270 13:31 12.04.2021
5199 Clouds 29 1010 74 10000 2.06 270 12:56 12.04.2021
5200 Clouds 29 1009 70 10000 3.09 270 12:36 12.04.2021
5201 Clouds 29 1009 70 10000 3.09 270 12:18 12.04.2021
5202 Clouds 30 1009 62 10000 3.6 320 11:25 12.04.2021
5203 Clouds 30 1008 58 10000 3.6 320 10:49 12.04.2021
5204 Clouds 31 1008 58 10000 3.6 320 10:27 12.04.2021
5205 Clouds 32 1008 55 10000 4.12 310 09:51 12.04.2021
5206 Clouds 33 1008 55 10000 3.09 340 09:23 12.04.2021
5207 Clouds 33 1008 55 10000 3.09 300 08:40 12.04.2021
5208 Clouds 33 1009 58 10000 3.6 310 07:42 12.04.2021
5209 Clouds 33 1009 58 10000 3.6 310 07:22 12.04.2021
5210 Clouds 33 1010 52 10000 2.06 350 06:27 12.04.2021
5211 Clouds 32 1011 55 10000 3.09 260 05:42 12.04.2021
5212 Clouds 28 1012 78 10000 2.57 40 01:40 12.04.2021
5213 Clouds 26 1012 78 10000 3.6 70 00:26 12.04.2021
5214 Clouds 26 1011 89 10000 3.6 30 23:49 11.04.2021
5215 Clouds 26 1011 89 10000 3.6 30 23:31 11.04.2021
5216 Clouds 26 1010 83 10000 3.6 10 22:48 11.04.2021
5217 Clouds 26 1010 83 10000 3.6 10 22:26 11.04.2021
5218 Clouds 26 1010 83 10000 3.09 360 21:52 11.04.2021
5219 Clouds 27 1010 89 10000 2.06 350 21:31 11.04.2021
5220 Clouds 27 1010 94 10000 2.06 310 20:59 11.04.2021
5221 Clouds 27 1010 89 10000 1.03 310 20:39 11.04.2021
5222 Clouds 28 1010 89 10000 1.03 310 20:20 11.04.2021
5223 Clouds 27 1009 89 10000 3.09 280 19:40 11.04.2021
5224 Clouds 27 1009 89 10000 3.09 280 19:19 11.04.2021
5225 Clouds 28 1010 89 10000 2.06 280 18:47 11.04.2021
5226 Clouds 27 1010 89 10000 2.06 280 18:26 11.04.2021
5227 Clouds 27 1011 89 10000 1.54 280 17:50 11.04.2021
5228 Clouds 28 1011 89 10000 2.06 270 17:30 11.04.2021
5229 Clouds 28 1011 89 10000 2.06 270 17:30 11.04.2021
5230 Clouds 28 1011 89 10000 2.57 260 16:59 11.04.2021
5231 Clouds 28 1011 89 10000 2.06 280 16:40 11.04.2021
5232 Clouds 28 1011 89 10000 2.06 280 16:20 11.04.2021
5233 Clouds 29 1011 84 10000 3.09 270 15:42 11.04.2021
5234 Clouds 29 1011 84 10000 3.09 270 15:22 11.04.2021
5235 Clouds 29 1010 84 10000 3.09 270 14:49 11.04.2021
5236 Clouds 28 1010 84 10000 3.09 270 14:19 11.04.2021
5237 Clouds 27 1009 78 10000 2.57 290 13:40 11.04.2021
5238 Clouds 28 1009 78 10000 2.57 290 13:22 11.04.2021
5239 Clouds 28 1009 65 10000 1.54 230 12:26 11.04.2021
5240 Clouds 29 1009 65 10000 2.06 250 11:56 11.04.2021
5241 Clouds 29 1008 74 10000 3.09 260 11:38 11.04.2021
5242 Clouds 29 1008 74 10000 3.09 260 11:19 11.04.2021
5243 Clouds 31 1008 70 10000 5.14 300 10:40 11.04.2021
5244 Clouds 31 1008 70 10000 5.14 300 10:20 11.04.2021
5245 Clouds 32 1008 70 10000 5.14 290 09:43 11.04.2021
5246 Clouds 32 1008 70 10000 5.14 290 09:43 11.04.2021
5247 Clouds 32 1008 66 10000 6.17 300 09:25 11.04.2021
5248 Clouds 32 1007 70 10000 5.66 290 08:39 11.04.2021
5249 Clouds 34 1008 62 10000 5.66 310 07:41 11.04.2021
5250 Clouds 34 1008 62 10000 5.66 310 07:19 11.04.2021
5251 Clouds 33 1009 62 10000 4.12 300 05:47 11.04.2021
5252 Clouds 34 1010 66 10000 3.09 310 05:23 11.04.2021
5253 Clouds 33 1011 70 10000 3.09 330 04:36 11.04.2021
5254 Clouds 31 1011 66 10000 1.54 280 03:35 11.04.2021
5255 Rain 28 1010 94 10000 1.23 184 00:55 11.04.2021
5256 Rain 27 1010 100 10000 1.54 70 00:32 11.04.2021
5257 Rain 24 1010 94 8000 0.68 225 23:45 10.04.2021
5258 Clear 24 1010 100 10000 1.14 296 22:55 10.04.2021
5259 Clear 24 1009 100 10000 0.87 328 22:28 10.04.2021
5260 Clouds 24 1009 100 9000 0.87 328 21:54 10.04.2021
5261 Clouds 24 1009 94 10000 0.79 354 21:25 10.04.2021
5262 Clouds 24 1009 94 10000 0.79 354 20:57 10.04.2021
5263 Clouds 24 1009 94 10000 1.03 80 20:36 10.04.2021
5264 Clouds 25 1009 94 10000 1.03 80 20:18 10.04.2021
5265 Clouds 25 1009 94 10000 0.51 90 19:42 10.04.2021
5266 Clouds 25 1009 94 10000 0.51 90 19:24 10.04.2021
5267 Clouds 25 1009 94 10000 1.03 30 18:42 10.04.2021
5268 Clouds 25 1009 94 10000 1.03 30 18:23 10.04.2021
5269 Clouds 25 1010 94 10000 1.54 350 17:35 10.04.2021
5270 Clear 25 1010 94 10000 0.61 41 16:43 10.04.2021
5271 Clear 25 1010 94 10000 0.61 311 16:24 10.04.2021
5272 Rain 25 1010 89 10000 0.61 311 15:48 10.04.2021
5273 Clear 26 1010 89 10000 1.03 350 14:55 10.04.2021
5274 Rain 26 1010 78 10000 1.54 350 14:34 10.04.2021
5275 Rain 27 1010 83 10000 0.51 170 13:58 10.04.2021
5276 Rain 27 1009 78 10000 2.06 180 13:36 10.04.2021
5277 Clear 27 1009 78 10000 3.09 200 12:43 10.04.2021
5278 Clouds 27 1009 74 10000 2.06 190 12:20 10.04.2021
5279 Clouds 27 1008 74 10000 1.03 260 11:46 10.04.2021
5280 Clouds 28 1008 74 10000 3.6 240 11:23 10.04.2021
5281 Clouds 29 1008 70 10000 3.6 290 10:51 10.04.2021
5282 Clouds 30 1008 70 10000 3.6 290 10:31 10.04.2021
5283 Clouds 30 1007 70 10000 3.09 300 09:45 10.04.2021
5284 Clouds 30 1007 74 10000 3.09 350 09:19 10.04.2021
5285 Clouds 29 1007 79 10000 4.12 350 08:36 10.04.2021
5286 Clouds 29 1007 79 10000 4.12 350 08:18 10.04.2021
5287 Clouds 31 1007 66 10000 3.6 340 07:26 10.04.2021
5288 Clouds 31 1008 79 10000 5.66 330 06:42 10.04.2021
5289 Clouds 32 1009 62 10000 3.6 300 05:36 10.04.2021
5290 Clouds 33 1010 62 10000 3.09 200 03:46 10.04.2021
5291 Clouds 31 1010 84 10000 2.57 260 02:49 10.04.2021
5292 Clouds 29 1010 89 10000 2.57 250 01:43 10.04.2021
5293 Clear 28 1009 89 10000 1.54 250 00:37 10.04.2021
5294 Clear 26 1009 94 10000 1.03 220 23:58 09.04.2021
5295 Clear 26 1008 94 10000 1.54 260 23:36 09.04.2021
5296 Clear 26 1008 94 10000 1.54 270 22:57 09.04.2021
5297 Clear 26 1008 89 10000 2.06 270 22:37 09.04.2021
5298 Clouds 26 1008 94 10000 2.06 320 21:41 09.04.2021
5299 Clouds 26 1008 94 10000 2.06 320 21:22 09.04.2021
5300 Clouds 26 1008 89 10000 2.06 290 20:59 09.04.2021
5301 Clouds 25 1008 94 10000 2.06 320 20:40 09.04.2021
5302 Clouds 25 1008 94 10000 2.06 320 20:21 09.04.2021
5303 Clouds 25 1008 83 10000 2.06 260 19:43 09.04.2021
5304 Clouds 24 1008 94 10000 2.35 257 19:23 09.04.2021
5305 Clouds 25 1008 89 10000 1.54 280 18:44 09.04.2021
5306 Clouds 25 1009 88 10000 2.06 300 18:25 09.04.2021
5307 Clouds 25 1009 88 10000 1.54 310 17:52 09.04.2021
5308 Clouds 24 1009 94 10000 0.51 80 17:33 09.04.2021
5309 Clouds 24 1010 94 10000 2.57 10 16:55 09.04.2021
5310 Clouds 25 1010 94 8000 4.63 50 16:32 09.04.2021
5311 Clouds 26 1010 88 4000 8.75 100 15:50 09.04.2021
5312 Clouds 28 1010 89 10000 2.06 190 15:25 09.04.2021
5313 Clouds 28 1009 89 10000 2.06 270 14:47 09.04.2021
5314 Clouds 28 1009 89 10000 2.06 270 14:29 09.04.2021
5315 Clouds 28 1008 89 10000 2.57 290 13:49 09.04.2021
5316 Clouds 28 1008 89 10000 2.57 290 13:23 09.04.2021
5317 Clouds 29 1007 79 10000 4.63 280 12:48 09.04.2021
5318 Clouds 29 1007 79 10000 4.63 280 12:48 09.04.2021
5319 Clouds 29 1007 79 10000 4.63 280 12:27 09.04.2021
5320 Clouds 29 1007 79 10000 4.63 280 11:44 09.04.2021
5321 Clouds 29 1007 79 10000 4.63 280 11:21 09.04.2021
5322 Clouds 30 1006 79 10000 5.66 290 10:40 09.04.2021
5323 Clouds 30 1006 79 10000 5.66 290 10:18 09.04.2021
5324 Clouds 31 1006 70 10000 5.14 290 09:29 09.04.2021
5325 Clouds 31 1007 66 10000 5.14 300 08:56 09.04.2021
5326 Clouds 31 1007 66 10000 5.14 300 08:37 09.04.2021
5327 Clouds 30 1007 66 10000 5.66 310 07:35 09.04.2021
5328 Clouds 32 1008 62 10000 5.66 300 06:33 09.04.2021
5329 Clouds 31 1008 62 10000 5.14 310 05:45 09.04.2021
5330 Clouds 32 1010 62 10000 3.09 330 03:48 09.04.2021
5331 Clouds 24 1009 88 10000 2.06 50 00:40 09.04.2021
5332 Clouds 24 1009 88 10000 2.06 50 00:21 09.04.2021
5333 Clouds 24 1009 83 10000 3.6 70 23:57 08.04.2021
5334 Clouds 26 1008 83 10000 3.09 320 22:58 08.04.2021
5335 Clouds 25 1008 83 10000 2.57 330 22:38 08.04.2021
5336 Clouds 25 1008 83 10000 2.57 330 22:20 08.04.2021
5337 Clouds 25 1008 83 10000 3.6 340 21:54 08.04.2021
5338 Clouds 25 1008 83 10000 3.6 340 21:54 08.04.2021
5339 Clouds 24 1007 83 10000 4.12 330 21:36 08.04.2021
5340 Clouds 24 1007 83 10000 4.12 330 21:18 08.04.2021
5341 Clouds 24 1008 94 10000 5.14 30 20:42 08.04.2021
5342 Clouds 24 1008 94 10000 5.14 30 20:20 08.04.2021
5343 Clouds 25 1008 94 4600 8.75 70 19:42 08.04.2021
5344 Clouds 26 1008 89 10000 5.14 60 19:19 08.04.2021
5345 Clouds 28 1008 83 10000 1.03 340 18:44 08.04.2021
5346 Clouds 28 1008 83 10000 1.03 260 18:20 08.04.2021
5347 Clouds 28 1008 83 10000 3.09 270 17:48 08.04.2021
5348 Clouds 28 1008 79 10000 3.6 280 17:24 08.04.2021
5349 Clouds 29 1008 79 10000 4.12 270 16:46 08.04.2021
5350 Clouds 29 1008 79 10000 4.12 280 16:25 08.04.2021
5351 Clouds 29 1008 79 10000 4.12 290 15:47 08.04.2021
5352 Clouds 29 1008 79 10000 4.12 290 15:28 08.04.2021
5353 Clouds 29 1008 74 10000 3.6 290 14:45 08.04.2021
5354 Clouds 29 1008 79 10000 1.54 300 14:24 08.04.2021
5355 Clouds 29 1008 79 10000 2.57 270 13:56 08.04.2021
5356 Clouds 29 1007 79 10000 3.6 280 13:38 08.04.2021
5357 Clouds 29 1007 79 10000 3.6 280 13:19 08.04.2021
5358 Clouds 28 1006 74 10000 3.09 270 12:38 08.04.2021
5359 Clouds 29 1006 74 10000 3.6 280 11:59 08.04.2021
5360 Clouds 29 1006 74 10000 3.09 270 11:41 08.04.2021
5361 Clouds 29 1005 74 10000 3.6 280 10:57 08.04.2021
5362 Clouds 29 1005 79 10000 2.57 280 10:28 08.04.2021
5363 Clouds 29 1005 74 10000 2.57 250 09:51 08.04.2021
5364 Clouds 30 1004 66 10000 4.63 270 09:33 08.04.2021
5365 Clouds 30 1004 58 10000 3.6 260 08:45 08.04.2021
5366 Clouds 30 1005 65 10000 5.66 200 08:25 08.04.2021
5367 Clouds 31 1005 66 10000 4.12 280 07:53 08.04.2021
5368 Clouds 33 1005 52 10000 7.72 310 06:55 08.04.2021
5369 Clouds 31 1009 70 10000 3.09 260 02:34 08.04.2021
5370 Clouds 28 1008 83 10000 2.57 260 00:44 08.04.2021
5371 Clouds 27 1008 89 10000 2.57 270 23:56 07.04.2021
5372 Rain 26 1008 89 10000 2.57 270 23:37 07.04.2021
5373 Clouds 26 1008 89 10000 2.57 270 23:18 07.04.2021
5374 Rain 26 1007 89 10000 2.57 270 22:43 07.04.2021
5375 Rain 26 1007 89 10000 2.57 270 22:22 07.04.2021
5376 Rain 26 1007 89 10000 2.06 280 21:42 07.04.2021
5377 Rain 26 1007 89 10000 2.06 280 21:21 07.04.2021
5378 Clouds 26 1007 89 10000 1.03 250 20:42 07.04.2021
5379 Clouds 27 1007 89 10000 1.03 250 20:20 07.04.2021
5380 Clouds 27 1007 89 10000 2.06 250 19:42 07.04.2021
5381 Clouds 27 1007 89 10000 2.06 250 19:24 07.04.2021
5382 Clouds 27 1007 89 10000 2.06 260 18:47 07.04.2021
5383 Clouds 27 1007 83 10000 2.06 250 18:19 07.04.2021
5384 Clouds 28 1008 83 10000 2.57 260 17:53 07.04.2021
5385 Clouds 28 1008 83 10000 2.57 260 17:35 07.04.2021
5386 Clouds 28 1008 83 10000 2.57 270 16:49 07.04.2021
5387 Clouds 28 1008 83 10000 2.57 270 16:23 07.04.2021
5388 Clear 28 1009 83 10000 2.57 270 15:57 07.04.2021
5389 Clear 28 1009 83 10000 2.57 270 15:38 07.04.2021
5390 Clear 28 1009 83 10000 2.57 270 14:56 07.04.2021
5391 Clear 28 1009 83 10000 2.57 270 14:29 07.04.2021
5392 Clear 28 1008 83 10000 2.57 260 13:49 07.04.2021
5393 Clear 28 1008 83 10000 2.57 270 13:23 07.04.2021
5394 Clear 28 1008 74 10000 2.57 270 12:50 07.04.2021
5395 Clouds 29 1007 74 10000 3.09 270 12:24 07.04.2021
5396 Clouds 29 1007 74 10000 4.12 270 11:48 07.04.2021
5397 Clouds 30 1007 70 10000 4.12 270 11:25 07.04.2021
5398 Clouds 30 1007 70 10000 5.14 300 10:52 07.04.2021
5399 Clouds 31 1006 66 10000 5.14 290 10:19 07.04.2021
5400 Clouds 31 1006 66 10000 6.69 310 09:40 07.04.2021
5401 Clouds 31 1006 66 10000 6.69 310 09:21 07.04.2021
5402 Clouds 31 1007 62 10000 6.69 300 08:34 07.04.2021
5403 Clouds 33 1007 62 10000 6.17 300 07:59 07.04.2021
5404 Clouds 33 1007 58 10000 5.66 300 07:37 07.04.2021
5405 Clouds 33 1007 58 10000 5.66 300 07:19 07.04.2021
5406 Clouds 33 1008 62 10000 5.14 290 06:24 07.04.2021
5407 Clouds 33 1009 48 10000 2.06 300 04:23 07.04.2021
5408 Clouds 25 1010 89 10000 2.06 140 00:20 07.04.2021
5409 Clouds 25 1010 94 10000 2.06 120 23:46 06.04.2021
5410 Clouds 25 1010 94 10000 2.06 120 23:18 06.04.2021
5411 Clear 26 1009 89 10000 2.57 180 22:39 06.04.2021
5412 Clear 26 1009 89 10000 2.57 180 22:19 06.04.2021
5413 Clouds 25 1009 94 10000 2.05 96 21:40 06.04.2021
5414 Clouds 25 1009 94 10000 2.28 102 21:21 06.04.2021
5415 Clouds 26 1009 89 10000 1.03 190 20:53 06.04.2021
5416 Clouds 27 1009 83 10000 1.54 190 20:24 06.04.2021
5417 Clouds 27 1009 78 10000 1.54 210 19:52 06.04.2021
5418 Clouds 26 1009 89 10000 1.54 290 19:34 06.04.2021
5419 Clouds 26 1009 89 10000 1.54 320 18:52 06.04.2021
5420 Clouds 26 1009 89 10000 1.03 300 18:33 06.04.2021
5421 Rain 26 1010 89 10000 0.51 330 17:57 06.04.2021
5422 Clouds 26 1010 89 10000 2.02 335 17:38 06.04.2021
5423 Clouds 26 1010 89 10000 3.04 341 17:18 06.04.2021
5424 Clouds 26 1011 78 10000 3.04 341 16:41 06.04.2021
5425 Clear 26 1011 83 10000 3.27 353 15:49 06.04.2021
5426 Clear 26 1011 83 10000 0.51 350 15:24 06.04.2021
5427 Clear 27 1010 78 10000 1.54 360 14:40 06.04.2021
5428 Clear 27 1010 78 10000 1.54 360 14:21 06.04.2021
5429 Clear 28 1010 69 10000 2.57 330 13:46 06.04.2021
5430 Clear 28 1010 69 10000 2.57 330 13:25 06.04.2021
5431 Clear 28 1009 74 10000 3.6 340 12:43 06.04.2021
5432 Clear 28 1009 74 10000 3.6 340 12:24 06.04.2021
5433 Clear 28 1009 78 10000 4.63 340 11:54 06.04.2021
5434 Clear 28 1009 70 10000 4.63 340 11:36 06.04.2021
5435 Clear 29 1009 70 10000 4.63 340 11:18 06.04.2021
5436 Clouds 30 1008 55 10000 4.12 360 10:38 06.04.2021
5437 Clouds 31 1008 55 10000 3.09 350 10:19 06.04.2021
5438 Clouds 31 1008 55 10000 2.57 360 09:42 06.04.2021
5439 Clouds 31 1008 55 10000 2.57 20 08:50 06.04.2021
5440 Clouds 30 1008 58 10000 2.57 30 08:19 06.04.2021
5441 Clouds 31 1009 55 10000 3.09 40 06:57 06.04.2021
5442 Clouds 30 1009 62 10000 3.09 30 06:24 06.04.2021
5443 Clouds 30 1011 70 10000 1.54 20 03:54 06.04.2021
5444 Rain 28 1011 83 10000 2.06 40 00:48 06.04.2021
5445 Clouds 26 1011 94 10000 1.03 10 00:21 06.04.2021
5446 Clouds 26 1010 89 10000 1.03 30 23:50 05.04.2021
5447 Clouds 26 1010 89 10000 1.03 70 23:28 05.04.2021
5448 Clouds 26 1009 89 10000 1.03 20 22:53 05.04.2021
5449 Clouds 26 1009 89 10000 1.54 60 22:33 05.04.2021
5450 Clouds 26 1009 83 10000 2.06 40 21:47 05.04.2021
5451 Clouds 26 1009 89 10000 2.06 50 21:23 05.04.2021
5452 Clouds 26 1008 94 10000 1.54 40 20:49 05.04.2021
5453 Clouds 26 1009 94 10000 1.54 50 20:30 05.04.2021
5454 Clouds 26 1008 94 10000 1.54 20 19:45 05.04.2021
5455 Clouds 26 1008 94 10000 1.54 20 19:25 05.04.2021
5456 Clouds 26 1009 94 10000 1.03 360 18:58 05.04.2021
5457 Clouds 26 1009 94 10000 1.03 10 18:39 05.04.2021
5458 Rain 26 1009 94 10000 1.03 10 18:19 05.04.2021
5459 Rain 25 1009 100 10000 0.51 30 17:46 05.04.2021
5460 Rain 26 1009 94 10000 1.03 360 17:21 05.04.2021
5461 Clear 26 1009 89 10000 1.54 360 16:45 05.04.2021
5462 Clear 26 1010 89 10000 1.03 360 16:22 05.04.2021
5463 Clear 26 1010 89 10000 1.54 20 15:56 05.04.2021
5464 Clear 26 1010 89 10000 2.06 40 15:32 05.04.2021
5465 Clear 26 1010 89 10000 2.06 50 14:58 05.04.2021
5466 Rain 27 1010 83 10000 1.54 40 14:35 05.04.2021
5467 Clear 27 1009 78 10000 1.54 70 13:41 05.04.2021
5468 Rain 27 1009 78 10000 1.54 70 13:22 05.04.2021
5469 Clear 28 1009 74 10000 2.06 50 12:45 05.04.2021
5470 Clear 28 1008 69 10000 2.57 60 12:23 05.04.2021
5471 Clear 29 1008 58 10000 4.12 50 11:46 05.04.2021
5472 Clear 29 1008 58 10000 4.12 50 11:27 05.04.2021
5473 Clear 30 1007 54 10000 4.63 60 10:48 05.04.2021
5474 Clouds 31 1007 55 10000 5.14 60 10:29 05.04.2021
5475 Clouds 31 1007 55 10000 5.14 60 09:48 05.04.2021
5476 Clouds 31 1007 55 10000 5.66 70 09:26 05.04.2021
5477 Clouds 32 1007 51 10000 6.17 60 08:45 05.04.2021
5478 Clouds 32 1007 48 10000 5.14 50 08:26 05.04.2021
5479 Clouds 31 1008 55 10000 4.63 20 07:38 05.04.2021
5480 Clouds 32 1008 55 10000 4.63 20 07:18 05.04.2021
5481 Clouds 30 1009 74 10000 5.66 60 03:42 05.04.2021
5482 Clouds 25 1008 94 10000 4.12 80 00:54 05.04.2021
5483 Clear 24 1008 94 10000 4.12 110 23:53 04.04.2021
5484 Clear 24 1008 94 10000 4.12 110 23:30 04.04.2021
5485 Clouds 24 1008 94 10000 4.12 110 22:56 04.04.2021
5486 Clouds 25 1008 88 10000 3.6 110 22:33 04.04.2021
5487 Clouds 24 1008 94 10000 2.06 100 21:48 04.04.2021
5488 Clouds 24 1007 94 10000 2.06 120 21:21 04.04.2021
5489 Clouds 24 1007 94 10000 2.06 120 20:42 04.04.2021
5490 Clouds 24 1007 94 10000 2.06 120 20:20 04.04.2021
5491 Clouds 24 1007 94 10000 2.06 120 20:20 04.04.2021
5492 Clouds 24 1008 94 10000 1.54 60 19:38 04.04.2021
5493 Clouds 24 1008 94 10000 1.54 60 19:19 04.04.2021
5494 Clouds 24 1008 94 10000 1.54 50 18:49 04.04.2021
5495 Clouds 24 1008 94 10000 1.54 10 18:24 04.04.2021
5496 Clouds 24 1008 94 10000 1.54 10 18:24 04.04.2021
5497 Clouds 24 1008 94 10000 0.51 70 17:56 04.04.2021
5498 Clouds 24 1009 94 10000 1.03 80 17:24 04.04.2021
5499 Clouds 24 1009 94 10000 1.54 90 16:54 04.04.2021
5500 Clouds 24 1009 94 10000 2.06 80 16:33 04.04.2021
5501 Clouds 23 1010 100 8000 1.54 60 15:46 04.04.2021
5502 Clouds 23 1010 100 5000 4.63 50 15:28 04.04.2021
5503 Clouds 24 1010 94 10000 4.12 40 14:38 04.04.2021
5504 Clouds 24 1010 94 10000 4.12 40 14:19 04.04.2021
5505 Clouds 24 1009 94 10000 3.09 100 13:26 04.04.2021
5506 Clouds 25 1008 88 10000 4.12 140 12:51 04.04.2021
5507 Clouds 25 1008 83 10000 4.63 150 12:27 04.04.2021
5508 Clouds 26 1008 78 10000 3.09 160 11:49 04.04.2021
5509 Clouds 27 1007 78 10000 2.06 40 11:30 04.04.2021
5510 Clouds 28 1006 74 10000 2.57 360 10:46 04.04.2021
5511 Clouds 29 1006 74 10000 2.57 360 10:20 04.04.2021
5512 Clouds 29 1006 74 10000 3.6 10 09:37 04.04.2021
5513 Clouds 29 1006 74 10000 3.6 10 09:18 04.04.2021
5514 Clouds 29 1006 79 10000 1.54 30 08:42 04.04.2021
5515 Clouds 29 1006 79 10000 1.54 30 08:24 04.04.2021
5516 Clouds 28 1007 78 10000 3.6 30 06:39 04.04.2021
5517 Clouds 28 1007 78 10000 5.14 20 05:43 04.04.2021
5518 Clouds 26 1008 94 10000 2.57 100 01:49 04.04.2021
5519 Clouds 25 1008 94 10000 2.06 80 00:44 04.04.2021
5520 Clouds 25 1007 94 10000 1.54 70 00:18 04.04.2021
5521 Clouds 24 1007 100 7000 6.17 40 23:39 03.04.2021
5522 Clouds 24 1007 94 5000 5.66 40 22:56 03.04.2021
5523 Clouds 25 1006 88 10000 6.17 70 22:24 03.04.2021
5524 Clouds 24 1006 88 10000 4.63 60 21:59 03.04.2021
5525 Clouds 25 1006 89 10000 1.54 90 21:39 03.04.2021
5526 Clouds 25 1006 89 10000 1.54 90 21:20 03.04.2021
5527 Clouds 26 1005 89 10000 2.06 50 20:38 03.04.2021
5528 Clouds 26 1005 89 10000 2.06 50 20:18 03.04.2021
5529 Clouds 26 1006 89 10000 2.06 80 19:43 03.04.2021
5530 Clouds 26 1006 89 10000 1.54 60 19:18 03.04.2021
5531 Clouds 26 1006 89 10000 1.54 90 18:44 03.04.2021
5532 Clouds 26 1006 89 10000 1.54 90 18:18 03.04.2021
5533 Clouds 27 1007 78 10000 2.57 30 17:39 03.04.2021
5534 Clouds 27 1007 78 10000 2.57 30 17:20 03.04.2021
5535 Clear 27 1008 78 10000 3.6 30 16:43 03.04.2021
5536 Clear 27 1008 78 10000 3.6 30 16:21 03.04.2021
5537 Clouds 27 1008 78 10000 2.57 10 15:41 03.04.2021
5538 Clouds 27 1008 78 10000 2.57 10 15:19 03.04.2021
5539 Clouds 27 1008 74 10000 2.06 10 14:42 03.04.2021
5540 Clouds 27 1008 74 10000 2.06 10 14:20 03.04.2021
5541 Clouds 27 1008 78 10000 2.57 30 13:46 03.04.2021
5542 Clouds 27 1007 78 10000 3.09 20 13:20 03.04.2021
5543 Clouds 28 1007 74 10000 3.09 30 12:47 03.04.2021
5544 Clouds 28 1007 74 10000 3.09 30 12:20 03.04.2021
5545 Clouds 29 1006 61 10000 2.06 70 11:35 03.04.2021
5546 Clouds 30 1005 51 10000 2.57 60 10:50 03.04.2021
5547 Clear 30 1005 48 10000 2.57 70 10:31 03.04.2021
5548 Clear 31 1005 42 10000 2.57 80 09:51 03.04.2021
5549 Clear 31 1004 40 10000 4.12 100 09:28 03.04.2021
5550 Clear 31 1004 40 10000 5.14 110 08:44 03.04.2021
5551 Clear 31 1004 37 10000 6.17 110 08:26 03.04.2021
5552 Clear 32 1004 37 10000 9.26 110 07:28 03.04.2021
5553 Clear 31 1005 40 10000 9.77 90 05:49 03.04.2021
5554 Clear 30 1008 45 10000 6.69 100 03:50 03.04.2021
5555 Clouds 28 1009 65 10000 4.12 80 02:49 03.04.2021
5556 Clouds 27 1009 74 10000 3.6 80 02:23 03.04.2021
5557 Clear 25 1008 83 10000 2.06 90 00:20 03.04.2021
5558 Clear 25 1008 83 10000 1.54 100 23:47 02.04.2021
5559 Clear 24 1007 83 10000 1.03 130 23:24 02.04.2021
5560 Clear 24 1007 88 10000 1.54 120 22:52 02.04.2021
5561 Rain 24 1007 83 10000 1.54 130 22:33 02.04.2021
5562 Clouds 24 1007 83 10000 2.06 110 21:46 02.04.2021
5563 Clouds 25 1007 83 10000 2.57 90 21:23 02.04.2021
5564 Clouds 25 1007 83 10000 2.57 110 20:48 02.04.2021
5565 Clouds 25 1007 83 10000 5.14 90 20:28 02.04.2021
5566 Clouds 25 1007 88 10000 5.66 110 19:57 02.04.2021
5567 Clouds 25 1007 78 10000 5.66 90 19:38 02.04.2021
5568 Clouds 26 1007 78 10000 5.66 90 19:20 02.04.2021
5569 Clouds 26 1008 83 10000 5.14 80 18:38 02.04.2021
5570 Clouds 26 1008 83 10000 5.14 80 18:20 02.04.2021
5571 Clouds 26 1009 89 10000 4.12 60 17:37 02.04.2021
5572 Clouds 27 1009 89 10000 4.12 50 16:48 02.04.2021
5573 Clouds 27 1009 89 10000 4.63 50 16:22 02.04.2021
5574 Clouds 27 1009 83 10000 2.57 30 15:33 02.04.2021
5575 Clouds 27 1009 89 10000 2.57 40 14:55 02.04.2021
5576 Clouds 27 1009 89 10000 3.6 30 14:29 02.04.2021
5577 Clouds 27 1008 83 10000 4.12 30 13:42 02.04.2021
5578 Clouds 27 1008 83 10000 4.12 30 13:20 02.04.2021
5579 Clear 27 1008 74 10000 4.63 20 12:41 02.04.2021
5580 Clear 27 1008 74 10000 4.63 20 12:41 02.04.2021
5581 Clear 28 1008 74 10000 4.63 20 12:20 02.04.2021
5582 Clear 28 1007 74 10000 3.6 30 11:54 02.04.2021
5583 Clear 29 1007 70 10000 2.57 20 11:20 02.04.2021
5584 Clear 29 1006 70 10000 3.6 30 10:46 02.04.2021
5585 Clear 29 1006 70 10000 3.6 30 10:28 02.04.2021
5586 Clouds 30 1006 66 10000 4.12 40 09:53 02.04.2021
5587 Clear 30 1006 66 10000 4.12 20 09:27 02.04.2021
5588 Clear 31 1006 51 10000 3.6 30 08:51 02.04.2021
5589 Clear 31 1006 48 10000 5.14 80 08:29 02.04.2021
5590 Clear 32 1006 45 10000 4.12 80 07:30 02.04.2021
5591 Clear 32 1006 45 10000 4.12 90 06:47 02.04.2021
5592 Clear 32 1008 45 10000 6.69 80 04:49 02.04.2021
5593 Clear 28 1008 69 10000 5.66 90 02:30 02.04.2021
5594 Clear 26 1008 83 10000 3.09 90 00:50 02.04.2021
5595 Clear 25 1008 88 10000 2.57 90 00:22 02.04.2021
5596 Clear 25 1007 88 10000 2.57 120 23:39 01.04.2021
5597 Rain 25 1007 88 10000 2.57 120 22:57 01.04.2021
5598 Clear 25 1007 88 10000 2.57 120 22:20 01.04.2021
5599 Clouds 25 1006 88 10000 3.09 130 21:50 01.04.2021
5600 Clouds 25 1006 88 10000 2.57 130 21:27 01.04.2021
5601 Rain 25 1006 88 10000 4.63 120 20:47 01.04.2021
5602 Clouds 25 1006 83 10000 4.12 110 20:25 01.04.2021
5603 Rain 25 1006 83 10000 4.63 100 19:56 01.04.2021
5604 Clouds 25 1007 83 10000 5.14 110 19:35 01.04.2021
5605 Clouds 26 1007 83 10000 7.2 100 18:46 01.04.2021
5606 Rain 26 1007 83 10000 7.72 90 18:19 01.04.2021
5607 Rain 26 1008 83 10000 5.14 100 17:53 01.04.2021
5608 Clouds 26 1008 83 10000 3.09 80 17:33 01.04.2021
5609 Clouds 27 1008 83 10000 3.09 70 16:53 01.04.2021
5610 Clouds 27 1008 83 10000 3.09 50 16:31 01.04.2021
5611 Clouds 27 1008 83 10000 3.6 50 15:48 01.04.2021
5612 Clouds 27 1008 78 10000 1.54 90 15:20 01.04.2021
5613 Clear 26 1008 83 10000 1.54 80 14:46 01.04.2021
5614 Clear 26 1008 83 10000 1.54 130 14:26 01.04.2021
5615 Clear 26 1007 83 10000 1.54 110 13:56 01.04.2021
5616 Clear 26 1007 83 10000 1.03 70 13:31 01.04.2021
5617 Clear 27 1007 83 10000 0.51 20 12:54 01.04.2021
5618 Clear 27 1007 83 10000 2.13 81 12:33 01.04.2021
5619 Clear 27 1007 83 10000 1.03 360 11:55 01.04.2021
5620 Clouds 27 1006 78 10000 0.51 360 11:37 01.04.2021
5621 Rain 28 1006 78 10000 0.51 360 11:18 01.04.2021
5622 Clouds 28 1006 65 10000 1.03 340 10:42 01.04.2021
5623 Rain 28 1006 65 10000 1.03 340 10:22 01.04.2021
5624 Clouds 29 1006 65 10000 1.54 50 09:31 01.04.2021
5625 Clouds 29 1006 61 10000 2.06 70 08:42 01.04.2021
5626 Clouds 29 1006 61 10000 2.06 70 08:24 01.04.2021
5627 Rain 29 1006 54 10000 2.57 80 07:21 01.04.2021
5628 Clouds 29 1006 54 10000 3.09 80 06:54 01.04.2021
5629 Clear 30 1007 54 10000 5.14 80 04:56 01.04.2021
5630 Clear 28 1008 65 10000 5.14 110 02:58 01.04.2021
5631 Clear 25 1006 83 10000 3.6 100 23:52 31.03.2021
5632 Clear 25 1006 83 10000 3.6 100 23:34 31.03.2021
5633 Clear 24 1006 83 10000 3.09 100 22:43 31.03.2021
5634 Clear 24 1005 94 10000 3.09 100 22:22 31.03.2021
5635 Clouds 24 1006 94 10000 2.57 100 21:48 31.03.2021
5636 Clouds 24 1006 94 10000 2.06 80 21:24 31.03.2021
5637 Clouds 24 1006 88 10000 2.57 100 20:59 31.03.2021
5638 Clouds 24 1006 88 10000 2.57 110 20:40 31.03.2021
5639 Clouds 24 1006 88 10000 2.57 110 20:19 31.03.2021
5640 Clouds 24 1006 88 10000 3.09 100 19:42 31.03.2021
5641 Clouds 24 1006 88 10000 3.09 100 19:20 31.03.2021
5642 Clouds 24 1006 88 10000 2.57 90 18:53 31.03.2021
5643 Clouds 24 1007 88 10000 3.09 90 18:34 31.03.2021
5644 Clouds 24 1007 88 10000 4.12 100 17:38 31.03.2021
5645 Clouds 24 1007 88 10000 4.12 100 17:19 31.03.2021
5646 Clouds 24 1007 88 10000 5.14 120 16:50 31.03.2021
5647 Clouds 23 1008 100 10000 6.69 110 16:31 31.03.2021
5648 Clouds 23 1009 94 10000 6.69 90 15:53 31.03.2021
5649 Clouds 23 1009 94 10000 8.23 120 15:20 31.03.2021
5650 Clouds 23 1009 94 2000 13.38 110 14:50 31.03.2021
5651 Clouds 26 1009 83 7000 11.83 120 14:25 31.03.2021
5652 Clouds 28 1007 74 10000 3.6 20 13:55 31.03.2021
5653 Clouds 29 1007 74 10000 3.09 10 13:23 31.03.2021
5654 Clouds 29 1006 70 10000 3.09 30 12:40 31.03.2021
5655 Rain 29 1006 70 10000 3.09 30 12:18 31.03.2021
5656 Clouds 29 1005 66 10000 3.6 30 11:23 31.03.2021
5657 Clouds 30 1005 66 10000 4.12 30 10:50 31.03.2021
5658 Clouds 31 1005 62 10000 4.12 30 10:28 31.03.2021
5659 Clouds 31 1004 58 10000 3.6 50 09:57 31.03.2021
5660 Clouds 31 1004 55 10000 5.14 80 09:33 31.03.2021
5661 Clear 32 1004 49 10000 5.14 80 08:48 31.03.2021
5662 Clouds 32 1004 51 10000 5.66 70 08:27 31.03.2021
5663 Clouds 32 1005 51 10000 7.72 80 07:37 31.03.2021
5664 Clouds 31 1006 55 10000 7.72 80 05:21 31.03.2021
5665 Clouds 29 1007 65 10000 6.17 90 02:42 31.03.2021
5666 Clouds 26 1007 83 10000 3.6 90 00:54 31.03.2021
5667 Clouds 26 1006 78 10000 2.06 100 00:26 31.03.2021
5668 Clouds 25 1006 88 10000 3.09 90 23:57 30.03.2021
5669 Clear 25 1006 78 10000 4.12 100 23:25 30.03.2021
5670 Clear 26 1006 78 10000 4.12 90 22:50 30.03.2021
5671 Clear 26 1006 78 10000 4.12 90 22:31 30.03.2021
5672 Clouds 26 1006 78 10000 4.12 90 21:59 30.03.2021
5673 Clouds 25 1005 78 10000 4.63 90 21:31 30.03.2021
5674 Clouds 26 1005 78 10000 5.14 90 20:59 30.03.2021
5675 Clouds 26 1005 78 10000 5.66 100 20:40 30.03.2021
5676 Clouds 26 1005 78 10000 5.66 100 20:20 30.03.2021
5677 Clouds 26 1006 78 10000 4.63 90 19:43 30.03.2021
5678 Clouds 26 1006 78 10000 4.63 110 18:58 30.03.2021
5679 Rain 26 1007 78 10000 3.6 100 18:30 30.03.2021
5680 Rain 26 1007 78 10000 3.6 110 17:48 30.03.2021
5681 Clouds 26 1007 83 10000 3.09 110 17:30 30.03.2021
5682 Clouds 26 1008 78 10000 4.12 90 16:47 30.03.2021
5683 Clouds 27 1008 78 10000 4.63 90 16:28 30.03.2021
5684 Clouds 27 1008 69 10000 6.69 70 15:39 30.03.2021
5685 Clouds 28 1008 69 10000 6.69 70 15:19 30.03.2021
5686 Clouds 28 1007 83 10000 3.09 60 14:45 30.03.2021
5687 Rain 28 1007 83 10000 3.6 50 14:21 30.03.2021
5688 Clear 29 1007 79 10000 3.6 40 13:49 30.03.2021
5689 Clouds 29 1007 79 10000 3.09 50 13:26 30.03.2021
5690 Clouds 29 1006 79 10000 3.09 50 12:42 30.03.2021
5691 Clouds 29 1006 79 10000 3.09 50 12:21 30.03.2021
5692 Clouds 29 1005 70 10000 4.12 40 11:47 30.03.2021
5693 Clouds 30 1005 62 10000 3.09 70 11:19 30.03.2021
5694 Clouds 31 1004 51 10000 3.6 70 10:42 30.03.2021
5695 Clouds 31 1004 51 10000 3.6 70 10:19 30.03.2021
5696 Clouds 32 1004 49 10000 6.69 80 09:41 30.03.2021
5697 Clouds 33 1004 49 10000 6.69 80 09:21 30.03.2021
5698 Clouds 33 1004 46 10000 5.66 90 08:43 30.03.2021
5699 Rain 33 1005 48 10000 7.2 100 07:56 30.03.2021
5700 Rain 33 1005 46 10000 7.2 100 07:31 30.03.2021
5701 Clouds 33 1006 46 10000 8.75 100 06:30 30.03.2021
5702 Clouds 33 1007 43 10000 8.23 100 05:25 30.03.2021
5703 Clear 26 1007 78 10000 3.09 120 01:57 30.03.2021
5704 Clear 24 1007 88 10000 2.06 130 23:55 29.03.2021
5705 Clear 24 1007 88 10000 1.54 140 23:22 29.03.2021
5706 Clear 24 1007 88 10000 1.54 120 22:43 29.03.2021
5707 Clouds 24 1006 88 10000 3.09 140 21:57 29.03.2021
5708 Clouds 24 1006 88 10000 3.6 130 21:35 29.03.2021
5709 Clouds 23 1006 94 10000 2.57 140 20:51 29.03.2021
5710 Clouds 23 1006 94 10000 2.57 140 20:33 29.03.2021
5711 Clouds 24 1006 94 10000 3.09 150 19:56 29.03.2021
5712 Clouds 24 1006 94 10000 2.57 130 19:32 29.03.2021
5713 Clouds 24 1007 94 10000 2.06 150 18:57 29.03.2021
5714 Clouds 24 1007 94 10000 2.57 110 18:38 29.03.2021
5715 Clouds 24 1007 94 10000 2.57 110 18:19 29.03.2021
5716 Clouds 24 1008 94 10000 2.06 100 17:36 29.03.2021
5717 Clear 25 1008 88 10000 2.06 100 16:54 29.03.2021
5718 Clear 25 1009 83 10000 3.09 90 16:34 29.03.2021
5719 Clear 25 1009 83 10000 3.09 100 15:43 29.03.2021
5720 Clear 25 1009 88 10000 3.6 120 15:24 29.03.2021
5721 Clear 25 1009 83 10000 4.12 120 14:48 29.03.2021
5722 Clouds 25 1009 83 10000 4.63 120 14:23 29.03.2021
5723 Clouds 25 1009 89 10000 4.12 110 13:45 29.03.2021
5724 Clear 25 1009 94 10000 4.12 110 13:19 29.03.2021
5725 Clear 25 1008 88 10000 4.63 140 12:49 29.03.2021
5726 Clouds 25 1007 88 10000 4.12 90 11:49 29.03.2021
5727 Clouds 25 1007 88 10000 4.12 90 11:30 29.03.2021
5728 Clouds 25 1007 88 10000 5.14 110 10:52 29.03.2021
5729 Clouds 24 1006 94 10000 6.17 110 10:31 29.03.2021
5730 Clouds 24 1007 94 10000 8.75 110 09:34 29.03.2021
5731 Clouds 24 1007 94 800 12.86 100 08:51 29.03.2021
5732 Clouds 28 1006 89 3000 10.8 110 08:27 29.03.2021
5733 Rain 33 1006 55 10000 9.26 80 07:22 29.03.2021
5734 Rain 33 1007 52 10000 9.26 90 06:26 29.03.2021
5735 Clouds 31 1009 62 10000 3.6 130 03:35 29.03.2021
5736 Clear 27 1009 74 10000 3.09 120 00:55 29.03.2021
5737 Clear 26 1008 78 10000 2.57 110 00:20 29.03.2021
5738 Clear 25 1008 83 10000 2.57 130 23:30 28.03.2021
5739 Clear 25 1008 83 10000 3.6 130 22:54 28.03.2021
5740 Clear 25 1008 88 10000 3.6 140 22:35 28.03.2021
5741 Clouds 25 1008 88 10000 3.6 140 21:59 28.03.2021
5742 Clouds 25 1007 88 10000 2.57 140 21:40 28.03.2021
5743 Clouds 25 1007 88 10000 2.57 140 21:40 28.03.2021
5744 Clouds 25 1007 88 10000 2.57 140 21:22 28.03.2021
5745 Clouds 25 1007 88 10000 3.09 140 20:47 28.03.2021
5746 Clouds 26 1007 83 10000 3.6 140 20:29 28.03.2021
5747 Clouds 26 1007 83 10000 2.57 130 19:43 28.03.2021
5748 Clouds 26 1007 83 10000 2.06 130 19:22 28.03.2021
5749 Clouds 26 1007 83 10000 1.54 150 18:58 28.03.2021
5750 Clouds 25 1007 83 10000 1.03 170 18:26 28.03.2021
5751 Clouds 26 1008 89 10000 4.6 97 17:47 28.03.2021
5752 Clouds 26 1008 83 10000 1.54 150 17:23 28.03.2021
5753 Clear 26 1009 83 10000 2.06 150 16:46 28.03.2021
5754 Clear 26 1009 83 10000 3.09 150 16:23 28.03.2021
5755 Clear 27 1009 78 10000 3.09 130 15:26 28.03.2021
5756 Clear 27 1009 78 10000 4.12 110 14:52 28.03.2021
5757 Clear 27 1009 74 10000 3.6 110 14:31 28.03.2021
5758 Clear 28 1008 74 10000 4.12 90 13:46 28.03.2021
5759 Clear 28 1008 69 10000 5.14 90 13:21 28.03.2021
5760 Clear 28 1007 65 10000 6.69 100 12:50 28.03.2021
5761 Clouds 29 1007 70 10000 5.14 90 12:31 28.03.2021
5762 Clouds 29 1007 70 10000 4.63 80 11:43 28.03.2021
5763 Clouds 29 1006 65 10000 6.17 60 11:24 28.03.2021
5764 Clouds 31 1006 62 10000 4.63 70 10:44 28.03.2021
5765 Clouds 31 1005 66 10000 5.14 80 10:24 28.03.2021
5766 Clouds 32 1005 62 10000 3.6 70 09:46 28.03.2021
5767 Clouds 32 1005 62 10000 5.14 90 09:24 28.03.2021
5768 Clouds 32 1005 62 10000 5.14 70 08:45 28.03.2021
5769 Clouds 33 1005 55 10000 6.69 90 07:49 28.03.2021
5770 Clouds 33 1006 52 10000 8.23 90 06:40 28.03.2021
5771 Clouds 32 1008 55 10000 6.17 80 04:18 28.03.2021
5772 Clouds 29 1008 65 10000 4.12 130 01:22 28.03.2021
5773 Clear 27 1008 89 10000 3.09 160 00:20 28.03.2021
5774 Clear 25 1008 94 10000 2.57 160 23:40 27.03.2021
5775 Clear 25 1007 94 10000 1.54 170 22:58 27.03.2021
5776 Clear 24 1007 94 10000 1.03 130 22:36 27.03.2021
5777 Clear 24 1007 94 10000 2.06 160 21:58 27.03.2021
5778 Clear 24 1007 88 10000 1.54 160 21:37 27.03.2021
5779 Clear 24 1007 88 10000 1.54 160 21:19 27.03.2021
5780 Clouds 24 1007 88 10000 1.54 170 20:38 27.03.2021
5781 Clouds 24 1007 88 10000 1.54 170 20:19 27.03.2021
5782 Clouds 24 1007 88 10000 1.03 160 19:42 27.03.2021
5783 Clouds 24 1007 88 10000 1.03 160 19:23 27.03.2021
5784 Clouds 24 1007 88 10000 1.54 170 18:48 27.03.2021
5785 Clouds 25 1007 83 10000 2.06 170 18:28 27.03.2021
5786 Clouds 25 1008 83 10000 2.06 170 17:54 27.03.2021
5787 Clouds 25 1008 78 10000 1.54 160 17:24 27.03.2021
5788 Clouds 25 1007 83 10000 2.06 140 16:49 27.03.2021
5789 Clouds 25 1008 88 10000 1.54 130 16:29 27.03.2021
5790 Clear 25 1008 88 10000 2.06 160 15:50 27.03.2021
5791 Clear 25 1008 83 10000 1.54 170 15:24 27.03.2021
5792 Clear 25 1008 83 10000 2.57 160 14:49 27.03.2021
5793 Clear 25 1007 89 10000 2.57 230 13:51 27.03.2021
5794 Clear 25 1007 89 10000 1.03 260 13:24 27.03.2021
5795 Clear 25 1008 89 10000 1.54 160 12:55 27.03.2021
5796 Clouds 25 1008 94 10000 2.06 110 12:24 27.03.2021
5797 Clouds 25 1007 88 10000 2.06 10 11:42 27.03.2021
5798 Clouds 25 1007 88 10000 2.06 10 11:20 27.03.2021
5799 Clouds 26 1007 78 10000 3.6 40 10:45 27.03.2021
5800 Clouds 27 1007 89 10000 2.97 60 10:22 27.03.2021
5801 Clouds 28 1006 83 10000 2.06 290 09:28 27.03.2021
5802 Clouds 28 1006 78 10000 2.57 360 08:43 27.03.2021
5803 Clouds 28 1006 78 10000 2.57 360 08:21 27.03.2021
5804 Clouds 30 1005 78 10000 1.54 10 07:34 27.03.2021
5805 Clouds 29 1006 89 10000 6.17 170 06:43 27.03.2021
5806 Clouds 32 1007 62 10000 2.06 20 04:57 27.03.2021
5807 Clouds 32 1007 62 10000 3.6 100 04:39 27.03.2021
5808 Clouds 28 1008 83 10000 2.57 120 00:49 27.03.2021
5809 Clouds 27 1008 83 10000 2.57 120 00:29 27.03.2021
5810 Clouds 25 1008 94 10000 3.09 140 23:54 26.03.2021
5811 Clouds 24 1007 94 10000 4.12 140 22:56 26.03.2021
5812 Clear 24 1007 94 10000 3.6 150 22:34 26.03.2021
5813 Clear 24 1007 94 10000 3.09 150 21:25 26.03.2021
5814 Clouds 25 1006 88 10000 3.09 90 20:59 26.03.2021
5815 Clouds 24 1006 94 10000 2.57 90 20:33 26.03.2021
5816 Clouds 24 1006 94 10000 4.12 50 19:57 26.03.2021
5817 Clouds 24 1007 94 10000 4.63 50 19:39 26.03.2021
5818 Clouds 24 1007 94 10000 4.63 50 19:20 26.03.2021
5819 Clouds 24 1007 94 10000 1.54 70 18:42 26.03.2021
5820 Clouds 24 1007 94 10000 1.54 70 18:20 26.03.2021
5821 Clouds 24 1008 94 10000 1.03 60 17:46 26.03.2021
5822 Clouds 24 1009 94 10000 2.57 90 16:56 26.03.2021
5823 Clouds 24 1009 94 10000 4.62 72 16:33 26.03.2021
5824 Clouds 24 1010 100 10000 2.06 80 15:53 26.03.2021
5825 Clouds 24 1010 94 10000 3.6 90 15:21 26.03.2021
5826 Clouds 25 1009 94 5000 6.17 130 14:30 26.03.2021
5827 Clear 26 1008 89 10000 0.51 170 13:38 26.03.2021
5828 Clouds 26 1007 89 10000 1.54 100 12:54 26.03.2021
5829 Clouds 26 1007 94 10000 2.99 96 12:32 26.03.2021
5830 Clear 26 1006 89 10000 1.03 170 11:35 26.03.2021
5831 Clear 26 1006 89 10000 2.28 84 10:55 26.03.2021
5832 Clouds 26 1006 94 10000 2.57 280 10:35 26.03.2021
5833 Clouds 26 1006 94 8000 2.57 190 09:45 26.03.2021
5834 Clouds 26 1006 94 8000 2.57 190 09:22 26.03.2021
5835 Clouds 28 1005 83 10000 6.17 110 08:42 26.03.2021
5836 Clouds 31 1005 62 10000 4.12 30 08:22 26.03.2021
5837 Clouds 32 1004 62 10000 2.57 110 07:24 26.03.2021
5838 Clouds 32 1005 58 10000 4.12 110 06:58 26.03.2021
5839 Clouds 33 1005 58 10000 3.6 100 06:35 26.03.2021
5840 Clouds 33 1006 55 10000 4.12 110 05:31 26.03.2021
5841 Clouds 29 1008 70 10000 4.63 140 02:22 26.03.2021
5842 Clouds 27 1008 78 10000 3.6 150 00:32 26.03.2021
5843 Clouds 26 1009 94 10000 4.12 140 23:44 25.03.2021
5844 Clouds 26 1008 89 10000 3.09 140 23:20 25.03.2021
5845 Clouds 25 1007 89 10000 2.06 130 22:37 25.03.2021
5846 Clouds 25 1007 89 10000 2.57 150 21:53 25.03.2021
5847 Clouds 26 1007 94 10000 1.54 140 21:34 25.03.2021
5848 Clouds 26 1006 94 10000 1.03 130 20:45 25.03.2021
5849 Clouds 26 1006 94 10000 2.06 180 20:26 25.03.2021
5850 Clouds 26 1006 89 10000 2.06 190 19:49 25.03.2021
5851 Clouds 26 1006 89 10000 2.06 190 19:49 25.03.2021
5852 Clouds 26 1006 89 10000 2.06 190 19:49 25.03.2021
5853 Clouds 26 1006 89 10000 1.03 200 19:31 25.03.2021
5854 Clouds 26 1006 83 10000 2.06 210 18:51 25.03.2021
5855 Clouds 26 1007 83 10000 2.06 210 18:28 25.03.2021
5856 Clouds 27 1007 83 10000 1.54 210 17:57 25.03.2021
5857 Clouds 27 1007 83 10000 1.54 220 17:37 25.03.2021
5858 Clouds 27 1008 83 10000 1.54 250 16:56 25.03.2021
5859 Clouds 27 1008 83 10000 1.54 230 16:32 25.03.2021
5860 Clouds 27 1008 83 10000 2.06 240 15:46 25.03.2021
5861 Clouds 27 1008 83 10000 2.06 240 15:24 25.03.2021
5862 Clear 27 1008 83 10000 2.57 240 14:48 25.03.2021
5863 Clear 27 1008 83 10000 2.57 240 14:29 25.03.2021
5864 Clear 27 1008 83 10000 2.57 240 13:25 25.03.2021
5865 Clear 27 1008 83 10000 2.57 250 12:46 25.03.2021
5866 Clear 27 1008 83 10000 2.57 250 12:22 25.03.2021
5867 Clouds 27 1007 83 10000 2.06 240 11:53 25.03.2021
5868 Clouds 27 1007 78 10000 2.06 230 11:33 25.03.2021
5869 Clouds 27 1006 78 10000 2.06 250 10:58 25.03.2021
5870 Clouds 27 1006 78 10000 2.57 240 10:39 25.03.2021
5871 Clouds 29 1005 74 10000 2.57 250 10:18 25.03.2021
5872 Clouds 29 1005 74 10000 3.09 280 09:43 25.03.2021
5873 Clouds 29 1005 74 10000 3.09 280 09:21 25.03.2021
5874 Clouds 29 1005 74 10000 2.06 290 08:30 25.03.2021
5875 Clouds 29 1006 78 10000 3.6 240 07:26 25.03.2021
5876 Clouds 29 1007 74 10000 1.03 220 06:43 25.03.2021
5877 Clouds 28 1007 74 10000 1.03 220 06:22 25.03.2021
5878 Clouds 26 1008 83 10000 3.09 150 04:50 25.03.2021
5879 Clouds 25 1009 88 10000 2.05 223 01:20 25.03.2021
5880 Clouds 25 1010 88 10000 2.06 140 00:19 25.03.2021
5881 Clouds 26 1008 89 10000 3.09 210 23:39 24.03.2021
5882 Clouds 27 1008 89 10000 3.09 210 23:18 24.03.2021
5883 Clouds 28 1007 83 10000 1.54 220 22:39 24.03.2021
5884 Clouds 27 1006 83 10000 2.57 280 21:51 24.03.2021
5885 Clouds 27 1006 83 10000 2.57 280 21:51 24.03.2021
5886 Clouds 27 1006 83 10000 2.06 260 21:32 24.03.2021
5887 Clouds 28 1006 83 10000 2.06 250 20:56 24.03.2021
5888 Clouds 27 1006 83 10000 1.54 260 20:38 24.03.2021
5889 Clouds 28 1006 83 10000 1.54 260 20:18 24.03.2021
5890 Clouds 27 1006 89 10000 1.54 260 19:33 24.03.2021
5891 Clouds 27 1006 89 10000 1.54 260 19:33 24.03.2021
5892 Clouds 27 1006 83 10000 1.54 240 18:53 24.03.2021
5893 Clouds 27 1006 83 10000 2.06 280 18:24 24.03.2021
5894 Clouds 27 1006 83 10000 1.54 250 17:53 24.03.2021
5895 Clouds 27 1007 83 10000 1.54 240 17:32 24.03.2021
5896 Clouds 27 1007 89 10000 1.54 240 16:56 24.03.2021
5897 Clouds 28 1007 89 10000 2.06 230 16:38 24.03.2021
5898 Clouds 28 1007 89 10000 2.06 230 16:18 24.03.2021
5899 Clouds 28 1008 79 10000 2.57 240 15:33 24.03.2021
5900 Clouds 29 1008 79 10000 2.57 230 14:59 24.03.2021
5901 Clouds 29 1008 79 10000 2.57 230 14:29 24.03.2021
5902 Clouds 29 1007 79 10000 3.09 240 13:58 24.03.2021
5903 Clouds 29 1007 79 10000 3.09 240 13:28 24.03.2021
5904 Clouds 29 1006 79 10000 3.09 250 12:50 24.03.2021
5905 Clouds 29 1006 79 10000 3.09 250 12:29 24.03.2021
5906 Clouds 29 1006 79 10000 2.57 260 11:54 24.03.2021
5907 Clouds 29 1006 74 10000 3.6 270 11:36 24.03.2021
5908 Clouds 29 1005 74 10000 4.12 260 10:49 24.03.2021
5909 Clouds 29 1005 70 10000 4.12 270 10:28 24.03.2021
5910 Clouds 30 1005 70 10000 4.63 270 09:54 24.03.2021
5911 Clouds 31 1005 66 10000 4.12 280 09:29 24.03.2021
5912 Clouds 31 1005 66 10000 4.63 290 08:57 24.03.2021
5913 Rain 32 1004 62 10000 6.69 300 08:34 24.03.2021
5914 Clouds 32 1005 62 10000 6.69 290 07:48 24.03.2021
5915 Clouds 33 1005 62 10000 6.69 280 07:18 24.03.2021
5916 Clouds 32 1006 70 10000 6.69 300 06:41 24.03.2021
5917 Clouds 31 1010 74 10000 2.06 240 01:26 24.03.2021
5918 Clouds 29 1009 84 10000 2.06 320 00:40 24.03.2021
5919 Clouds 28 1009 89 10000 1.03 360 23:46 23.03.2021
5920 Clouds 27 1008 89 10000 1.03 360 23:19 23.03.2021
5921 Rain 26 1008 94 10000 2.03 204 22:47 23.03.2021
5922 Clouds 26 1008 94 10000 0.51 10 22:24 23.03.2021
5923 Clouds 26 1007 89 10000 2.2 219 21:45 23.03.2021
5924 Clouds 26 1007 83 10000 1.54 340 21:25 23.03.2021
5925 Clouds 26 1007 83 10000 1.54 290 20:45 23.03.2021
5926 Clouds 26 1007 89 10000 3.6 330 20:25 23.03.2021
5927 Clouds 27 1007 94 10000 0.51 50 19:47 23.03.2021
5928 Clouds 26 1007 94 10000 0.51 70 19:26 23.03.2021
5929 Clouds 27 1007 94 10000 1.54 70 18:44 23.03.2021
5930 Clouds 27 1007 94 10000 1.03 150 18:22 23.03.2021
5931 Clouds 27 1008 89 10000 1.03 170 17:46 23.03.2021
5932 Clouds 27 1008 89 10000 1.03 180 17:21 23.03.2021
5933 Clouds 27 1008 89 10000 1.03 190 16:42 23.03.2021
5934 Clouds 27 1008 89 10000 1.03 190 16:19 23.03.2021
5935 Clouds 28 1008 89 10000 1.54 200 15:40 23.03.2021
5936 Clouds 27 1008 79 10000 1.54 210 14:55 23.03.2021
5937 Clouds 27 1008 89 10000 1.03 190 14:21 23.03.2021
5938 Clouds 28 1008 79 10000 1.54 200 13:55 23.03.2021
5939 Clouds 28 1008 79 10000 2.06 230 13:37 23.03.2021
5940 Clouds 28 1008 79 10000 2.06 230 13:18 23.03.2021
5941 Clouds 29 1007 79 10000 2.06 260 12:41 23.03.2021
5942 Clouds 29 1007 79 10000 2.06 260 12:20 23.03.2021
5943 Clouds 29 1006 79 10000 3.09 270 11:44 23.03.2021
5944 Clouds 29 1006 79 10000 2.06 280 10:44 23.03.2021
5945 Clouds 29 1006 79 10000 2.57 290 10:25 23.03.2021
5946 Clouds 30 1006 79 10000 2.06 290 09:58 23.03.2021
5947 Clouds 30 1006 79 10000 3.09 280 09:38 23.03.2021
5948 Clouds 30 1006 79 10000 3.09 280 09:19 23.03.2021
5949 Clouds 31 1006 70 10000 3.09 280 08:40 23.03.2021
5950 Clouds 31 1006 70 10000 3.09 280 08:22 23.03.2021
5951 Clouds 29 1007 74 10000 3.6 270 07:28 23.03.2021
5952 Clouds 29 1007 79 2000 3.6 260 06:59 23.03.2021
5953 Clouds 30 1007 74 10000 5.14 260 06:26 23.03.2021
5954 Clouds 31 1009 66 10000 2.06 360 03:22 23.03.2021
5955 Clouds 29 1010 83 8000 6.17 20 02:18 23.03.2021
5956 Clouds 29 1010 83 8000 6.17 20 02:18 23.03.2021
5957 Clouds 28 1009 89 10000 1.54 140 23:43 22.03.2021
5958 Clouds 26 1008 94 10000 1.03 220 22:56 22.03.2021
5959 Clouds 26 1008 100 10000 1.03 220 22:37 22.03.2021
5960 Clouds 26 1008 100 10000 1.03 220 22:37 22.03.2021
5961 Clouds 26 1008 100 10000 1.03 220 22:18 22.03.2021
5962 Clouds 26 1008 94 10000 0.51 220 21:40 22.03.2021
5963 Clouds 26 1008 94 10000 0.51 220 21:40 22.03.2021
5964 Clouds 26 1008 94 10000 0.51 220 21:21 22.03.2021
5965 Clouds 26 1007 100 10000 1.03 230 20:41 22.03.2021
5966 Clouds 26 1007 100 10000 1.03 230 20:21 22.03.2021
5967 Clouds 26 1008 94 10000 1.54 220 19:53 22.03.2021
5968 Clouds 26 1008 94 10000 1.03 230 19:31 22.03.2021
5969 Clouds 26 1008 94 9000 1.54 230 18:47 22.03.2021
5970 Clouds 26 1008 100 10000 1.54 250 18:29 22.03.2021
5971 Clouds 27 1008 94 10000 1.03 290 17:59 22.03.2021
5972 Clouds 26 1009 100 10000 1.54 350 17:41 22.03.2021
5973 Clouds 26 1009 100 10000 1.54 350 17:19 22.03.2021
5974 Clouds 27 1009 94 10000 1.03 330 16:44 22.03.2021
5975 Clouds 27 1009 94 10000 1.54 360 16:18 22.03.2021
5976 Clouds 27 1010 94 10000 0.51 50 15:38 22.03.2021
5977 Clouds 27 1010 94 10000 0.51 50 15:18 22.03.2021
5978 Clouds 26 1010 94 10000 0.51 50 14:51 22.03.2021
5979 Clouds 27 1009 94 10000 1.03 70 14:32 22.03.2021
5980 Clouds 27 1009 94 10000 1.03 100 13:47 22.03.2021
5981 Clouds 27 1009 94 10000 1.03 100 13:26 22.03.2021
5982 Clouds 27 1009 94 10000 1.54 100 12:54 22.03.2021
5983 Clouds 27 1009 94 10000 1.54 100 12:24 22.03.2021
5984 Clouds 28 1008 89 5000 2.06 230 11:49 22.03.2021
5985 Clouds 28 1008 89 5000 2.06 230 11:26 22.03.2021
5986 Clouds 30 1007 74 10000 1.54 280 10:44 22.03.2021
5987 Clouds 30 1007 70 10000 2.06 280 10:24 22.03.2021
5988 Clouds 30 1007 70 10000 2.06 280 09:46 22.03.2021
5989 Clouds 30 1007 74 10000 3.09 280 09:26 22.03.2021
5990 Clouds 31 1007 66 10000 3.6 300 08:45 22.03.2021
5991 Clouds 31 1007 62 10000 2.57 290 08:26 22.03.2021
5992 Clouds 31 1006 62 10000 2.57 300 07:47 22.03.2021
5993 Clouds 32 1006 62 10000 4.12 300 06:59 22.03.2021
5994 Clouds 32 1006 62 10000 4.63 310 06:36 22.03.2021
5995 Clouds 32 1009 66 10000 3.6 330 02:47 22.03.2021
5996 Clouds 29 1008 84 10000 1.03 260 00:33 22.03.2021
5997 Clouds 28 1008 89 10000 2.63 7 23:54 21.03.2021
5998 Clouds 27 1008 89 10000 1.03 300 23:20 21.03.2021
5999 Clouds 26 1008 94 10000 1.03 300 22:56 21.03.2021
6000 Clouds 27 1008 89 10000 1.54 310 22:29 21.03.2021
6001 Clouds 27 1007 83 10000 3.09 320 21:41 21.03.2021
6002 Clouds 27 1007 83 10000 3.09 320 21:23 21.03.2021
6003 Clouds 28 1007 83 10000 3.09 320 20:46 21.03.2021
6004 Clouds 28 1006 83 10000 2.57 320 20:27 21.03.2021
6005 Clouds 27 1006 89 10000 2.57 330 19:57 21.03.2021
6006 Clouds 28 1006 83 10000 2.06 330 19:23 21.03.2021
6007 Clouds 27 1007 94 10000 2.57 330 18:55 21.03.2021
6008 Clouds 27 1007 94 10000 1.54 340 18:31 21.03.2021
6009 Rain 27 1007 94 10000 0.51 90 17:54 21.03.2021
6010 Clouds 27 1007 89 10000 1.54 30 17:36 21.03.2021
6011 Clouds 27 1007 89 10000 1.54 30 17:18 21.03.2021
6012 Clouds 27 1008 89 10000 0.51 320 16:41 21.03.2021
6013 Clouds 27 1008 89 10000 0.51 320 16:22 21.03.2021
6014 Clouds 27 1008 89 10000 1.03 40 15:42 21.03.2021
6015 Clouds 27 1008 89 10000 1.54 60 15:20 21.03.2021
6016 Clouds 27 1008 89 10000 0.51 70 14:46 21.03.2021
6017 Clouds 28 1008 83 10000 1.54 70 14:27 21.03.2021
6018 Clouds 28 1008 83 10000 0.51 10 13:55 21.03.2021
6019 Clouds 28 1008 83 10000 3.55 354 13:33 21.03.2021
6020 Clouds 28 1008 83 10000 1.54 60 12:42 21.03.2021
6021 Clouds 28 1008 83 10000 1.54 60 12:24 21.03.2021
6022 Clear 29 1006 74 10000 2.57 20 11:41 21.03.2021
6023 Clear 29 1006 74 10000 2.57 20 11:20 21.03.2021
6024 Clouds 29 1006 70 10000 1.54 330 10:44 21.03.2021
6025 Clouds 29 1006 70 10000 3.09 320 10:25 21.03.2021
6026 Clouds 30 1006 70 10000 3.6 350 09:47 21.03.2021
6027 Clouds 31 1006 66 10000 4.63 310 09:29 21.03.2021
6028 Clouds 31 1005 66 10000 5.66 310 08:54 21.03.2021
6029 Clouds 32 1005 66 10000 4.63 330 08:28 21.03.2021
6030 Clouds 32 1005 55 10000 4.12 320 07:41 21.03.2021
6031 Clouds 32 1005 58 10000 3.6 340 07:21 21.03.2021
6032 Clouds 32 1006 62 10000 3.6 350 05:59 21.03.2021
6033 Rain 31 1008 74 10000 4.63 350 02:46 21.03.2021
6034 Rain 29 1007 74 10000 3.6 10 00:55 21.03.2021
6035 Clouds 29 1007 74 10000 3.6 10 00:36 21.03.2021
6036 Clouds 29 1007 74 10000 3.6 10 00:18 21.03.2021
6037 Clouds 27 1006 94 10000 1.54 360 23:37 20.03.2021
6038 Clouds 25 1005 94 10000 1.03 10 22:57 20.03.2021
6039 Clouds 25 1005 94 10000 1.54 50 22:24 20.03.2021
6040 Clouds 25 1005 94 10000 1.03 70 21:48 20.03.2021
6041 Clear 25 1004 100 10000 1.03 60 21:25 20.03.2021
6042 Clouds 25 1004 100 10000 2.06 60 20:49 20.03.2021
6043 Clouds 25 1004 100 10000 2.06 50 20:24 20.03.2021
6044 Clouds 25 1004 100 10000 1.03 40 19:52 20.03.2021
6045 Clouds 25 1004 100 10000 1.03 360 19:29 20.03.2021
6046 Clouds 26 1004 94 10000 2.76 5 18:52 20.03.2021
6047 Clouds 26 1005 94 10000 1.03 270 18:28 20.03.2021
6048 Clouds 26 1005 94 10000 0.51 280 17:58 20.03.2021
6049 Clouds 26 1006 94 10000 2.7 4 17:40 20.03.2021
6050 Clouds 26 1006 94 10000 2.23 360 17:20 20.03.2021
6051 Clouds 26 1006 89 10000 1.03 300 16:39 20.03.2021
6052 Clouds 26 1006 89 10000 1.03 300 16:18 20.03.2021
6053 Clouds 27 1006 83 10000 1.03 290 15:42 20.03.2021
6054 Clouds 27 1006 83 10000 1.03 290 15:24 20.03.2021
6055 Clouds 27 1006 89 10000 2.57 310 14:40 20.03.2021
6056 Clouds 28 1006 89 10000 2.57 310 14:19 20.03.2021
6057 Clouds 28 1006 83 10000 2.06 330 13:31 20.03.2021
6058 Clouds 28 1006 83 10000 2.57 350 12:41 20.03.2021
6059 Clouds 28 1006 83 10000 2.57 350 12:23 20.03.2021
6060 Clouds 28 1005 83 10000 1.54 330 11:43 20.03.2021
6061 Clouds 28 1005 83 10000 1.54 350 11:22 20.03.2021
6062 Clouds 29 1005 79 10000 2.57 350 10:46 20.03.2021
6063 Clouds 29 1004 74 10000 2.57 340 10:24 20.03.2021
6064 Clouds 30 1004 66 10000 3.6 340 09:48 20.03.2021
6065 Clouds 30 1004 66 10000 3.09 340 09:23 20.03.2021
6066 Clouds 30 1003 62 10000 2.57 340 08:53 20.03.2021
6067 Clouds 31 1003 66 10000 3.09 340 08:27 20.03.2021
6068 Clouds 31 1003 62 10000 1.54 290 07:49 20.03.2021
6069 Clouds 31 1003 62 10000 1.54 290 07:29 20.03.2021
6070 Clouds 30 1004 79 10000 2.57 100 06:41 20.03.2021
6071 Clouds 29 1005 83 10000 2.06 120 05:29 20.03.2021
6072 Clouds 30 1006 74 10000 2.57 50 03:45 20.03.2021
6073 Clouds 27 1007 94 7000 2.57 130 01:43 20.03.2021
6074 Clouds 26 1006 89 10000 3.09 130 23:48 19.03.2021
6075 Clouds 26 1006 89 10000 3.09 130 23:48 19.03.2021
6076 Clouds 26 1006 94 10000 2.57 130 23:21 19.03.2021
6077 Clouds 25 1006 94 10000 2.57 140 22:45 19.03.2021
6078 Rain 25 1005 94 10000 1.54 130 22:25 19.03.2021
6079 Clouds 25 1005 94 10000 1.54 120 21:51 19.03.2021
6080 Clouds 26 1005 89 10000 1.54 110 21:21 19.03.2021
6081 Clouds 26 1005 89 10000 1.03 240 20:46 19.03.2021
6082 Clouds 26 1005 83 10000 2.06 270 20:27 19.03.2021
6083 Clouds 26 1005 83 10000 2.06 270 20:27 19.03.2021
6084 Rain 26 1005 83 10000 2.57 270 19:52 19.03.2021
6085 Clouds 27 1005 83 10000 4.12 270 19:25 19.03.2021
6086 Clouds 26 1005 89 10000 2.57 300 18:58 19.03.2021
6087 Clouds 26 1005 94 10000 1.54 310 18:36 19.03.2021
6088 Clouds 25 1005 94 10000 1.54 310 18:18 19.03.2021
6089 Clouds 25 1006 94 10000 2.88 284 17:48 19.03.2021
6090 Clouds 25 1006 100 10000 2.77 287 17:23 19.03.2021
6091 Clouds 26 1007 94 10000 2.77 287 16:44 19.03.2021
6092 Clouds 26 1007 94 10000 2.5 293 16:26 19.03.2021
6093 Clouds 26 1007 89 10000 0.51 360 15:34 19.03.2021
6094 Clouds 26 1007 94 10000 2.23 305 14:56 19.03.2021
6095 Clouds 26 1007 94 10000 2.23 305 14:35 19.03.2021
6096 Clouds 26 1007 94 10000 0.51 50 13:59 19.03.2021
6097 Clouds 26 1007 94 10000 1.03 10 13:24 19.03.2021
6098 Clouds 26 1006 94 10000 1.54 10 12:48 19.03.2021
6099 Clouds 27 1006 89 10000 1.03 340 12:30 19.03.2021
6100 Clouds 27 1006 78 10000 2.57 320 11:39 19.03.2021
6101 Clouds 28 1005 78 10000 2.57 340 10:53 19.03.2021
6102 Clouds 29 1004 70 10000 3.6 350 10:27 19.03.2021
6103 Clouds 29 1004 70 10000 4.63 350 09:48 19.03.2021
6104 Clouds 30 1004 66 10000 4.12 10 09:29 19.03.2021
6105 Clouds 30 1004 66 10000 4.63 360 08:54 19.03.2021
6106 Clouds 31 1004 66 10000 5.14 30 08:32 19.03.2021
6107 Clouds 30 1004 70 10000 5.66 20 07:52 19.03.2021
6108 Clouds 29 1004 83 10000 1.54 100 07:34 19.03.2021
6109 Clouds 28 1005 89 10000 4.63 130 06:36 19.03.2021
6110 Clouds 29 1008 74 10000 5.14 70 02:45 19.03.2021
6111 Clouds 26 1008 83 10000 3.09 130 00:26 19.03.2021
6112 Clouds 25 1007 88 10000 3.6 110 23:30 18.03.2021
6113 Clouds 25 1007 94 10000 1.54 120 22:58 18.03.2021
6114 Clouds 25 1007 94 10000 2.06 90 22:38 18.03.2021
6115 Clouds 25 1007 94 10000 2.06 90 22:18 18.03.2021
6116 Clouds 25 1006 94 10000 1.54 70 21:39 18.03.2021
6117 Clouds 25 1006 94 10000 1.54 70 21:39 18.03.2021
6118 Clouds 25 1006 94 10000 0.51 90 20:44 18.03.2021
6119 Clouds 25 1006 88 10000 2.57 130 20:24 18.03.2021
6120 Clouds 25 1006 94 10000 2.06 150 19:45 18.03.2021
6121 Clouds 25 1006 89 10000 2.06 130 19:25 18.03.2021
6122 Clouds 26 1006 89 10000 1.03 160 18:55 18.03.2021
6123 Clouds 26 1006 89 10000 0.51 200 18:33 18.03.2021
6124 Clouds 25 1006 89 10000 1.54 130 17:50 18.03.2021
6125 Clouds 25 1006 89 10000 1.54 130 17:25 18.03.2021
6126 Clouds 25 1006 89 10000 1.54 150 16:47 18.03.2021
6127 Clouds 26 1007 89 10000 2.06 150 16:29 18.03.2021
6128 Clouds 26 1007 89 10000 2.06 140 15:46 18.03.2021
6129 Clear 26 1007 83 10000 1.03 120 15:24 18.03.2021
6130 Clear 27 1007 83 10000 2.06 110 14:53 18.03.2021
6131 Clear 27 1007 83 10000 2.57 130 14:32 18.03.2021
6132 Clear 27 1007 78 10000 2.57 110 13:53 18.03.2021
6133 Clear 27 1007 78 10000 2.06 130 13:26 18.03.2021
6134 Clear 28 1006 78 10000 2.06 100 12:44 18.03.2021
6135 Clear 28 1006 78 10000 1.54 90 12:25 18.03.2021
6136 Clouds 28 1006 78 10000 2.06 80 11:53 18.03.2021
6137 Clouds 28 1006 74 10000 2.57 50 11:32 18.03.2021
6138 Clouds 29 1005 70 10000 1.54 50 10:49 18.03.2021
6139 Clouds 30 1005 70 10000 1.54 50 10:27 18.03.2021
6140 Clouds 30 1005 66 10000 1.03 360 09:56 18.03.2021
6141 Clouds 30 1005 66 10000 1.54 310 09:29 18.03.2021
6142 Clouds 31 1005 70 10000 2.57 300 08:52 18.03.2021
6143 Rain 31 1005 70 10000 3.09 300 08:32 18.03.2021
6144 Clouds 31 1005 70 10000 3.6 290 07:54 18.03.2021
6145 Clouds 31 1006 70 10000 5.14 320 07:25 18.03.2021
6146 Rain 31 1007 70 10000 5.66 290 06:30 18.03.2021
6147 Clouds 30 1007 70 10000 6.17 300 05:55 18.03.2021
6148 Clouds 27 1009 70 10000 1.54 80 02:35 18.03.2021
6149 Clouds 27 1009 70 10000 1.54 80 02:35 18.03.2021
6150 Clear 24 1009 88 10000 3.6 100 00:19 18.03.2021
6151 Clouds 23 1008 94 10000 2.57 120 22:58 17.03.2021
6152 Clouds 23 1008 94 10000 3.09 120 22:36 17.03.2021
6153 Clouds 23 1008 94 10000 3.09 120 22:18 17.03.2021
6154 Clouds 22 1008 100 10000 3.6 130 21:45 17.03.2021
6155 Clouds 22 1008 100 10000 5.14 140 21:27 17.03.2021
6156 Clouds 22 1008 100 10000 5.14 140 20:45 17.03.2021
6157 Clouds 23 1008 94 10000 5.66 140 20:25 17.03.2021
6158 Clouds 23 1008 94 10000 5.66 150 19:51 17.03.2021
6159 Clouds 23 1008 100 10000 5.14 150 19:25 17.03.2021
6160 Clouds 23 1008 100 10000 4.12 150 18:57 17.03.2021
6161 Clouds 23 1008 100 10000 4.12 150 18:39 17.03.2021
6162 Clouds 23 1008 94 10000 4.12 170 17:57 17.03.2021
6163 Clouds 23 1008 94 10000 3.6 180 17:27 17.03.2021
6164 Clouds 23 1009 94 10000 3.6 170 16:55 17.03.2021
6165 Clouds 23 1009 94 10000 3.09 170 16:37 17.03.2021
6166 Clouds 23 1009 94 10000 3.09 170 16:18 17.03.2021
6167 Clouds 23 1009 94 10000 3.09 200 15:37 17.03.2021
6168 Clouds 23 1009 100 7000 6.17 150 14:46 17.03.2021
6169 Rain 25 1010 100 1400 5.14 160 14:27 17.03.2021
6170 Clouds 27 1009 89 5000 4.63 320 13:56 17.03.2021
6171 Rain 28 1008 89 2200 5.14 330 13:37 17.03.2021
6172 Clouds 29 1008 74 10000 3.6 330 12:59 17.03.2021
6173 Clouds 28 1008 78 10000 3.09 330 12:34 17.03.2021
6174 Clouds 28 1007 78 10000 4.12 330 11:53 17.03.2021
6175 Clouds 28 1007 78 10000 4.12 330 11:24 17.03.2021
6176 Rain 28 1007 78 10000 3.6 330 10:57 17.03.2021
6177 Clouds 28 1006 83 10000 2.57 340 10:34 17.03.2021
6178 Clouds 29 1006 74 10000 3.6 350 09:59 17.03.2021
6179 Clouds 29 1006 79 10000 4.63 340 09:41 17.03.2021
6180 Clouds 29 1006 79 10000 4.63 340 09:19 17.03.2021
6181 Clouds 29 1006 79 10000 4.63 340 09:19 17.03.2021
6182 Clouds 29 1005 79 10000 5.66 360 08:39 17.03.2021
6183 Clouds 30 1005 79 10000 5.66 360 08:20 17.03.2021
6184 Clouds 30 1006 78 10000 3.09 210 07:36 17.03.2021
6185 Clouds 30 1006 84 10000 2.57 250 06:47 17.03.2021
6186 Clouds 32 1007 62 10000 3.6 50 04:27 17.03.2021
6187 Clouds 31 1008 62 10000 3.09 60 03:30 17.03.2021
6188 Clouds 27 1009 89 10000 3.6 130 00:43 17.03.2021
6189 Clouds 27 1009 83 10000 4.63 120 00:20 17.03.2021
6190 Fog 25 1009 94 800 2.57 130 23:22 16.03.2021
6191 Clouds 24 1009 100 10000 2.57 130 22:43 16.03.2021
6192 Clouds 25 1009 94 10000 3.6 130 22:25 16.03.2021
6193 Clouds 25 1008 94 10000 2.57 130 21:42 16.03.2021
6194 Clouds 25 1008 94 10000 2.57 130 21:24 16.03.2021
6195 Clouds 25 1008 94 10000 2.57 140 20:47 16.03.2021
6196 Clouds 25 1008 94 10000 2.57 140 20:19 16.03.2021
6197 Clouds 25 1008 94 10000 1.54 140 19:46 16.03.2021
6198 Clouds 25 1008 100 10000 2.06 140 19:27 16.03.2021
6199 Clouds 26 1008 94 10000 0.51 140 18:52 16.03.2021
6200 Clouds 26 1008 94 10000 2.06 150 18:30 16.03.2021
6201 Clouds 26 1008 94 10000 1.54 190 17:51 16.03.2021
6202 Clouds 25 1009 94 10000 1.54 200 17:33 16.03.2021
6203 Clouds 26 1009 94 10000 0.51 180 16:54 16.03.2021
6204 Clouds 26 1009 94 10000 0.51 180 16:54 16.03.2021
6205 Clouds 26 1009 94 10000 0.51 180 16:54 16.03.2021
6206 Clouds 26 1009 94 10000 0.51 180 16:54 16.03.2021
6207 Clouds 26 1010 94 10000 1.03 180 16:31 16.03.2021
6208 Clouds 26 1010 94 10000 1.54 180 15:59 16.03.2021
6209 Clouds 26 1010 94 10000 1.03 140 15:38 16.03.2021
6210 Clouds 26 1010 94 10000 1.03 140 15:19 16.03.2021
6211 Clouds 26 1010 94 10000 1.03 70 14:42 16.03.2021
6212 Clouds 26 1010 94 10000 1.03 70 14:22 16.03.2021
6213 Clouds 26 1010 94 10000 2.57 130 13:58 16.03.2021
6214 Clouds 27 1010 89 10000 2.06 130 13:29 16.03.2021
6215 Clouds 27 1009 89 10000 2.57 110 12:56 16.03.2021
6216 Clouds 27 1009 89 10000 1.54 30 12:37 16.03.2021
6217 Clouds 27 1009 89 10000 1.54 30 12:18 16.03.2021
6218 Clouds 28 1008 83 10000 3.09 10 11:35 16.03.2021
6219 Clouds 28 1008 83 10000 3.6 20 10:50 16.03.2021
6220 Clouds 29 1007 74 10000 3.6 10 10:21 16.03.2021
6221 Clouds 30 1007 70 10000 4.12 350 09:40 16.03.2021
6222 Clouds 30 1007 70 10000 4.12 350 09:21 16.03.2021
6223 Clouds 31 1006 62 10000 3.6 320 08:55 16.03.2021
6224 Clouds 32 1006 58 10000 1.54 130 08:36 16.03.2021
6225 Clouds 31 1007 62 10000 1.54 230 07:55 16.03.2021
6226 Clouds 31 1007 62 10000 2.57 220 07:27 16.03.2021
6227 Clouds 31 1008 58 10000 1.54 200 06:38 16.03.2021
6228 Clouds 30 1008 66 10000 3.09 150 05:37 16.03.2021
6229 Clouds 29 1010 70 10000 3.6 130 04:26 16.03.2021
6230 Clouds 27 1012 83 10000 0.51 20 02:26 16.03.2021
6231 Clouds 24 1012 94 10000 4.63 150 00:47 16.03.2021
6232 Clouds 24 1011 94 10000 6.69 150 23:54 15.03.2021
6233 Clouds 25 1011 94 7000 3.6 130 23:19 15.03.2021
6234 Clouds 25 1010 88 10000 3.6 80 22:43 15.03.2021
6235 Clouds 25 1010 94 10000 2.57 70 22:25 15.03.2021
6236 Clouds 26 1009 94 10000 1.03 340 21:51 15.03.2021
6237 Clouds 26 1009 94 10000 1.03 340 21:29 15.03.2021
6238 Clouds 26 1009 94 10000 1.03 230 20:55 15.03.2021
6239 Clouds 26 1009 94 10000 0.51 320 20:37 15.03.2021
6240 Clouds 26 1009 94 10000 0.51 320 20:19 15.03.2021
6241 Clouds 26 1009 94 10000 0.51 320 20:19 15.03.2021
6242 Clouds 26 1008 89 10000 0.4 347 19:43 15.03.2021
6243 Clouds 25 1009 94 10000 0.62 62 19:24 15.03.2021
6244 Clouds 26 1009 94 10000 0.62 62 18:47 15.03.2021
6245 Clouds 26 1009 94 10000 0.51 290 18:23 15.03.2021
6246 Clouds 26 1009 89 10000 1.54 240 17:55 15.03.2021
6247 Clouds 26 1009 94 10000 0.51 230 17:28 15.03.2021
6248 Clouds 26 1010 83 10000 1.54 200 16:50 15.03.2021
6249 Clouds 26 1010 89 10000 1.54 220 16:31 15.03.2021
6250 Clouds 26 1010 83 10000 1.54 230 15:45 15.03.2021
6251 Clouds 26 1010 83 10000 1.54 230 15:25 15.03.2021
6252 Clouds 26 1011 89 10000 0.51 260 14:43 15.03.2021
6253 Clouds 26 1011 89 10000 0.51 260 14:22 15.03.2021
6254 Clouds 26 1010 89 10000 1.03 180 13:46 15.03.2021
6255 Clouds 26 1010 89 10000 1.03 180 13:46 15.03.2021
6256 Clouds 26 1010 83 10000 1.54 180 13:24 15.03.2021
6257 Clouds 26 1010 89 10000 1.03 250 12:47 15.03.2021
6258 Clouds 26 1010 89 10000 1.19 331 12:19 15.03.2021
6259 Clouds 26 1009 83 10000 2.57 80 11:48 15.03.2021
6260 Clouds 27 1009 83 10000 2.57 80 11:30 15.03.2021
6261 Clouds 27 1008 78 10000 1.54 160 10:49 15.03.2021
6262 Clouds 27 1008 78 10000 1.54 80 10:30 15.03.2021
6263 Clouds 27 1007 83 10000 3.09 150 09:52 15.03.2021
6264 Clouds 27 1007 83 10000 3.09 150 09:33 15.03.2021
6265 Clouds 28 1007 74 10000 2.06 170 08:52 15.03.2021
6266 Clouds 28 1008 83 10000 5.14 190 08:30 15.03.2021
6267 Clouds 28 1008 83 10000 5.14 190 08:30 15.03.2021
6268 Clouds 28 1008 78 10000 5.66 200 07:51 15.03.2021
6269 Clouds 29 1008 65 10000 3.6 240 07:31 15.03.2021
6270 Clouds 31 1008 66 10000 4.63 310 06:39 15.03.2021
6271 Clouds 31 1009 70 10000 2.57 300 05:31 15.03.2021
6272 Clouds 29 1011 78 10000 1.54 230 01:31 15.03.2021
6273 Clouds 27 1010 83 10000 1.54 90 23:54 14.03.2021
6274 Clouds 25 1010 94 10000 1.54 100 23:19 14.03.2021
6275 Clouds 25 1010 100 10000 2.06 100 22:46 14.03.2021
6276 Clouds 25 1009 100 10000 0.51 80 22:19 14.03.2021
6277 Clouds 25 1009 100 10000 1.54 70 21:45 14.03.2021
6278 Clouds 25 1009 100 10000 0.8 286 21:19 14.03.2021
6279 Clouds 25 1008 94 10000 0.8 286 20:43 14.03.2021
6280 Clouds 25 1008 94 10000 1.37 287 20:25 14.03.2021
6281 Clouds 26 1008 89 10000 1.03 300 19:43 14.03.2021
6282 Clouds 25 1008 94 10000 1.88 303 19:23 14.03.2021
6283 Clouds 25 1009 94 10000 1.03 310 18:48 14.03.2021
6284 Clouds 25 1009 94 10000 1.03 280 18:27 14.03.2021
6285 Clouds 25 1009 94 10000 2.15 302 17:41 14.03.2021
6286 Clouds 26 1009 94 10000 2.36 306 17:22 14.03.2021
6287 Clouds 25 1009 94 10000 1.03 340 16:46 14.03.2021
6288 Clouds 25 1009 94 10000 1.03 340 16:46 14.03.2021
6289 Clouds 26 1010 94 10000 2.56 307 16:27 14.03.2021
6290 Clouds 26 1010 94 10000 1.03 360 15:53 14.03.2021
6291 Clouds 26 1010 94 10000 1.03 290 15:34 14.03.2021
6292 Clouds 26 1010 89 10000 2.11 307 14:41 14.03.2021
6293 Clouds 26 1010 89 10000 1.79 292 14:21 14.03.2021
6294 Clouds 26 1009 94 10000 1.03 290 13:49 14.03.2021
6295 Clouds 26 1009 94 10000 0.51 320 13:28 14.03.2021
6296 Clouds 26 1009 94 10000 0.51 290 12:47 14.03.2021
6297 Clear 26 1009 89 10000 1.67 303 12:28 14.03.2021
6298 Clouds 26 1008 83 10000 0.51 360 11:54 14.03.2021
6299 Clouds 27 1008 83 10000 1.67 303 11:35 14.03.2021
6300 Clouds 27 1008 74 10000 1.54 360 10:56 14.03.2021
6301 Clouds 28 1007 74 10000 1.54 350 10:37 14.03.2021
6302 Clouds 28 1007 74 10000 1.54 350 10:18 14.03.2021
6303 Clouds 29 1007 65 10000 1.54 260 09:43 14.03.2021
6304 Clouds 29 1008 70 10000 1.03 270 09:22 14.03.2021
6305 Clouds 30 1007 70 10000 3.09 290 08:48 14.03.2021
6306 Clouds 31 1007 66 10000 2.57 290 08:29 14.03.2021
6307 Clouds 31 1008 66 10000 3.09 290 07:46 14.03.2021
6308 Clouds 28 1007 78 10000 2.57 330 06:51 14.03.2021
6309 Clouds 28 1008 78 10000 2.57 350 05:32 14.03.2021
6310 Clouds 29 1010 84 10000 2.34 102 00:52 14.03.2021
6311 Clouds 28 1010 89 10000 0.51 110 00:19 14.03.2021
6312 Clouds 27 1010 89 10000 0.51 100 23:52 13.03.2021
6313 Clouds 26 1010 94 10000 1.03 50 23:30 13.03.2021
6314 Clouds 25 1009 94 10000 2.03 120 22:54 13.03.2021
6315 Clouds 25 1009 94 10000 1.03 140 22:32 13.03.2021
6316 Clouds 25 1009 100 10000 1.54 160 21:48 13.03.2021
6317 Clouds 25 1009 94 10000 0.51 130 21:26 13.03.2021
6318 Clouds 25 1008 100 10000 1.54 140 20:53 13.03.2021
6319 Clouds 25 1008 100 10000 0.8 140 20:31 13.03.2021
6320 Clouds 25 1008 100 10000 0.27 284 19:54 13.03.2021
6321 Clouds 25 1008 100 10000 0.51 260 19:31 13.03.2021
6322 Clouds 25 1008 94 10000 0.95 291 18:58 13.03.2021
6323 Clouds 25 1008 100 10000 0.95 291 18:39 13.03.2021
6324 Clouds 25 1008 100 10000 1.88 320 18:18 13.03.2021
6325 Clouds 25 1009 94 10000 1.88 320 17:42 13.03.2021
6326 Clouds 25 1009 94 10000 2 317 17:24 13.03.2021
6327 Clouds 26 1009 94 10000 1.03 360 16:44 13.03.2021
6328 Clouds 26 1010 94 10000 1.54 360 16:24 13.03.2021
6329 Clear 26 1010 94 10000 0.51 310 15:39 13.03.2021
6330 Clear 26 1010 83 10000 2.06 300 14:51 13.03.2021
6331 Clouds 26 1010 89 10000 2.57 290 14:29 13.03.2021
6332 Clouds 26 1011 89 10000 2.06 90 13:47 13.03.2021
6333 Clouds 26 1010 89 10000 2.06 150 13:24 13.03.2021
6334 Clouds 26 1010 94 10000 1.6 286 12:45 13.03.2021
6335 Clouds 26 1009 94 10000 2.14 274 12:27 13.03.2021
6336 Clouds 26 1010 89 10000 2.14 274 11:50 13.03.2021
6337 Clouds 26 1010 89 10000 1.54 100 11:29 13.03.2021
6338 Clouds 26 1009 94 10000 2.46 252 10:50 13.03.2021
6339 Clouds 26 1009 83 10000 2.64 252 10:29 13.03.2021
6340 Clouds 27 1009 83 10000 0.51 50 09:47 13.03.2021
6341 Clouds 26 1008 83 10000 1.54 250 09:19 13.03.2021
6342 Clouds 25 1009 83 10000 6.69 240 08:43 13.03.2021
6343 Clouds 25 1009 83 10000 6.69 240 08:19 13.03.2021
6344 Clouds 28 1009 83 8000 2.06 290 07:54 13.03.2021
6345 Clouds 29 1008 79 10000 4.63 310 06:51 13.03.2021
6346 Clouds 31 1012 74 10000 1.03 320 02:55 13.03.2021
6347 Clouds 28 1013 89 10000 2.06 140 00:57 13.03.2021
6348 Clouds 27 1012 94 10000 1.03 150 23:59 12.03.2021
6349 Clouds 26 1011 94 10000 1.03 120 23:32 12.03.2021
6350 Clouds 26 1011 94 10000 1.03 130 22:43 12.03.2021
6351 Clouds 25 1011 94 10000 0.51 120 22:23 12.03.2021
6352 Rain 26 1011 94 10000 0.72 48 21:45 12.03.2021
6353 Clouds 26 1010 94 10000 2.03 356 21:27 12.03.2021
6354 Clouds 25 1010 94 10000 2.03 356 20:56 12.03.2021
6355 Clouds 26 1010 94 10000 2.03 356 20:36 12.03.2021
6356 Clouds 26 1010 94 10000 0.51 340 19:59 12.03.2021
6357 Rain 26 1010 94 10000 0.51 330 19:40 12.03.2021
6358 Rain 26 1010 94 10000 0.51 330 19:40 12.03.2021
6359 Clouds 26 1010 94 10000 0.51 330 19:22 12.03.2021
6360 Clouds 26 1011 94 10000 2.34 356 18:36 12.03.2021
6361 Clouds 26 1011 89 10000 1.03 310 17:58 12.03.2021
6362 Clouds 26 1011 89 10000 1.03 280 17:38 12.03.2021
6363 Clouds 26 1011 89 10000 1.03 280 17:18 12.03.2021
6364 Clouds 26 1011 89 10000 1.03 290 16:40 12.03.2021
6365 Clouds 27 1012 89 10000 1.54 310 15:52 12.03.2021
6366 Clouds 27 1012 89 10000 1.54 320 15:32 12.03.2021
6367 Clouds 27 1012 83 10000 1.54 330 14:49 12.03.2021
6368 Clouds 27 1012 83 10000 1.54 350 14:21 12.03.2021
6369 Clouds 28 1011 78 10000 2.06 10 13:44 12.03.2021
6370 Clouds 28 1011 78 10000 2.06 10 13:24 12.03.2021
6371 Clouds 28 1011 78 10000 2.57 20 12:58 12.03.2021
6372 Clear 28 1010 74 10000 2.57 20 12:38 12.03.2021
6373 Clear 28 1010 74 10000 2.57 20 12:20 12.03.2021
6374 Clear 28 1010 70 10000 2.57 30 11:50 12.03.2021
6375 Clouds 29 1009 70 10000 2.57 10 11:22 12.03.2021
6376 Clouds 29 1009 70 10000 3.6 350 10:53 12.03.2021
6377 Clouds 30 1009 70 10000 4.63 10 10:25 12.03.2021
6378 Clouds 30 1009 70 10000 5.14 10 09:54 12.03.2021
6379 Rain 31 1009 58 10000 6.69 10 09:25 12.03.2021
6380 Clouds 32 1009 58 10000 5.66 20 08:45 12.03.2021
6381 Clouds 33 1009 52 10000 6.17 10 07:58 12.03.2021
6382 Clouds 33 1009 52 10000 5.14 40 07:33 12.03.2021
6383 Clouds 33 1010 49 10000 4.63 10 06:51 12.03.2021
6384 Clouds 33 1010 52 10000 5.14 40 06:28 12.03.2021
6385 Clouds 31 1013 62 10000 3.6 100 02:41 12.03.2021
6386 Clouds 28 1013 78 10000 2.57 110 00:42 12.03.2021
6387 Clouds 26 1012 89 10000 2.57 100 23:30 11.03.2021
6388 Clouds 25 1011 94 10000 3.09 110 22:50 11.03.2021
6389 Clouds 25 1011 94 10000 1.54 110 22:30 11.03.2021
6390 Clear 25 1011 89 10000 2.06 90 21:54 11.03.2021
6391 Clear 25 1010 89 10000 2.57 100 21:32 11.03.2021
6392 Clouds 26 1010 89 10000 2.57 100 20:55 11.03.2021
6393 Clouds 26 1010 89 10000 2.57 100 20:37 11.03.2021
6394 Clouds 26 1010 89 10000 2.57 100 20:19 11.03.2021
6395 Clouds 26 1010 89 10000 3.09 130 19:41 11.03.2021
6396 Clouds 26 1010 89 10000 3.09 130 19:22 11.03.2021
6397 Clouds 26 1011 89 10000 2.57 120 18:46 11.03.2021
6398 Clouds 26 1011 94 10000 2.57 130 18:28 11.03.2021
6399 Clouds 26 1011 89 10000 2.06 120 17:43 11.03.2021
6400 Clouds 26 1011 94 10000 1.54 110 16:53 11.03.2021
6401 Clouds 26 1011 94 10000 1.54 140 16:27 11.03.2021
6402 Clear 26 1011 89 10000 2.06 150 15:48 11.03.2021
6403 Clear 26 1012 89 10000 1.03 100 15:21 11.03.2021
6404 Clear 26 1012 89 10000 1.54 80 14:46 11.03.2021
6405 Clear 26 1011 89 10000 1.03 90 14:19 11.03.2021
6406 Clear 27 1011 89 10000 2.06 100 13:49 11.03.2021
6407 Clear 27 1011 83 10000 2.57 110 13:30 11.03.2021
6408 Clear 27 1010 83 10000 2.06 110 12:58 11.03.2021
6409 Clear 27 1010 83 10000 2.06 100 12:38 11.03.2021
6410 Clear 27 1010 83 10000 2.06 100 12:38 11.03.2021
6411 Clear 27 1010 83 10000 2.06 100 12:20 11.03.2021
6412 Clouds 28 1009 78 10000 2.06 70 11:43 11.03.2021
6413 Clouds 28 1009 78 10000 2.06 70 11:21 11.03.2021
6414 Clouds 28 1009 74 10000 3.09 60 10:42 11.03.2021
6415 Clouds 29 1009 74 10000 3.09 60 10:20 11.03.2021
6416 Clouds 29 1009 66 10000 4.12 60 09:41 11.03.2021
6417 Clouds 29 1009 66 10000 4.12 60 09:22 11.03.2021
6418 Clouds 29 1009 74 10000 1.54 210 08:47 11.03.2021
6419 Clouds 29 1009 79 10000 2.06 180 08:19 11.03.2021
6420 Clouds 28 1009 79 10000 1.03 360 07:29 11.03.2021
6421 Clouds 29 1010 70 10000 2.06 40 06:50 11.03.2021
6422 Clouds 30 1010 70 10000 2.06 40 06:30 11.03.2021
6423 Clouds 31 1012 66 10000 4.63 80 03:46 11.03.2021
6424 Clouds 29 1013 78 10000 3.09 80 01:18 11.03.2021
6425 Clouds 25 1011 94 10000 1.54 70 23:32 10.03.2021
6426 Clouds 25 1011 94 10000 2.06 90 22:59 10.03.2021
6427 Clouds 25 1011 94 10000 2.57 100 22:33 10.03.2021
6428 Clouds 25 1010 94 10000 2.06 110 21:47 10.03.2021
6429 Clouds 25 1010 89 10000 2.57 100 21:26 10.03.2021
6430 Clouds 25 1010 94 10000 1.54 120 20:51 10.03.2021
6431 Clouds 26 1010 94 10000 3.46 88 20:33 10.03.2021
6432 Clouds 25 1010 89 10000 1.03 350 19:54 10.03.2021
6433 Clouds 25 1010 89 10000 1.03 310 19:33 10.03.2021
6434 Clouds 25 1010 89 10000 2.06 110 18:56 10.03.2021
6435 Clouds 25 1010 89 10000 1.03 120 18:37 10.03.2021
6436 Clouds 25 1010 89 10000 1.03 120 18:18 10.03.2021
6437 Clouds 25 1010 89 10000 1.03 100 17:41 10.03.2021
6438 Clouds 25 1010 89 10000 1.03 100 17:19 10.03.2021
6439 Clouds 25 1011 89 10000 1.54 110 16:48 10.03.2021
6440 Clouds 25 1011 89 10000 1.54 100 16:25 10.03.2021
6441 Clouds 25 1011 89 10000 1.03 80 15:51 10.03.2021
6442 Clouds 26 1011 89 10000 4.02 35 15:25 10.03.2021
6443 Clouds 25 1011 89 10000 0.51 40 14:57 10.03.2021
6444 Clear 25 1011 89 10000 1.54 30 14:22 10.03.2021
6445 Clouds 25 1011 88 10000 2.06 30 13:58 10.03.2021
6446 Clouds 25 1011 88 10000 4.63 360 13:31 10.03.2021
6447 Clouds 26 1011 83 6000 3.6 60 12:48 10.03.2021
6448 Clouds 28 1010 83 10000 2.06 360 12:28 10.03.2021
6449 Clouds 28 1010 74 9000 5.14 360 11:53 10.03.2021
6450 Clouds 29 1009 70 10000 3.09 10 11:28 10.03.2021
6451 Clouds 29 1008 70 10000 4.12 20 10:51 10.03.2021
6452 Clouds 30 1008 66 10000 4.63 30 10:33 10.03.2021
6453 Clouds 30 1008 66 10000 6.17 50 09:56 10.03.2021
6454 Clouds 31 1007 62 10000 6.17 20 09:38 10.03.2021
6455 Clouds 31 1007 62 10000 6.17 20 09:18 10.03.2021
6456 Clouds 32 1007 58 10000 5.66 30 08:44 10.03.2021
6457 Clouds 32 1007 49 10000 3.6 30 08:26 10.03.2021
6458 Clouds 33 1007 49 10000 5.14 70 07:44 10.03.2021
6459 Clouds 33 1007 49 10000 5.14 70 07:24 10.03.2021
6460 Clouds 32 1008 58 10000 5.66 30 06:52 10.03.2021
6461 Clouds 30 1011 66 10000 3.6 60 02:44 10.03.2021
6462 Clouds 27 1010 78 10000 3.09 110 00:36 10.03.2021
6463 Clouds 25 1010 88 10000 2.57 110 23:33 09.03.2021
6464 Clouds 25 1009 88 10000 2.57 130 22:52 09.03.2021
6465 Clouds 25 1009 88 10000 1.54 120 22:34 09.03.2021
6466 Clouds 24 1009 88 10000 2.06 100 21:59 09.03.2021
6467 Clouds 25 1009 88 10000 1.54 110 21:38 09.03.2021
6468 Clouds 25 1009 88 10000 1.54 110 21:20 09.03.2021
6469 Clouds 24 1009 88 10000 0.51 110 20:55 09.03.2021
6470 Clouds 25 1009 88 10000 1.03 90 20:36 09.03.2021
6471 Clouds 25 1009 88 10000 1.03 90 20:18 09.03.2021
6472 Clouds 25 1008 88 10000 1.54 100 19:43 09.03.2021
6473 Clouds 25 1008 88 10000 1.54 100 19:24 09.03.2021
6474 Clouds 25 1009 88 10000 0.51 100 18:40 09.03.2021
6475 Clouds 25 1009 88 10000 0.51 100 18:18 09.03.2021
6476 Clouds 25 1009 83 10000 0.51 110 17:45 09.03.2021
6477 Clouds 26 1009 83 10000 2.06 140 17:24 09.03.2021
6478 Clouds 25 1010 83 10000 1.54 150 16:40 09.03.2021
6479 Clouds 26 1010 83 10000 1.54 150 16:21 09.03.2021
6480 Clouds 26 1010 83 10000 1.54 150 16:21 09.03.2021
6481 Clouds 26 1010 83 10000 1.03 150 15:56 09.03.2021
6482 Clear 26 1010 89 10000 1.54 100 15:25 09.03.2021
6483 Clear 26 1010 83 10000 1.03 150 14:49 09.03.2021
6484 Clouds 26 1010 83 10000 2.06 160 14:26 09.03.2021
6485 Clouds 27 1010 78 10000 1.54 180 13:42 09.03.2021
6486 Clouds 28 1010 78 10000 1.54 180 13:21 09.03.2021
6487 Clouds 27 1009 78 10000 1.03 170 12:54 09.03.2021
6488 Clear 27 1009 74 10000 0.51 170 12:35 09.03.2021
6489 Clouds 29 1008 70 10000 1.03 340 11:43 09.03.2021
6490 Clouds 29 1008 66 10000 2.06 360 11:22 09.03.2021
6491 Clouds 29 1007 58 10000 2.57 340 10:58 09.03.2021
6492 Clouds 30 1007 51 10000 2.57 350 10:39 09.03.2021
6493 Clouds 31 1007 51 10000 2.57 350 10:20 09.03.2021
6494 Clouds 32 1006 45 10000 3.6 350 09:46 09.03.2021
6495 Clouds 32 1006 45 10000 3.6 350 09:26 09.03.2021
6496 Clouds 32 1005 58 10000 4.63 340 08:49 09.03.2021
6497 Clouds 32 1005 58 10000 4.63 340 08:30 09.03.2021
6498 Clouds 32 1006 58 10000 4.63 340 07:46 09.03.2021
6499 Clouds 32 1006 58 10000 3.6 340 07:23 09.03.2021
6500 Clouds 32 1006 62 10000 4.12 330 06:44 09.03.2021
6501 Clouds 32 1007 62 10000 2.57 310 05:48 09.03.2021
6502 Clouds 29 1010 74 10000 1.54 150 01:31 09.03.2021
6503 Clouds 29 1010 74 10000 1.54 150 01:31 09.03.2021
6504 Clouds 29 1010 74 10000 1.54 150 01:31 09.03.2021
6505 Clouds 26 1009 83 10000 1.54 120 23:56 08.03.2021
6506 Clouds 25 1009 88 10000 2.06 130 23:37 08.03.2021
6507 Clouds 25 1009 88 10000 2.06 130 23:18 08.03.2021
6508 Clouds 25 1008 88 10000 2.06 120 22:40 08.03.2021
6509 Clouds 24 1008 88 10000 2.06 120 22:21 08.03.2021
6510 Clouds 24 1008 88 10000 1.54 130 21:45 08.03.2021
6511 Clouds 24 1007 88 10000 1.03 140 21:26 08.03.2021
6512 Clouds 24 1007 94 10000 1.03 150 20:40 08.03.2021
6513 Clouds 24 1007 94 10000 1.03 150 20:20 08.03.2021
6514 Clouds 24 1007 88 10000 1.03 150 19:40 08.03.2021
6515 Clouds 25 1008 89 10000 1.03 180 18:57 08.03.2021
6516 Clouds 25 1008 83 10000 1.03 210 18:37 08.03.2021
6517 Clouds 25 1008 83 10000 1.03 210 18:18 08.03.2021
6518 Clouds 25 1008 83 10000 1.54 230 17:43 08.03.2021
6519 Clouds 25 1008 83 10000 1.54 250 17:22 08.03.2021
6520 Clouds 25 1009 83 10000 1.54 240 16:41 08.03.2021
6521 Clouds 25 1009 83 10000 1.54 240 16:21 08.03.2021
6522 Clear 25 1009 83 10000 1.54 250 15:41 08.03.2021
6523 Clear 25 1009 83 10000 1.54 250 15:22 08.03.2021
6524 Clear 25 1009 83 10000 2.06 240 14:21 08.03.2021
6525 Clear 25 1009 83 10000 1.54 250 13:54 08.03.2021
6526 Clear 25 1009 83 10000 1.03 240 13:23 08.03.2021
6527 Clear 25 1008 83 10000 1.54 240 12:56 08.03.2021
6528 Clear 25 1007 83 10000 1.03 250 12:35 08.03.2021
6529 Clear 26 1006 83 10000 1.03 290 11:50 08.03.2021
6530 Clear 27 1006 74 10000 1.54 260 11:30 08.03.2021
6531 Clear 27 1006 74 10000 2.57 250 10:57 08.03.2021
6532 Clear 27 1006 74 10000 3.09 260 10:39 08.03.2021
6533 Clear 27 1006 74 10000 3.09 260 10:18 08.03.2021
6534 Clouds 28 1006 69 10000 3.6 280 09:27 08.03.2021
6535 Clouds 28 1006 69 10000 4.12 280 08:52 08.03.2021
6536 Clouds 28 1006 74 10000 5.66 300 08:25 08.03.2021
6537 Clouds 28 1006 74 10000 5.66 310 07:21 08.03.2021
6538 Clouds 27 1008 74 10000 3.6 300 05:42 08.03.2021
6539 Clouds 26 1009 83 10000 4.12 330 02:43 08.03.2021
6540 Clouds 28 1008 89 10000 2.06 110 00:42 08.03.2021
6541 Clouds 28 1008 89 10000 1.54 130 23:53 07.03.2021
6542 Clouds 28 1008 89 10000 1.03 170 23:22 07.03.2021
6543 Clouds 28 1008 83 10000 2.06 230 22:49 07.03.2021
6544 Clouds 28 1007 83 10000 2.06 260 22:28 07.03.2021
6545 Clouds 28 1007 83 10000 2.57 270 21:53 07.03.2021
6546 Clouds 28 1007 83 10000 2.06 260 21:34 07.03.2021
6547 Clouds 28 1006 83 10000 2.57 260 20:59 07.03.2021
6548 Clouds 28 1006 83 10000 3.6 270 20:41 07.03.2021
6549 Clouds 28 1006 83 10000 3.6 270 20:19 07.03.2021
6550 Clouds 26 1006 94 10000 0.51 160 19:41 07.03.2021
6551 Clouds 25 1006 94 10000 0.51 160 19:22 07.03.2021
6552 Clouds 25 1007 94 10000 1.03 80 18:56 07.03.2021
6553 Clouds 26 1007 89 10000 0.51 30 18:38 07.03.2021
6554 Clouds 26 1007 89 10000 0.51 30 18:18 07.03.2021
6555 Clouds 26 1007 89 10000 1.54 10 17:39 07.03.2021
6556 Clouds 26 1007 89 10000 1.54 10 17:19 07.03.2021
6557 Clouds 26 1008 89 10000 1.54 30 16:43 07.03.2021
6558 Clouds 26 1009 89 10000 2.57 100 16:21 07.03.2021
6559 Clear 26 1009 89 10000 1.54 100 15:52 07.03.2021
6560 Clear 26 1009 83 10000 1.54 60 15:32 07.03.2021
6561 Clear 26 1008 89 10000 2.06 20 14:56 07.03.2021
6562 Clear 26 1008 83 10000 0.51 340 14:29 07.03.2021
6563 Clouds 26 1008 78 10000 1.54 340 13:51 07.03.2021
6564 Clouds 26 1008 83 10000 1.54 80 13:30 07.03.2021
6565 Clouds 26 1007 83 10000 2.57 140 12:59 07.03.2021
6566 Clouds 26 1008 83 10000 1.03 70 12:40 07.03.2021
6567 Clouds 26 1008 83 10000 1.03 70 12:20 07.03.2021
6568 Clouds 27 1008 83 10000 7.2 130 11:24 07.03.2021
6569 Clouds 29 1007 74 10000 8.75 200 10:59 07.03.2021
6570 Clouds 30 1006 74 10000 4.63 270 10:38 07.03.2021
6571 Clouds 31 1006 70 10000 5.14 280 09:58 07.03.2021
6572 Clouds 31 1005 70 10000 6.69 290 09:39 07.03.2021
6573 Clouds 31 1005 70 10000 6.69 290 09:19 07.03.2021
6574 Clouds 31 1005 70 10000 7.72 300 08:45 07.03.2021
6575 Clouds 32 1005 70 10000 5.66 290 08:22 07.03.2021
6576 Clouds 32 1005 70 10000 5.14 280 07:22 07.03.2021
6577 Clouds 33 1009 66 10000 6.69 270 02:40 07.03.2021
6578 Clouds 30 1008 74 10000 5.66 270 00:35 07.03.2021
6579 Clouds 29 1008 79 10000 4.12 280 23:41 06.03.2021
6580 Clouds 29 1008 79 10000 4.12 280 23:20 06.03.2021
6581 Clouds 28 1007 83 10000 4.12 280 22:46 06.03.2021
6582 Clouds 28 1007 83 10000 4.12 270 22:24 06.03.2021
6583 Clouds 28 1007 79 10000 3.6 270 21:49 06.03.2021
6584 Clouds 28 1007 83 10000 5.14 280 21:21 06.03.2021
6585 Clouds 28 1007 83 10000 4.63 280 20:44 06.03.2021
6586 Clouds 28 1006 83 10000 5.14 280 20:21 06.03.2021
6587 Clouds 29 1007 79 10000 5.66 280 19:41 06.03.2021
6588 Clouds 28 1007 79 10000 5.66 280 19:18 06.03.2021
6589 Clouds 28 1007 83 10000 5.14 270 18:43 06.03.2021
6590 Clouds 28 1007 83 10000 5.14 280 18:23 06.03.2021
6591 Clouds 29 1008 79 10000 4.63 270 17:55 06.03.2021
6592 Clouds 29 1008 79 10000 6.69 280 17:33 06.03.2021
6593 Clouds 29 1008 79 10000 6.69 290 17:00 06.03.2021
6594 Clouds 29 1008 79 10000 6.17 290 16:37 06.03.2021
6595 Clouds 29 1008 79 10000 6.17 290 16:18 06.03.2021
6596 Clouds 29 1009 79 10000 5.14 280 15:41 06.03.2021
6597 Clouds 29 1009 79 10000 5.14 280 15:23 06.03.2021
6598 Clouds 29 1009 79 10000 4.12 270 14:33 06.03.2021
6599 Clouds 29 1009 79 10000 4.12 280 13:57 06.03.2021
6600 Clouds 29 1009 84 10000 4.12 280 13:39 06.03.2021
6601 Clouds 29 1009 84 10000 4.12 280 13:19 06.03.2021
6602 Clouds 29 1008 79 10000 4.63 290 12:44 06.03.2021
6603 Clouds 29 1008 84 10000 5.14 300 12:19 06.03.2021
6604 Clouds 29 1007 79 10000 5.14 300 11:48 06.03.2021
6605 Clouds 29 1007 74 10000 4.12 300 11:21 06.03.2021
6606 Clouds 30 1006 74 10000 4.63 290 10:48 06.03.2021
6607 Clouds 30 1006 74 10000 4.63 290 10:19 06.03.2021
6608 Clouds 31 1006 70 10000 6.17 290 09:42 06.03.2021
6609 Clouds 31 1006 70 10000 6.17 290 09:19 06.03.2021
6610 Clouds 32 1006 66 10000 7.72 300 08:39 06.03.2021
6611 Clouds 32 1007 66 10000 7.2 290 07:57 06.03.2021
6612 Clouds 33 1007 66 10000 7.2 300 07:24 06.03.2021
6613 Clouds 32 1007 66 10000 7.72 290 06:58 06.03.2021
6614 Clouds 31 1008 70 10000 7.72 300 05:34 06.03.2021
6615 Clouds 31 1008 70 10000 7.72 300 05:34 06.03.2021
6616 Clouds 31 1010 70 10000 6.17 270 02:38 06.03.2021
6617 Clouds 31 1009 74 10000 5.66 280 00:48 06.03.2021
6618 Clouds 29 1008 79 10000 5.66 280 23:53 05.03.2021
6619 Clouds 29 1008 79 10000 4.63 280 23:29 05.03.2021
6620 Clouds 28 1008 83 10000 4.63 280 22:48 05.03.2021
6621 Clouds 28 1008 83 10000 4.63 280 22:23 05.03.2021
6622 Clouds 28 1008 83 10000 4.63 270 21:54 05.03.2021
6623 Clouds 28 1007 83 10000 3.6 270 21:35 05.03.2021
6624 Clouds 28 1007 83 10000 5.14 290 20:58 05.03.2021
6625 Clouds 28 1007 83 10000 4.63 280 20:40 05.03.2021
6626 Clouds 28 1007 83 10000 4.63 280 20:21 05.03.2021
6627 Clear 28 1007 83 10000 3.6 270 19:36 05.03.2021
6628 Clear 28 1007 83 10000 3.6 270 19:18 05.03.2021
6629 Clear 28 1007 89 10000 3.6 270 18:42 05